<?xml version='1.0' encoding='UTF-8'?><gpx version="1.1" creator="JPX - https://github.com/jenetics/jpx" xmlns="http://www.topografix.com/GPX/1/1"><trk><trkseg><trkpt lat="38.0226562" lon="15.0136979"><ele>857.0</ele><time>2026-05-03T07:24:27.744Z</time></trkpt><trkpt lat="38.0225972" lon="15.0137681"><ele>857.0</ele><time>2026-05-03T07:24:29.744Z</time></trkpt><trkpt lat="38.0225026" lon="15.0138551"><ele>857.0</ele><time>2026-05-03T07:24:31.743Z</time></trkpt><trkpt lat="38.0223988" lon="15.0139102"><ele>857.0</ele><time>2026-05-03T07:24:33.743Z</time></trkpt><trkpt lat="38.0222843" lon="15.0139523"><ele>857.0</ele><time>2026-05-03T07:24:35.743Z</time></trkpt><trkpt lat="38.0222058" lon="15.0139652"><ele>856.8</ele><time>2026-05-03T07:24:36.743Z</time></trkpt><trkpt lat="38.0221214" lon="15.0139883"><ele>856.6</ele><time>2026-05-03T07:24:37.743Z</time></trkpt><trkpt lat="38.0220412" lon="15.0140295"><ele>856.3999999999999</ele><time>2026-05-03T07:24:38.743Z</time></trkpt><trkpt lat="38.0219632" lon="15.0141191"><ele>856.1999999999999</ele><time>2026-05-03T07:24:39.743Z</time></trkpt><trkpt lat="38.021858" lon="15.0141879"><ele>856.0</ele><time>2026-05-03T07:24:40.743Z</time></trkpt><trkpt lat="38.0217734" lon="15.0142481"><ele>856.0</ele><time>2026-05-03T07:24:41.743Z</time></trkpt><trkpt lat="38.0217028" lon="15.0142911"><ele>855.9999999999999</ele><time>2026-05-03T07:24:42.743Z</time></trkpt><trkpt lat="38.0216419" lon="15.014313"><ele>855.9999999999999</ele><time>2026-05-03T07:24:43.743Z</time></trkpt><trkpt lat="38.0215264" lon="15.0143396"><ele>856.0</ele><time>2026-05-03T07:24:45.743Z</time></trkpt><trkpt lat="38.0213968" lon="15.0143629"><ele>856.0</ele><time>2026-05-03T07:24:47.743Z</time></trkpt><trkpt lat="38.0213233" lon="15.0143761"><ele>854.8571428571429</ele><time>2026-05-03T07:24:48.743Z</time></trkpt><trkpt lat="38.0212474" lon="15.0143867"><ele>853.7142857142858</ele><time>2026-05-03T07:24:49.743Z</time></trkpt><trkpt lat="38.0211765" lon="15.014395"><ele>852.5714285714287</ele><time>2026-05-03T07:24:50.743Z</time></trkpt><trkpt lat="38.0211064" lon="15.0144062"><ele>851.4285714285714</ele><time>2026-05-03T07:24:51.743Z</time></trkpt><trkpt lat="38.0210433" lon="15.0144129"><ele>850.2857142857142</ele><time>2026-05-03T07:24:52.743Z</time></trkpt><trkpt lat="38.0209787" lon="15.0144148"><ele>849.1428571428572</ele><time>2026-05-03T07:24:53.743Z</time></trkpt><trkpt lat="38.020908" lon="15.0144223"><ele>848.0</ele><time>2026-05-03T07:24:54.744Z</time></trkpt><trkpt lat="38.0208312" lon="15.0144376"><ele>849.0</ele><time>2026-05-03T07:24:55.743Z</time></trkpt><trkpt lat="38.0207467" lon="15.014455"><ele>850.0</ele><time>2026-05-03T07:24:56.743Z</time></trkpt><trkpt lat="38.0206578" lon="15.0144727"><ele>851.0</ele><time>2026-05-03T07:24:57.744Z</time></trkpt><trkpt lat="38.0205659" lon="15.0144683"><ele>852.0</ele><time>2026-05-03T07:24:58.744Z</time></trkpt><trkpt lat="38.0204798" lon="15.0144226"><ele>853.0</ele><time>2026-05-03T07:24:59.743Z</time></trkpt><trkpt lat="38.0203868" lon="15.0143839"><ele>853.0</ele><time>2026-05-03T07:25:00.744Z</time></trkpt><trkpt lat="38.0202699" lon="15.0143676"><ele>853.0</ele><time>2026-05-03T07:25:01.743Z</time></trkpt><trkpt lat="38.0201581" lon="15.0143479"><ele>853.0</ele><time>2026-05-03T07:25:02.743Z</time></trkpt><trkpt lat="38.0200573" lon="15.0143217"><ele>853.0</ele><time>2026-05-03T07:25:03.744Z</time></trkpt><trkpt lat="38.0199625" lon="15.0142915"><ele>853.0</ele><time>2026-05-03T07:25:04.743Z</time></trkpt><trkpt lat="38.0198799" lon="15.0142555"><ele>853.4999999999999</ele><time>2026-05-03T07:25:05.743Z</time></trkpt><trkpt lat="38.019794" lon="15.0142328"><ele>854.0</ele><time>2026-05-03T07:25:06.743Z</time></trkpt><trkpt lat="38.0197094" lon="15.0142252"><ele>854.5</ele><time>2026-05-03T07:25:07.743Z</time></trkpt><trkpt lat="38.019627" lon="15.0142251"><ele>855.0</ele><time>2026-05-03T07:25:08.743Z</time></trkpt><trkpt lat="38.0195491" lon="15.0142365"><ele>855.4999999999999</ele><time>2026-05-03T07:25:09.743Z</time></trkpt><trkpt lat="38.0194766" lon="15.0142603"><ele>856.0</ele><time>2026-05-03T07:25:10.743Z</time></trkpt><trkpt lat="38.0194146" lon="15.0142979"><ele>855.9999999999999</ele><time>2026-05-03T07:25:11.743Z</time></trkpt><trkpt lat="38.0193529" lon="15.014336"><ele>856.0</ele><time>2026-05-03T07:25:12.743Z</time></trkpt><trkpt lat="38.0192962" lon="15.0143816"><ele>856.0</ele><time>2026-05-03T07:25:13.743Z</time></trkpt><trkpt lat="38.01924" lon="15.0144213"><ele>856.0</ele><time>2026-05-03T07:25:14.744Z</time></trkpt><trkpt lat="38.0191263" lon="15.0144591"><ele>855.9999999999999</ele><time>2026-05-03T07:25:16.744Z</time></trkpt><trkpt lat="38.0190329" lon="15.0144265"><ele>856.0</ele><time>2026-05-03T07:25:18.743Z</time></trkpt><trkpt lat="38.0189795" lon="15.0143437"><ele>857.1999999999999</ele><time>2026-05-03T07:25:20.743Z</time></trkpt><trkpt lat="38.0189135" lon="15.0142604"><ele>858.3999999999999</ele><time>2026-05-03T07:25:22.743Z</time></trkpt><trkpt lat="38.0188191" lon="15.014188"><ele>859.6</ele><time>2026-05-03T07:25:24.743Z</time></trkpt><trkpt lat="38.0187411" lon="15.0140819"><ele>860.8</ele><time>2026-05-03T07:25:26.744Z</time></trkpt><trkpt lat="38.0186578" lon="15.0139649"><ele>862.0</ele><time>2026-05-03T07:25:28.743Z</time></trkpt><trkpt lat="38.0186153" lon="15.0139047"><ele>861.9999999999999</ele><time>2026-05-03T07:25:29.743Z</time></trkpt><trkpt lat="38.0185774" lon="15.013839"><ele>862.0</ele><time>2026-05-03T07:25:30.743Z</time></trkpt><trkpt lat="38.0185345" lon="15.0137781"><ele>862.0</ele><time>2026-05-03T07:25:31.743Z</time></trkpt><trkpt lat="38.0184949" lon="15.0137134"><ele>862.0</ele><time>2026-05-03T07:25:32.743Z</time></trkpt><trkpt lat="38.0184225" lon="15.013588"><ele>861.9999999999999</ele><time>2026-05-03T07:25:34.743Z</time></trkpt><trkpt lat="38.0183501" lon="15.0134905"><ele>862.0</ele><time>2026-05-03T07:25:36.743Z</time></trkpt><trkpt lat="38.0182617" lon="15.0134504"><ele>862.6</ele><time>2026-05-03T07:25:38.743Z</time></trkpt><trkpt lat="38.0181611" lon="15.0134415"><ele>863.2</ele><time>2026-05-03T07:25:40.743Z</time></trkpt><trkpt lat="38.0180423" lon="15.0134213"><ele>863.8</ele><time>2026-05-03T07:25:42.744Z</time></trkpt><trkpt lat="38.0179256" lon="15.0134152"><ele>864.4</ele><time>2026-05-03T07:25:44.743Z</time></trkpt><trkpt lat="38.017819" lon="15.0134234"><ele>865.0</ele><time>2026-05-03T07:25:46.743Z</time></trkpt><trkpt lat="38.0177474" lon="15.0134292"><ele>864.9999999999999</ele><time>2026-05-03T07:25:48.744Z</time></trkpt><trkpt lat="38.0176487" lon="15.0134396"><ele>865.0</ele><time>2026-05-03T07:26:08.743Z</time></trkpt><trkpt lat="38.0175712" lon="15.0134534"><ele>865.0</ele><time>2026-05-03T07:26:10.743Z</time></trkpt><trkpt lat="38.0174997" lon="15.0134716"><ele>865.0</ele><time>2026-05-03T07:26:21.743Z</time></trkpt><trkpt lat="38.0174187" lon="15.0134892"><ele>864.9999999999999</ele><time>2026-05-03T07:26:24.743Z</time></trkpt><trkpt lat="38.0173531" lon="15.0134986"><ele>865.0</ele><time>2026-05-03T07:26:26.743Z</time></trkpt><trkpt lat="38.0172805" lon="15.0135078"><ele>863.5714285714286</ele><time>2026-05-03T07:26:30.743Z</time></trkpt><trkpt lat="38.0172091" lon="15.0135287"><ele>862.1428571428571</ele><time>2026-05-03T07:26:43.743Z</time></trkpt><trkpt lat="38.0171364" lon="15.0135379"><ele>860.7142857142858</ele><time>2026-05-03T07:26:45.744Z</time></trkpt><trkpt lat="38.0170741" lon="15.0135495"><ele>859.2857142857142</ele><time>2026-05-03T07:26:47.743Z</time></trkpt><trkpt lat="38.0169995" lon="15.0135633"><ele>857.8571428571428</ele><time>2026-05-03T07:26:50.744Z</time></trkpt><trkpt lat="38.0169323" lon="15.0135713"><ele>856.4285714285714</ele><time>2026-05-03T07:26:56.743Z</time></trkpt><trkpt lat="38.0168652" lon="15.0135798"><ele>855.0</ele><time>2026-05-03T07:27:00.744Z</time></trkpt><trkpt lat="38.016784" lon="15.0135708"><ele>855.0</ele><time>2026-05-03T07:28:15.743Z</time></trkpt><trkpt lat="38.0167087" lon="15.0135846"><ele>855.0</ele><time>2026-05-03T07:28:18.743Z</time></trkpt><trkpt lat="38.0166438" lon="15.0136093"><ele>855.0</ele><time>2026-05-03T07:28:23.743Z</time></trkpt><trkpt lat="38.0165773" lon="15.0136213"><ele>855.0</ele><time>2026-05-03T07:28:26.743Z</time></trkpt><trkpt lat="38.016507" lon="15.0136351"><ele>855.0</ele><time>2026-05-03T07:28:36.743Z</time></trkpt><trkpt lat="38.0164426" lon="15.0136478"><ele>855.0</ele><time>2026-05-03T07:28:39.744Z</time></trkpt><trkpt lat="38.016361" lon="15.0136712"><ele>855.0</ele><time>2026-05-03T07:28:52.743Z</time></trkpt><trkpt lat="38.0162852" lon="15.0137073"><ele>852.8571428571429</ele><time>2026-05-03T07:28:55.743Z</time></trkpt><trkpt lat="38.0162201" lon="15.0137467"><ele>850.7142857142857</ele><time>2026-05-03T07:29:08.743Z</time></trkpt><trkpt lat="38.0161611" lon="15.0137749"><ele>848.5714285714286</ele><time>2026-05-03T07:29:17.744Z</time></trkpt><trkpt lat="38.0160924" lon="15.0138142"><ele>846.4285714285714</ele><time>2026-05-03T07:29:21.743Z</time></trkpt><trkpt lat="38.016034" lon="15.0138497"><ele>844.2857142857142</ele><time>2026-05-03T07:29:25.743Z</time></trkpt><trkpt lat="38.0159697" lon="15.0138883"><ele>842.1428571428571</ele><time>2026-05-03T07:29:29.743Z</time></trkpt><trkpt lat="38.015909" lon="15.0139349"><ele>840.0</ele><time>2026-05-03T07:29:33.743Z</time></trkpt><trkpt lat="38.015855" lon="15.0139848"><ele>841.0</ele><time>2026-05-03T07:29:37.743Z</time></trkpt><trkpt lat="38.015801" lon="15.0140362"><ele>842.0</ele><time>2026-05-03T07:29:42.743Z</time></trkpt><trkpt lat="38.0157456" lon="15.0140905"><ele>843.0</ele><time>2026-05-03T07:29:47.743Z</time></trkpt><trkpt lat="38.0156877" lon="15.0141333"><ele>844.0</ele><time>2026-05-03T07:29:52.743Z</time></trkpt><trkpt lat="38.0156275" lon="15.0141627"><ele>845.0</ele><time>2026-05-03T07:30:09.744Z</time></trkpt><trkpt lat="38.0155601" lon="15.0141912"><ele>846.0</ele><time>2026-05-03T07:30:15.743Z</time></trkpt><trkpt lat="38.0154831" lon="15.014229"><ele>847.0</ele><time>2026-05-03T07:32:02.742Z</time></trkpt><trkpt lat="38.0154192" lon="15.0142717"><ele>847.0</ele><time>2026-05-03T07:32:04.743Z</time></trkpt><trkpt lat="38.0153601" lon="15.014314"><ele>847.0</ele><time>2026-05-03T07:32:07.744Z</time></trkpt><trkpt lat="38.0152927" lon="15.0143547"><ele>847.0</ele><time>2026-05-03T07:32:10.743Z</time></trkpt><trkpt lat="38.0152313" lon="15.0143936"><ele>847.0</ele><time>2026-05-03T07:32:13.743Z</time></trkpt><trkpt lat="38.0151682" lon="15.0144354"><ele>847.0</ele><time>2026-05-03T07:32:18.743Z</time></trkpt><trkpt lat="38.0150987" lon="15.0144823"><ele>847.0</ele><time>2026-05-03T07:33:13.744Z</time></trkpt><trkpt lat="38.0150292" lon="15.014511"><ele>847.0</ele><time>2026-05-03T07:33:19.743Z</time></trkpt><trkpt lat="38.014961" lon="15.0145324"><ele>845.1666666666666</ele><time>2026-05-03T07:33:24.743Z</time></trkpt><trkpt lat="38.0148971" lon="15.0145551"><ele>843.3333333333333</ele><time>2026-05-03T07:33:27.744Z</time></trkpt><trkpt lat="38.0148287" lon="15.0145781"><ele>841.5</ele><time>2026-05-03T07:33:30.744Z</time></trkpt><trkpt lat="38.0147596" lon="15.0146033"><ele>839.6666666666667</ele><time>2026-05-03T07:33:33.744Z</time></trkpt><trkpt lat="38.0146763" lon="15.0146257"><ele>837.8333333333334</ele><time>2026-05-03T07:33:36.743Z</time></trkpt><trkpt lat="38.0145958" lon="15.0146556"><ele>836.0</ele><time>2026-05-03T07:33:39.743Z</time></trkpt><trkpt lat="38.0145211" lon="15.0146832"><ele>836.0</ele><time>2026-05-03T07:33:41.743Z</time></trkpt><trkpt lat="38.0144348" lon="15.0147249"><ele>836.0</ele><time>2026-05-03T07:33:44.743Z</time></trkpt><trkpt lat="38.0143547" lon="15.0147534"><ele>836.0</ele><time>2026-05-03T07:33:46.743Z</time></trkpt><trkpt lat="38.0142341" lon="15.0147123"><ele>836.0</ele><time>2026-05-03T07:33:48.743Z</time></trkpt><trkpt lat="38.0141581" lon="15.0146663"><ele>836.0</ele><time>2026-05-03T07:33:49.743Z</time></trkpt><trkpt lat="38.0140957" lon="15.0146285"><ele>836.1666666666667</ele><time>2026-05-03T07:33:50.743Z</time></trkpt><trkpt lat="38.0140333" lon="15.0145925"><ele>836.3333333333334</ele><time>2026-05-03T07:33:51.744Z</time></trkpt><trkpt lat="38.0139709" lon="15.0145437"><ele>836.5</ele><time>2026-05-03T07:33:52.743Z</time></trkpt><trkpt lat="38.0139032" lon="15.014504"><ele>836.6666666666667</ele><time>2026-05-03T07:33:53.744Z</time></trkpt><trkpt lat="38.0138399" lon="15.0144877"><ele>836.8333333333334</ele><time>2026-05-03T07:33:54.743Z</time></trkpt><trkpt lat="38.0137234" lon="15.0144499"><ele>837.0</ele><time>2026-05-03T07:33:56.744Z</time></trkpt><trkpt lat="38.0136565" lon="15.0144305"><ele>837.0</ele><time>2026-05-03T07:33:57.743Z</time></trkpt><trkpt lat="38.0135862" lon="15.0143991"><ele>837.0</ele><time>2026-05-03T07:33:58.743Z</time></trkpt><trkpt lat="38.0135115" lon="15.0143664"><ele>837.0</ele><time>2026-05-03T07:33:59.743Z</time></trkpt><trkpt lat="38.013438" lon="15.0143359"><ele>837.0</ele><time>2026-05-03T07:34:00.743Z</time></trkpt><trkpt lat="38.0133732" lon="15.0143052"><ele>837.0</ele><time>2026-05-03T07:34:01.743Z</time></trkpt><trkpt lat="38.0132685" lon="15.0142643"><ele>837.0</ele><time>2026-05-03T07:34:03.743Z</time></trkpt><trkpt lat="38.0132013" lon="15.0142329"><ele>834.5</ele><time>2026-05-03T07:34:05.743Z</time></trkpt><trkpt lat="38.0131393" lon="15.0142059"><ele>832.0</ele><time>2026-05-03T07:34:08.743Z</time></trkpt><trkpt lat="38.0130553" lon="15.0141634"><ele>829.5</ele><time>2026-05-03T07:34:10.744Z</time></trkpt><trkpt lat="38.0129208" lon="15.0141534"><ele>827.0</ele><time>2026-05-03T07:34:12.743Z</time></trkpt><trkpt lat="38.0128656" lon="15.0142013"><ele>824.5</ele><time>2026-05-03T07:34:13.743Z</time></trkpt><trkpt lat="38.0128209" lon="15.0142667"><ele>822.0</ele><time>2026-05-03T07:34:14.743Z</time></trkpt><trkpt lat="38.0127688" lon="15.0143333"><ele>822.0</ele><time>2026-05-03T07:34:15.743Z</time></trkpt><trkpt lat="38.0127134" lon="15.0144"><ele>822.0</ele><time>2026-05-03T07:34:16.743Z</time></trkpt><trkpt lat="38.0126689" lon="15.0144621"><ele>822.0</ele><time>2026-05-03T07:34:17.743Z</time></trkpt><trkpt lat="38.0126209" lon="15.0145143"><ele>822.0</ele><time>2026-05-03T07:34:18.744Z</time></trkpt><trkpt lat="38.0125718" lon="15.0145736"><ele>822.0</ele><time>2026-05-03T07:34:19.743Z</time></trkpt><trkpt lat="38.0125199" lon="15.0146369"><ele>822.0</ele><time>2026-05-03T07:34:20.744Z</time></trkpt><trkpt lat="38.0124631" lon="15.0147025"><ele>822.0</ele><time>2026-05-03T07:34:21.743Z</time></trkpt><trkpt lat="38.0124088" lon="15.0147635"><ele>818.4000000000001</ele><time>2026-05-03T07:34:22.743Z</time></trkpt><trkpt lat="38.0123415" lon="15.0147984"><ele>814.8000000000001</ele><time>2026-05-03T07:34:23.743Z</time></trkpt><trkpt lat="38.0122575" lon="15.0148193"><ele>811.2</ele><time>2026-05-03T07:34:24.743Z</time></trkpt><trkpt lat="38.0121609" lon="15.0148571"><ele>807.6</ele><time>2026-05-03T07:34:25.743Z</time></trkpt><trkpt lat="38.0120491" lon="15.0149118"><ele>804.0</ele><time>2026-05-03T07:34:26.743Z</time></trkpt><trkpt lat="38.0119326" lon="15.0149829"><ele>805.25</ele><time>2026-05-03T07:34:27.743Z</time></trkpt><trkpt lat="38.0118064" lon="15.0150519"><ele>806.5</ele><time>2026-05-03T07:34:28.743Z</time></trkpt><trkpt lat="38.0116967" lon="15.0151409"><ele>807.75</ele><time>2026-05-03T07:34:29.743Z</time></trkpt><trkpt lat="38.0115927" lon="15.0152225"><ele>809.0</ele><time>2026-05-03T07:34:30.743Z</time></trkpt><trkpt lat="38.0114711" lon="15.0152771"><ele>809.0</ele><time>2026-05-03T07:34:31.743Z</time></trkpt><trkpt lat="38.0113538" lon="15.015317"><ele>809.0</ele><time>2026-05-03T07:34:32.743Z</time></trkpt><trkpt lat="38.0112557" lon="15.0153532"><ele>809.0</ele><time>2026-05-03T07:34:33.743Z</time></trkpt><trkpt lat="38.0111688" lon="15.0154111"><ele>809.0</ele><time>2026-05-03T07:34:34.744Z</time></trkpt><trkpt lat="38.0110852" lon="15.0154965"><ele>809.0</ele><time>2026-05-03T07:34:35.743Z</time></trkpt><trkpt lat="38.0109997" lon="15.0155828"><ele>809.0</ele><time>2026-05-03T07:34:36.744Z</time></trkpt><trkpt lat="38.0109173" lon="15.0156632"><ele>809.0</ele><time>2026-05-03T07:34:37.743Z</time></trkpt><trkpt lat="38.010842" lon="15.0157418"><ele>809.0</ele><time>2026-05-03T07:34:38.743Z</time></trkpt><trkpt lat="38.0107738" lon="15.0158063"><ele>809.0</ele><time>2026-05-03T07:34:39.743Z</time></trkpt><trkpt lat="38.0107256" lon="15.0158746"><ele>809.0</ele><time>2026-05-03T07:34:40.743Z</time></trkpt><trkpt lat="38.0106835" lon="15.0160029"><ele>808.0000000000001</ele><time>2026-05-03T07:34:42.743Z</time></trkpt><trkpt lat="38.010662" lon="15.0161324"><ele>807.0</ele><time>2026-05-03T07:34:44.743Z</time></trkpt><trkpt lat="38.0106464" lon="15.0162759"><ele>806.0</ele><time>2026-05-03T07:34:46.743Z</time></trkpt><trkpt lat="38.0106303" lon="15.0163583"><ele>805.0</ele><time>2026-05-03T07:34:48.743Z</time></trkpt><trkpt lat="38.0106119" lon="15.0164597"><ele>804.0000000000001</ele><time>2026-05-03T07:34:51.743Z</time></trkpt><trkpt lat="38.0105954" lon="15.0165493"><ele>803.0</ele><time>2026-05-03T07:34:53.743Z</time></trkpt><trkpt lat="38.0105623" lon="15.0166607"><ele>806.0000000000001</ele><time>2026-05-03T07:34:55.743Z</time></trkpt><trkpt lat="38.0105214" lon="15.0167609"><ele>809.0</ele><time>2026-05-03T07:34:57.743Z</time></trkpt><trkpt lat="38.0104697" lon="15.0168648"><ele>812.0</ele><time>2026-05-03T07:34:59.743Z</time></trkpt><trkpt lat="38.0104152" lon="15.0169569"><ele>815.0</ele><time>2026-05-03T07:35:01.744Z</time></trkpt><trkpt lat="38.0103925" lon="15.0170381"><ele>818.0000000000001</ele><time>2026-05-03T07:35:03.743Z</time></trkpt><trkpt lat="38.0103731" lon="15.0171212"><ele>821.0</ele><time>2026-05-03T07:35:06.743Z</time></trkpt><trkpt lat="38.0103423" lon="15.0171914"><ele>821.0</ele><time>2026-05-03T07:35:09.743Z</time></trkpt><trkpt lat="38.0102938" lon="15.0172453"><ele>821.0</ele><time>2026-05-03T07:35:11.743Z</time></trkpt><trkpt lat="38.0102065" lon="15.0172744"><ele>821.0</ele><time>2026-05-03T07:35:13.743Z</time></trkpt><trkpt lat="38.010101" lon="15.017255"><ele>821.0</ele><time>2026-05-03T07:35:15.743Z</time></trkpt><trkpt lat="38.0100461" lon="15.0171143"><ele>821.0</ele><time>2026-05-03T07:35:17.744Z</time></trkpt><trkpt lat="38.0100221" lon="15.0170003"><ele>821.0</ele><time>2026-05-03T07:35:19.743Z</time></trkpt><trkpt lat="38.0100008" lon="15.0168805"><ele>821.0</ele><time>2026-05-03T07:35:21.743Z</time></trkpt><trkpt lat="38.0099849" lon="15.016761"><ele>821.0</ele><time>2026-05-03T07:35:23.743Z</time></trkpt><trkpt lat="38.0099712" lon="15.0166301"><ele>821.0</ele><time>2026-05-03T07:35:25.744Z</time></trkpt><trkpt lat="38.0099098" lon="15.0165275"><ele>821.0</ele><time>2026-05-03T07:35:27.743Z</time></trkpt><trkpt lat="38.0098501" lon="15.0164962"><ele>821.4285714285714</ele><time>2026-05-03T07:35:28.743Z</time></trkpt><trkpt lat="38.0097924" lon="15.0164549"><ele>821.8571428571429</ele><time>2026-05-03T07:35:29.743Z</time></trkpt><trkpt lat="38.00973" lon="15.0163934"><ele>822.2857142857142</ele><time>2026-05-03T07:35:30.743Z</time></trkpt><trkpt lat="38.0096696" lon="15.0163294"><ele>822.7142857142858</ele><time>2026-05-03T07:35:31.743Z</time></trkpt><trkpt lat="38.0096197" lon="15.0162786"><ele>823.1428571428571</ele><time>2026-05-03T07:35:32.743Z</time></trkpt><trkpt lat="38.0095757" lon="15.0162207"><ele>823.5714285714286</ele><time>2026-05-03T07:35:33.743Z</time></trkpt><trkpt lat="38.009536" lon="15.0161528"><ele>824.0</ele><time>2026-05-03T07:35:34.743Z</time></trkpt><trkpt lat="38.0094573" lon="15.0160558"><ele>824.0</ele><time>2026-05-03T07:35:36.743Z</time></trkpt><trkpt lat="38.0093724" lon="15.0160567"><ele>824.0</ele><time>2026-05-03T07:35:38.743Z</time></trkpt><trkpt lat="38.0092522" lon="15.0160499"><ele>824.0</ele><time>2026-05-03T07:35:40.743Z</time></trkpt><trkpt lat="38.0091836" lon="15.0160458"><ele>824.0</ele><time>2026-05-03T07:35:41.743Z</time></trkpt><trkpt lat="38.0090614" lon="15.0160585"><ele>824.0</ele><time>2026-05-03T07:35:43.743Z</time></trkpt><trkpt lat="38.0089887" lon="15.0161245"><ele>824.0</ele><time>2026-05-03T07:35:45.743Z</time></trkpt><trkpt lat="38.0089229" lon="15.0162119"><ele>824.0</ele><time>2026-05-03T07:35:47.743Z</time></trkpt><trkpt lat="38.0088401" lon="15.0162785"><ele>824.0</ele><time>2026-05-03T07:35:49.743Z</time></trkpt><trkpt lat="38.0087531" lon="15.016274"><ele>824.0</ele><time>2026-05-03T07:35:51.743Z</time></trkpt><trkpt lat="38.00869" lon="15.0161734"><ele>824.0</ele><time>2026-05-03T07:35:53.743Z</time></trkpt><trkpt lat="38.0086437" lon="15.0160327"><ele>824.0</ele><time>2026-05-03T07:35:55.743Z</time></trkpt><trkpt lat="38.0085908" lon="15.0159798"><ele>824.0</ele><time>2026-05-03T07:35:56.742Z</time></trkpt><trkpt lat="38.0084784" lon="15.0159284"><ele>824.0</ele><time>2026-05-03T07:35:58.743Z</time></trkpt><trkpt lat="38.0083632" lon="15.0159142"><ele>824.0</ele><time>2026-05-03T07:36:00.743Z</time></trkpt><trkpt lat="38.0082595" lon="15.0159297"><ele>824.0</ele><time>2026-05-03T07:36:02.744Z</time></trkpt><trkpt lat="38.0081671" lon="15.0159633"><ele>823.5000000000001</ele><time>2026-05-03T07:36:04.743Z</time></trkpt><trkpt lat="38.0080679" lon="15.0160109"><ele>823.0</ele><time>2026-05-03T07:36:06.743Z</time></trkpt><trkpt lat="38.0080092" lon="15.0160445"><ele>822.5</ele><time>2026-05-03T07:36:07.743Z</time></trkpt><trkpt lat="38.0079497" lon="15.0160905"><ele>822.0</ele><time>2026-05-03T07:36:08.743Z</time></trkpt><trkpt lat="38.0078844" lon="15.016129"><ele>821.5000000000001</ele><time>2026-05-03T07:36:09.743Z</time></trkpt><trkpt lat="38.0078195" lon="15.0161674"><ele>821.0</ele><time>2026-05-03T07:36:10.743Z</time></trkpt><trkpt lat="38.0077586" lon="15.0162076"><ele>821.0000000000001</ele><time>2026-05-03T07:36:12.743Z</time></trkpt><trkpt lat="38.0076781" lon="15.0162553"><ele>821.0</ele><time>2026-05-03T07:36:14.743Z</time></trkpt><trkpt lat="38.0076052" lon="15.016222"><ele>821.0</ele><time>2026-05-03T07:36:16.743Z</time></trkpt><trkpt lat="38.0075584" lon="15.0161214"><ele>821.0</ele><time>2026-05-03T07:36:18.743Z</time></trkpt><trkpt lat="38.0074801" lon="15.0160697"><ele>821.0000000000001</ele><time>2026-05-03T07:36:20.743Z</time></trkpt><trkpt lat="38.0073922" lon="15.0161122"><ele>821.0</ele><time>2026-05-03T07:36:22.743Z</time></trkpt><trkpt lat="38.0073451" lon="15.0161694"><ele>822.4285714285714</ele><time>2026-05-03T07:36:23.743Z</time></trkpt><trkpt lat="38.0073021" lon="15.01624"><ele>823.8571428571429</ele><time>2026-05-03T07:36:24.743Z</time></trkpt><trkpt lat="38.0072568" lon="15.0163026"><ele>825.2857142857142</ele><time>2026-05-03T07:36:25.743Z</time></trkpt><trkpt lat="38.0071955" lon="15.0163508"><ele>826.7142857142858</ele><time>2026-05-03T07:36:27.743Z</time></trkpt><trkpt lat="38.0071269" lon="15.0163579"><ele>828.1428571428571</ele><time>2026-05-03T07:36:29.743Z</time></trkpt><trkpt lat="38.0070304" lon="15.0163347"><ele>829.5714285714286</ele><time>2026-05-03T07:36:31.743Z</time></trkpt><trkpt lat="38.0069646" lon="15.0163019"><ele>831.0</ele><time>2026-05-03T07:36:32.743Z</time></trkpt><trkpt lat="38.0068819" lon="15.0162291"><ele>831.0</ele><time>2026-05-03T07:36:34.744Z</time></trkpt><trkpt lat="38.0068293" lon="15.0161577"><ele>831.0</ele><time>2026-05-03T07:36:36.743Z</time></trkpt><trkpt lat="38.0067901" lon="15.0160587"><ele>831.0</ele><time>2026-05-03T07:36:39.744Z</time></trkpt><trkpt lat="38.0067426" lon="15.0159713"><ele>831.0</ele><time>2026-05-03T07:36:41.744Z</time></trkpt><trkpt lat="38.006647" lon="15.015908"><ele>831.0</ele><time>2026-05-03T07:36:43.743Z</time></trkpt><trkpt lat="38.0065879" lon="15.0158734"><ele>831.0</ele><time>2026-05-03T07:36:44.743Z</time></trkpt><trkpt lat="38.0065244" lon="15.0158027"><ele>829.8333333333334</ele><time>2026-05-03T07:36:46.743Z</time></trkpt><trkpt lat="38.0064279" lon="15.0157718"><ele>828.6666666666667</ele><time>2026-05-03T07:36:49.744Z</time></trkpt><trkpt lat="38.0063287" lon="15.0157492"><ele>827.5</ele><time>2026-05-03T07:36:51.744Z</time></trkpt><trkpt lat="38.0062882" lon="15.0156765"><ele>826.3333333333334</ele><time>2026-05-03T07:36:52.743Z</time></trkpt><trkpt lat="38.0062481" lon="15.0156147"><ele>825.1666666666667</ele><time>2026-05-03T07:36:53.744Z</time></trkpt><trkpt lat="38.0062108" lon="15.0155252"><ele>824.0</ele><time>2026-05-03T07:36:54.743Z</time></trkpt><trkpt lat="38.0061692" lon="15.015429"><ele>824.0000000000001</ele><time>2026-05-03T07:36:56.744Z</time></trkpt><trkpt lat="38.006107" lon="15.0153934"><ele>824.0</ele><time>2026-05-03T07:36:58.743Z</time></trkpt><trkpt lat="38.006022" lon="15.015372"><ele>824.0</ele><time>2026-05-03T07:37:01.744Z</time></trkpt><trkpt lat="38.0059578" lon="15.0153605"><ele>824.0</ele><time>2026-05-03T07:37:03.743Z</time></trkpt><trkpt lat="38.0058782" lon="15.0153624"><ele>824.0000000000001</ele><time>2026-05-03T07:37:05.743Z</time></trkpt><trkpt lat="38.0057494" lon="15.0153513"><ele>824.0</ele><time>2026-05-03T07:37:07.744Z</time></trkpt><trkpt lat="38.0056828" lon="15.0153322"><ele>825.3333333333334</ele><time>2026-05-03T07:37:08.743Z</time></trkpt><trkpt lat="38.0056125" lon="15.015308"><ele>826.6666666666667</ele><time>2026-05-03T07:37:09.744Z</time></trkpt><trkpt lat="38.0055314" lon="15.0153046"><ele>828.0</ele><time>2026-05-03T07:37:10.743Z</time></trkpt><trkpt lat="38.0054583" lon="15.0153009"><ele>829.3333333333333</ele><time>2026-05-03T07:37:11.743Z</time></trkpt><trkpt lat="38.0053933" lon="15.0153191"><ele>830.6666666666666</ele><time>2026-05-03T07:37:12.743Z</time></trkpt><trkpt lat="38.0052918" lon="15.0152811"><ele>832.0</ele><time>2026-05-03T07:37:14.743Z</time></trkpt><trkpt lat="38.0052839" lon="15.0151941"><ele>832.0</ele><time>2026-05-03T07:37:17.743Z</time></trkpt><trkpt lat="38.0052566" lon="15.0150862"><ele>832.0</ele><time>2026-05-03T07:37:19.743Z</time></trkpt><trkpt lat="38.0051228" lon="15.0150483"><ele>832.0</ele><time>2026-05-03T07:37:21.743Z</time></trkpt><trkpt lat="38.0050302" lon="15.0150484"><ele>832.0</ele><time>2026-05-03T07:37:23.743Z</time></trkpt><trkpt lat="38.0049481" lon="15.0150493"><ele>832.0</ele><time>2026-05-03T07:37:28.744Z</time></trkpt><trkpt lat="38.0048669" lon="15.0150519"><ele>831.2</ele><time>2026-05-03T07:37:30.743Z</time></trkpt><trkpt lat="38.0047698" lon="15.0150521"><ele>830.4000000000001</ele><time>2026-05-03T07:37:32.743Z</time></trkpt><trkpt lat="38.0046823" lon="15.0150565"><ele>829.5999999999999</ele><time>2026-05-03T07:37:34.744Z</time></trkpt><trkpt lat="38.0045918" lon="15.0150608"><ele>828.8</ele><time>2026-05-03T07:37:36.744Z</time></trkpt><trkpt lat="38.0044714" lon="15.015111"><ele>828.0</ele><time>2026-05-03T07:37:38.743Z</time></trkpt><trkpt lat="38.0043994" lon="15.0151265"><ele>828.0</ele><time>2026-05-03T07:37:39.742Z</time></trkpt><trkpt lat="38.0043196" lon="15.0151586"><ele>828.0</ele><time>2026-05-03T07:37:40.743Z</time></trkpt><trkpt lat="38.0042622" lon="15.0152"><ele>828.0</ele><time>2026-05-03T07:37:41.743Z</time></trkpt><trkpt lat="38.0041668" lon="15.0152884"><ele>828.0</ele><time>2026-05-03T07:37:43.743Z</time></trkpt><trkpt lat="38.0041102" lon="15.0153365"><ele>828.0</ele><time>2026-05-03T07:37:44.743Z</time></trkpt><trkpt lat="38.0040466" lon="15.015405"><ele>828.0</ele><time>2026-05-03T07:37:45.743Z</time></trkpt><trkpt lat="38.0039696" lon="15.0154501"><ele>826.2</ele><time>2026-05-03T07:37:46.743Z</time></trkpt><trkpt lat="38.0038719" lon="15.0154559"><ele>824.4</ele><time>2026-05-03T07:37:47.742Z</time></trkpt><trkpt lat="38.0037639" lon="15.0154423"><ele>822.6</ele><time>2026-05-03T07:37:48.743Z</time></trkpt><trkpt lat="38.0036559" lon="15.0154834"><ele>820.8000000000001</ele><time>2026-05-03T07:37:49.743Z</time></trkpt><trkpt lat="38.0035537" lon="15.0155161"><ele>819.0</ele><time>2026-05-03T07:37:50.743Z</time></trkpt><trkpt lat="38.003479" lon="15.0155641"><ele>819.0</ele><time>2026-05-03T07:37:51.742Z</time></trkpt><trkpt lat="38.0033659" lon="15.0156355"><ele>819.0</ele><time>2026-05-03T07:37:53.744Z</time></trkpt><trkpt lat="38.0032975" lon="15.0156592"><ele>819.0</ele><time>2026-05-03T07:37:54.744Z</time></trkpt><trkpt lat="38.0032166" lon="15.0156952"><ele>819.0</ele><time>2026-05-03T07:37:55.743Z</time></trkpt><trkpt lat="38.003114" lon="15.0157257"><ele>819.0</ele><time>2026-05-03T07:37:56.743Z</time></trkpt><trkpt lat="38.0030227" lon="15.01576"><ele>821.0</ele><time>2026-05-03T07:37:57.744Z</time></trkpt><trkpt lat="38.0029227" lon="15.0157718"><ele>823.0</ele><time>2026-05-03T07:37:58.743Z</time></trkpt><trkpt lat="38.0028317" lon="15.0157653"><ele>825.0</ele><time>2026-05-03T07:37:59.743Z</time></trkpt><trkpt lat="38.0027665" lon="15.0157744"><ele>827.0</ele><time>2026-05-03T07:38:00.744Z</time></trkpt><trkpt lat="38.0026956" lon="15.015802"><ele>829.0</ele><time>2026-05-03T07:38:03.742Z</time></trkpt><trkpt lat="38.0025856" lon="15.0158585"><ele>829.3333333333333</ele><time>2026-05-03T07:38:05.743Z</time></trkpt><trkpt lat="38.0025155" lon="15.0158872"><ele>829.6666666666666</ele><time>2026-05-03T07:38:06.744Z</time></trkpt><trkpt lat="38.0024265" lon="15.0159155"><ele>830.0</ele><time>2026-05-03T07:38:07.743Z</time></trkpt><trkpt lat="38.0023411" lon="15.0159427"><ele>830.3333333333333</ele><time>2026-05-03T07:38:08.743Z</time></trkpt><trkpt lat="38.0022728" lon="15.0159581"><ele>830.6666666666666</ele><time>2026-05-03T07:38:09.743Z</time></trkpt><trkpt lat="38.0021611" lon="15.0159714"><ele>831.0</ele><time>2026-05-03T07:38:11.743Z</time></trkpt><trkpt lat="38.0020957" lon="15.0160019"><ele>835.0</ele><time>2026-05-03T07:38:12.743Z</time></trkpt><trkpt lat="38.0020372" lon="15.0160656"><ele>839.0</ele><time>2026-05-03T07:38:13.743Z</time></trkpt><trkpt lat="38.0019843" lon="15.016152"><ele>843.0</ele><time>2026-05-03T07:38:14.743Z</time></trkpt><trkpt lat="38.0019587" lon="15.0162523"><ele>847.0</ele><time>2026-05-03T07:38:15.743Z</time></trkpt><trkpt lat="38.0019356" lon="15.0163522"><ele>851.0</ele><time>2026-05-03T07:38:16.743Z</time></trkpt><trkpt lat="38.0018945" lon="15.0164251"><ele>855.0</ele><time>2026-05-03T07:38:17.743Z</time></trkpt><trkpt lat="38.0018136" lon="15.0164819"><ele>855.0</ele><time>2026-05-03T07:38:19.743Z</time></trkpt><trkpt lat="38.0017399" lon="15.0164532"><ele>855.0</ele><time>2026-05-03T07:38:22.743Z</time></trkpt><trkpt lat="38.0016973" lon="15.0163855"><ele>855.0</ele><time>2026-05-03T07:38:24.744Z</time></trkpt><trkpt lat="38.0016704" lon="15.0162617"><ele>855.0</ele><time>2026-05-03T07:38:26.743Z</time></trkpt><trkpt lat="38.0016526" lon="15.0161451"><ele>855.0</ele><time>2026-05-03T07:38:28.743Z</time></trkpt><trkpt lat="38.0016467" lon="15.0160297"><ele>855.0</ele><time>2026-05-03T07:38:30.743Z</time></trkpt><trkpt lat="38.001671" lon="15.0159122"><ele>859.2</ele><time>2026-05-03T07:38:32.743Z</time></trkpt><trkpt lat="38.0017199" lon="15.0158108"><ele>863.4</ele><time>2026-05-03T07:38:34.743Z</time></trkpt><trkpt lat="38.0017819" lon="15.015724"><ele>867.5999999999999</ele><time>2026-05-03T07:38:36.743Z</time></trkpt><trkpt lat="38.0018727" lon="15.0156244"><ele>871.8</ele><time>2026-05-03T07:38:38.744Z</time></trkpt><trkpt lat="38.0019507" lon="15.0155595"><ele>876.0</ele><time>2026-05-03T07:38:39.743Z</time></trkpt><trkpt lat="38.0020192" lon="15.0155046"><ele>876.0</ele><time>2026-05-03T07:38:40.743Z</time></trkpt><trkpt lat="38.0020936" lon="15.0154585"><ele>876.0</ele><time>2026-05-03T07:38:41.744Z</time></trkpt><trkpt lat="38.0021595" lon="15.0154085"><ele>876.0</ele><time>2026-05-03T07:38:42.743Z</time></trkpt><trkpt lat="38.0022207" lon="15.0153478"><ele>876.0</ele><time>2026-05-03T07:38:43.743Z</time></trkpt><trkpt lat="38.0022747" lon="15.0152829"><ele>876.0</ele><time>2026-05-03T07:38:44.743Z</time></trkpt><trkpt lat="38.0023179" lon="15.0152208"><ele>876.0</ele><time>2026-05-03T07:38:45.743Z</time></trkpt><trkpt lat="38.0023542" lon="15.0151505"><ele>876.0</ele><time>2026-05-03T07:38:46.742Z</time></trkpt><trkpt lat="38.0023811" lon="15.0150358"><ele>872.4</ele><time>2026-05-03T07:38:48.744Z</time></trkpt><trkpt lat="38.0023766" lon="15.014938"><ele>868.8</ele><time>2026-05-03T07:38:50.743Z</time></trkpt><trkpt lat="38.0023779" lon="15.0148132"><ele>865.1999999999999</ele><time>2026-05-03T07:38:52.743Z</time></trkpt><trkpt lat="38.0024274" lon="15.0146621"><ele>861.5999999999999</ele><time>2026-05-03T07:38:54.743Z</time></trkpt><trkpt lat="38.0024752" lon="15.0145837"><ele>858.0</ele><time>2026-05-03T07:38:56.743Z</time></trkpt><trkpt lat="38.0025266" lon="15.0145086"><ele>854.3333333333334</ele><time>2026-05-03T07:38:58.743Z</time></trkpt><trkpt lat="38.0025846" lon="15.0144098"><ele>850.6666666666667</ele><time>2026-05-03T07:39:00.743Z</time></trkpt><trkpt lat="38.0026234" lon="15.0143434"><ele>847.0</ele><time>2026-05-03T07:39:01.744Z</time></trkpt><trkpt lat="38.0026631" lon="15.0142722"><ele>843.3333333333334</ele><time>2026-05-03T07:39:02.743Z</time></trkpt><trkpt lat="38.0026767" lon="15.0141285"><ele>839.6666666666667</ele><time>2026-05-03T07:39:04.743Z</time></trkpt><trkpt lat="38.0026364" lon="15.0140098"><ele>836.0</ele><time>2026-05-03T07:39:06.744Z</time></trkpt><trkpt lat="38.0025514" lon="15.013919"><ele>837.8571428571429</ele><time>2026-05-03T07:39:08.743Z</time></trkpt><trkpt lat="38.0024857" lon="15.0139032"><ele>839.7142857142857</ele><time>2026-05-03T07:39:09.743Z</time></trkpt><trkpt lat="38.0024142" lon="15.0139242"><ele>841.5714285714287</ele><time>2026-05-03T07:39:10.744Z</time></trkpt><trkpt lat="38.0023447" lon="15.0139343"><ele>843.4285714285714</ele><time>2026-05-03T07:39:11.743Z</time></trkpt><trkpt lat="38.0022747" lon="15.0139421"><ele>845.2857142857143</ele><time>2026-05-03T07:39:12.743Z</time></trkpt><trkpt lat="38.0021985" lon="15.0139452"><ele>847.1428571428572</ele><time>2026-05-03T07:39:13.743Z</time></trkpt><trkpt lat="38.0021222" lon="15.0139486"><ele>849.0</ele><time>2026-05-03T07:39:14.744Z</time></trkpt><trkpt lat="38.0020496" lon="15.0139421"><ele>849.0</ele><time>2026-05-03T07:39:15.744Z</time></trkpt><trkpt lat="38.0019732" lon="15.0139568"><ele>849.0</ele><time>2026-05-03T07:39:17.743Z</time></trkpt><trkpt lat="38.0018854" lon="15.0139493"><ele>849.0</ele><time>2026-05-03T07:39:19.744Z</time></trkpt><trkpt lat="38.0017733" lon="15.0139196"><ele>849.0</ele><time>2026-05-03T07:39:21.744Z</time></trkpt><trkpt lat="38.0017115" lon="15.0138993"><ele>849.0</ele><time>2026-05-03T07:39:22.744Z</time></trkpt><trkpt lat="38.0016547" lon="15.0138577"><ele>849.0</ele><time>2026-05-03T07:39:23.744Z</time></trkpt><trkpt lat="38.0016036" lon="15.013797"><ele>851.1428571428572</ele><time>2026-05-03T07:39:24.744Z</time></trkpt><trkpt lat="38.0015459" lon="15.0137398"><ele>853.2857142857143</ele><time>2026-05-03T07:39:25.744Z</time></trkpt><trkpt lat="38.0014904" lon="15.0136716"><ele>855.4285714285714</ele><time>2026-05-03T07:39:26.744Z</time></trkpt><trkpt lat="38.0014355" lon="15.0136255"><ele>857.5714285714287</ele><time>2026-05-03T07:39:27.744Z</time></trkpt><trkpt lat="38.0013844" lon="15.0135698"><ele>859.7142857142857</ele><time>2026-05-03T07:39:28.744Z</time></trkpt><trkpt lat="38.0013363" lon="15.0135156"><ele>861.8571428571429</ele><time>2026-05-03T07:39:29.744Z</time></trkpt><trkpt lat="38.0013287" lon="15.0133909"><ele>864.0</ele><time>2026-05-03T07:39:31.744Z</time></trkpt><trkpt lat="38.0014143" lon="15.0133452"><ele>864.0</ele><time>2026-05-03T07:39:33.744Z</time></trkpt><trkpt lat="38.0014801" lon="15.0133538"><ele>864.0</ele><time>2026-05-03T07:39:34.745Z</time></trkpt><trkpt lat="38.0015484" lon="15.013348"><ele>864.0</ele><time>2026-05-03T07:39:35.744Z</time></trkpt><trkpt lat="38.0016149" lon="15.0133411"><ele>864.0</ele><time>2026-05-03T07:39:36.744Z</time></trkpt><trkpt lat="38.0016741" lon="15.0133126"><ele>864.0</ele><time>2026-05-03T07:39:37.745Z</time></trkpt><trkpt lat="38.0017773" lon="15.0132506"><ele>864.0</ele><time>2026-05-03T07:39:39.743Z</time></trkpt><trkpt lat="38.0018403" lon="15.0132236"><ele>864.0</ele><time>2026-05-03T07:39:40.744Z</time></trkpt><trkpt lat="38.0019094" lon="15.0132137"><ele>867.4000000000001</ele><time>2026-05-03T07:39:41.744Z</time></trkpt><trkpt lat="38.0019785" lon="15.0132066"><ele>870.8000000000001</ele><time>2026-05-03T07:39:42.745Z</time></trkpt><trkpt lat="38.0020899" lon="15.0131716"><ele>874.1999999999999</ele><time>2026-05-03T07:39:44.744Z</time></trkpt><trkpt lat="38.0021755" lon="15.0130906"><ele>877.5999999999999</ele><time>2026-05-03T07:39:46.745Z</time></trkpt><trkpt lat="38.0022172" lon="15.0129625"><ele>881.0</ele><time>2026-05-03T07:39:48.745Z</time></trkpt><trkpt lat="38.0022385" lon="15.0128164"><ele>881.0000000000001</ele><time>2026-05-03T07:39:50.744Z</time></trkpt><trkpt lat="38.0022664" lon="15.0127117"><ele>881.0</ele><time>2026-05-03T07:39:52.745Z</time></trkpt><trkpt lat="38.0023173" lon="15.0126485"><ele>881.0</ele><time>2026-05-03T07:39:54.744Z</time></trkpt><trkpt lat="38.0023944" lon="15.0126494"><ele>881.0</ele><time>2026-05-03T07:39:56.744Z</time></trkpt><trkpt lat="38.0024697" lon="15.012708"><ele>881.0000000000001</ele><time>2026-05-03T07:39:58.744Z</time></trkpt><trkpt lat="38.0025599" lon="15.0127424"><ele>881.0</ele><time>2026-05-03T07:40:00.744Z</time></trkpt><trkpt lat="38.0026432" lon="15.0126642"><ele>884.5999999999999</ele><time>2026-05-03T07:40:02.745Z</time></trkpt><trkpt lat="38.0027152" lon="15.012561"><ele>888.1999999999999</ele><time>2026-05-03T07:40:04.744Z</time></trkpt><trkpt lat="38.0027738" lon="15.0124975"><ele>891.8000000000001</ele><time>2026-05-03T07:40:06.744Z</time></trkpt><trkpt lat="38.0028507" lon="15.0124218"><ele>895.4000000000001</ele><time>2026-05-03T07:40:08.744Z</time></trkpt><trkpt lat="38.00296" lon="15.012382"><ele>899.0</ele><time>2026-05-03T07:40:10.744Z</time></trkpt><trkpt lat="38.0030647" lon="15.0124203"><ele>890.8000000000001</ele><time>2026-05-03T07:40:12.745Z</time></trkpt><trkpt lat="38.0031098" lon="15.0125179"><ele>882.6000000000001</ele><time>2026-05-03T07:40:14.744Z</time></trkpt><trkpt lat="38.0031296" lon="15.0126253"><ele>874.4</ele><time>2026-05-03T07:40:16.744Z</time></trkpt><trkpt lat="38.0031805" lon="15.0127358"><ele>866.2</ele><time>2026-05-03T07:40:18.744Z</time></trkpt><trkpt lat="38.0032774" lon="15.0127506"><ele>858.0</ele><time>2026-05-03T07:40:20.744Z</time></trkpt><trkpt lat="38.0033902" lon="15.0127217"><ele>858.0</ele><time>2026-05-03T07:40:22.745Z</time></trkpt><trkpt lat="38.0035127" lon="15.0126521"><ele>858.0</ele><time>2026-05-03T07:40:24.745Z</time></trkpt><trkpt lat="38.003582" lon="15.0126105"><ele>858.0</ele><time>2026-05-03T07:40:25.744Z</time></trkpt><trkpt lat="38.0036552" lon="15.0125735"><ele>858.0</ele><time>2026-05-03T07:40:26.745Z</time></trkpt><trkpt lat="38.0037301" lon="15.0125574"><ele>858.0</ele><time>2026-05-03T07:40:27.745Z</time></trkpt><trkpt lat="38.0037968" lon="15.0125421"><ele>858.0</ele><time>2026-05-03T07:40:28.744Z</time></trkpt><trkpt lat="38.0038798" lon="15.0125056"><ele>864.5999999999999</ele><time>2026-05-03T07:40:30.744Z</time></trkpt><trkpt lat="38.0039585" lon="15.012427"><ele>871.1999999999999</ele><time>2026-05-03T07:40:32.744Z</time></trkpt><trkpt lat="38.0040111" lon="15.0122985"><ele>877.8</ele><time>2026-05-03T07:40:34.744Z</time></trkpt><trkpt lat="38.0040606" lon="15.0121528"><ele>884.4</ele><time>2026-05-03T07:40:36.744Z</time></trkpt><trkpt lat="38.0041099" lon="15.0120876"><ele>891.0</ele><time>2026-05-03T07:40:37.744Z</time></trkpt><trkpt lat="38.0041594" lon="15.0120355"><ele>888.1999999999999</ele><time>2026-05-03T07:40:38.744Z</time></trkpt><trkpt lat="38.004209" lon="15.0119039"><ele>885.3999999999999</ele><time>2026-05-03T07:40:40.745Z</time></trkpt><trkpt lat="38.004222" lon="15.0117643"><ele>882.6</ele><time>2026-05-03T07:40:42.744Z</time></trkpt><trkpt lat="38.0042391" lon="15.0116336"><ele>879.8</ele><time>2026-05-03T07:40:44.744Z</time></trkpt><trkpt lat="38.0042705" lon="15.0115031"><ele>877.0</ele><time>2026-05-03T07:40:46.744Z</time></trkpt><trkpt lat="38.0043183" lon="15.0114007"><ele>881.9999999999999</ele><time>2026-05-03T07:40:49.744Z</time></trkpt><trkpt lat="38.0043654" lon="15.0113277"><ele>887.0</ele><time>2026-05-03T07:40:51.744Z</time></trkpt><trkpt lat="38.00442" lon="15.0112657"><ele>892.0</ele><time>2026-05-03T07:40:54.744Z</time></trkpt><trkpt lat="38.0045057" lon="15.0112314"><ele>897.0</ele><time>2026-05-03T07:40:57.745Z</time></trkpt><trkpt lat="38.0045976" lon="15.0112612"><ele>901.9999999999999</ele><time>2026-05-03T07:40:59.744Z</time></trkpt><trkpt lat="38.0046945" lon="15.0113123"><ele>907.0</ele><time>2026-05-03T07:41:01.745Z</time></trkpt><trkpt lat="38.0048006" lon="15.011324"><ele>906.9999999999999</ele><time>2026-05-03T07:41:03.744Z</time></trkpt><trkpt lat="38.0048571" lon="15.0112722"><ele>907.0</ele><time>2026-05-03T07:41:05.744Z</time></trkpt><trkpt lat="38.0049036" lon="15.0112038"><ele>907.0</ele><time>2026-05-03T07:41:08.744Z</time></trkpt><trkpt lat="38.0049655" lon="15.0111052"><ele>907.0</ele><time>2026-05-03T07:41:11.744Z</time></trkpt><trkpt lat="38.0050206" lon="15.0110488"><ele>906.9999999999999</ele><time>2026-05-03T07:41:13.744Z</time></trkpt><trkpt lat="38.0050997" lon="15.0110408"><ele>907.0</ele><time>2026-05-03T07:41:15.744Z</time></trkpt><trkpt lat="38.0051806" lon="15.0111113"><ele>904.8333333333333</ele><time>2026-05-03T07:41:17.744Z</time></trkpt><trkpt lat="38.005255" lon="15.0111795"><ele>902.6666666666666</ele><time>2026-05-03T07:41:19.744Z</time></trkpt><trkpt lat="38.0053297" lon="15.0112433"><ele>900.5</ele><time>2026-05-03T07:41:21.744Z</time></trkpt><trkpt lat="38.0054054" lon="15.011298"><ele>898.3333333333333</ele><time>2026-05-03T07:41:23.744Z</time></trkpt><trkpt lat="38.0054467" lon="15.0113854"><ele>896.1666666666666</ele><time>2026-05-03T07:41:25.744Z</time></trkpt><trkpt lat="38.0054525" lon="15.0114822"><ele>894.0</ele><time>2026-05-03T07:41:35.745Z</time></trkpt><trkpt lat="38.0054996" lon="15.0114115"><ele>894.0</ele><time>2026-05-03T07:41:53.744Z</time></trkpt><trkpt lat="38.0054818" lon="15.0113211"><ele>894.0000000000001</ele><time>2026-05-03T07:41:55.744Z</time></trkpt><trkpt lat="38.0054584" lon="15.011212"><ele>894.0000000000001</ele><time>2026-05-03T07:41:57.745Z</time></trkpt><trkpt lat="38.0054149" lon="15.0111083"><ele>894.0</ele><time>2026-05-03T07:41:59.744Z</time></trkpt><trkpt lat="38.0053527" lon="15.0109748"><ele>894.0</ele><time>2026-05-03T07:42:01.744Z</time></trkpt><trkpt lat="38.0052961" lon="15.0108566"><ele>894.0</ele><time>2026-05-03T07:42:03.744Z</time></trkpt><trkpt lat="38.0052253" lon="15.0108296"><ele>894.0</ele><time>2026-05-03T07:42:05.744Z</time></trkpt><trkpt lat="38.0051483" lon="15.010823"><ele>894.0</ele><time>2026-05-03T07:42:08.744Z</time></trkpt><trkpt lat="38.0050746" lon="15.0108191"><ele>894.0</ele><time>2026-05-03T07:42:09.744Z</time></trkpt><trkpt lat="38.0049367" lon="15.0108361"><ele>894.0</ele><time>2026-05-03T07:42:11.745Z</time></trkpt><trkpt lat="38.0048707" lon="15.0108606"><ele>894.0</ele><time>2026-05-03T07:42:12.744Z</time></trkpt><trkpt lat="38.0047987" lon="15.0108724"><ele>896.1666666666666</ele><time>2026-05-03T07:42:13.744Z</time></trkpt><trkpt lat="38.0047295" lon="15.0108857"><ele>898.3333333333333</ele><time>2026-05-03T07:42:14.744Z</time></trkpt><trkpt lat="38.0046609" lon="15.0108963"><ele>900.5</ele><time>2026-05-03T07:42:15.745Z</time></trkpt><trkpt lat="38.0045393" lon="15.0109328"><ele>902.6666666666666</ele><time>2026-05-03T07:42:17.744Z</time></trkpt><trkpt lat="38.0044728" lon="15.0109358"><ele>904.8333333333333</ele><time>2026-05-03T07:42:18.744Z</time></trkpt><trkpt lat="38.00438" lon="15.0109543"><ele>907.0</ele><time>2026-05-03T07:42:20.744Z</time></trkpt><trkpt lat="38.0042956" lon="15.0109882"><ele>907.0</ele><time>2026-05-03T07:42:22.745Z</time></trkpt><trkpt lat="38.0042199" lon="15.0110612"><ele>907.0</ele><time>2026-05-03T07:42:24.744Z</time></trkpt><trkpt lat="38.0041632" lon="15.0111734"><ele>907.0</ele><time>2026-05-03T07:42:26.744Z</time></trkpt><trkpt lat="38.0040657" lon="15.0112311"><ele>907.0</ele><time>2026-05-03T07:42:28.744Z</time></trkpt><trkpt lat="38.0039511" lon="15.0112735"><ele>907.0</ele><time>2026-05-03T07:42:30.744Z</time></trkpt><trkpt lat="38.0038816" lon="15.0112782"><ele>909.9999999999999</ele><time>2026-05-03T07:42:31.744Z</time></trkpt><trkpt lat="38.0038067" lon="15.0112691"><ele>913.0</ele><time>2026-05-03T07:42:32.744Z</time></trkpt><trkpt lat="38.0036914" lon="15.0112212"><ele>916.0</ele><time>2026-05-03T07:42:34.744Z</time></trkpt><trkpt lat="38.0036307" lon="15.0111723"><ele>919.0</ele><time>2026-05-03T07:42:35.743Z</time></trkpt><trkpt lat="38.0035811" lon="15.0111229"><ele>921.9999999999999</ele><time>2026-05-03T07:42:36.744Z</time></trkpt><trkpt lat="38.0035263" lon="15.0110657"><ele>925.0</ele><time>2026-05-03T07:42:37.744Z</time></trkpt><trkpt lat="38.0034058" lon="15.0110257"><ele>924.9999999999999</ele><time>2026-05-03T07:42:39.744Z</time></trkpt><trkpt lat="38.0033383" lon="15.0110884"><ele>925.0</ele><time>2026-05-03T07:42:40.744Z</time></trkpt><trkpt lat="38.0032738" lon="15.0111448"><ele>925.0</ele><time>2026-05-03T07:42:41.744Z</time></trkpt><trkpt lat="38.0032098" lon="15.0111907"><ele>925.0</ele><time>2026-05-03T07:42:42.744Z</time></trkpt><trkpt lat="38.0031186" lon="15.0111831"><ele>924.9999999999999</ele><time>2026-05-03T07:42:43.745Z</time></trkpt><trkpt lat="38.0030528" lon="15.0111896"><ele>925.0</ele><time>2026-05-03T07:42:44.744Z</time></trkpt><trkpt lat="38.0029581" lon="15.011191"><ele>928.0</ele><time>2026-05-03T07:42:45.745Z</time></trkpt><trkpt lat="38.0028723" lon="15.0112014"><ele>931.0</ele><time>2026-05-03T07:42:46.744Z</time></trkpt><trkpt lat="38.0027634" lon="15.0112249"><ele>934.0</ele><time>2026-05-03T07:42:47.744Z</time></trkpt><trkpt lat="38.0026725" lon="15.0112564"><ele>937.0</ele><time>2026-05-03T07:42:48.745Z</time></trkpt><trkpt lat="38.0025863" lon="15.0112932"><ele>940.0</ele><time>2026-05-03T07:42:49.745Z</time></trkpt><trkpt lat="38.0025313" lon="15.0113538"><ele>941.0</ele><time>2026-05-03T07:42:50.744Z</time></trkpt><trkpt lat="38.0024597" lon="15.0113958"><ele>942.0</ele><time>2026-05-03T07:42:51.744Z</time></trkpt><trkpt lat="38.0023456" lon="15.0113869"><ele>943.0</ele><time>2026-05-03T07:42:53.744Z</time></trkpt><trkpt lat="38.0022564" lon="15.0113498"><ele>944.0</ele><time>2026-05-03T07:42:55.743Z</time></trkpt><trkpt lat="38.002174" lon="15.0112658"><ele>945.0</ele><time>2026-05-03T07:42:57.744Z</time></trkpt><trkpt lat="38.0021053" lon="15.0111873"><ele>945.0</ele><time>2026-05-03T07:42:59.744Z</time></trkpt><trkpt lat="38.0020386" lon="15.0111127"><ele>945.0</ele><time>2026-05-03T07:43:01.744Z</time></trkpt><trkpt lat="38.0019657" lon="15.0110773"><ele>945.0</ele><time>2026-05-03T07:43:04.745Z</time></trkpt><trkpt lat="38.0018805" lon="15.0111121"><ele>945.0</ele><time>2026-05-03T07:43:07.744Z</time></trkpt><trkpt lat="38.0018092" lon="15.0111308"><ele>945.0</ele><time>2026-05-03T07:43:09.744Z</time></trkpt><trkpt lat="38.0017388" lon="15.0111573"><ele>945.0</ele><time>2026-05-03T07:43:11.745Z</time></trkpt><trkpt lat="38.0016793" lon="15.0112179"><ele>946.8</ele><time>2026-05-03T07:43:13.744Z</time></trkpt><trkpt lat="38.0016064" lon="15.011286"><ele>948.6</ele><time>2026-05-03T07:43:15.744Z</time></trkpt><trkpt lat="38.0015177" lon="15.0113681"><ele>950.4000000000001</ele><time>2026-05-03T07:43:17.745Z</time></trkpt><trkpt lat="38.00142" lon="15.0114396"><ele>952.2</ele><time>2026-05-03T07:43:19.745Z</time></trkpt><trkpt lat="38.0013288" lon="15.0114834"><ele>954.0</ele><time>2026-05-03T07:43:22.744Z</time></trkpt><trkpt lat="38.0012653" lon="15.0114605"><ele>954.0</ele><time>2026-05-03T07:43:24.744Z</time></trkpt><trkpt lat="38.001185" lon="15.0114053"><ele>954.0</ele><time>2026-05-03T07:43:27.745Z</time></trkpt><trkpt lat="38.001119" lon="15.0113907"><ele>954.0</ele><time>2026-05-03T07:43:29.744Z</time></trkpt><trkpt lat="38.0010322" lon="15.0113559"><ele>954.0</ele><time>2026-05-03T07:43:32.744Z</time></trkpt><trkpt lat="38.0009713" lon="15.0112797"><ele>954.0</ele><time>2026-05-03T07:43:34.744Z</time></trkpt><trkpt lat="38.0008982" lon="15.0112107"><ele>954.0</ele><time>2026-05-03T07:43:36.744Z</time></trkpt><trkpt lat="38.0008227" lon="15.0111882"><ele>953.6666666666666</ele><time>2026-05-03T07:43:38.744Z</time></trkpt><trkpt lat="38.0007346" lon="15.0111693"><ele>953.3333333333333</ele><time>2026-05-03T07:43:40.744Z</time></trkpt><trkpt lat="38.0006356" lon="15.0111604"><ele>953.0</ele><time>2026-05-03T07:43:42.743Z</time></trkpt><trkpt lat="38.0005623" lon="15.0111188"><ele>952.6666666666666</ele><time>2026-05-03T07:43:44.744Z</time></trkpt><trkpt lat="38.0004956" lon="15.0110668"><ele>952.3333333333333</ele><time>2026-05-03T07:43:46.745Z</time></trkpt><trkpt lat="38.000431" lon="15.0110032"><ele>952.0</ele><time>2026-05-03T07:43:48.744Z</time></trkpt><trkpt lat="38.0003597" lon="15.010932"><ele>952.0</ele><time>2026-05-03T07:43:50.744Z</time></trkpt><trkpt lat="38.0002424" lon="15.0108707"><ele>952.0</ele><time>2026-05-03T07:43:52.744Z</time></trkpt><trkpt lat="38.0001842" lon="15.0108293"><ele>952.0</ele><time>2026-05-03T07:43:53.744Z</time></trkpt><trkpt lat="38.0001218" lon="15.0107954"><ele>952.0</ele><time>2026-05-03T07:43:54.744Z</time></trkpt><trkpt lat="37.9999945" lon="15.0108051"><ele>952.0</ele><time>2026-05-03T07:43:56.745Z</time></trkpt><trkpt lat="37.9999376" lon="15.0107693"><ele>958.2</ele><time>2026-05-03T07:43:57.744Z</time></trkpt><trkpt lat="37.9998284" lon="15.0107297"><ele>964.4000000000001</ele><time>2026-05-03T07:43:59.744Z</time></trkpt><trkpt lat="37.9997455" lon="15.0106654"><ele>970.5999999999999</ele><time>2026-05-03T07:44:01.744Z</time></trkpt><trkpt lat="37.9996678" lon="15.010621"><ele>976.8</ele><time>2026-05-03T07:44:03.744Z</time></trkpt><trkpt lat="37.999592" lon="15.0105828"><ele>983.0</ele><time>2026-05-03T07:44:05.744Z</time></trkpt><trkpt lat="37.9994993" lon="15.0105963"><ele>982.9999999999999</ele><time>2026-05-03T07:44:07.744Z</time></trkpt><trkpt lat="37.9994426" lon="15.0106417"><ele>983.0</ele><time>2026-05-03T07:44:14.744Z</time></trkpt><trkpt lat="37.9993923" lon="15.0106914"><ele>982.9999999999999</ele><time>2026-05-03T07:44:16.744Z</time></trkpt><trkpt lat="37.9993224" lon="15.0107214"><ele>982.9999999999999</ele><time>2026-05-03T07:44:18.744Z</time></trkpt><trkpt lat="37.9992274" lon="15.0107151"><ele>983.0</ele><time>2026-05-03T07:44:20.744Z</time></trkpt><trkpt lat="37.9991652" lon="15.0106976"><ele>982.9999999999999</ele><time>2026-05-03T07:44:22.744Z</time></trkpt><trkpt lat="37.9991016" lon="15.0106995"><ele>982.9999999999999</ele><time>2026-05-03T07:44:25.744Z</time></trkpt><trkpt lat="37.9990199" lon="15.0107402"><ele>982.3333333333334</ele><time>2026-05-03T07:44:27.744Z</time></trkpt><trkpt lat="37.9989631" lon="15.0107766"><ele>981.6666666666667</ele><time>2026-05-03T07:44:28.744Z</time></trkpt><trkpt lat="37.9989001" lon="15.0108085"><ele>981.0</ele><time>2026-05-03T07:44:29.745Z</time></trkpt><trkpt lat="37.9987821" lon="15.0108532"><ele>980.3333333333333</ele><time>2026-05-03T07:44:31.744Z</time></trkpt><trkpt lat="37.9987199" lon="15.0108292"><ele>979.6666666666666</ele><time>2026-05-03T07:44:32.744Z</time></trkpt><trkpt lat="37.9986428" lon="15.010717"><ele>979.0</ele><time>2026-05-03T07:44:34.745Z</time></trkpt><trkpt lat="37.9985653" lon="15.0106657"><ele>978.9999999999999</ele><time>2026-05-03T07:44:36.745Z</time></trkpt><trkpt lat="37.9984739" lon="15.0107433"><ele>979.0</ele><time>2026-05-03T07:44:38.744Z</time></trkpt><trkpt lat="37.9984076" lon="15.0107938"><ele>979.0</ele><time>2026-05-03T07:44:39.744Z</time></trkpt><trkpt lat="37.9983465" lon="15.0108161"><ele>979.0</ele><time>2026-05-03T07:44:40.744Z</time></trkpt><trkpt lat="37.9982729" lon="15.0108268"><ele>978.9999999999999</ele><time>2026-05-03T07:44:41.744Z</time></trkpt><trkpt lat="37.9981732" lon="15.0107662"><ele>979.0</ele><time>2026-05-03T07:44:43.745Z</time></trkpt><trkpt lat="37.9981171" lon="15.0107287"><ele>979.0</ele><time>2026-05-03T07:44:44.744Z</time></trkpt><trkpt lat="37.9980527" lon="15.0106911"><ele>979.0</ele><time>2026-05-03T07:44:45.744Z</time></trkpt><trkpt lat="37.9979903" lon="15.0106645"><ele>979.0</ele><time>2026-05-03T07:44:46.745Z</time></trkpt><trkpt lat="37.9979302" lon="15.0106243"><ele>979.0</ele><time>2026-05-03T07:44:47.744Z</time></trkpt><trkpt lat="37.9978566" lon="15.0106062"><ele>979.0</ele><time>2026-05-03T07:44:48.744Z</time></trkpt><trkpt lat="37.9977937" lon="15.0105938"><ele>979.0</ele><time>2026-05-03T07:44:49.744Z</time></trkpt><trkpt lat="37.9977177" lon="15.0106293"><ele>979.0</ele><time>2026-05-03T07:44:50.744Z</time></trkpt><trkpt lat="37.9976279" lon="15.0106404"><ele>979.0</ele><time>2026-05-03T07:44:51.744Z</time></trkpt><trkpt lat="37.9975506" lon="15.0106459"><ele>979.0000000000001</ele><time>2026-05-03T07:44:52.744Z</time></trkpt><trkpt lat="37.99743" lon="15.0106096"><ele>979.0000000000001</ele><time>2026-05-03T07:44:54.744Z</time></trkpt><trkpt lat="37.9973148" lon="15.0106155"><ele>979.0</ele><time>2026-05-03T07:44:56.744Z</time></trkpt><trkpt lat="37.9971891" lon="15.0106306"><ele>979.0</ele><time>2026-05-03T07:44:58.744Z</time></trkpt><trkpt lat="37.9971126" lon="15.0106363"><ele>981.1666666666666</ele><time>2026-05-03T07:44:59.745Z</time></trkpt><trkpt lat="37.9970363" lon="15.0106429"><ele>983.3333333333333</ele><time>2026-05-03T07:45:00.744Z</time></trkpt><trkpt lat="37.9969396" lon="15.0106219"><ele>985.5</ele><time>2026-05-03T07:45:02.744Z</time></trkpt><trkpt lat="37.9968726" lon="15.0105658"><ele>987.6666666666667</ele><time>2026-05-03T07:45:04.745Z</time></trkpt><trkpt lat="37.996804" lon="15.0105446"><ele>989.8333333333334</ele><time>2026-05-03T07:45:08.744Z</time></trkpt><trkpt lat="37.9967409" lon="15.0105897"><ele>992.0</ele><time>2026-05-03T07:45:11.744Z</time></trkpt><trkpt lat="37.9966955" lon="15.0106521"><ele>992.8</ele><time>2026-05-03T07:45:13.744Z</time></trkpt><trkpt lat="37.9966458" lon="15.0107219"><ele>993.6</ele><time>2026-05-03T07:45:16.744Z</time></trkpt><trkpt lat="37.9966471" lon="15.0108403"><ele>994.3999999999999</ele><time>2026-05-03T07:45:19.744Z</time></trkpt><trkpt lat="37.9966929" lon="15.0109382"><ele>995.1999999999999</ele><time>2026-05-03T07:45:21.745Z</time></trkpt><trkpt lat="37.9967657" lon="15.0110611"><ele>996.0</ele><time>2026-05-03T07:45:23.744Z</time></trkpt><trkpt lat="37.9968164" lon="15.011144"><ele>992.5</ele><time>2026-05-03T07:45:24.744Z</time></trkpt><trkpt lat="37.9968657" lon="15.0112213"><ele>989.0</ele><time>2026-05-03T07:45:25.744Z</time></trkpt><trkpt lat="37.996907" lon="15.0112994"><ele>985.5</ele><time>2026-05-03T07:45:26.744Z</time></trkpt><trkpt lat="37.9969017" lon="15.0114163"><ele>982.0</ele><time>2026-05-03T07:45:28.744Z</time></trkpt><trkpt lat="37.9968398" lon="15.0114572"><ele>978.5</ele><time>2026-05-03T07:45:31.745Z</time></trkpt><trkpt lat="37.9967552" lon="15.0114764"><ele>975.0</ele><time>2026-05-03T07:45:34.745Z</time></trkpt><trkpt lat="37.9966687" lon="15.011502"><ele>975.0</ele><time>2026-05-03T07:45:36.744Z</time></trkpt><trkpt lat="37.9966046" lon="15.0115256"><ele>974.9999999999999</ele><time>2026-05-03T07:45:37.743Z</time></trkpt><trkpt lat="37.9965375" lon="15.0115438"><ele>975.0</ele><time>2026-05-03T07:45:38.744Z</time></trkpt><trkpt lat="37.9964687" lon="15.0115692"><ele>975.0</ele><time>2026-05-03T07:45:39.744Z</time></trkpt><trkpt lat="37.9963941" lon="15.011615"><ele>974.9999999999999</ele><time>2026-05-03T07:45:41.744Z</time></trkpt><trkpt lat="37.9963305" lon="15.0116369"><ele>975.0</ele><time>2026-05-03T07:45:43.744Z</time></trkpt><trkpt lat="37.9962434" lon="15.0116695"><ele>975.0</ele><time>2026-05-03T07:45:46.744Z</time></trkpt><trkpt lat="37.9961763" lon="15.0116955"><ele>975.0</ele><time>2026-05-03T07:45:48.744Z</time></trkpt><trkpt lat="37.9960859" lon="15.0117354"><ele>975.0</ele><time>2026-05-03T07:45:50.744Z</time></trkpt><trkpt lat="37.9959674" lon="15.0117753"><ele>975.0</ele><time>2026-05-03T07:45:52.744Z</time></trkpt><trkpt lat="37.9959007" lon="15.0117839"><ele>975.0</ele><time>2026-05-03T07:45:53.744Z</time></trkpt><trkpt lat="37.9958191" lon="15.0117461"><ele>975.0</ele><time>2026-05-03T07:45:55.744Z</time></trkpt><trkpt lat="37.9958615" lon="15.0116293"><ele>975.0</ele><time>2026-05-03T07:45:58.744Z</time></trkpt><trkpt lat="37.9959352" lon="15.0115493"><ele>975.0</ele><time>2026-05-03T07:46:00.744Z</time></trkpt><trkpt lat="37.9960189" lon="15.0114416"><ele>975.0</ele><time>2026-05-03T07:46:02.744Z</time></trkpt><trkpt lat="37.9960567" lon="15.0113691"><ele>975.0</ele><time>2026-05-03T07:46:03.744Z</time></trkpt><trkpt lat="37.9960919" lon="15.0112943"><ele>975.0</ele><time>2026-05-03T07:46:04.744Z</time></trkpt><trkpt lat="37.9961195" lon="15.0112117"><ele>975.0</ele><time>2026-05-03T07:46:05.744Z</time></trkpt><trkpt lat="37.996146" lon="15.0111134"><ele>975.0</ele><time>2026-05-03T07:46:07.744Z</time></trkpt><trkpt lat="37.9960944" lon="15.0110667"><ele>974.9999999999999</ele><time>2026-05-03T07:46:09.744Z</time></trkpt><trkpt lat="37.9960252" lon="15.0110953"><ele>975.0</ele><time>2026-05-03T07:46:11.744Z</time></trkpt><trkpt lat="37.9959658" lon="15.0111501"><ele>975.0</ele><time>2026-05-03T07:46:13.745Z</time></trkpt><trkpt lat="37.9958917" lon="15.0112135"><ele>974.9999999999999</ele><time>2026-05-03T07:46:15.745Z</time></trkpt><trkpt lat="37.995831" lon="15.0112598"><ele>975.0</ele><time>2026-05-03T07:46:17.744Z</time></trkpt><trkpt lat="37.9957649" lon="15.0112949"><ele>975.0</ele><time>2026-05-03T07:46:19.744Z</time></trkpt><trkpt lat="37.9956873" lon="15.0113063"><ele>979.0</ele><time>2026-05-03T07:46:21.744Z</time></trkpt><trkpt lat="37.9956089" lon="15.011315"><ele>983.0</ele><time>2026-05-03T07:46:23.744Z</time></trkpt><trkpt lat="37.9955173" lon="15.0113503"><ele>987.0</ele><time>2026-05-03T07:46:25.744Z</time></trkpt><trkpt lat="37.9954483" lon="15.0113801"><ele>991.0</ele><time>2026-05-03T07:46:27.744Z</time></trkpt><trkpt lat="37.9953855" lon="15.0113545"><ele>995.0</ele><time>2026-05-03T07:46:29.744Z</time></trkpt><trkpt lat="37.9954102" lon="15.0112652"><ele>999.0</ele><time>2026-05-03T07:46:31.744Z</time></trkpt><trkpt lat="37.9955054" lon="15.0112227"><ele>999.0</ele><time>2026-05-03T07:46:33.744Z</time></trkpt><trkpt lat="37.9956045" lon="15.0111623"><ele>999.0000000000001</ele><time>2026-05-03T07:46:35.744Z</time></trkpt><trkpt lat="37.9957007" lon="15.0110785"><ele>999.0000000000001</ele><time>2026-05-03T07:46:37.744Z</time></trkpt><trkpt lat="37.9957981" lon="15.0109731"><ele>999.0</ele><time>2026-05-03T07:46:39.744Z</time></trkpt><trkpt lat="37.9958404" lon="15.0109111"><ele>999.0</ele><time>2026-05-03T07:46:40.744Z</time></trkpt><trkpt lat="37.9958465" lon="15.0108061"><ele>999.0</ele><time>2026-05-03T07:46:42.744Z</time></trkpt><trkpt lat="37.995759" lon="15.0108496"><ele>999.0</ele><time>2026-05-03T07:46:45.744Z</time></trkpt><trkpt lat="37.9956897" lon="15.0109394"><ele>999.0</ele><time>2026-05-03T07:46:47.744Z</time></trkpt><trkpt lat="37.9955893" lon="15.0110302"><ele>999.0</ele><time>2026-05-03T07:46:49.745Z</time></trkpt><trkpt lat="37.9955282" lon="15.0110567"><ele>999.0</ele><time>2026-05-03T07:46:50.745Z</time></trkpt><trkpt lat="37.9954657" lon="15.0110788"><ele>999.0</ele><time>2026-05-03T07:46:51.744Z</time></trkpt><trkpt lat="37.9954014" lon="15.0111033"><ele>999.0</ele><time>2026-05-03T07:46:52.744Z</time></trkpt><trkpt lat="37.9953058" lon="15.011157"><ele>999.0</ele><time>2026-05-03T07:46:54.745Z</time></trkpt><trkpt lat="37.9952613" lon="15.0110806"><ele>999.0</ele><time>2026-05-03T07:46:57.744Z</time></trkpt><trkpt lat="37.9953304" lon="15.0110087"><ele>999.0</ele><time>2026-05-03T07:47:01.744Z</time></trkpt><trkpt lat="37.9953951" lon="15.0109524"><ele>999.0</ele><time>2026-05-03T07:47:03.745Z</time></trkpt><trkpt lat="37.995447" lon="15.0108987"><ele>999.0</ele><time>2026-05-03T07:47:05.744Z</time></trkpt><trkpt lat="37.995515" lon="15.0108421"><ele>1001.5</ele><time>2026-05-03T07:47:07.744Z</time></trkpt><trkpt lat="37.9955955" lon="15.0107373"><ele>1004.0</ele><time>2026-05-03T07:47:09.744Z</time></trkpt><trkpt lat="37.9956225" lon="15.0106057"><ele>1006.5</ele><time>2026-05-03T07:47:11.745Z</time></trkpt><trkpt lat="37.9955609" lon="15.0105848"><ele>1009.0</ele><time>2026-05-03T07:47:13.744Z</time></trkpt><trkpt lat="37.995515" lon="15.0106527"><ele>1011.5</ele><time>2026-05-03T07:47:15.744Z</time></trkpt><trkpt lat="37.9954606" lon="15.010734"><ele>1014.0</ele><time>2026-05-03T07:47:17.744Z</time></trkpt><trkpt lat="37.9953918" lon="15.0108148"><ele>1014.0</ele><time>2026-05-03T07:47:19.744Z</time></trkpt><trkpt lat="37.9953109" lon="15.0108814"><ele>1014.0000000000001</ele><time>2026-05-03T07:47:21.744Z</time></trkpt><trkpt lat="37.9952399" lon="15.0108899"><ele>1014.0000000000001</ele><time>2026-05-03T07:47:23.745Z</time></trkpt><trkpt lat="37.9952384" lon="15.0107677"><ele>1014.0</ele><time>2026-05-03T07:47:26.744Z</time></trkpt><trkpt lat="37.9953197" lon="15.0107269"><ele>1014.0</ele><time>2026-05-03T07:47:28.744Z</time></trkpt><trkpt lat="37.9954123" lon="15.0106333"><ele>1014.0</ele><time>2026-05-03T07:47:30.744Z</time></trkpt><trkpt lat="37.9954523" lon="15.0105201"><ele>1014.0</ele><time>2026-05-03T07:47:32.744Z</time></trkpt><trkpt lat="37.9954641" lon="15.0104088"><ele>1014.0</ele><time>2026-05-03T07:47:34.745Z</time></trkpt><trkpt lat="37.9954421" lon="15.0103154"><ele>1014.0</ele><time>2026-05-03T07:47:36.745Z</time></trkpt><trkpt lat="37.9953766" lon="15.0103354"><ele>1014.0</ele><time>2026-05-03T07:47:39.744Z</time></trkpt><trkpt lat="37.9953378" lon="15.0104102"><ele>1014.0</ele><time>2026-05-03T07:47:41.744Z</time></trkpt><trkpt lat="37.9952884" lon="15.0104903"><ele>1014.0</ele><time>2026-05-03T07:47:45.744Z</time></trkpt><trkpt lat="37.9952588" lon="15.0105625"><ele>1014.0</ele><time>2026-05-03T07:47:47.744Z</time></trkpt><trkpt lat="37.9951967" lon="15.0106204"><ele>1014.0</ele><time>2026-05-03T07:47:49.744Z</time></trkpt><trkpt lat="37.9951234" lon="15.0106782"><ele>1014.0</ele><time>2026-05-03T07:47:51.744Z</time></trkpt><trkpt lat="37.995045" lon="15.0107397"><ele>1014.0</ele><time>2026-05-03T07:47:53.744Z</time></trkpt><trkpt lat="37.9949672" lon="15.0107893"><ele>1014.0</ele><time>2026-05-03T07:47:55.744Z</time></trkpt><trkpt lat="37.9948795" lon="15.0108203"><ele>1016.1666666666666</ele><time>2026-05-03T07:47:57.744Z</time></trkpt><trkpt lat="37.994814" lon="15.010856"><ele>1018.3333333333333</ele><time>2026-05-03T07:47:59.744Z</time></trkpt><trkpt lat="37.9947251" lon="15.0109062"><ele>1020.5</ele><time>2026-05-03T07:48:01.744Z</time></trkpt><trkpt lat="37.9946503" lon="15.0109551"><ele>1022.6666666666666</ele><time>2026-05-03T07:48:04.744Z</time></trkpt><trkpt lat="37.9946086" lon="15.0108938"><ele>1024.8333333333333</ele><time>2026-05-03T07:48:06.744Z</time></trkpt><trkpt lat="37.9946617" lon="15.0108286"><ele>1027.0</ele><time>2026-05-03T07:48:08.744Z</time></trkpt><trkpt lat="37.9947338" lon="15.0107608"><ele>1029.6666666666665</ele><time>2026-05-03T07:48:10.744Z</time></trkpt><trkpt lat="37.9948175" lon="15.0106445"><ele>1032.3333333333333</ele><time>2026-05-03T07:48:12.744Z</time></trkpt><trkpt lat="37.9948656" lon="15.0105774"><ele>1035.0</ele><time>2026-05-03T07:48:13.744Z</time></trkpt><trkpt lat="37.9949149" lon="15.0105143"><ele>1037.6666666666667</ele><time>2026-05-03T07:48:14.744Z</time></trkpt><trkpt lat="37.9949257" lon="15.0103872"><ele>1040.3333333333335</ele><time>2026-05-03T07:48:16.744Z</time></trkpt><trkpt lat="37.9948487" lon="15.0103871"><ele>1043.0</ele><time>2026-05-03T07:48:18.744Z</time></trkpt><trkpt lat="37.994769" lon="15.010474"><ele>1043.0</ele><time>2026-05-03T07:48:20.744Z</time></trkpt><trkpt lat="37.9947211" lon="15.0105387"><ele>1043.0</ele><time>2026-05-03T07:48:21.744Z</time></trkpt><trkpt lat="37.9946717" lon="15.0105932"><ele>1043.0</ele><time>2026-05-03T07:48:22.744Z</time></trkpt><trkpt lat="37.9945789" lon="15.0106564"><ele>1043.0</ele><time>2026-05-03T07:48:24.744Z</time></trkpt><trkpt lat="37.9944947" lon="15.0107171"><ele>1043.0</ele><time>2026-05-03T07:48:26.744Z</time></trkpt><trkpt lat="37.9944177" lon="15.0107833"><ele>1043.0</ele><time>2026-05-03T07:48:28.743Z</time></trkpt><trkpt lat="37.9943369" lon="15.0108199"><ele>1043.0</ele><time>2026-05-03T07:48:30.744Z</time></trkpt><trkpt lat="37.9942716" lon="15.0108567"><ele>1043.0</ele><time>2026-05-03T07:48:32.745Z</time></trkpt><trkpt lat="37.9942023" lon="15.0108512"><ele>1043.0</ele><time>2026-05-03T07:48:36.744Z</time></trkpt><trkpt lat="37.9942384" lon="15.0107791"><ele>1043.0</ele><time>2026-05-03T07:48:38.744Z</time></trkpt><trkpt lat="37.9942869" lon="15.0107106"><ele>1043.0</ele><time>2026-05-03T07:48:40.744Z</time></trkpt><trkpt lat="37.9943329" lon="15.0106472"><ele>1043.0</ele><time>2026-05-03T07:48:42.744Z</time></trkpt><trkpt lat="37.9943699" lon="15.0105794"><ele>1043.0</ele><time>2026-05-03T07:48:45.745Z</time></trkpt><trkpt lat="37.9944332" lon="15.0104777"><ele>1043.0</ele><time>2026-05-03T07:48:47.744Z</time></trkpt><trkpt lat="37.9944741" lon="15.0104035"><ele>1043.0</ele><time>2026-05-03T07:48:48.744Z</time></trkpt><trkpt lat="37.9945157" lon="15.0103187"><ele>1043.0</ele><time>2026-05-03T07:48:49.744Z</time></trkpt><trkpt lat="37.9945596" lon="15.0102324"><ele>1043.0</ele><time>2026-05-03T07:48:50.744Z</time></trkpt><trkpt lat="37.9945988" lon="15.0101393"><ele>1043.0</ele><time>2026-05-03T07:48:51.743Z</time></trkpt><trkpt lat="37.9946303" lon="15.0100315"><ele>1043.0</ele><time>2026-05-03T07:48:52.744Z</time></trkpt><trkpt lat="37.9946498" lon="15.0099329"><ele>1045.0</ele><time>2026-05-03T07:48:53.744Z</time></trkpt><trkpt lat="37.9946611" lon="15.0098506"><ele>1047.0</ele><time>2026-05-03T07:48:54.745Z</time></trkpt><trkpt lat="37.9946947" lon="15.0097684"><ele>1049.0</ele><time>2026-05-03T07:48:55.744Z</time></trkpt><trkpt lat="37.9947204" lon="15.0096757"><ele>1051.0</ele><time>2026-05-03T07:48:56.744Z</time></trkpt><trkpt lat="37.9947701" lon="15.0096029"><ele>1053.0</ele><time>2026-05-03T07:48:57.744Z</time></trkpt><trkpt lat="37.9948213" lon="15.009534"><ele>1055.0</ele><time>2026-05-03T07:48:58.744Z</time></trkpt><trkpt lat="37.9948721" lon="15.0094273"><ele>1055.0</ele><time>2026-05-03T07:49:00.744Z</time></trkpt><trkpt lat="37.9947856" lon="15.0094516"><ele>1055.0</ele><time>2026-05-03T07:49:03.744Z</time></trkpt><trkpt lat="37.994709" lon="15.0095413"><ele>1055.0</ele><time>2026-05-03T07:49:05.744Z</time></trkpt><trkpt lat="37.9946287" lon="15.0096428"><ele>1055.0</ele><time>2026-05-03T07:49:07.743Z</time></trkpt><trkpt lat="37.9945653" lon="15.0097461"><ele>1055.0</ele><time>2026-05-03T07:49:09.744Z</time></trkpt><trkpt lat="37.994506" lon="15.0098761"><ele>1055.0</ele><time>2026-05-03T07:49:11.744Z</time></trkpt><trkpt lat="37.994467" lon="15.0099404"><ele>1055.0</ele><time>2026-05-03T07:49:12.744Z</time></trkpt><trkpt lat="37.9944245" lon="15.0100063"><ele>1055.0</ele><time>2026-05-03T07:49:13.744Z</time></trkpt><trkpt lat="37.9943819" lon="15.010082"><ele>1055.0</ele><time>2026-05-03T07:49:14.744Z</time></trkpt><trkpt lat="37.9942919" lon="15.0101905"><ele>1055.0</ele><time>2026-05-03T07:49:16.744Z</time></trkpt><trkpt lat="37.9942346" lon="15.0102413"><ele>1055.0</ele><time>2026-05-03T07:49:17.744Z</time></trkpt><trkpt lat="37.9941665" lon="15.0102921"><ele>1057.4285714285716</ele><time>2026-05-03T07:49:18.744Z</time></trkpt><trkpt lat="37.994104" lon="15.0103443"><ele>1059.857142857143</ele><time>2026-05-03T07:49:19.745Z</time></trkpt><trkpt lat="37.9940327" lon="15.0103875"><ele>1062.2857142857142</ele><time>2026-05-03T07:49:20.744Z</time></trkpt><trkpt lat="37.9939638" lon="15.0104304"><ele>1064.7142857142858</ele><time>2026-05-03T07:49:21.746Z</time></trkpt><trkpt lat="37.9939037" lon="15.01046"><ele>1067.142857142857</ele><time>2026-05-03T07:49:22.746Z</time></trkpt><trkpt lat="37.9938229" lon="15.0104371"><ele>1069.5714285714287</ele><time>2026-05-03T07:49:24.745Z</time></trkpt><trkpt lat="37.9938497" lon="15.0103591"><ele>1072.0</ele><time>2026-05-03T07:49:26.745Z</time></trkpt><trkpt lat="37.9939169" lon="15.0103074"><ele>1072.0</ele><time>2026-05-03T07:49:28.745Z</time></trkpt><trkpt lat="37.993991" lon="15.0102357"><ele>1072.0</ele><time>2026-05-03T07:49:30.744Z</time></trkpt><trkpt lat="37.9940831" lon="15.0101259"><ele>1072.0</ele><time>2026-05-03T07:49:32.745Z</time></trkpt><trkpt lat="37.9941334" lon="15.010046"><ele>1072.0</ele><time>2026-05-03T07:49:33.745Z</time></trkpt><trkpt lat="37.9941806" lon="15.009958"><ele>1072.0</ele><time>2026-05-03T07:49:34.745Z</time></trkpt><trkpt lat="37.9942243" lon="15.0098638"><ele>1068.6</ele><time>2026-05-03T07:49:35.745Z</time></trkpt><trkpt lat="37.994267" lon="15.0097646"><ele>1065.2</ele><time>2026-05-03T07:49:36.745Z</time></trkpt><trkpt lat="37.9943175" lon="15.0096534"><ele>1061.8</ele><time>2026-05-03T07:49:37.746Z</time></trkpt><trkpt lat="37.9943567" lon="15.0095337"><ele>1058.4</ele><time>2026-05-03T07:49:38.746Z</time></trkpt><trkpt lat="37.9944068" lon="15.0094215"><ele>1055.0</ele><time>2026-05-03T07:49:39.745Z</time></trkpt><trkpt lat="37.9944551" lon="15.0093149"><ele>1055.0</ele><time>2026-05-03T07:49:40.745Z</time></trkpt><trkpt lat="37.9944921" lon="15.0092333"><ele>1055.0</ele><time>2026-05-03T07:49:41.745Z</time></trkpt><trkpt lat="37.9945238" lon="15.0091405"><ele>1055.0</ele><time>2026-05-03T07:49:42.745Z</time></trkpt><trkpt lat="37.9945436" lon="15.0090386"><ele>1055.0</ele><time>2026-05-03T07:49:43.745Z</time></trkpt><trkpt lat="37.9945534" lon="15.0089362"><ele>1055.0</ele><time>2026-05-03T07:49:44.745Z</time></trkpt><trkpt lat="37.9945444" lon="15.0088184"><ele>1055.0</ele><time>2026-05-03T07:49:45.745Z</time></trkpt><trkpt lat="37.9945256" lon="15.0086876"><ele>1056.0</ele><time>2026-05-03T07:49:46.745Z</time></trkpt><trkpt lat="37.9945027" lon="15.0085554"><ele>1057.0</ele><time>2026-05-03T07:49:47.745Z</time></trkpt><trkpt lat="37.9944853" lon="15.0084381"><ele>1058.0</ele><time>2026-05-03T07:49:48.745Z</time></trkpt><trkpt lat="37.9944724" lon="15.0083503"><ele>1059.0</ele><time>2026-05-03T07:49:49.745Z</time></trkpt><trkpt lat="37.9944278" lon="15.0082645"><ele>1060.0</ele><time>2026-05-03T07:49:51.745Z</time></trkpt><trkpt lat="37.9943919" lon="15.008196"><ele>1061.0</ele><time>2026-05-03T07:50:08.747Z</time></trkpt><trkpt lat="37.994403" lon="15.0081131"><ele>1061.6</ele><time>2026-05-03T07:50:17.745Z</time></trkpt><trkpt lat="37.9944416" lon="15.0080376"><ele>1062.1999999999998</ele><time>2026-05-03T07:50:19.745Z</time></trkpt><trkpt lat="37.9945422" lon="15.0079849"><ele>1062.8000000000002</ele><time>2026-05-03T07:50:21.745Z</time></trkpt><trkpt lat="37.994635" lon="15.0079968"><ele>1063.4</ele><time>2026-05-03T07:50:22.745Z</time></trkpt><trkpt lat="37.994747" lon="15.0079785"><ele>1064.0</ele><time>2026-05-03T07:50:23.745Z</time></trkpt><trkpt lat="37.9948517" lon="15.0079599"><ele>1064.0</ele><time>2026-05-03T07:50:24.745Z</time></trkpt><trkpt lat="37.9949483" lon="15.0079438"><ele>1064.0</ele><time>2026-05-03T07:50:25.745Z</time></trkpt><trkpt lat="37.9950356" lon="15.0079416"><ele>1064.0</ele><time>2026-05-03T07:50:26.745Z</time></trkpt><trkpt lat="37.9950992" lon="15.0079399"><ele>1064.0</ele><time>2026-05-03T07:50:27.745Z</time></trkpt><trkpt lat="37.9951682" lon="15.0079449"><ele>1064.0</ele><time>2026-05-03T07:50:30.744Z</time></trkpt><trkpt lat="37.9952372" lon="15.0079422"><ele>1064.0</ele><time>2026-05-03T07:50:39.745Z</time></trkpt><trkpt lat="37.9953395" lon="15.0078841"><ele>1062.8</ele><time>2026-05-03T07:50:41.745Z</time></trkpt><trkpt lat="37.9954279" lon="15.0078404"><ele>1061.6000000000001</ele><time>2026-05-03T07:50:42.745Z</time></trkpt><trkpt lat="37.995525" lon="15.0077619"><ele>1060.4</ele><time>2026-05-03T07:50:43.745Z</time></trkpt><trkpt lat="37.995623" lon="15.0076776"><ele>1059.2</ele><time>2026-05-03T07:50:44.745Z</time></trkpt><trkpt lat="37.9957379" lon="15.0076353"><ele>1058.0</ele><time>2026-05-03T07:50:45.745Z</time></trkpt><trkpt lat="37.9958445" lon="15.0076034"><ele>1056.75</ele><time>2026-05-03T07:50:46.746Z</time></trkpt><trkpt lat="37.9959717" lon="15.0075934"><ele>1055.5</ele><time>2026-05-03T07:50:47.745Z</time></trkpt><trkpt lat="37.9960951" lon="15.0075719"><ele>1054.25</ele><time>2026-05-03T07:50:48.745Z</time></trkpt><trkpt lat="37.9962095" lon="15.0075449"><ele>1053.0</ele><time>2026-05-03T07:50:49.745Z</time></trkpt><trkpt lat="37.9963189" lon="15.0075262"><ele>1053.0</ele><time>2026-05-03T07:50:50.745Z</time></trkpt><trkpt lat="37.996425" lon="15.0075058"><ele>1053.0</ele><time>2026-05-03T07:50:51.745Z</time></trkpt><trkpt lat="37.9965363" lon="15.0075072"><ele>1053.0</ele><time>2026-05-03T07:50:52.746Z</time></trkpt><trkpt lat="37.9966501" lon="15.0075203"><ele>1053.0</ele><time>2026-05-03T07:50:53.745Z</time></trkpt><trkpt lat="37.9967676" lon="15.0075446"><ele>1053.0</ele><time>2026-05-03T07:50:54.747Z</time></trkpt><trkpt lat="37.9968873" lon="15.0075682"><ele>1053.0</ele><time>2026-05-03T07:50:55.745Z</time></trkpt><trkpt lat="37.9970057" lon="15.0075877"><ele>1053.0</ele><time>2026-05-03T07:50:56.745Z</time></trkpt><trkpt lat="37.997124" lon="15.0076169"><ele>1053.0</ele><time>2026-05-03T07:50:57.745Z</time></trkpt><trkpt lat="37.9972302" lon="15.0076447"><ele>1053.0</ele><time>2026-05-03T07:50:58.745Z</time></trkpt><trkpt lat="37.9973337" lon="15.0076698"><ele>1053.0</ele><time>2026-05-03T07:50:59.745Z</time></trkpt><trkpt lat="37.9974327" lon="15.0076876"><ele>1053.0</ele><time>2026-05-03T07:51:00.746Z</time></trkpt><trkpt lat="37.9975316" lon="15.007694"><ele>1053.0</ele><time>2026-05-03T07:51:01.745Z</time></trkpt><trkpt lat="37.99763" lon="15.0076846"><ele>1053.0</ele><time>2026-05-03T07:51:02.745Z</time></trkpt><trkpt lat="37.9977141" lon="15.007685"><ele>1051.0</ele><time>2026-05-03T07:51:03.745Z</time></trkpt><trkpt lat="37.9977937" lon="15.0076581"><ele>1049.0</ele><time>2026-05-03T07:51:04.745Z</time></trkpt><trkpt lat="37.9978763" lon="15.0076144"><ele>1047.0</ele><time>2026-05-03T07:51:05.745Z</time></trkpt><trkpt lat="37.997962" lon="15.0075612"><ele>1045.0</ele><time>2026-05-03T07:51:06.745Z</time></trkpt><trkpt lat="37.9980601" lon="15.0075282"><ele>1043.0</ele><time>2026-05-03T07:51:07.745Z</time></trkpt><trkpt lat="37.9981669" lon="15.0074961"><ele>1040.6666666666667</ele><time>2026-05-03T07:51:08.745Z</time></trkpt><trkpt lat="37.9982532" lon="15.0074456"><ele>1038.3333333333335</ele><time>2026-05-03T07:51:09.745Z</time></trkpt><trkpt lat="37.9983315" lon="15.0073951"><ele>1036.0</ele><time>2026-05-03T07:51:10.745Z</time></trkpt><trkpt lat="37.9984143" lon="15.00737"><ele>1033.6666666666667</ele><time>2026-05-03T07:51:11.745Z</time></trkpt><trkpt lat="37.9984924" lon="15.0073799"><ele>1031.3333333333333</ele><time>2026-05-03T07:51:12.745Z</time></trkpt><trkpt lat="37.9985767" lon="15.0073824"><ele>1029.0</ele><time>2026-05-03T07:51:13.746Z</time></trkpt><trkpt lat="37.9986736" lon="15.0073862"><ele>1028.4</ele><time>2026-05-03T07:51:14.746Z</time></trkpt><trkpt lat="37.998782" lon="15.0073842"><ele>1027.8000000000002</ele><time>2026-05-03T07:51:15.745Z</time></trkpt><trkpt lat="37.9988925" lon="15.0073841"><ele>1027.1999999999998</ele><time>2026-05-03T07:51:16.745Z</time></trkpt><trkpt lat="37.9990011" lon="15.0073938"><ele>1026.6</ele><time>2026-05-03T07:51:17.745Z</time></trkpt><trkpt lat="37.9991001" lon="15.0074258"><ele>1026.0</ele><time>2026-05-03T07:51:18.745Z</time></trkpt><trkpt lat="37.9991936" lon="15.0074499"><ele>1026.0</ele><time>2026-05-03T07:51:19.745Z</time></trkpt><trkpt lat="37.9992929" lon="15.007476"><ele>1026.0</ele><time>2026-05-03T07:51:20.745Z</time></trkpt><trkpt lat="37.999397" lon="15.0075186"><ele>1026.0</ele><time>2026-05-03T07:51:21.745Z</time></trkpt><trkpt lat="37.9994937" lon="15.0075391"><ele>1026.0</ele><time>2026-05-03T07:51:22.745Z</time></trkpt><trkpt lat="37.9995874" lon="15.0075689"><ele>1026.0</ele><time>2026-05-03T07:51:23.745Z</time></trkpt><trkpt lat="37.9996781" lon="15.0076221"><ele>1028.6</ele><time>2026-05-03T07:51:24.746Z</time></trkpt><trkpt lat="37.9997626" lon="15.0076975"><ele>1031.1999999999998</ele><time>2026-05-03T07:51:25.745Z</time></trkpt><trkpt lat="37.9998415" lon="15.0077877"><ele>1033.8000000000002</ele><time>2026-05-03T07:51:26.745Z</time></trkpt><trkpt lat="37.9999202" lon="15.0078674"><ele>1036.4</ele><time>2026-05-03T07:51:27.745Z</time></trkpt><trkpt lat="38.0000107" lon="15.007912"><ele>1039.0</ele><time>2026-05-03T07:51:28.745Z</time></trkpt><trkpt lat="38.0001" lon="15.0079171"><ele>1039.0</ele><time>2026-05-03T07:51:29.745Z</time></trkpt><trkpt lat="38.0001903" lon="15.0079218"><ele>1039.0</ele><time>2026-05-03T07:51:30.745Z</time></trkpt><trkpt lat="38.0002813" lon="15.0079244"><ele>1039.0</ele><time>2026-05-03T07:51:31.745Z</time></trkpt><trkpt lat="38.0003833" lon="15.0079204"><ele>1039.0</ele><time>2026-05-03T07:51:32.746Z</time></trkpt><trkpt lat="38.0004936" lon="15.0079091"><ele>1039.0</ele><time>2026-05-03T07:51:33.746Z</time></trkpt><trkpt lat="38.0006125" lon="15.0079048"><ele>1039.0</ele><time>2026-05-03T07:51:34.745Z</time></trkpt><trkpt lat="38.0007213" lon="15.0079021"><ele>1039.0</ele><time>2026-05-03T07:51:35.745Z</time></trkpt><trkpt lat="38.000823" lon="15.0079012"><ele>1039.0</ele><time>2026-05-03T07:51:36.745Z</time></trkpt><trkpt lat="38.0009221" lon="15.0078714"><ele>1039.0</ele><time>2026-05-03T07:51:37.745Z</time></trkpt><trkpt lat="38.0010255" lon="15.0078163"><ele>1039.0</ele><time>2026-05-03T07:51:38.745Z</time></trkpt><trkpt lat="38.0011323" lon="15.0077471"><ele>1038.25</ele><time>2026-05-03T07:51:39.745Z</time></trkpt><trkpt lat="38.0012404" lon="15.0076746"><ele>1037.5</ele><time>2026-05-03T07:51:40.746Z</time></trkpt><trkpt lat="38.0013376" lon="15.0076034"><ele>1036.75</ele><time>2026-05-03T07:51:41.746Z</time></trkpt><trkpt lat="38.0014312" lon="15.0075272"><ele>1036.0</ele><time>2026-05-03T07:51:42.745Z</time></trkpt><trkpt lat="38.0015188" lon="15.0074522"><ele>1034.3333333333333</ele><time>2026-05-03T07:51:43.746Z</time></trkpt><trkpt lat="38.0015884" lon="15.0074016"><ele>1032.6666666666665</ele><time>2026-05-03T07:51:44.745Z</time></trkpt><trkpt lat="38.0016722" lon="15.0073461"><ele>1031.0</ele><time>2026-05-03T07:51:46.745Z</time></trkpt><trkpt lat="38.0017814" lon="15.0073087"><ele>1029.3333333333333</ele><time>2026-05-03T07:51:48.746Z</time></trkpt><trkpt lat="38.0018517" lon="15.0072855"><ele>1027.6666666666667</ele><time>2026-05-03T07:51:49.745Z</time></trkpt><trkpt lat="38.0019337" lon="15.0072563"><ele>1026.0</ele><time>2026-05-03T07:51:50.745Z</time></trkpt><trkpt lat="38.0020285" lon="15.0072361"><ele>1026.0</ele><time>2026-05-03T07:51:51.746Z</time></trkpt><trkpt lat="38.0021279" lon="15.0072185"><ele>1026.0</ele><time>2026-05-03T07:51:52.745Z</time></trkpt><trkpt lat="38.0022224" lon="15.0071998"><ele>1026.0</ele><time>2026-05-03T07:51:53.745Z</time></trkpt><trkpt lat="38.0023133" lon="15.0071919"><ele>1026.0</ele><time>2026-05-03T07:51:54.745Z</time></trkpt><trkpt lat="38.0024127" lon="15.0072093"><ele>1026.0</ele><time>2026-05-03T07:51:55.746Z</time></trkpt><trkpt lat="38.0025257" lon="15.0072406"><ele>1027.25</ele><time>2026-05-03T07:51:56.746Z</time></trkpt><trkpt lat="38.0026488" lon="15.0072631"><ele>1028.5</ele><time>2026-05-03T07:51:57.745Z</time></trkpt><trkpt lat="38.0027791" lon="15.0072878"><ele>1029.75</ele><time>2026-05-03T07:51:58.745Z</time></trkpt><trkpt lat="38.0029018" lon="15.0073142"><ele>1031.0</ele><time>2026-05-03T07:51:59.745Z</time></trkpt><trkpt lat="38.0030113" lon="15.0073468"><ele>1031.0</ele><time>2026-05-03T07:52:00.745Z</time></trkpt><trkpt lat="38.0031141" lon="15.0073911"><ele>1031.0</ele><time>2026-05-03T07:52:01.745Z</time></trkpt><trkpt lat="38.0032048" lon="15.007444"><ele>1031.0</ele><time>2026-05-03T07:52:02.746Z</time></trkpt><trkpt lat="38.0032874" lon="15.0074782"><ele>1031.0</ele><time>2026-05-03T07:52:03.745Z</time></trkpt><trkpt lat="38.0033681" lon="15.0074748"><ele>1031.0</ele><time>2026-05-03T07:52:04.746Z</time></trkpt><trkpt lat="38.0034501" lon="15.0074455"><ele>1027.6</ele><time>2026-05-03T07:52:05.745Z</time></trkpt><trkpt lat="38.0035336" lon="15.0074126"><ele>1024.1999999999998</ele><time>2026-05-03T07:52:06.746Z</time></trkpt><trkpt lat="38.0036231" lon="15.007401"><ele>1020.8000000000001</ele><time>2026-05-03T07:52:07.745Z</time></trkpt><trkpt lat="38.0037162" lon="15.0074172"><ele>1017.4000000000001</ele><time>2026-05-03T07:52:08.745Z</time></trkpt><trkpt lat="38.0038126" lon="15.0074398"><ele>1014.0</ele><time>2026-05-03T07:52:09.746Z</time></trkpt><trkpt lat="38.0039072" lon="15.0074403"><ele>1014.0</ele><time>2026-05-03T07:52:10.745Z</time></trkpt><trkpt lat="38.0039988" lon="15.0074351"><ele>1014.0</ele><time>2026-05-03T07:52:11.744Z</time></trkpt><trkpt lat="38.0040892" lon="15.0074376"><ele>1014.0</ele><time>2026-05-03T07:52:12.745Z</time></trkpt><trkpt lat="38.0041672" lon="15.0074369"><ele>1014.0</ele><time>2026-05-03T07:52:13.745Z</time></trkpt><trkpt lat="38.0042431" lon="15.0074363"><ele>1014.0</ele><time>2026-05-03T07:52:14.746Z</time></trkpt><trkpt lat="38.004312" lon="15.0074607"><ele>1014.0</ele><time>2026-05-03T07:52:15.745Z</time></trkpt><trkpt lat="38.0043784" lon="15.0074885"><ele>1016.4000000000001</ele><time>2026-05-03T07:52:16.745Z</time></trkpt><trkpt lat="38.0044833" lon="15.0074963"><ele>1018.8000000000001</ele><time>2026-05-03T07:52:18.745Z</time></trkpt><trkpt lat="38.004592" lon="15.0074461"><ele>1021.1999999999999</ele><time>2026-05-03T07:52:20.745Z</time></trkpt><trkpt lat="38.0046861" lon="15.0073509"><ele>1023.5999999999999</ele><time>2026-05-03T07:52:22.745Z</time></trkpt><trkpt lat="38.0047508" lon="15.0073123"><ele>1026.0</ele><time>2026-05-03T07:52:23.745Z</time></trkpt><trkpt lat="38.0048241" lon="15.0072813"><ele>1020.8</ele><time>2026-05-03T07:52:24.745Z</time></trkpt><trkpt lat="38.0049063" lon="15.0072529"><ele>1015.5999999999999</ele><time>2026-05-03T07:52:25.745Z</time></trkpt><trkpt lat="38.0049784" lon="15.0072328"><ele>1010.4</ele><time>2026-05-03T07:52:26.745Z</time></trkpt><trkpt lat="38.0050519" lon="15.0072316"><ele>1005.2</ele><time>2026-05-03T07:52:27.745Z</time></trkpt><trkpt lat="38.0051598" lon="15.0071991"><ele>1000.0</ele><time>2026-05-03T07:52:29.746Z</time></trkpt><trkpt lat="38.0052607" lon="15.0071552"><ele>999.9999999999999</ele><time>2026-05-03T07:52:31.745Z</time></trkpt><trkpt lat="38.005348" lon="15.00709"><ele>1000.0</ele><time>2026-05-03T07:52:33.745Z</time></trkpt><trkpt lat="38.0054079" lon="15.007054"><ele>1000.0</ele><time>2026-05-03T07:52:34.745Z</time></trkpt><trkpt lat="38.0054762" lon="15.0070063"><ele>1000.0</ele><time>2026-05-03T07:52:35.746Z</time></trkpt><trkpt lat="38.0055456" lon="15.0069684"><ele>999.9999999999999</ele><time>2026-05-03T07:52:36.745Z</time></trkpt><trkpt lat="38.0056101" lon="15.0069361"><ele>1000.0</ele><time>2026-05-03T07:52:37.745Z</time></trkpt><trkpt lat="38.0056864" lon="15.0069049"><ele>999.9999999999999</ele><time>2026-05-03T07:52:38.745Z</time></trkpt><trkpt lat="38.0057754" lon="15.0068788"><ele>1000.0</ele><time>2026-05-03T07:52:39.745Z</time></trkpt><trkpt lat="38.0058473" lon="15.0068238"><ele>1000.0</ele><time>2026-05-03T07:52:40.745Z</time></trkpt><trkpt lat="38.0059154" lon="15.006766"><ele>1000.0</ele><time>2026-05-03T07:52:41.745Z</time></trkpt><trkpt lat="38.0059785" lon="15.0067027"><ele>999.9999999999999</ele><time>2026-05-03T07:52:42.746Z</time></trkpt><trkpt lat="38.0060168" lon="15.0066377"><ele>1000.0</ele><time>2026-05-03T07:52:43.745Z</time></trkpt><trkpt lat="38.0060575" lon="15.0065157"><ele>996.2</ele><time>2026-05-03T07:52:45.745Z</time></trkpt><trkpt lat="38.0061061" lon="15.0064163"><ele>992.4</ele><time>2026-05-03T07:52:47.745Z</time></trkpt><trkpt lat="38.0061832" lon="15.0063151"><ele>988.5999999999999</ele><time>2026-05-03T07:52:49.746Z</time></trkpt><trkpt lat="38.0062899" lon="15.0062515"><ele>984.8</ele><time>2026-05-03T07:52:51.745Z</time></trkpt><trkpt lat="38.0063519" lon="15.0062167"><ele>981.0</ele><time>2026-05-03T07:52:52.745Z</time></trkpt><trkpt lat="38.006461" lon="15.0061628"><ele>981.0</ele><time>2026-05-03T07:52:54.744Z</time></trkpt><trkpt lat="38.0065265" lon="15.0061196"><ele>981.0</ele><time>2026-05-03T07:52:55.745Z</time></trkpt><trkpt lat="38.006597" lon="15.0060727"><ele>981.0</ele><time>2026-05-03T07:52:56.745Z</time></trkpt><trkpt lat="38.006657" lon="15.0060123"><ele>981.0</ele><time>2026-05-03T07:52:57.745Z</time></trkpt><trkpt lat="38.0067586" lon="15.005907"><ele>981.0</ele><time>2026-05-03T07:52:59.745Z</time></trkpt><trkpt lat="38.006812" lon="15.005847"><ele>981.0</ele><time>2026-05-03T07:53:00.745Z</time></trkpt><trkpt lat="38.006913" lon="15.0057662"><ele>977.8</ele><time>2026-05-03T07:53:02.745Z</time></trkpt><trkpt lat="38.007012" lon="15.0056938"><ele>974.5999999999999</ele><time>2026-05-03T07:53:04.745Z</time></trkpt><trkpt lat="38.0070713" lon="15.0056466"><ele>971.4</ele><time>2026-05-03T07:53:05.746Z</time></trkpt><trkpt lat="38.007129" lon="15.0056101"><ele>968.2</ele><time>2026-05-03T07:53:06.745Z</time></trkpt><trkpt lat="38.0072288" lon="15.0055543"><ele>965.0</ele><time>2026-05-03T07:53:08.745Z</time></trkpt><trkpt lat="38.0073273" lon="15.005484"><ele>965.0000000000001</ele><time>2026-05-03T07:53:10.746Z</time></trkpt><trkpt lat="38.007381" lon="15.005441"><ele>965.0</ele><time>2026-05-03T07:53:11.745Z</time></trkpt><trkpt lat="38.0074726" lon="15.0053464"><ele>965.0</ele><time>2026-05-03T07:53:13.745Z</time></trkpt><trkpt lat="38.0075607" lon="15.0052992"><ele>965.0</ele><time>2026-05-03T07:53:15.745Z</time></trkpt><trkpt lat="38.0076571" lon="15.0052621"><ele>965.0000000000001</ele><time>2026-05-03T07:53:17.746Z</time></trkpt><trkpt lat="38.0077207" lon="15.0052427"><ele>965.0</ele><time>2026-05-03T07:53:18.745Z</time></trkpt><trkpt lat="38.0077789" lon="15.0052096"><ele>965.8333333333334</ele><time>2026-05-03T07:53:19.745Z</time></trkpt><trkpt lat="38.0078616" lon="15.0051569"><ele>966.6666666666667</ele><time>2026-05-03T07:53:21.744Z</time></trkpt><trkpt lat="38.007946" lon="15.005131"><ele>967.5</ele><time>2026-05-03T07:53:23.745Z</time></trkpt><trkpt lat="38.0080129" lon="15.0051451"><ele>968.3333333333333</ele><time>2026-05-03T07:53:25.745Z</time></trkpt><trkpt lat="38.008096" lon="15.005156"><ele>969.1666666666666</ele><time>2026-05-03T07:53:27.745Z</time></trkpt><trkpt lat="38.0081977" lon="15.0051339"><ele>970.0</ele><time>2026-05-03T07:53:29.745Z</time></trkpt><trkpt lat="38.008291" lon="15.0051148"><ele>970.1666666666666</ele><time>2026-05-03T07:53:31.746Z</time></trkpt><trkpt lat="38.0083304" lon="15.0050446"><ele>970.3333333333333</ele><time>2026-05-03T07:53:33.745Z</time></trkpt><trkpt lat="38.0082862" lon="15.0049669"><ele>970.5</ele><time>2026-05-03T07:53:35.745Z</time></trkpt><trkpt lat="38.008164" lon="15.0049462"><ele>970.6666666666667</ele><time>2026-05-03T07:53:37.745Z</time></trkpt><trkpt lat="38.0080797" lon="15.0049242"><ele>970.8333333333334</ele><time>2026-05-03T07:53:38.745Z</time></trkpt><trkpt lat="38.008006" lon="15.004906"><ele>971.0</ele><time>2026-05-03T07:53:39.746Z</time></trkpt><trkpt lat="38.0079398" lon="15.0048772"><ele>965.6666666666667</ele><time>2026-05-03T07:53:40.745Z</time></trkpt><trkpt lat="38.0078765" lon="15.0048609"><ele>960.3333333333334</ele><time>2026-05-03T07:53:41.745Z</time></trkpt><trkpt lat="38.0078162" lon="15.0048365"><ele>955.0</ele><time>2026-05-03T07:53:42.745Z</time></trkpt><trkpt lat="38.0077176" lon="15.0048065"><ele>949.6666666666667</ele><time>2026-05-03T07:53:44.746Z</time></trkpt><trkpt lat="38.007648" lon="15.0048113"><ele>944.3333333333334</ele><time>2026-05-03T07:53:45.745Z</time></trkpt><trkpt lat="38.0075402" lon="15.0047917"><ele>939.0</ele><time>2026-05-03T07:53:47.745Z</time></trkpt><trkpt lat="38.0074465" lon="15.0048343"><ele>938.7142857142858</ele><time>2026-05-03T07:53:49.747Z</time></trkpt><trkpt lat="38.0073753" lon="15.0048657"><ele>938.4285714285713</ele><time>2026-05-03T07:53:51.745Z</time></trkpt><trkpt lat="38.0073067" lon="15.0048789"><ele>938.1428571428571</ele><time>2026-05-03T07:53:54.746Z</time></trkpt><trkpt lat="38.0072345" lon="15.0048711"><ele>937.8571428571429</ele><time>2026-05-03T07:53:57.746Z</time></trkpt><trkpt lat="38.0072336" lon="15.004781"><ele>937.5714285714287</ele><time>2026-05-03T07:54:00.745Z</time></trkpt><trkpt lat="38.0073038" lon="15.0047523"><ele>937.2857142857142</ele><time>2026-05-03T07:54:02.745Z</time></trkpt><trkpt lat="38.00738" lon="15.0047222"><ele>937.0</ele><time>2026-05-03T07:54:04.745Z</time></trkpt><trkpt lat="38.0074546" lon="15.0046808"><ele>937.3333333333333</ele><time>2026-05-03T07:54:06.745Z</time></trkpt><trkpt lat="38.0075378" lon="15.0046585"><ele>937.6666666666666</ele><time>2026-05-03T07:54:09.745Z</time></trkpt><trkpt lat="38.0076265" lon="15.0046294"><ele>938.0</ele><time>2026-05-03T07:54:12.745Z</time></trkpt><trkpt lat="38.0076943" lon="15.0045993"><ele>938.3333333333333</ele><time>2026-05-03T07:54:14.744Z</time></trkpt><trkpt lat="38.0077626" lon="15.0045455"><ele>938.6666666666666</ele><time>2026-05-03T07:54:16.745Z</time></trkpt><trkpt lat="38.0078449" lon="15.0044688"><ele>939.0</ele><time>2026-05-03T07:54:18.746Z</time></trkpt><trkpt lat="38.0079405" lon="15.0043795"><ele>939.0</ele><time>2026-05-03T07:54:20.745Z</time></trkpt><trkpt lat="38.0080521" lon="15.0043116"><ele>939.0000000000001</ele><time>2026-05-03T07:54:22.745Z</time></trkpt><trkpt lat="38.0081584" lon="15.0042309"><ele>939.0000000000001</ele><time>2026-05-03T07:54:24.744Z</time></trkpt><trkpt lat="38.0082231" lon="15.0041831"><ele>939.0</ele><time>2026-05-03T07:54:25.745Z</time></trkpt><trkpt lat="38.0082906" lon="15.0041472"><ele>939.0</ele><time>2026-05-03T07:54:26.745Z</time></trkpt><trkpt lat="38.0083684" lon="15.0041424"><ele>940.1666666666666</ele><time>2026-05-03T07:54:27.745Z</time></trkpt><trkpt lat="38.0084403" lon="15.0041513"><ele>941.3333333333333</ele><time>2026-05-03T07:54:28.745Z</time></trkpt><trkpt lat="38.0085514" lon="15.0041879"><ele>942.5</ele><time>2026-05-03T07:54:30.745Z</time></trkpt><trkpt lat="38.0086274" lon="15.004185"><ele>943.6666666666666</ele><time>2026-05-03T07:54:32.744Z</time></trkpt><trkpt lat="38.008601" lon="15.0040824"><ele>944.8333333333333</ele><time>2026-05-03T07:54:34.746Z</time></trkpt><trkpt lat="38.0085195" lon="15.0040194"><ele>946.0</ele><time>2026-05-03T07:54:36.745Z</time></trkpt><trkpt lat="38.008405" lon="15.0039693"><ele>939.3333333333333</ele><time>2026-05-03T07:54:38.745Z</time></trkpt><trkpt lat="38.0082855" lon="15.0039709"><ele>932.6666666666666</ele><time>2026-05-03T07:54:40.745Z</time></trkpt><trkpt lat="38.0082174" lon="15.0039583"><ele>926.0</ele><time>2026-05-03T07:54:41.745Z</time></trkpt><trkpt lat="38.0081476" lon="15.003964"><ele>919.3333333333333</ele><time>2026-05-03T07:54:42.747Z</time></trkpt><trkpt lat="38.008065" lon="15.0039527"><ele>912.6666666666666</ele><time>2026-05-03T07:54:44.745Z</time></trkpt><trkpt lat="38.0079937" lon="15.0039325"><ele>906.0</ele><time>2026-05-03T07:54:46.745Z</time></trkpt><trkpt lat="38.0078956" lon="15.0039316"><ele>905.9999999999999</ele><time>2026-05-03T07:54:48.745Z</time></trkpt><trkpt lat="38.0078278" lon="15.0039201"><ele>906.0</ele><time>2026-05-03T07:54:49.745Z</time></trkpt><trkpt lat="38.0077705" lon="15.0038837"><ele>905.9999999999999</ele><time>2026-05-03T07:54:50.746Z</time></trkpt><trkpt lat="38.0077028" lon="15.0038737"><ele>905.9999999999999</ele><time>2026-05-03T07:54:51.745Z</time></trkpt><trkpt lat="38.0076037" lon="15.0038565"><ele>906.0</ele><time>2026-05-03T07:54:53.745Z</time></trkpt><trkpt lat="38.0075285" lon="15.0038156"><ele>905.9999999999999</ele><time>2026-05-03T07:54:56.746Z</time></trkpt><trkpt lat="38.0074635" lon="15.0038054"><ele>905.9999999999999</ele><time>2026-05-03T07:55:00.745Z</time></trkpt><trkpt lat="38.007481" lon="15.0037223"><ele>906.0</ele><time>2026-05-03T07:55:05.745Z</time></trkpt><trkpt lat="38.0075472" lon="15.0037035"><ele>905.9999999999999</ele><time>2026-05-03T07:55:07.745Z</time></trkpt><trkpt lat="38.0076299" lon="15.0037113"><ele>905.9999999999999</ele><time>2026-05-03T07:55:09.745Z</time></trkpt><trkpt lat="38.0077359" lon="15.0036918"><ele>906.0</ele><time>2026-05-03T07:55:11.745Z</time></trkpt><trkpt lat="38.0078222" lon="15.0036574"><ele>906.0</ele><time>2026-05-03T07:55:13.745Z</time></trkpt><trkpt lat="38.0079029" lon="15.0035798"><ele>906.0</ele><time>2026-05-03T07:55:15.745Z</time></trkpt><trkpt lat="38.0079709" lon="15.0035117"><ele>905.9999999999999</ele><time>2026-05-03T07:55:17.746Z</time></trkpt><trkpt lat="38.0080455" lon="15.0034548"><ele>905.9999999999999</ele><time>2026-05-03T07:55:19.745Z</time></trkpt><trkpt lat="38.0081718" lon="15.0034102"><ele>906.0</ele><time>2026-05-03T07:55:21.746Z</time></trkpt><trkpt lat="38.008249" lon="15.0033668"><ele>906.0</ele><time>2026-05-03T07:55:22.746Z</time></trkpt><trkpt lat="38.0083262" lon="15.0033387"><ele>900.5</ele><time>2026-05-03T07:55:23.745Z</time></trkpt><trkpt lat="38.0083994" lon="15.0032874"><ele>895.0</ele><time>2026-05-03T07:55:24.746Z</time></trkpt><trkpt lat="38.0084679" lon="15.0032457"><ele>889.5</ele><time>2026-05-03T07:55:25.746Z</time></trkpt><trkpt lat="38.0085328" lon="15.0031964"><ele>884.0</ele><time>2026-05-03T07:55:26.745Z</time></trkpt><trkpt lat="38.008593" lon="15.0031706"><ele>878.5</ele><time>2026-05-03T07:55:27.744Z</time></trkpt><trkpt lat="38.0087088" lon="15.0031579"><ele>873.0</ele><time>2026-05-03T07:55:29.744Z</time></trkpt><trkpt lat="38.0088093" lon="15.003216"><ele>877.2</ele><time>2026-05-03T07:55:31.745Z</time></trkpt><trkpt lat="38.0088874" lon="15.0033444"><ele>881.4</ele><time>2026-05-03T07:55:33.745Z</time></trkpt><trkpt lat="38.0089357" lon="15.0034118"><ele>885.6000000000001</ele><time>2026-05-03T07:55:34.745Z</time></trkpt><trkpt lat="38.0090269" lon="15.0035078"><ele>889.8000000000001</ele><time>2026-05-03T07:55:35.745Z</time></trkpt><trkpt lat="38.0090998" lon="15.0035902"><ele>894.0</ele><time>2026-05-03T07:55:36.745Z</time></trkpt><trkpt lat="38.0091647" lon="15.0036739"><ele>894.0</ele><time>2026-05-03T07:55:37.745Z</time></trkpt><trkpt lat="38.0092025" lon="15.0037571"><ele>894.0000000000001</ele><time>2026-05-03T07:55:38.746Z</time></trkpt><trkpt lat="38.0092441" lon="15.0038983"><ele>894.0000000000001</ele><time>2026-05-03T07:55:40.746Z</time></trkpt><trkpt lat="38.0092433" lon="15.0040556"><ele>894.0</ele><time>2026-05-03T07:55:42.745Z</time></trkpt><trkpt lat="38.0092504" lon="15.0041412"><ele>894.0</ele><time>2026-05-03T07:55:43.746Z</time></trkpt><trkpt lat="38.0092718" lon="15.0042184"><ele>898.6</ele><time>2026-05-03T07:55:44.745Z</time></trkpt><trkpt lat="38.0093161" lon="15.0043464"><ele>903.2</ele><time>2026-05-03T07:55:46.745Z</time></trkpt><trkpt lat="38.0094276" lon="15.0044137"><ele>907.8000000000001</ele><time>2026-05-03T07:55:48.745Z</time></trkpt><trkpt lat="38.0095242" lon="15.0044678"><ele>912.4000000000001</ele><time>2026-05-03T07:55:50.745Z</time></trkpt><trkpt lat="38.009598" lon="15.0044813"><ele>917.0</ele><time>2026-05-03T07:55:51.745Z</time></trkpt><trkpt lat="38.0096721" lon="15.0045208"><ele>917.0</ele><time>2026-05-03T07:55:52.745Z</time></trkpt><trkpt lat="38.0097728" lon="15.0045833"><ele>917.0</ele><time>2026-05-03T07:55:54.745Z</time></trkpt><trkpt lat="38.0097742" lon="15.0046932"><ele>917.0</ele><time>2026-05-03T07:55:55.745Z</time></trkpt><trkpt lat="38.0098002" lon="15.0047733"><ele>917.0</ele><time>2026-05-03T07:55:56.745Z</time></trkpt><trkpt lat="38.0098569" lon="15.0048674"><ele>917.0</ele><time>2026-05-03T07:55:58.745Z</time></trkpt><trkpt lat="38.0099397" lon="15.0049592"><ele>919.3333333333334</ele><time>2026-05-03T07:56:00.745Z</time></trkpt><trkpt lat="38.0099481" lon="15.0050843"><ele>921.6666666666667</ele><time>2026-05-03T07:56:02.745Z</time></trkpt><trkpt lat="38.0099205" lon="15.0051621"><ele>924.0</ele><time>2026-05-03T07:56:03.745Z</time></trkpt><trkpt lat="38.0099139" lon="15.0052624"><ele>926.3333333333333</ele><time>2026-05-03T07:56:04.745Z</time></trkpt><trkpt lat="38.0099308" lon="15.0053673"><ele>928.6666666666666</ele><time>2026-05-03T07:56:05.745Z</time></trkpt><trkpt lat="38.009931" lon="15.0054626"><ele>931.0</ele><time>2026-05-03T07:56:06.745Z</time></trkpt><trkpt lat="38.0099273" lon="15.0055442"><ele>931.0</ele><time>2026-05-03T07:56:07.746Z</time></trkpt><trkpt lat="38.0099805" lon="15.0055925"><ele>930.9999999999999</ele><time>2026-05-03T07:56:08.746Z</time></trkpt><trkpt lat="38.0100533" lon="15.0056941"><ele>930.9999999999999</ele><time>2026-05-03T07:56:10.745Z</time></trkpt><trkpt lat="38.0101613" lon="15.0057181"><ele>931.0</ele><time>2026-05-03T07:56:12.746Z</time></trkpt><trkpt lat="38.0102552" lon="15.0057575"><ele>931.0</ele><time>2026-05-03T07:56:13.745Z</time></trkpt><trkpt lat="38.0103282" lon="15.005795"><ele>928.1428571428571</ele><time>2026-05-03T07:56:14.744Z</time></trkpt><trkpt lat="38.0103886" lon="15.0058499"><ele>925.2857142857142</ele><time>2026-05-03T07:56:15.745Z</time></trkpt><trkpt lat="38.0104411" lon="15.0059162"><ele>922.4285714285714</ele><time>2026-05-03T07:56:16.745Z</time></trkpt><trkpt lat="38.0104838" lon="15.0059751"><ele>919.5714285714286</ele><time>2026-05-03T07:56:17.745Z</time></trkpt><trkpt lat="38.0105454" lon="15.0060237"><ele>916.7142857142857</ele><time>2026-05-03T07:56:18.745Z</time></trkpt><trkpt lat="38.0106159" lon="15.0060449"><ele>913.8571428571429</ele><time>2026-05-03T07:56:19.746Z</time></trkpt><trkpt lat="38.0106917" lon="15.0060527"><ele>911.0</ele><time>2026-05-03T07:56:20.745Z</time></trkpt><trkpt lat="38.0107611" lon="15.0060624"><ele>904.6666666666667</ele><time>2026-05-03T07:56:21.746Z</time></trkpt><trkpt lat="38.0108392" lon="15.0060852"><ele>898.3333333333334</ele><time>2026-05-03T07:56:22.746Z</time></trkpt><trkpt lat="38.0109093" lon="15.0061118"><ele>892.0</ele><time>2026-05-03T07:56:23.745Z</time></trkpt><trkpt lat="38.0109684" lon="15.0061551"><ele>885.6666666666667</ele><time>2026-05-03T07:56:24.746Z</time></trkpt><trkpt lat="38.0110245" lon="15.0062125"><ele>879.3333333333334</ele><time>2026-05-03T07:56:25.746Z</time></trkpt><trkpt lat="38.0110862" lon="15.006279"><ele>873.0</ele><time>2026-05-03T07:56:26.746Z</time></trkpt><trkpt lat="38.0111527" lon="15.0063359"><ele>873.0</ele><time>2026-05-03T07:56:27.746Z</time></trkpt><trkpt lat="38.0112202" lon="15.0063731"><ele>873.0</ele><time>2026-05-03T07:56:28.745Z</time></trkpt><trkpt lat="38.0112798" lon="15.0064098"><ele>873.0</ele><time>2026-05-03T07:56:29.745Z</time></trkpt><trkpt lat="38.0113297" lon="15.0064753"><ele>873.0</ele><time>2026-05-03T07:56:30.746Z</time></trkpt><trkpt lat="38.0113807" lon="15.0065309"><ele>873.0</ele><time>2026-05-03T07:56:31.745Z</time></trkpt><trkpt lat="38.0114398" lon="15.0066657"><ele>873.0</ele><time>2026-05-03T07:56:33.746Z</time></trkpt><trkpt lat="38.0114379" lon="15.0067517"><ele>877.0</ele><time>2026-05-03T07:56:34.745Z</time></trkpt><trkpt lat="38.0114302" lon="15.0068363"><ele>881.0</ele><time>2026-05-03T07:56:35.745Z</time></trkpt><trkpt lat="38.0113775" lon="15.0069685"><ele>885.0</ele><time>2026-05-03T07:56:37.746Z</time></trkpt><trkpt lat="38.0114133" lon="15.0070444"><ele>889.0</ele><time>2026-05-03T07:56:39.745Z</time></trkpt><trkpt lat="38.0115023" lon="15.0070067"><ele>893.0</ele><time>2026-05-03T07:56:41.745Z</time></trkpt><trkpt lat="38.011614" lon="15.006991"><ele>886.3333333333334</ele><time>2026-05-03T07:56:43.745Z</time></trkpt><trkpt lat="38.0117035" lon="15.0069758"><ele>879.6666666666667</ele><time>2026-05-03T07:56:45.745Z</time></trkpt><trkpt lat="38.0117818" lon="15.0069714"><ele>873.0</ele><time>2026-05-03T07:56:47.744Z</time></trkpt><trkpt lat="38.0118604" lon="15.0069697"><ele>866.3333333333333</ele><time>2026-05-03T07:56:49.745Z</time></trkpt><trkpt lat="38.0119447" lon="15.0070106"><ele>859.6666666666666</ele><time>2026-05-03T07:56:52.746Z</time></trkpt><trkpt lat="38.0120228" lon="15.0070626"><ele>853.0</ele><time>2026-05-03T07:56:55.745Z</time></trkpt><trkpt lat="38.0121136" lon="15.0070958"><ele>852.9999999999999</ele><time>2026-05-03T07:56:58.745Z</time></trkpt><trkpt lat="38.0121818" lon="15.0071373"><ele>853.0</ele><time>2026-05-03T07:57:00.745Z</time></trkpt><trkpt lat="38.0122496" lon="15.0071794"><ele>853.0</ele><time>2026-05-03T07:57:02.745Z</time></trkpt><trkpt lat="38.0123096" lon="15.0072307"><ele>853.0</ele><time>2026-05-03T07:57:04.745Z</time></trkpt><trkpt lat="38.0123781" lon="15.0073278"><ele>852.9999999999999</ele><time>2026-05-03T07:57:06.745Z</time></trkpt><trkpt lat="38.012474" lon="15.0073471"><ele>853.0</ele><time>2026-05-03T07:57:08.745Z</time></trkpt><trkpt lat="38.012541" lon="15.0073411"><ele>846.5999999999999</ele><time>2026-05-03T07:57:10.746Z</time></trkpt><trkpt lat="38.0126141" lon="15.0073467"><ele>840.1999999999999</ele><time>2026-05-03T07:57:12.745Z</time></trkpt><trkpt lat="38.0126899" lon="15.0073592"><ele>833.8</ele><time>2026-05-03T07:57:14.745Z</time></trkpt><trkpt lat="38.0128087" lon="15.0073494"><ele>827.4</ele><time>2026-05-03T07:57:16.745Z</time></trkpt><trkpt lat="38.0129117" lon="15.0073395"><ele>821.0</ele><time>2026-05-03T07:57:18.745Z</time></trkpt><trkpt lat="38.0130213" lon="15.0073264"><ele>821.0000000000001</ele><time>2026-05-03T07:57:20.745Z</time></trkpt><trkpt lat="38.0131058" lon="15.0073806"><ele>821.0</ele><time>2026-05-03T07:57:22.745Z</time></trkpt><trkpt lat="38.0131744" lon="15.0073903"><ele>821.0</ele><time>2026-05-03T07:57:24.744Z</time></trkpt><trkpt lat="38.0132554" lon="15.0073721"><ele>821.0</ele><time>2026-05-03T07:57:27.745Z</time></trkpt><trkpt lat="38.0133371" lon="15.0073887"><ele>821.0000000000001</ele><time>2026-05-03T07:57:30.745Z</time></trkpt><trkpt lat="38.0134564" lon="15.0073713"><ele>821.0</ele><time>2026-05-03T07:57:32.745Z</time></trkpt><trkpt lat="38.0135776" lon="15.0073482"><ele>818.3333333333334</ele><time>2026-05-03T07:57:34.745Z</time></trkpt><trkpt lat="38.0136424" lon="15.0073471"><ele>815.6666666666667</ele><time>2026-05-03T07:57:35.745Z</time></trkpt><trkpt lat="38.0137612" lon="15.007322"><ele>813.0</ele><time>2026-05-03T07:57:37.744Z</time></trkpt><trkpt lat="38.0137994" lon="15.0072356"><ele>810.3333333333333</ele><time>2026-05-03T07:57:39.745Z</time></trkpt><trkpt lat="38.0137153" lon="15.0072179"><ele>807.6666666666666</ele><time>2026-05-03T07:57:41.745Z</time></trkpt><trkpt lat="38.0136497" lon="15.0072022"><ele>805.0</ele><time>2026-05-03T07:57:42.745Z</time></trkpt><trkpt lat="38.0135679" lon="15.0071832"><ele>804.9999999999999</ele><time>2026-05-03T07:57:43.745Z</time></trkpt><trkpt lat="38.0134835" lon="15.0071536"><ele>805.0</ele><time>2026-05-03T07:57:44.745Z</time></trkpt><trkpt lat="38.0134086" lon="15.0071336"><ele>805.0</ele><time>2026-05-03T07:57:45.745Z</time></trkpt><trkpt lat="38.0133329" lon="15.00712"><ele>805.0</ele><time>2026-05-03T07:57:46.745Z</time></trkpt><trkpt lat="38.0132636" lon="15.0070714"><ele>804.9999999999999</ele><time>2026-05-03T07:57:47.745Z</time></trkpt><trkpt lat="38.0131956" lon="15.0070142"><ele>805.0</ele><time>2026-05-03T07:57:48.746Z</time></trkpt><trkpt lat="38.0131381" lon="15.0069329"><ele>802.8333333333333</ele><time>2026-05-03T07:57:49.745Z</time></trkpt><trkpt lat="38.0130729" lon="15.0068713"><ele>800.6666666666666</ele><time>2026-05-03T07:57:50.746Z</time></trkpt><trkpt lat="38.0129908" lon="15.006829"><ele>798.5</ele><time>2026-05-03T07:57:51.745Z</time></trkpt><trkpt lat="38.012927" lon="15.0067675"><ele>796.3333333333333</ele><time>2026-05-03T07:57:52.745Z</time></trkpt><trkpt lat="38.0128579" lon="15.0067123"><ele>794.1666666666666</ele><time>2026-05-03T07:57:53.746Z</time></trkpt><trkpt lat="38.0127725" lon="15.0066703"><ele>792.0</ele><time>2026-05-03T07:57:55.745Z</time></trkpt><trkpt lat="38.0126545" lon="15.0066563"><ele>792.0</ele><time>2026-05-03T07:57:57.745Z</time></trkpt><trkpt lat="38.0126136" lon="15.0065922"><ele>792.0</ele><time>2026-05-03T07:57:58.745Z</time></trkpt><trkpt lat="38.0125601" lon="15.0065246"><ele>792.0</ele><time>2026-05-03T07:57:59.745Z</time></trkpt><trkpt lat="38.0125226" lon="15.0064216"><ele>792.0</ele><time>2026-05-03T07:58:00.745Z</time></trkpt><trkpt lat="38.0124637" lon="15.0063616"><ele>792.0</ele><time>2026-05-03T07:58:01.745Z</time></trkpt><trkpt lat="38.012372" lon="15.0063324"><ele>792.0</ele><time>2026-05-03T07:58:02.746Z</time></trkpt><trkpt lat="38.0122893" lon="15.0062621"><ele>798.8</ele><time>2026-05-03T07:58:03.745Z</time></trkpt><trkpt lat="38.0122029" lon="15.006199"><ele>805.6</ele><time>2026-05-03T07:58:04.745Z</time></trkpt><trkpt lat="38.0121151" lon="15.0061403"><ele>812.4</ele><time>2026-05-03T07:58:05.745Z</time></trkpt><trkpt lat="38.0120439" lon="15.0060478"><ele>819.1999999999999</ele><time>2026-05-03T07:58:06.746Z</time></trkpt><trkpt lat="38.0119684" lon="15.0059628"><ele>826.0</ele><time>2026-05-03T07:58:07.745Z</time></trkpt><trkpt lat="38.0119148" lon="15.0058773"><ele>828.6666666666666</ele><time>2026-05-03T07:58:08.745Z</time></trkpt><trkpt lat="38.0118605" lon="15.0057868"><ele>831.3333333333333</ele><time>2026-05-03T07:58:09.745Z</time></trkpt><trkpt lat="38.0118037" lon="15.0056931"><ele>834.0</ele><time>2026-05-03T07:58:10.745Z</time></trkpt><trkpt lat="38.0117398" lon="15.0056344"><ele>836.6666666666667</ele><time>2026-05-03T07:58:11.746Z</time></trkpt><trkpt lat="38.0116765" lon="15.0055704"><ele>839.3333333333334</ele><time>2026-05-03T07:58:12.745Z</time></trkpt><trkpt lat="38.0116184" lon="15.0054796"><ele>842.0</ele><time>2026-05-03T07:58:13.746Z</time></trkpt><trkpt lat="38.0115717" lon="15.0053964"><ele>842.0000000000001</ele><time>2026-05-03T07:58:14.745Z</time></trkpt><trkpt lat="38.011495" lon="15.0053345"><ele>842.0</ele><time>2026-05-03T07:58:16.745Z</time></trkpt><trkpt lat="38.0114243" lon="15.0052983"><ele>842.0</ele><time>2026-05-03T07:58:18.745Z</time></trkpt><trkpt lat="38.0113429" lon="15.0052739"><ele>842.0</ele><time>2026-05-03T07:58:20.745Z</time></trkpt><trkpt lat="38.011281" lon="15.0052553"><ele>842.0000000000001</ele><time>2026-05-03T07:58:21.746Z</time></trkpt><trkpt lat="38.0111791" lon="15.005214"><ele>842.0</ele><time>2026-05-03T07:58:23.744Z</time></trkpt><trkpt lat="38.0110883" lon="15.0051776"><ele>842.0000000000001</ele><time>2026-05-03T07:58:25.746Z</time></trkpt><trkpt lat="38.0109854" lon="15.0051256"><ele>842.0</ele><time>2026-05-03T07:58:27.745Z</time></trkpt><trkpt lat="38.0109426" lon="15.0050265"><ele>842.0</ele><time>2026-05-03T07:58:29.745Z</time></trkpt><trkpt lat="38.010947" lon="15.0049419"><ele>842.0</ele><time>2026-05-03T07:58:30.746Z</time></trkpt><trkpt lat="38.0109563" lon="15.0048607"><ele>842.0000000000001</ele><time>2026-05-03T07:58:31.745Z</time></trkpt><trkpt lat="38.0109868" lon="15.0047772"><ele>842.0</ele><time>2026-05-03T07:58:32.745Z</time></trkpt><trkpt lat="38.011049" lon="15.0047086"><ele>841.8333333333334</ele><time>2026-05-03T07:58:33.745Z</time></trkpt><trkpt lat="38.0110965" lon="15.0046387"><ele>841.6666666666667</ele><time>2026-05-03T07:58:34.745Z</time></trkpt><trkpt lat="38.0111129" lon="15.0045554"><ele>841.5</ele><time>2026-05-03T07:58:35.745Z</time></trkpt><trkpt lat="38.0111161" lon="15.0044592"><ele>841.3333333333333</ele><time>2026-05-03T07:58:36.745Z</time></trkpt><trkpt lat="38.0111167" lon="15.0043556"><ele>841.1666666666666</ele><time>2026-05-03T07:58:37.745Z</time></trkpt><trkpt lat="38.0111235" lon="15.0042446"><ele>841.0</ele><time>2026-05-03T07:58:38.745Z</time></trkpt><trkpt lat="38.0111394" lon="15.0041332"><ele>839.9999999999999</ele><time>2026-05-03T07:58:39.745Z</time></trkpt><trkpt lat="38.0111401" lon="15.0040273"><ele>839.0</ele><time>2026-05-03T07:58:40.745Z</time></trkpt><trkpt lat="38.01111" lon="15.0038707"><ele>838.0</ele><time>2026-05-03T07:58:42.745Z</time></trkpt><trkpt lat="38.0110708" lon="15.0038024"><ele>837.0</ele><time>2026-05-03T07:58:43.745Z</time></trkpt><trkpt lat="38.0110518" lon="15.0037206"><ele>835.9999999999999</ele><time>2026-05-03T07:58:44.745Z</time></trkpt><trkpt lat="38.0110383" lon="15.0036087"><ele>835.0</ele><time>2026-05-03T07:58:45.745Z</time></trkpt><trkpt lat="38.0110241" lon="15.0034854"><ele>835.0</ele><time>2026-05-03T07:58:46.745Z</time></trkpt><trkpt lat="38.011001" lon="15.0033511"><ele>835.0</ele><time>2026-05-03T07:58:47.745Z</time></trkpt><trkpt lat="38.0109536" lon="15.003222"><ele>835.0</ele><time>2026-05-03T07:58:48.745Z</time></trkpt><trkpt lat="38.0109075" lon="15.0031017"><ele>835.0</ele><time>2026-05-03T07:58:49.745Z</time></trkpt><trkpt lat="38.0108624" lon="15.0029862"><ele>835.0</ele><time>2026-05-03T07:58:50.745Z</time></trkpt><trkpt lat="38.0108369" lon="15.0028709"><ele>833.9999999999999</ele><time>2026-05-03T07:58:51.745Z</time></trkpt><trkpt lat="38.0108297" lon="15.0027715"><ele>833.0</ele><time>2026-05-03T07:58:52.746Z</time></trkpt><trkpt lat="38.0108062" lon="15.0026784"><ele>832.0</ele><time>2026-05-03T07:58:53.746Z</time></trkpt><trkpt lat="38.0107723" lon="15.0025834"><ele>831.0</ele><time>2026-05-03T07:58:54.746Z</time></trkpt><trkpt lat="38.0107379" lon="15.0024873"><ele>829.9999999999999</ele><time>2026-05-03T07:58:55.745Z</time></trkpt><trkpt lat="38.0106951" lon="15.0023933"><ele>829.0</ele><time>2026-05-03T07:58:56.746Z</time></trkpt><trkpt lat="38.010656" lon="15.0023034"><ele>828.9999999999999</ele><time>2026-05-03T07:58:57.746Z</time></trkpt><trkpt lat="38.0106122" lon="15.0022182"><ele>829.0</ele><time>2026-05-03T07:58:58.746Z</time></trkpt><trkpt lat="38.0105603" lon="15.0021339"><ele>829.0</ele><time>2026-05-03T07:58:59.746Z</time></trkpt><trkpt lat="38.0105032" lon="15.0020628"><ele>829.0</ele><time>2026-05-03T07:59:00.747Z</time></trkpt><trkpt lat="38.0104558" lon="15.0019932"><ele>828.9999999999999</ele><time>2026-05-03T07:59:01.746Z</time></trkpt><trkpt lat="38.0103989" lon="15.001936"><ele>829.0</ele><time>2026-05-03T07:59:02.746Z</time></trkpt><trkpt lat="38.0103345" lon="15.0018823"><ele>828.9999999999999</ele><time>2026-05-03T07:59:03.746Z</time></trkpt><trkpt lat="38.0102708" lon="15.0018205"><ele>829.0</ele><time>2026-05-03T07:59:04.747Z</time></trkpt><trkpt lat="38.0102071" lon="15.0017505"><ele>829.0</ele><time>2026-05-03T07:59:05.747Z</time></trkpt><trkpt lat="38.0101586" lon="15.0016591"><ele>829.0</ele><time>2026-05-03T07:59:06.746Z</time></trkpt><trkpt lat="38.0101104" lon="15.0015623"><ele>828.9999999999999</ele><time>2026-05-03T07:59:07.746Z</time></trkpt><trkpt lat="38.0100622" lon="15.0014739"><ele>829.0</ele><time>2026-05-03T07:59:08.746Z</time></trkpt><trkpt lat="38.0100265" lon="15.0013686"><ele>824.6</ele><time>2026-05-03T07:59:09.746Z</time></trkpt><trkpt lat="38.0099983" lon="15.0012846"><ele>820.2</ele><time>2026-05-03T07:59:10.746Z</time></trkpt><trkpt lat="38.0099797" lon="15.0012048"><ele>815.8000000000001</ele><time>2026-05-03T07:59:11.745Z</time></trkpt><trkpt lat="38.0099249" lon="15.0010376"><ele>811.4000000000001</ele><time>2026-05-03T07:59:13.746Z</time></trkpt><trkpt lat="38.0099007" lon="15.0009218"><ele>807.0</ele><time>2026-05-03T07:59:14.746Z</time></trkpt><trkpt lat="38.009865" lon="15.0008182"><ele>807.0</ele><time>2026-05-03T07:59:15.746Z</time></trkpt><trkpt lat="38.0098116" lon="15.0007399"><ele>807.0</ele><time>2026-05-03T07:59:16.747Z</time></trkpt><trkpt lat="38.0097103" lon="15.000708"><ele>807.0</ele><time>2026-05-03T07:59:18.746Z</time></trkpt><trkpt lat="38.0095836" lon="15.000799"><ele>807.0</ele><time>2026-05-03T07:59:20.746Z</time></trkpt><trkpt lat="38.0094994" lon="15.0008717"><ele>807.0</ele><time>2026-05-03T07:59:21.746Z</time></trkpt><trkpt lat="38.0094121" lon="15.0009481"><ele>807.0</ele><time>2026-05-03T07:59:22.746Z</time></trkpt><trkpt lat="38.009331" lon="15.0010446"><ele>807.0</ele><time>2026-05-03T07:59:23.747Z</time></trkpt><trkpt lat="38.0092512" lon="15.0011275"><ele>807.0</ele><time>2026-05-03T07:59:24.745Z</time></trkpt><trkpt lat="38.009177" lon="15.0011794"><ele>807.0</ele><time>2026-05-03T07:59:25.746Z</time></trkpt><trkpt lat="38.0091124" lon="15.0011983"><ele>807.0</ele><time>2026-05-03T07:59:26.746Z</time></trkpt><trkpt lat="38.0089998" lon="15.0012372"><ele>804.6666666666666</ele><time>2026-05-03T07:59:28.747Z</time></trkpt><trkpt lat="38.0089375" lon="15.0012254"><ele>802.3333333333333</ele><time>2026-05-03T07:59:29.746Z</time></trkpt><trkpt lat="38.0088593" lon="15.0012023"><ele>800.0</ele><time>2026-05-03T07:59:30.747Z</time></trkpt><trkpt lat="38.0087749" lon="15.0011788"><ele>797.6666666666666</ele><time>2026-05-03T07:59:31.747Z</time></trkpt><trkpt lat="38.0087061" lon="15.0011695"><ele>795.3333333333333</ele><time>2026-05-03T07:59:32.747Z</time></trkpt><trkpt lat="38.0086114" lon="15.0011586"><ele>793.0</ele><time>2026-05-03T07:59:34.746Z</time></trkpt><trkpt lat="38.0085351" lon="15.0011696"><ele>793.0</ele><time>2026-05-03T07:59:37.747Z</time></trkpt><trkpt lat="38.0083803" lon="15.00118"><ele>793.0</ele><time>2026-05-03T07:59:39.746Z</time></trkpt><trkpt lat="38.0082943" lon="15.0012377"><ele>793.0</ele><time>2026-05-03T07:59:40.746Z</time></trkpt><trkpt lat="38.0082181" lon="15.0013429"><ele>793.0</ele><time>2026-05-03T07:59:41.746Z</time></trkpt><trkpt lat="38.0081533" lon="15.0013886"><ele>793.0</ele><time>2026-05-03T07:59:42.746Z</time></trkpt><trkpt lat="38.0080912" lon="15.0013715"><ele>794.5999999999999</ele><time>2026-05-03T07:59:43.747Z</time></trkpt><trkpt lat="38.0080297" lon="15.0013124"><ele>796.1999999999999</ele><time>2026-05-03T07:59:44.746Z</time></trkpt><trkpt lat="38.0079621" lon="15.0012445"><ele>797.8</ele><time>2026-05-03T07:59:45.746Z</time></trkpt><trkpt lat="38.0079053" lon="15.0011976"><ele>799.4</ele><time>2026-05-03T07:59:46.746Z</time></trkpt><trkpt lat="38.0077761" lon="15.0011642"><ele>801.0</ele><time>2026-05-03T07:59:48.746Z</time></trkpt><trkpt lat="38.0076884" lon="15.0011478"><ele>801.0</ele><time>2026-05-03T07:59:49.746Z</time></trkpt><trkpt lat="38.0076148" lon="15.0011435"><ele>801.0</ele><time>2026-05-03T07:59:50.747Z</time></trkpt><trkpt lat="38.0075046" lon="15.0010271"><ele>801.0</ele><time>2026-05-03T07:59:52.746Z</time></trkpt><trkpt lat="38.0074451" lon="15.0009379"><ele>801.0</ele><time>2026-05-03T07:59:53.746Z</time></trkpt><trkpt lat="38.0073746" lon="15.0008641"><ele>801.0</ele><time>2026-05-03T07:59:54.746Z</time></trkpt><trkpt lat="38.0072842" lon="15.000873"><ele>801.6666666666666</ele><time>2026-05-03T07:59:55.746Z</time></trkpt><trkpt lat="38.0071953" lon="15.0009271"><ele>802.3333333333333</ele><time>2026-05-03T07:59:56.746Z</time></trkpt><trkpt lat="38.0071152" lon="15.0009743"><ele>803.0</ele><time>2026-05-03T07:59:57.746Z</time></trkpt><trkpt lat="38.0070395" lon="15.0010056"><ele>803.6666666666666</ele><time>2026-05-03T07:59:58.747Z</time></trkpt><trkpt lat="38.0069559" lon="15.0010233"><ele>804.3333333333333</ele><time>2026-05-03T07:59:59.745Z</time></trkpt><trkpt lat="38.0068839" lon="15.001019"><ele>805.0</ele><time>2026-05-03T08:00:00.746Z</time></trkpt><trkpt lat="38.0068014" lon="15.0010015"><ele>804.9999999999999</ele><time>2026-05-03T08:00:01.746Z</time></trkpt><trkpt lat="38.0067338" lon="15.0009624"><ele>805.0</ele><time>2026-05-03T08:00:02.746Z</time></trkpt><trkpt lat="38.0066591" lon="15.00091"><ele>805.0</ele><time>2026-05-03T08:00:03.746Z</time></trkpt><trkpt lat="38.0065851" lon="15.0008405"><ele>805.0</ele><time>2026-05-03T08:00:04.747Z</time></trkpt><trkpt lat="38.0065085" lon="15.0007906"><ele>804.9999999999999</ele><time>2026-05-03T08:00:05.746Z</time></trkpt><trkpt lat="38.0064424" lon="15.0007645"><ele>805.0</ele><time>2026-05-03T08:00:06.746Z</time></trkpt><trkpt lat="38.0063622" lon="15.0007802"><ele>804.6666666666666</ele><time>2026-05-03T08:00:07.746Z</time></trkpt><trkpt lat="38.0062773" lon="15.0008025"><ele>804.3333333333333</ele><time>2026-05-03T08:00:08.746Z</time></trkpt><trkpt lat="38.0062096" lon="15.0008617"><ele>804.0</ele><time>2026-05-03T08:00:09.745Z</time></trkpt><trkpt lat="38.0061556" lon="15.0009332"><ele>803.6666666666667</ele><time>2026-05-03T08:00:10.746Z</time></trkpt><trkpt lat="38.0060479" lon="15.0009411"><ele>803.3333333333334</ele><time>2026-05-03T08:00:12.746Z</time></trkpt><trkpt lat="38.0059892" lon="15.0008755"><ele>803.0</ele><time>2026-05-03T08:00:13.747Z</time></trkpt><trkpt lat="38.0059187" lon="15.0008026"><ele>804.4285714285713</ele><time>2026-05-03T08:00:15.746Z</time></trkpt><trkpt lat="38.0058813" lon="15.0007357"><ele>805.8571428571429</ele><time>2026-05-03T08:00:25.747Z</time></trkpt><trkpt lat="38.0058984" lon="15.0006474"><ele>807.2857142857142</ele><time>2026-05-03T08:00:28.746Z</time></trkpt><trkpt lat="38.0059524" lon="15.0005932"><ele>808.7142857142857</ele><time>2026-05-03T08:00:36.746Z</time></trkpt><trkpt lat="38.0060036" lon="15.0005411"><ele>810.1428571428571</ele><time>2026-05-03T08:00:39.746Z</time></trkpt><trkpt lat="38.0060559" lon="15.0004964"><ele>811.5714285714286</ele><time>2026-05-03T08:00:41.746Z</time></trkpt><trkpt lat="38.0061036" lon="15.0004084"><ele>813.0</ele><time>2026-05-03T08:00:44.746Z</time></trkpt><trkpt lat="38.0061687" lon="15.0003077"><ele>813.0</ele><time>2026-05-03T08:00:47.746Z</time></trkpt><trkpt lat="38.0062272" lon="15.0002337"><ele>813.0</ele><time>2026-05-03T08:00:49.746Z</time></trkpt><trkpt lat="38.0063225" lon="15.0001718"><ele>813.0</ele><time>2026-05-03T08:00:51.746Z</time></trkpt><trkpt lat="38.006388" lon="15.0001274"><ele>813.0</ele><time>2026-05-03T08:00:52.747Z</time></trkpt><trkpt lat="38.0064608" lon="15.0000912"><ele>813.0</ele><time>2026-05-03T08:00:53.746Z</time></trkpt><trkpt lat="38.0065264" lon="15.0000613"><ele>813.0</ele><time>2026-05-03T08:00:54.747Z</time></trkpt><trkpt lat="38.0065896" lon="15.0000096"><ele>813.0</ele><time>2026-05-03T08:00:56.746Z</time></trkpt><trkpt lat="38.0065618" lon="14.9999147"><ele>813.0</ele><time>2026-05-03T08:00:59.746Z</time></trkpt><trkpt lat="38.0064854" lon="14.9999571"><ele>813.0</ele><time>2026-05-03T08:01:00.746Z</time></trkpt><trkpt lat="38.0063903" lon="14.9999276"><ele>813.0</ele><time>2026-05-03T08:01:02.746Z</time></trkpt><trkpt lat="38.0062937" lon="14.9998939"><ele>813.0</ele><time>2026-05-03T08:01:04.745Z</time></trkpt><trkpt lat="38.0062243" lon="14.9998496"><ele>813.0</ele><time>2026-05-03T08:01:06.746Z</time></trkpt><trkpt lat="38.0063133" lon="14.9997446"><ele>813.0</ele><time>2026-05-03T08:01:09.746Z</time></trkpt><trkpt lat="38.0064545" lon="14.9996828"><ele>813.0</ele><time>2026-05-03T08:01:11.746Z</time></trkpt><trkpt lat="38.0065262" lon="14.9996759"><ele>813.0</ele><time>2026-05-03T08:01:12.746Z</time></trkpt><trkpt lat="38.0065943" lon="14.9996847"><ele>813.0</ele><time>2026-05-03T08:01:13.746Z</time></trkpt><trkpt lat="38.0066729" lon="14.9996864"><ele>813.0</ele><time>2026-05-03T08:01:14.746Z</time></trkpt><trkpt lat="38.0067463" lon="14.9996778"><ele>813.0</ele><time>2026-05-03T08:01:15.746Z</time></trkpt><trkpt lat="38.0068126" lon="14.9996786"><ele>811.1666666666666</ele><time>2026-05-03T08:01:16.746Z</time></trkpt><trkpt lat="38.0068653" lon="14.9997339"><ele>809.3333333333333</ele><time>2026-05-03T08:01:17.746Z</time></trkpt><trkpt lat="38.0069877" lon="14.9997224"><ele>807.5</ele><time>2026-05-03T08:01:19.746Z</time></trkpt><trkpt lat="38.0070556" lon="14.9996959"><ele>805.6666666666666</ele><time>2026-05-03T08:01:20.746Z</time></trkpt><trkpt lat="38.0071287" lon="14.9996732"><ele>803.8333333333333</ele><time>2026-05-03T08:01:21.746Z</time></trkpt><trkpt lat="38.0072067" lon="14.9996535"><ele>802.0</ele><time>2026-05-03T08:01:23.746Z</time></trkpt><trkpt lat="38.0073123" lon="14.9996293"><ele>802.0</ele><time>2026-05-03T08:01:25.746Z</time></trkpt><trkpt lat="38.0074109" lon="14.9996066"><ele>802.0</ele><time>2026-05-03T08:01:27.746Z</time></trkpt><trkpt lat="38.0074754" lon="14.9995312"><ele>802.0</ele><time>2026-05-03T08:01:28.746Z</time></trkpt><trkpt lat="38.0075878" lon="14.9994729"><ele>802.0</ele><time>2026-05-03T08:01:30.746Z</time></trkpt><trkpt lat="38.0076979" lon="14.9993823"><ele>802.0</ele><time>2026-05-03T08:01:32.746Z</time></trkpt><trkpt lat="38.007761" lon="14.9993252"><ele>801.6666666666666</ele><time>2026-05-03T08:01:33.746Z</time></trkpt><trkpt lat="38.0078216" lon="14.9992673"><ele>801.3333333333333</ele><time>2026-05-03T08:01:34.746Z</time></trkpt><trkpt lat="38.0078702" lon="14.9991904"><ele>801.0</ele><time>2026-05-03T08:01:35.746Z</time></trkpt><trkpt lat="38.0079128" lon="14.9991055"><ele>800.6666666666667</ele><time>2026-05-03T08:01:36.746Z</time></trkpt><trkpt lat="38.0079518" lon="14.9990374"><ele>800.3333333333334</ele><time>2026-05-03T08:01:37.747Z</time></trkpt><trkpt lat="38.0079223" lon="14.9989487"><ele>800.0</ele><time>2026-05-03T08:01:39.746Z</time></trkpt><trkpt lat="38.007817" lon="14.9990182"><ele>800.0</ele><time>2026-05-03T08:01:41.746Z</time></trkpt><trkpt lat="38.0077781" lon="14.9990816"><ele>800.0</ele><time>2026-05-03T08:01:42.746Z</time></trkpt><trkpt lat="38.0077325" lon="14.9991381"><ele>800.0</ele><time>2026-05-03T08:01:43.746Z</time></trkpt><trkpt lat="38.0076253" lon="14.9991876"><ele>800.0</ele><time>2026-05-03T08:01:45.746Z</time></trkpt><trkpt lat="38.0075219" lon="14.9991827"><ele>800.0</ele><time>2026-05-03T08:01:47.746Z</time></trkpt><trkpt lat="38.0074002" lon="14.9991175"><ele>806.6666666666667</ele><time>2026-05-03T08:01:49.746Z</time></trkpt><trkpt lat="38.0073364" lon="14.9990838"><ele>813.3333333333334</ele><time>2026-05-03T08:01:50.747Z</time></trkpt><trkpt lat="38.0072644" lon="14.9990483"><ele>820.0</ele><time>2026-05-03T08:01:51.746Z</time></trkpt><trkpt lat="38.007179" lon="14.9990082"><ele>826.6666666666667</ele><time>2026-05-03T08:01:52.746Z</time></trkpt><trkpt lat="38.007114" lon="14.9989766"><ele>833.3333333333334</ele><time>2026-05-03T08:01:53.746Z</time></trkpt><trkpt lat="38.0070095" lon="14.9989253"><ele>840.0</ele><time>2026-05-03T08:01:55.746Z</time></trkpt><trkpt lat="38.0071248" lon="14.9988609"><ele>840.0</ele><time>2026-05-03T08:01:57.746Z</time></trkpt><trkpt lat="38.0071892" lon="14.998831"><ele>840.0</ele><time>2026-05-03T08:01:58.746Z</time></trkpt><trkpt lat="38.0072636" lon="14.9988274"><ele>840.0</ele><time>2026-05-03T08:01:59.746Z</time></trkpt><trkpt lat="38.0073256" lon="14.9988441"><ele>840.0</ele><time>2026-05-03T08:02:00.746Z</time></trkpt><trkpt lat="38.0074241" lon="14.9988687"><ele>840.0</ele><time>2026-05-03T08:02:01.746Z</time></trkpt><trkpt lat="38.0075053" lon="14.9988361"><ele>840.0</ele><time>2026-05-03T08:02:02.746Z</time></trkpt><trkpt lat="38.0075815" lon="14.9987848"><ele>839.8</ele><time>2026-05-03T08:02:03.746Z</time></trkpt><trkpt lat="38.0076413" lon="14.9986849"><ele>839.6</ele><time>2026-05-03T08:02:04.746Z</time></trkpt><trkpt lat="38.0077083" lon="14.998574"><ele>839.4000000000001</ele><time>2026-05-03T08:02:05.746Z</time></trkpt><trkpt lat="38.0077827" lon="14.9984827"><ele>839.2</ele><time>2026-05-03T08:02:06.747Z</time></trkpt><trkpt lat="38.0078429" lon="14.9983654"><ele>839.0</ele><time>2026-05-03T08:02:07.746Z</time></trkpt><trkpt lat="38.0079114" lon="14.9982573"><ele>839.1666666666667</ele><time>2026-05-03T08:02:08.746Z</time></trkpt><trkpt lat="38.0079956" lon="14.9981768"><ele>839.3333333333334</ele><time>2026-05-03T08:02:09.746Z</time></trkpt><trkpt lat="38.0080647" lon="14.9981039"><ele>839.5</ele><time>2026-05-03T08:02:10.746Z</time></trkpt><trkpt lat="38.008139" lon="14.9980334"><ele>839.6666666666667</ele><time>2026-05-03T08:02:11.746Z</time></trkpt><trkpt lat="38.0082118" lon="14.9979652"><ele>839.8333333333334</ele><time>2026-05-03T08:02:12.747Z</time></trkpt><trkpt lat="38.0082743" lon="14.9979553"><ele>840.0</ele><time>2026-05-03T08:02:13.746Z</time></trkpt><trkpt lat="38.0083406" lon="14.9979433"><ele>840.0</ele><time>2026-05-03T08:02:14.746Z</time></trkpt><trkpt lat="38.0084039" lon="14.9979257"><ele>840.0</ele><time>2026-05-03T08:02:15.746Z</time></trkpt><trkpt lat="38.008486" lon="14.9978555"><ele>840.0</ele><time>2026-05-03T08:02:17.746Z</time></trkpt><trkpt lat="38.0085111" lon="14.9977769"><ele>840.0</ele><time>2026-05-03T08:02:18.746Z</time></trkpt><trkpt lat="38.0085293" lon="14.9976979"><ele>840.0</ele><time>2026-05-03T08:02:19.746Z</time></trkpt><trkpt lat="38.0084917" lon="14.9975404"><ele>840.0</ele><time>2026-05-03T08:02:21.747Z</time></trkpt><trkpt lat="38.0084341" lon="14.9974033"><ele>843.0</ele><time>2026-05-03T08:02:23.747Z</time></trkpt><trkpt lat="38.0083961" lon="14.9973312"><ele>846.0</ele><time>2026-05-03T08:02:24.746Z</time></trkpt><trkpt lat="38.0083426" lon="14.997271"><ele>849.0</ele><time>2026-05-03T08:02:25.746Z</time></trkpt><trkpt lat="38.008279" lon="14.9972018"><ele>852.0</ele><time>2026-05-03T08:02:26.747Z</time></trkpt><trkpt lat="38.0082313" lon="14.9971167"><ele>855.0</ele><time>2026-05-03T08:02:27.746Z</time></trkpt><trkpt lat="38.0081965" lon="14.9970074"><ele>858.0</ele><time>2026-05-03T08:02:28.747Z</time></trkpt><trkpt lat="38.00819" lon="14.9969024"><ele>864.6666666666666</ele><time>2026-05-03T08:02:29.746Z</time></trkpt><trkpt lat="38.0082008" lon="14.9968037"><ele>871.3333333333333</ele><time>2026-05-03T08:02:30.746Z</time></trkpt><trkpt lat="38.0082299" lon="14.9966896"><ele>878.0</ele><time>2026-05-03T08:02:31.746Z</time></trkpt><trkpt lat="38.0082551" lon="14.9965669"><ele>884.6666666666666</ele><time>2026-05-03T08:02:32.746Z</time></trkpt><trkpt lat="38.0082757" lon="14.9964469"><ele>891.3333333333333</ele><time>2026-05-03T08:02:33.746Z</time></trkpt><trkpt lat="38.0082946" lon="14.9963544"><ele>898.0</ele><time>2026-05-03T08:02:34.746Z</time></trkpt><trkpt lat="38.0083035" lon="14.9962669"><ele>902.0</ele><time>2026-05-03T08:02:35.747Z</time></trkpt><trkpt lat="38.0082879" lon="14.9961562"><ele>906.0</ele><time>2026-05-03T08:02:36.746Z</time></trkpt><trkpt lat="38.0082925" lon="14.9960562"><ele>910.0</ele><time>2026-05-03T08:02:37.747Z</time></trkpt><trkpt lat="38.0083176" lon="14.9959004"><ele>914.0</ele><time>2026-05-03T08:02:39.747Z</time></trkpt><trkpt lat="38.0083211" lon="14.9958016"><ele>918.0</ele><time>2026-05-03T08:02:40.746Z</time></trkpt><trkpt lat="38.0083111" lon="14.9956988"><ele>918.0</ele><time>2026-05-03T08:02:41.746Z</time></trkpt><trkpt lat="38.0083061" lon="14.9955898"><ele>918.0</ele><time>2026-05-03T08:02:42.746Z</time></trkpt><trkpt lat="38.0083322" lon="14.9954579"><ele>918.0</ele><time>2026-05-03T08:02:43.746Z</time></trkpt><trkpt lat="38.0083337" lon="14.9953487"><ele>918.0</ele><time>2026-05-03T08:02:44.746Z</time></trkpt><trkpt lat="38.0083" lon="14.9952659"><ele>918.0</ele><time>2026-05-03T08:02:45.746Z</time></trkpt><trkpt lat="38.0082678" lon="14.9951852"><ele>918.0</ele><time>2026-05-03T08:02:46.746Z</time></trkpt><trkpt lat="38.0082238" lon="14.9951012"><ele>918.0</ele><time>2026-05-03T08:02:47.746Z</time></trkpt><trkpt lat="38.0081968" lon="14.9950199"><ele>918.0</ele><time>2026-05-03T08:02:48.746Z</time></trkpt><trkpt lat="38.00816" lon="14.9949251"><ele>918.0</ele><time>2026-05-03T08:02:49.746Z</time></trkpt><trkpt lat="38.0081325" lon="14.9948355"><ele>918.0</ele><time>2026-05-03T08:02:50.746Z</time></trkpt><trkpt lat="38.0080945" lon="14.9946853"><ele>918.0</ele><time>2026-05-03T08:02:52.746Z</time></trkpt><trkpt lat="38.008075" lon="14.9945684"><ele>918.0</ele><time>2026-05-03T08:02:54.746Z</time></trkpt><trkpt lat="38.0081211" lon="14.9945137"><ele>913.8333333333334</ele><time>2026-05-03T08:02:59.746Z</time></trkpt><trkpt lat="38.0081831" lon="14.9945358"><ele>909.6666666666667</ele><time>2026-05-03T08:03:01.746Z</time></trkpt><trkpt lat="38.0082406" lon="14.9945761"><ele>905.5</ele><time>2026-05-03T08:03:03.746Z</time></trkpt><trkpt lat="38.0083177" lon="14.9946199"><ele>901.3333333333334</ele><time>2026-05-03T08:03:05.747Z</time></trkpt><trkpt lat="38.0084088" lon="14.994658"><ele>897.1666666666667</ele><time>2026-05-03T08:03:07.746Z</time></trkpt><trkpt lat="38.008511" lon="14.9947052"><ele>893.0</ele><time>2026-05-03T08:03:09.746Z</time></trkpt><trkpt lat="38.0085887" lon="14.9947392"><ele>885.5999999999999</ele><time>2026-05-03T08:03:11.746Z</time></trkpt><trkpt lat="38.0087001" lon="14.9947775"><ele>878.1999999999999</ele><time>2026-05-03T08:03:13.747Z</time></trkpt><trkpt lat="38.0087653" lon="14.9947681"><ele>870.8</ele><time>2026-05-03T08:03:14.747Z</time></trkpt><trkpt lat="38.0088391" lon="14.9946748"><ele>863.4</ele><time>2026-05-03T08:03:16.746Z</time></trkpt><trkpt lat="38.008833" lon="14.9945477"><ele>856.0</ele><time>2026-05-03T08:03:18.746Z</time></trkpt><trkpt lat="38.0087381" lon="14.9944403"><ele>855.9999999999999</ele><time>2026-05-03T08:03:20.746Z</time></trkpt><trkpt lat="38.0086765" lon="14.9943997"><ele>856.0</ele><time>2026-05-03T08:03:21.746Z</time></trkpt><trkpt lat="38.0085892" lon="14.9942745"><ele>856.0</ele><time>2026-05-03T08:03:23.747Z</time></trkpt><trkpt lat="38.008543" lon="14.9942038"><ele>856.0</ele><time>2026-05-03T08:03:24.746Z</time></trkpt><trkpt lat="38.0084772" lon="14.994152"><ele>855.9999999999999</ele><time>2026-05-03T08:03:25.747Z</time></trkpt><trkpt lat="38.0084058" lon="14.9940981"><ele>856.0</ele><time>2026-05-03T08:03:26.746Z</time></trkpt><trkpt lat="38.0083269" lon="14.9940229"><ele>859.1666666666666</ele><time>2026-05-03T08:03:27.746Z</time></trkpt><trkpt lat="38.0082599" lon="14.9939554"><ele>862.3333333333333</ele><time>2026-05-03T08:03:28.746Z</time></trkpt><trkpt lat="38.0082125" lon="14.9939017"><ele>865.5</ele><time>2026-05-03T08:03:29.747Z</time></trkpt><trkpt lat="38.008129" lon="14.9938045"><ele>868.6666666666667</ele><time>2026-05-03T08:03:31.746Z</time></trkpt><trkpt lat="38.0080792" lon="14.9937507"><ele>871.8333333333334</ele><time>2026-05-03T08:03:32.747Z</time></trkpt><trkpt lat="38.0080183" lon="14.9937047"><ele>875.0</ele><time>2026-05-03T08:03:33.745Z</time></trkpt><trkpt lat="38.007961" lon="14.9936476"><ele>875.0000000000001</ele><time>2026-05-03T08:03:34.746Z</time></trkpt><trkpt lat="38.007913" lon="14.9935733"><ele>875.0</ele><time>2026-05-03T08:03:35.746Z</time></trkpt><trkpt lat="38.0078793" lon="14.9934873"><ele>875.0</ele><time>2026-05-03T08:03:36.745Z</time></trkpt><trkpt lat="38.0078496" lon="14.9934165"><ele>875.0</ele><time>2026-05-03T08:03:37.746Z</time></trkpt><trkpt lat="38.0078306" lon="14.9932923"><ele>875.0000000000001</ele><time>2026-05-03T08:03:39.746Z</time></trkpt><trkpt lat="38.0078225" lon="14.9931809"><ele>875.0</ele><time>2026-05-03T08:03:41.746Z</time></trkpt><trkpt lat="38.0078149" lon="14.9930644"><ele>875.6666666666667</ele><time>2026-05-03T08:03:43.746Z</time></trkpt><trkpt lat="38.0078068" lon="14.9929634"><ele>876.3333333333334</ele><time>2026-05-03T08:03:45.746Z</time></trkpt><trkpt lat="38.0077823" lon="14.9928507"><ele>877.0</ele><time>2026-05-03T08:03:47.746Z</time></trkpt><trkpt lat="38.007736" lon="14.9927918"><ele>877.6666666666667</ele><time>2026-05-03T08:03:50.746Z</time></trkpt><trkpt lat="38.0077008" lon="14.992723"><ele>878.3333333333334</ele><time>2026-05-03T08:03:52.746Z</time></trkpt><trkpt lat="38.0077061" lon="14.9926179"><ele>879.0</ele><time>2026-05-03T08:03:54.747Z</time></trkpt><trkpt lat="38.0077141" lon="14.9924903"><ele>879.8000000000001</ele><time>2026-05-03T08:03:56.746Z</time></trkpt><trkpt lat="38.0077189" lon="14.9923383"><ele>880.6000000000001</ele><time>2026-05-03T08:03:58.746Z</time></trkpt><trkpt lat="38.0077123" lon="14.9921881"><ele>881.4</ele><time>2026-05-03T08:04:00.746Z</time></trkpt><trkpt lat="38.0076966" lon="14.9921072"><ele>882.2</ele><time>2026-05-03T08:04:01.746Z</time></trkpt><trkpt lat="38.0076787" lon="14.99203"><ele>883.0</ele><time>2026-05-03T08:04:02.746Z</time></trkpt><trkpt lat="38.007648" lon="14.9918824"><ele>882.9999999999999</ele><time>2026-05-03T08:04:04.746Z</time></trkpt><trkpt lat="38.0075844" lon="14.9917731"><ele>883.0</ele><time>2026-05-03T08:04:06.746Z</time></trkpt><trkpt lat="38.0075158" lon="14.9916424"><ele>883.0</ele><time>2026-05-03T08:04:08.745Z</time></trkpt><trkpt lat="38.0074788" lon="14.9915742"><ele>883.0</ele><time>2026-05-03T08:04:09.747Z</time></trkpt><trkpt lat="38.0074364" lon="14.9915081"><ele>882.9999999999999</ele><time>2026-05-03T08:04:10.746Z</time></trkpt><trkpt lat="38.0073913" lon="14.9914415"><ele>883.0</ele><time>2026-05-03T08:04:11.746Z</time></trkpt><trkpt lat="38.0073403" lon="14.9913752"><ele>886.8333333333333</ele><time>2026-05-03T08:04:12.746Z</time></trkpt><trkpt lat="38.0072863" lon="14.9913169"><ele>890.6666666666666</ele><time>2026-05-03T08:04:13.746Z</time></trkpt><trkpt lat="38.0072282" lon="14.9912737"><ele>894.5</ele><time>2026-05-03T08:04:14.746Z</time></trkpt><trkpt lat="38.0071614" lon="14.9912316"><ele>898.3333333333333</ele><time>2026-05-03T08:04:16.746Z</time></trkpt><trkpt lat="38.0070999" lon="14.9912018"><ele>902.1666666666666</ele><time>2026-05-03T08:04:18.746Z</time></trkpt><trkpt lat="38.0070329" lon="14.991135"><ele>906.0</ele><time>2026-05-03T08:04:20.746Z</time></trkpt><trkpt lat="38.0069753" lon="14.9910114"><ele>906.0</ele><time>2026-05-03T08:04:22.746Z</time></trkpt><trkpt lat="38.0069396" lon="14.9909155"><ele>906.0</ele><time>2026-05-03T08:04:24.746Z</time></trkpt><trkpt lat="38.0068825" lon="14.990814"><ele>906.0</ele><time>2026-05-03T08:04:26.746Z</time></trkpt><trkpt lat="38.0068247" lon="14.9907183"><ele>906.0</ele><time>2026-05-03T08:04:28.746Z</time></trkpt><trkpt lat="38.0067917" lon="14.990635"><ele>906.0</ele><time>2026-05-03T08:04:31.746Z</time></trkpt><trkpt lat="38.0067754" lon="14.9905307"><ele>906.0</ele><time>2026-05-03T08:09:45.746Z</time></trkpt><trkpt lat="38.0067296" lon="14.9904254"><ele>903.8333333333334</ele><time>2026-05-03T08:09:47.747Z</time></trkpt><trkpt lat="38.0067144" lon="14.9903407"><ele>901.6666666666667</ele><time>2026-05-03T08:09:48.747Z</time></trkpt><trkpt lat="38.0066863" lon="14.9902593"><ele>899.5</ele><time>2026-05-03T08:09:49.747Z</time></trkpt><trkpt lat="38.0066508" lon="14.9901501"><ele>897.3333333333334</ele><time>2026-05-03T08:09:51.747Z</time></trkpt><trkpt lat="38.0065983" lon="14.9900678"><ele>895.1666666666667</ele><time>2026-05-03T08:09:53.747Z</time></trkpt><trkpt lat="38.0065595" lon="14.9899902"><ele>893.0</ele><time>2026-05-03T08:09:55.748Z</time></trkpt><trkpt lat="38.0065234" lon="14.9898991"><ele>897.3333333333334</ele><time>2026-05-03T08:09:57.748Z</time></trkpt><trkpt lat="38.0064782" lon="14.9897951"><ele>901.6666666666667</ele><time>2026-05-03T08:09:59.747Z</time></trkpt><trkpt lat="38.0064333" lon="14.989712"><ele>906.0</ele><time>2026-05-03T08:10:01.747Z</time></trkpt><trkpt lat="38.0063697" lon="14.989646"><ele>910.3333333333333</ele><time>2026-05-03T08:10:03.747Z</time></trkpt><trkpt lat="38.0062844" lon="14.9895921"><ele>914.6666666666666</ele><time>2026-05-03T08:10:05.747Z</time></trkpt><trkpt lat="38.0062104" lon="14.9895304"><ele>919.0</ele><time>2026-05-03T08:10:07.747Z</time></trkpt><trkpt lat="38.006145" lon="14.9894774"><ele>918.9999999999999</ele><time>2026-05-03T08:10:09.747Z</time></trkpt><trkpt lat="38.0061096" lon="14.9893747"><ele>919.0</ele><time>2026-05-03T08:10:12.747Z</time></trkpt><trkpt lat="38.0060779" lon="14.9892798"><ele>919.0</ele><time>2026-05-03T08:10:14.747Z</time></trkpt><trkpt lat="38.0060249" lon="14.9891961"><ele>919.0</ele><time>2026-05-03T08:10:17.747Z</time></trkpt><trkpt lat="38.005989" lon="14.9891116"><ele>918.9999999999999</ele><time>2026-05-03T08:10:21.747Z</time></trkpt><trkpt lat="38.0059281" lon="14.9890583"><ele>919.0</ele><time>2026-05-03T08:10:23.747Z</time></trkpt><trkpt lat="38.0058567" lon="14.9890038"><ele>920.1666666666666</ele><time>2026-05-03T08:10:25.747Z</time></trkpt><trkpt lat="38.0057931" lon="14.9889484"><ele>921.3333333333333</ele><time>2026-05-03T08:10:56.747Z</time></trkpt><trkpt lat="38.0057182" lon="14.9888985"><ele>922.5</ele><time>2026-05-03T08:11:00.747Z</time></trkpt><trkpt lat="38.0056609" lon="14.9888441"><ele>923.6666666666667</ele><time>2026-05-03T08:11:03.747Z</time></trkpt><trkpt lat="38.0056164" lon="14.9887782"><ele>924.8333333333334</ele><time>2026-05-03T08:11:07.748Z</time></trkpt><trkpt lat="38.0055583" lon="14.9887304"><ele>926.0</ele><time>2026-05-03T08:11:09.747Z</time></trkpt><trkpt lat="38.0055265" lon="14.9886308"><ele>926.0000000000001</ele><time>2026-05-03T08:12:08.747Z</time></trkpt><trkpt lat="38.0054691" lon="14.988566"><ele>926.0</ele><time>2026-05-03T08:12:12.747Z</time></trkpt><trkpt lat="38.0054058" lon="14.9886052"><ele>926.0</ele><time>2026-05-03T08:12:20.746Z</time></trkpt><trkpt lat="38.0054052" lon="14.9887152"><ele>926.0</ele><time>2026-05-03T08:12:26.747Z</time></trkpt><trkpt lat="38.005427" lon="14.9887996"><ele>926.0000000000001</ele><time>2026-05-03T08:12:30.747Z</time></trkpt><trkpt lat="38.0054274" lon="14.9888821"><ele>926.0</ele><time>2026-05-03T08:12:41.747Z</time></trkpt><trkpt lat="38.0054692" lon="14.9889952"><ele>926.0000000000001</ele><time>2026-05-03T08:12:44.747Z</time></trkpt><trkpt lat="38.0055159" lon="14.9890848"><ele>926.0</ele><time>2026-05-03T08:12:46.747Z</time></trkpt><trkpt lat="38.0055529" lon="14.9891706"><ele>926.0</ele><time>2026-05-03T08:12:48.748Z</time></trkpt><trkpt lat="38.0056053" lon="14.9892462"><ele>926.0</ele><time>2026-05-03T08:12:50.748Z</time></trkpt><trkpt lat="38.0056539" lon="14.9893027"><ele>926.0000000000001</ele><time>2026-05-03T08:12:52.747Z</time></trkpt><trkpt lat="38.0057028" lon="14.9893582"><ele>926.0</ele><time>2026-05-03T08:12:54.747Z</time></trkpt><trkpt lat="38.0057413" lon="14.9894667"><ele>924.8333333333334</ele><time>2026-05-03T08:12:57.747Z</time></trkpt><trkpt lat="38.0057818" lon="14.989547"><ele>923.6666666666667</ele><time>2026-05-03T08:12:59.747Z</time></trkpt><trkpt lat="38.0058217" lon="14.9896147"><ele>922.5</ele><time>2026-05-03T08:13:02.747Z</time></trkpt><trkpt lat="38.0058854" lon="14.9897044"><ele>921.3333333333333</ele><time>2026-05-03T08:13:05.747Z</time></trkpt><trkpt lat="38.0059295" lon="14.9897726"><ele>920.1666666666666</ele><time>2026-05-03T08:13:07.748Z</time></trkpt><trkpt lat="38.0059748" lon="14.9898741"><ele>919.0</ele><time>2026-05-03T08:13:10.747Z</time></trkpt><trkpt lat="38.0060165" lon="14.9899451"><ele>920.1666666666666</ele><time>2026-05-03T08:13:12.747Z</time></trkpt><trkpt lat="38.0060464" lon="14.9900184"><ele>921.3333333333333</ele><time>2026-05-03T08:13:14.747Z</time></trkpt><trkpt lat="38.0061016" lon="14.990117"><ele>922.5</ele><time>2026-05-03T08:13:17.747Z</time></trkpt><trkpt lat="38.0061549" lon="14.9902095"><ele>923.6666666666667</ele><time>2026-05-03T08:13:19.747Z</time></trkpt><trkpt lat="38.0062137" lon="14.9903232"><ele>924.8333333333334</ele><time>2026-05-03T08:13:21.748Z</time></trkpt><trkpt lat="38.0062553" lon="14.9904265"><ele>926.0</ele><time>2026-05-03T08:13:23.747Z</time></trkpt><trkpt lat="38.0062613" lon="14.9905459"><ele>926.0</ele><time>2026-05-03T08:13:25.748Z</time></trkpt><trkpt lat="38.0062409" lon="14.9906226"><ele>925.9999999999999</ele><time>2026-05-03T08:13:27.748Z</time></trkpt><trkpt lat="38.0061782" lon="14.9906874"><ele>926.0</ele><time>2026-05-03T08:13:30.747Z</time></trkpt><trkpt lat="38.0061041" lon="14.9907114"><ele>926.0</ele><time>2026-05-03T08:13:34.747Z</time></trkpt><trkpt lat="38.0060351" lon="14.9907094"><ele>925.9999999999999</ele><time>2026-05-03T08:14:10.748Z</time></trkpt><trkpt lat="38.0060046" lon="14.9907812"><ele>926.0</ele><time>2026-05-03T08:14:12.747Z</time></trkpt><trkpt lat="38.0060103" lon="14.9908728"><ele>926.0</ele><time>2026-05-03T08:14:14.747Z</time></trkpt><trkpt lat="38.0060366" lon="14.9909606"><ele>925.1666666666667</ele><time>2026-05-03T08:14:16.747Z</time></trkpt><trkpt lat="38.0060723" lon="14.9910483"><ele>924.3333333333334</ele><time>2026-05-03T08:14:18.747Z</time></trkpt><trkpt lat="38.006061" lon="14.9911476"><ele>923.5</ele><time>2026-05-03T08:14:20.748Z</time></trkpt><trkpt lat="38.0060523" lon="14.991249"><ele>922.6666666666667</ele><time>2026-05-03T08:14:22.747Z</time></trkpt><trkpt lat="38.006007" lon="14.9913488"><ele>921.8333333333334</ele><time>2026-05-03T08:14:24.747Z</time></trkpt><trkpt lat="38.0059378" lon="14.9913897"><ele>921.0</ele><time>2026-05-03T08:14:26.747Z</time></trkpt><trkpt lat="38.0058424" lon="14.991405"><ele>922.0</ele><time>2026-05-03T08:14:29.747Z</time></trkpt><trkpt lat="38.0057694" lon="14.9913957"><ele>923.0</ele><time>2026-05-03T08:14:32.747Z</time></trkpt><trkpt lat="38.0056768" lon="14.9913749"><ele>924.0</ele><time>2026-05-03T08:14:35.747Z</time></trkpt><trkpt lat="38.0055969" lon="14.9913634"><ele>925.0</ele><time>2026-05-03T08:14:37.747Z</time></trkpt><trkpt lat="38.0055166" lon="14.9913426"><ele>926.0</ele><time>2026-05-03T08:14:39.747Z</time></trkpt><trkpt lat="38.0054099" lon="14.9913014"><ele>927.0</ele><time>2026-05-03T08:14:41.747Z</time></trkpt><trkpt lat="38.005286" lon="14.9912957"><ele>927.0</ele><time>2026-05-03T08:14:43.747Z</time></trkpt><trkpt lat="38.005216" lon="14.9913322"><ele>927.0</ele><time>2026-05-03T08:14:44.748Z</time></trkpt><trkpt lat="38.0051482" lon="14.9913721"><ele>927.0</ele><time>2026-05-03T08:14:45.747Z</time></trkpt><trkpt lat="38.0050832" lon="14.9913947"><ele>927.0</ele><time>2026-05-03T08:14:46.747Z</time></trkpt><trkpt lat="38.0050205" lon="14.9914035"><ele>927.0</ele><time>2026-05-03T08:14:47.747Z</time></trkpt><trkpt lat="38.0049204" lon="14.9914556"><ele>927.0</ele><time>2026-05-03T08:14:49.748Z</time></trkpt><trkpt lat="38.0048148" lon="14.9914996"><ele>927.1666666666666</ele><time>2026-05-03T08:14:51.747Z</time></trkpt><trkpt lat="38.0047526" lon="14.9915155"><ele>927.3333333333333</ele><time>2026-05-03T08:14:52.747Z</time></trkpt><trkpt lat="38.0046776" lon="14.991524"><ele>927.5</ele><time>2026-05-03T08:14:53.747Z</time></trkpt><trkpt lat="38.0045964" lon="14.9915068"><ele>927.6666666666666</ele><time>2026-05-03T08:14:54.747Z</time></trkpt><trkpt lat="38.0045032" lon="14.9914811"><ele>927.8333333333333</ele><time>2026-05-03T08:14:55.747Z</time></trkpt><trkpt lat="38.004424" lon="14.9914515"><ele>928.0</ele><time>2026-05-03T08:14:56.747Z</time></trkpt><trkpt lat="38.0043623" lon="14.9914177"><ele>927.9999999999999</ele><time>2026-05-03T08:14:57.747Z</time></trkpt><trkpt lat="38.0043088" lon="14.9913638"><ele>928.0</ele><time>2026-05-03T08:14:59.747Z</time></trkpt><trkpt lat="38.0042513" lon="14.991305"><ele>928.0</ele><time>2026-05-03T08:15:05.747Z</time></trkpt><trkpt lat="38.0041734" lon="14.9912423"><ele>928.0</ele><time>2026-05-03T08:15:07.747Z</time></trkpt><trkpt lat="38.0041121" lon="14.9912205"><ele>927.9999999999999</ele><time>2026-05-03T08:15:08.747Z</time></trkpt><trkpt lat="38.0040436" lon="14.9911854"><ele>928.0</ele><time>2026-05-03T08:15:09.748Z</time></trkpt><trkpt lat="38.0039631" lon="14.9911625"><ele>928.4999999999999</ele><time>2026-05-03T08:15:10.747Z</time></trkpt><trkpt lat="38.0038777" lon="14.9911535"><ele>929.0</ele><time>2026-05-03T08:15:11.747Z</time></trkpt><trkpt lat="38.003756" lon="14.9911561"><ele>929.5</ele><time>2026-05-03T08:15:13.747Z</time></trkpt><trkpt lat="38.0036861" lon="14.991136"><ele>930.0</ele><time>2026-05-03T08:15:14.747Z</time></trkpt><trkpt lat="38.0035962" lon="14.9912043"><ele>930.4999999999999</ele><time>2026-05-03T08:15:16.747Z</time></trkpt><trkpt lat="38.0035794" lon="14.9912848"><ele>931.0</ele><time>2026-05-03T08:15:17.747Z</time></trkpt><trkpt lat="38.0035265" lon="14.9913531"><ele>931.0</ele><time>2026-05-03T08:15:18.747Z</time></trkpt><trkpt lat="38.0034688" lon="14.9914233"><ele>930.9999999999999</ele><time>2026-05-03T08:15:19.747Z</time></trkpt><trkpt lat="38.0033978" lon="14.9914736"><ele>930.9999999999999</ele><time>2026-05-03T08:15:20.748Z</time></trkpt><trkpt lat="38.0033113" lon="14.9915234"><ele>931.0</ele><time>2026-05-03T08:15:21.747Z</time></trkpt><trkpt lat="38.0032139" lon="14.9915622"><ele>931.0</ele><time>2026-05-03T08:15:22.747Z</time></trkpt><trkpt lat="38.0031103" lon="14.9915957"><ele>932.8333333333333</ele><time>2026-05-03T08:15:23.747Z</time></trkpt><trkpt lat="38.0030212" lon="14.9916313"><ele>934.6666666666666</ele><time>2026-05-03T08:15:24.747Z</time></trkpt><trkpt lat="38.002945" lon="14.9916706"><ele>936.5</ele><time>2026-05-03T08:15:25.747Z</time></trkpt><trkpt lat="38.0028752" lon="14.9916877"><ele>938.3333333333333</ele><time>2026-05-03T08:15:26.747Z</time></trkpt><trkpt lat="38.0027788" lon="14.991763"><ele>940.1666666666666</ele><time>2026-05-03T08:15:28.747Z</time></trkpt><trkpt lat="38.0027235" lon="14.991808"><ele>942.0</ele><time>2026-05-03T08:15:30.747Z</time></trkpt><trkpt lat="38.0026524" lon="14.991843"><ele>943.6666666666666</ele><time>2026-05-03T08:15:32.747Z</time></trkpt><trkpt lat="38.0025732" lon="14.9918726"><ele>945.3333333333333</ele><time>2026-05-03T08:15:34.747Z</time></trkpt><trkpt lat="38.0024748" lon="14.9918875"><ele>947.0</ele><time>2026-05-03T08:15:37.747Z</time></trkpt><trkpt lat="38.0023983" lon="14.9919016"><ele>948.6666666666666</ele><time>2026-05-03T08:15:39.747Z</time></trkpt><trkpt lat="38.0023237" lon="14.9919237"><ele>950.3333333333333</ele><time>2026-05-03T08:15:41.748Z</time></trkpt><trkpt lat="38.0022742" lon="14.9920074"><ele>952.0</ele><time>2026-05-03T08:15:44.747Z</time></trkpt><trkpt lat="38.0023139" lon="14.9920794"><ele>951.9999999999999</ele><time>2026-05-03T08:15:46.747Z</time></trkpt><trkpt lat="38.0024168" lon="14.9920983"><ele>952.0</ele><time>2026-05-03T08:15:48.747Z</time></trkpt><trkpt lat="38.0024858" lon="14.9921082"><ele>952.0</ele><time>2026-05-03T08:15:49.747Z</time></trkpt><trkpt lat="38.0025616" lon="14.9921145"><ele>952.0</ele><time>2026-05-03T08:15:50.747Z</time></trkpt><trkpt lat="38.0026393" lon="14.9921407"><ele>951.9999999999999</ele><time>2026-05-03T08:15:51.748Z</time></trkpt><trkpt lat="38.0027145" lon="14.9921428"><ele>952.0</ele><time>2026-05-03T08:15:52.747Z</time></trkpt><trkpt lat="38.0027826" lon="14.9921626"><ele>951.9999999999999</ele><time>2026-05-03T08:15:53.747Z</time></trkpt><trkpt lat="38.0028504" lon="14.9922089"><ele>952.0</ele><time>2026-05-03T08:15:54.747Z</time></trkpt><trkpt lat="38.0029284" lon="14.9922505"><ele>952.0</ele><time>2026-05-03T08:15:55.747Z</time></trkpt><trkpt lat="38.002985" lon="14.9923134"><ele>952.0</ele><time>2026-05-03T08:15:56.748Z</time></trkpt><trkpt lat="38.0030337" lon="14.9924348"><ele>951.9999999999999</ele><time>2026-05-03T08:15:58.747Z</time></trkpt><trkpt lat="38.003028" lon="14.9925681"><ele>952.0</ele><time>2026-05-03T08:16:00.748Z</time></trkpt><trkpt lat="38.003066" lon="14.9926816"><ele>953.0</ele><time>2026-05-03T08:16:02.746Z</time></trkpt><trkpt lat="38.0031669" lon="14.9926695"><ele>954.0</ele><time>2026-05-03T08:16:04.747Z</time></trkpt><trkpt lat="38.00329" lon="14.9926474"><ele>955.0</ele><time>2026-05-03T08:16:06.747Z</time></trkpt><trkpt lat="38.0034261" lon="14.9926745"><ele>956.0</ele><time>2026-05-03T08:16:08.748Z</time></trkpt><trkpt lat="38.0035024" lon="14.992696"><ele>957.0</ele><time>2026-05-03T08:16:09.747Z</time></trkpt><trkpt lat="38.0035558" lon="14.9927522"><ele>957.0</ele><time>2026-05-03T08:16:10.746Z</time></trkpt><trkpt lat="38.0036017" lon="14.9928347"><ele>957.0</ele><time>2026-05-03T08:16:11.747Z</time></trkpt><trkpt lat="38.0036386" lon="14.9929379"><ele>957.0</ele><time>2026-05-03T08:16:12.748Z</time></trkpt><trkpt lat="38.0036808" lon="14.9930378"><ele>957.0</ele><time>2026-05-03T08:16:13.748Z</time></trkpt><trkpt lat="38.0037115" lon="14.9931396"><ele>957.0</ele><time>2026-05-03T08:16:14.747Z</time></trkpt><trkpt lat="38.0037574" lon="14.9932043"><ele>957.0</ele><time>2026-05-03T08:16:15.747Z</time></trkpt><trkpt lat="38.0038219" lon="14.9932523"><ele>957.0</ele><time>2026-05-03T08:16:16.747Z</time></trkpt><trkpt lat="38.0038981" lon="14.9932633"><ele>957.0000000000001</ele><time>2026-05-03T08:16:17.747Z</time></trkpt><trkpt lat="38.0039714" lon="14.993256"><ele>957.0</ele><time>2026-05-03T08:16:18.748Z</time></trkpt><trkpt lat="38.0040418" lon="14.9932447"><ele>957.0</ele><time>2026-05-03T08:16:19.747Z</time></trkpt><trkpt lat="38.0041197" lon="14.9932516"><ele>957.0000000000001</ele><time>2026-05-03T08:16:20.747Z</time></trkpt><trkpt lat="38.0041968" lon="14.9932521"><ele>957.0</ele><time>2026-05-03T08:16:21.747Z</time></trkpt><trkpt lat="38.0042665" lon="14.9932552"><ele>957.0</ele><time>2026-05-03T08:16:22.748Z</time></trkpt><trkpt lat="38.0043379" lon="14.9932543"><ele>955.3333333333334</ele><time>2026-05-03T08:16:23.747Z</time></trkpt><trkpt lat="38.0044115" lon="14.9932566"><ele>953.6666666666667</ele><time>2026-05-03T08:16:24.748Z</time></trkpt><trkpt lat="38.00448" lon="14.9932925"><ele>952.0</ele><time>2026-05-03T08:16:25.748Z</time></trkpt><trkpt lat="38.0045392" lon="14.9933572"><ele>950.3333333333334</ele><time>2026-05-03T08:16:26.747Z</time></trkpt><trkpt lat="38.0045853" lon="14.99344"><ele>948.6666666666667</ele><time>2026-05-03T08:16:27.747Z</time></trkpt><trkpt lat="38.0046362" lon="14.9935083"><ele>947.0</ele><time>2026-05-03T08:16:28.747Z</time></trkpt><trkpt lat="38.0047031" lon="14.9936252"><ele>951.3333333333334</ele><time>2026-05-03T08:16:30.747Z</time></trkpt><trkpt lat="38.0047422" lon="14.9936915"><ele>955.6666666666667</ele><time>2026-05-03T08:16:31.748Z</time></trkpt><trkpt lat="38.0048012" lon="14.9938067"><ele>960.0</ele><time>2026-05-03T08:16:33.747Z</time></trkpt><trkpt lat="38.0048274" lon="14.9938822"><ele>964.3333333333333</ele><time>2026-05-03T08:16:34.747Z</time></trkpt><trkpt lat="38.0048326" lon="14.9940395"><ele>968.6666666666666</ele><time>2026-05-03T08:16:36.747Z</time></trkpt><trkpt lat="38.0048573" lon="14.9941307"><ele>973.0</ele><time>2026-05-03T08:16:37.746Z</time></trkpt><trkpt lat="38.0048737" lon="14.9942088"><ele>972.2</ele><time>2026-05-03T08:16:38.747Z</time></trkpt><trkpt lat="38.0049009" lon="14.9943496"><ele>971.4</ele><time>2026-05-03T08:16:40.748Z</time></trkpt><trkpt lat="38.0049192" lon="14.9944573"><ele>970.6000000000001</ele><time>2026-05-03T08:16:42.748Z</time></trkpt><trkpt lat="38.0049359" lon="14.9945614"><ele>969.8000000000001</ele><time>2026-05-03T08:16:44.747Z</time></trkpt><trkpt lat="38.0049978" lon="14.9947065"><ele>969.0</ele><time>2026-05-03T08:16:46.746Z</time></trkpt><trkpt lat="38.0051251" lon="14.994748"><ele>969.0</ele><time>2026-05-03T08:16:48.747Z</time></trkpt><trkpt lat="38.0051934" lon="14.9947629"><ele>969.0</ele><time>2026-05-03T08:16:49.747Z</time></trkpt><trkpt lat="38.0052679" lon="14.9947767"><ele>969.0</ele><time>2026-05-03T08:16:50.747Z</time></trkpt><trkpt lat="38.0053479" lon="14.9947896"><ele>969.0</ele><time>2026-05-03T08:16:51.747Z</time></trkpt><trkpt lat="38.005431" lon="14.9948402"><ele>969.0</ele><time>2026-05-03T08:16:52.748Z</time></trkpt><trkpt lat="38.005514" lon="14.9949005"><ele>969.0</ele><time>2026-05-03T08:16:53.747Z</time></trkpt><trkpt lat="38.0055897" lon="14.9949712"><ele>970.8333333333334</ele><time>2026-05-03T08:16:54.746Z</time></trkpt><trkpt lat="38.0056473" lon="14.9950536"><ele>972.6666666666667</ele><time>2026-05-03T08:16:55.747Z</time></trkpt><trkpt lat="38.0056785" lon="14.995145"><ele>974.5</ele><time>2026-05-03T08:16:56.746Z</time></trkpt><trkpt lat="38.0056948" lon="14.9952422"><ele>976.3333333333334</ele><time>2026-05-03T08:16:57.747Z</time></trkpt><trkpt lat="38.0056702" lon="14.995349"><ele>978.1666666666667</ele><time>2026-05-03T08:16:59.746Z</time></trkpt><trkpt lat="38.0056397" lon="14.9954591"><ele>980.0</ele><time>2026-05-03T08:17:01.747Z</time></trkpt><trkpt lat="38.0056146" lon="14.9956321"><ele>980.0000000000001</ele><time>2026-05-03T08:17:03.747Z</time></trkpt><trkpt lat="38.0055988" lon="14.9957274"><ele>980.0</ele><time>2026-05-03T08:17:04.748Z</time></trkpt><trkpt lat="38.0055999" lon="14.9958357"><ele>980.0</ele><time>2026-05-03T08:17:05.747Z</time></trkpt><trkpt lat="38.0056089" lon="14.9959432"><ele>980.0</ele><time>2026-05-03T08:17:06.747Z</time></trkpt><trkpt lat="38.0056198" lon="14.9960446"><ele>980.0000000000001</ele><time>2026-05-03T08:17:07.747Z</time></trkpt><trkpt lat="38.0056349" lon="14.9961913"><ele>980.0</ele><time>2026-05-03T08:17:09.747Z</time></trkpt><trkpt lat="38.0056346" lon="14.9963227"><ele>977.0</ele><time>2026-05-03T08:17:11.747Z</time></trkpt><trkpt lat="38.005664" lon="14.9964648"><ele>974.0</ele><time>2026-05-03T08:17:13.747Z</time></trkpt><trkpt lat="38.0055844" lon="14.9964973"><ele>971.0</ele><time>2026-05-03T08:17:16.747Z</time></trkpt><trkpt lat="38.0055474" lon="14.9963791"><ele>968.0</ele><time>2026-05-03T08:17:19.747Z</time></trkpt><trkpt lat="38.0055142" lon="14.9962769"><ele>965.0</ele><time>2026-05-03T08:17:21.748Z</time></trkpt><trkpt lat="38.005462" lon="14.9961228"><ele>965.0000000000001</ele><time>2026-05-03T08:17:23.747Z</time></trkpt><trkpt lat="38.0054297" lon="14.9960347"><ele>965.0</ele><time>2026-05-03T08:17:24.746Z</time></trkpt><trkpt lat="38.0053998" lon="14.9959555"><ele>965.0</ele><time>2026-05-03T08:17:25.748Z</time></trkpt><trkpt lat="38.0053532" lon="14.9958107"><ele>965.0</ele><time>2026-05-03T08:17:27.747Z</time></trkpt><trkpt lat="38.0053469" lon="14.9957221"><ele>965.0000000000001</ele><time>2026-05-03T08:17:28.747Z</time></trkpt><trkpt lat="38.0053471" lon="14.9956363"><ele>965.0</ele><time>2026-05-03T08:17:29.747Z</time></trkpt><trkpt lat="38.0053372" lon="14.9955347"><ele>967.1428571428571</ele><time>2026-05-03T08:17:30.747Z</time></trkpt><trkpt lat="38.0053343" lon="14.9954413"><ele>969.2857142857143</ele><time>2026-05-03T08:17:31.748Z</time></trkpt><trkpt lat="38.0053129" lon="14.9953623"><ele>971.4285714285714</ele><time>2026-05-03T08:17:32.747Z</time></trkpt><trkpt lat="38.005258" lon="14.9953028"><ele>973.5714285714286</ele><time>2026-05-03T08:17:33.747Z</time></trkpt><trkpt lat="38.0051904" lon="14.9952739"><ele>975.7142857142858</ele><time>2026-05-03T08:17:34.748Z</time></trkpt><trkpt lat="38.0051152" lon="14.9952703"><ele>977.8571428571429</ele><time>2026-05-03T08:17:35.747Z</time></trkpt><trkpt lat="38.0050388" lon="14.9952605"><ele>980.0</ele><time>2026-05-03T08:17:36.747Z</time></trkpt><trkpt lat="38.0049683" lon="14.9952594"><ele>981.6666666666667</ele><time>2026-05-03T08:17:37.748Z</time></trkpt><trkpt lat="38.004906" lon="14.9952321"><ele>983.3333333333334</ele><time>2026-05-03T08:17:38.747Z</time></trkpt><trkpt lat="38.0048438" lon="14.9951821"><ele>985.0</ele><time>2026-05-03T08:17:39.747Z</time></trkpt><trkpt lat="38.0047786" lon="14.9951416"><ele>986.6666666666667</ele><time>2026-05-03T08:17:40.747Z</time></trkpt><trkpt lat="38.0047198" lon="14.99511"><ele>988.3333333333334</ele><time>2026-05-03T08:17:41.747Z</time></trkpt><trkpt lat="38.0046567" lon="14.9950372"><ele>990.0</ele><time>2026-05-03T08:17:43.747Z</time></trkpt><trkpt lat="38.0045901" lon="14.9949267"><ele>990.0</ele><time>2026-05-03T08:17:45.747Z</time></trkpt><trkpt lat="38.0045478" lon="14.9948577"><ele>990.0</ele><time>2026-05-03T08:17:46.748Z</time></trkpt><trkpt lat="38.0045037" lon="14.9947836"><ele>990.0</ele><time>2026-05-03T08:17:47.747Z</time></trkpt><trkpt lat="38.0044473" lon="14.9947189"><ele>990.0</ele><time>2026-05-03T08:17:48.747Z</time></trkpt><trkpt lat="38.0043816" lon="14.9946611"><ele>990.0</ele><time>2026-05-03T08:17:49.747Z</time></trkpt><trkpt lat="38.0043112" lon="14.9946141"><ele>990.0</ele><time>2026-05-03T08:17:50.747Z</time></trkpt><trkpt lat="38.0042384" lon="14.9945943"><ele>991.6666666666666</ele><time>2026-05-03T08:17:51.747Z</time></trkpt><trkpt lat="38.0041241" lon="14.9945666"><ele>993.3333333333333</ele><time>2026-05-03T08:17:53.747Z</time></trkpt><trkpt lat="38.0040595" lon="14.994567"><ele>995.0</ele><time>2026-05-03T08:17:54.747Z</time></trkpt><trkpt lat="38.0039859" lon="14.9945791"><ele>996.6666666666666</ele><time>2026-05-03T08:17:55.747Z</time></trkpt><trkpt lat="38.0039087" lon="14.9945966"><ele>998.3333333333333</ele><time>2026-05-03T08:17:56.747Z</time></trkpt><trkpt lat="38.0038334" lon="14.9946088"><ele>1000.0</ele><time>2026-05-03T08:17:57.747Z</time></trkpt><trkpt lat="38.0037567" lon="14.9946096"><ele>999.9999999999999</ele><time>2026-05-03T08:17:58.747Z</time></trkpt><trkpt lat="38.0036768" lon="14.9946054"><ele>1000.0</ele><time>2026-05-03T08:17:59.747Z</time></trkpt><trkpt lat="38.0035908" lon="14.9945862"><ele>1000.0</ele><time>2026-05-03T08:18:00.747Z</time></trkpt><trkpt lat="38.0035021" lon="14.9945569"><ele>1000.0</ele><time>2026-05-03T08:18:01.747Z</time></trkpt><trkpt lat="38.0034206" lon="14.9945198"><ele>999.9999999999999</ele><time>2026-05-03T08:18:02.746Z</time></trkpt><trkpt lat="38.0033365" lon="14.994476"><ele>1000.0</ele><time>2026-05-03T08:18:03.747Z</time></trkpt><trkpt lat="38.0032587" lon="14.9944305"><ele>1001.3333333333333</ele><time>2026-05-03T08:18:04.747Z</time></trkpt><trkpt lat="38.0031895" lon="14.9943954"><ele>1002.6666666666666</ele><time>2026-05-03T08:18:05.747Z</time></trkpt><trkpt lat="38.0031196" lon="14.9943684"><ele>1004.0</ele><time>2026-05-03T08:18:06.747Z</time></trkpt><trkpt lat="38.0030429" lon="14.9943528"><ele>1005.3333333333333</ele><time>2026-05-03T08:18:07.747Z</time></trkpt><trkpt lat="38.0029592" lon="14.9943479"><ele>1006.6666666666666</ele><time>2026-05-03T08:18:08.747Z</time></trkpt><trkpt lat="38.0028732" lon="14.9943534"><ele>1008.0</ele><time>2026-05-03T08:18:09.748Z</time></trkpt><trkpt lat="38.0027867" lon="14.9943702"><ele>1008.0</ele><time>2026-05-03T08:18:10.747Z</time></trkpt><trkpt lat="38.0026982" lon="14.9943823"><ele>1008.0</ele><time>2026-05-03T08:18:11.746Z</time></trkpt><trkpt lat="38.0026035" lon="14.9943942"><ele>1008.0</ele><time>2026-05-03T08:18:12.747Z</time></trkpt><trkpt lat="38.0025069" lon="14.9944031"><ele>1008.0</ele><time>2026-05-03T08:18:13.747Z</time></trkpt><trkpt lat="38.0024199" lon="14.9943927"><ele>1008.0</ele><time>2026-05-03T08:18:14.748Z</time></trkpt><trkpt lat="38.002349" lon="14.9943797"><ele>1008.0</ele><time>2026-05-03T08:18:15.747Z</time></trkpt><trkpt lat="38.0022841" lon="14.9943637"><ele>1009.0</ele><time>2026-05-03T08:18:16.747Z</time></trkpt><trkpt lat="38.0021695" lon="14.9943155"><ele>1010.0</ele><time>2026-05-03T08:18:18.747Z</time></trkpt><trkpt lat="38.0020832" lon="14.994222"><ele>1011.0</ele><time>2026-05-03T08:18:20.748Z</time></trkpt><trkpt lat="38.0020391" lon="14.9940805"><ele>1012.0</ele><time>2026-05-03T08:18:22.747Z</time></trkpt><trkpt lat="38.0019937" lon="14.9939506"><ele>1012.0</ele><time>2026-05-03T08:18:24.747Z</time></trkpt><trkpt lat="38.0019438" lon="14.9938205"><ele>1012.0</ele><time>2026-05-03T08:18:26.747Z</time></trkpt><trkpt lat="38.0018908" lon="14.9937036"><ele>1012.0</ele><time>2026-05-03T08:18:28.747Z</time></trkpt><trkpt lat="38.0018355" lon="14.9936021"><ele>1012.0</ele><time>2026-05-03T08:18:30.748Z</time></trkpt><trkpt lat="38.0017552" lon="14.9935997"><ele>1012.0</ele><time>2026-05-03T08:18:32.748Z</time></trkpt><trkpt lat="38.0017372" lon="14.993702"><ele>1012.0</ele><time>2026-05-03T08:18:34.746Z</time></trkpt><trkpt lat="38.0018174" lon="14.9937758"><ele>1012.0</ele><time>2026-05-03T08:18:36.748Z</time></trkpt><trkpt lat="38.0018498" lon="14.9938728"><ele>1012.0</ele><time>2026-05-03T08:18:38.748Z</time></trkpt><trkpt lat="38.0018531" lon="14.9939941"><ele>1012.0</ele><time>2026-05-03T08:18:40.747Z</time></trkpt><trkpt lat="38.0018214" lon="14.9941275"><ele>1012.0</ele><time>2026-05-03T08:18:42.747Z</time></trkpt><trkpt lat="38.0017809" lon="14.9942571"><ele>1014.8333333333333</ele><time>2026-05-03T08:18:44.747Z</time></trkpt><trkpt lat="38.001776" lon="14.9944004"><ele>1017.6666666666666</ele><time>2026-05-03T08:18:46.747Z</time></trkpt><trkpt lat="38.0018138" lon="14.9945479"><ele>1020.5</ele><time>2026-05-03T08:18:48.748Z</time></trkpt><trkpt lat="38.0018524" lon="14.9946113"><ele>1023.3333333333333</ele><time>2026-05-03T08:18:49.747Z</time></trkpt><trkpt lat="38.001903" lon="14.9946589"><ele>1026.1666666666667</ele><time>2026-05-03T08:18:50.748Z</time></trkpt><trkpt lat="38.0019594" lon="14.994697"><ele>1029.0</ele><time>2026-05-03T08:18:51.747Z</time></trkpt><trkpt lat="38.00202" lon="14.9947271"><ele>1029.0</ele><time>2026-05-03T08:18:52.747Z</time></trkpt><trkpt lat="38.0020746" lon="14.9947705"><ele>1029.0</ele><time>2026-05-03T08:18:53.748Z</time></trkpt><trkpt lat="38.0021219" lon="14.9948303"><ele>1029.0</ele><time>2026-05-03T08:18:54.747Z</time></trkpt><trkpt lat="38.0021673" lon="14.99489"><ele>1029.0</ele><time>2026-05-03T08:18:55.747Z</time></trkpt><trkpt lat="38.0022062" lon="14.9949562"><ele>1029.0</ele><time>2026-05-03T08:18:56.747Z</time></trkpt><trkpt lat="38.0022998" lon="14.9950508"><ele>1029.0</ele><time>2026-05-03T08:18:58.747Z</time></trkpt><trkpt lat="38.0024" lon="14.9951082"><ele>1027.5</ele><time>2026-05-03T08:19:00.747Z</time></trkpt><trkpt lat="38.0024983" lon="14.9951696"><ele>1026.0</ele><time>2026-05-03T08:19:02.747Z</time></trkpt><trkpt lat="38.0025552" lon="14.9952057"><ele>1024.5</ele><time>2026-05-03T08:19:03.747Z</time></trkpt><trkpt lat="38.002611" lon="14.9952436"><ele>1023.0</ele><time>2026-05-03T08:19:04.747Z</time></trkpt><trkpt lat="38.002709" lon="14.9952748"><ele>1021.5</ele><time>2026-05-03T08:19:06.746Z</time></trkpt><trkpt lat="38.0027856" lon="14.9952884"><ele>1020.0</ele><time>2026-05-03T08:19:08.748Z</time></trkpt><trkpt lat="38.0028543" lon="14.995319"><ele>1020.0</ele><time>2026-05-03T08:19:10.748Z</time></trkpt><trkpt lat="38.0029001" lon="14.9953968"><ele>1020.0</ele><time>2026-05-03T08:19:12.748Z</time></trkpt><trkpt lat="38.0028985" lon="14.9955086"><ele>1020.0</ele><time>2026-05-03T08:19:14.747Z</time></trkpt><trkpt lat="38.0028574" lon="14.9956182"><ele>1020.0</ele><time>2026-05-03T08:19:16.747Z</time></trkpt><trkpt lat="38.0028023" lon="14.995671"><ele>1020.0</ele><time>2026-05-03T08:19:18.747Z</time></trkpt><trkpt lat="38.0027384" lon="14.9956741"><ele>1020.0</ele><time>2026-05-03T08:19:21.747Z</time></trkpt><trkpt lat="38.0026511" lon="14.9956242"><ele>1020.0</ele><time>2026-05-03T08:19:24.747Z</time></trkpt><trkpt lat="38.0025682" lon="14.9955793"><ele>1020.0</ele><time>2026-05-03T08:19:27.747Z</time></trkpt><trkpt lat="38.0024792" lon="14.9955316"><ele>1020.0</ele><time>2026-05-03T08:19:30.747Z</time></trkpt><trkpt lat="38.0024141" lon="14.9955151"><ele>1020.0</ele><time>2026-05-03T08:19:33.747Z</time></trkpt><trkpt lat="38.0023357" lon="14.9954901"><ele>1020.0</ele><time>2026-05-03T08:19:57.747Z</time></trkpt><trkpt lat="38.002276" lon="14.9954602"><ele>1020.0</ele><time>2026-05-03T08:20:12.747Z</time></trkpt><trkpt lat="38.0021931" lon="14.9954229"><ele>1023.8333333333334</ele><time>2026-05-03T08:20:15.747Z</time></trkpt><trkpt lat="38.0021333" lon="14.9954691"><ele>1027.6666666666667</ele><time>2026-05-03T08:20:18.747Z</time></trkpt><trkpt lat="38.002105" lon="14.9955645"><ele>1031.5</ele><time>2026-05-03T08:20:21.748Z</time></trkpt><trkpt lat="38.0020553" lon="14.9956404"><ele>1035.3333333333335</ele><time>2026-05-03T08:20:31.747Z</time></trkpt><trkpt lat="38.0020005" lon="14.995695"><ele>1039.1666666666667</ele><time>2026-05-03T08:20:34.747Z</time></trkpt><trkpt lat="38.0019208" lon="14.9957209"><ele>1043.0</ele><time>2026-05-03T08:20:37.747Z</time></trkpt><trkpt lat="38.0018389" lon="14.9957683"><ele>1043.0</ele><time>2026-05-03T08:20:40.747Z</time></trkpt><trkpt lat="38.0017708" lon="14.9957938"><ele>1043.0</ele><time>2026-05-03T08:20:42.747Z</time></trkpt><trkpt lat="38.001691" lon="14.9958236"><ele>1043.0</ele><time>2026-05-03T08:20:44.747Z</time></trkpt><trkpt lat="38.0016128" lon="14.995837"><ele>1043.0</ele><time>2026-05-03T08:20:46.748Z</time></trkpt><trkpt lat="38.0015381" lon="14.9958461"><ele>1043.0</ele><time>2026-05-03T08:20:48.747Z</time></trkpt><trkpt lat="38.0014495" lon="14.9958495"><ele>1043.0</ele><time>2026-05-03T08:20:51.747Z</time></trkpt><trkpt lat="38.001375" lon="14.9958609"><ele>1042.6</ele><time>2026-05-03T08:20:53.747Z</time></trkpt><trkpt lat="38.0013114" lon="14.9958618"><ele>1042.1999999999998</ele><time>2026-05-03T08:20:55.747Z</time></trkpt><trkpt lat="38.0012243" lon="14.9958672"><ele>1041.8</ele><time>2026-05-03T08:20:57.747Z</time></trkpt><trkpt lat="38.0011281" lon="14.9958503"><ele>1041.3999999999999</ele><time>2026-05-03T08:20:59.747Z</time></trkpt><trkpt lat="38.0010344" lon="14.9957631"><ele>1041.0</ele><time>2026-05-03T08:21:01.747Z</time></trkpt><trkpt lat="38.0009196" lon="14.9957241"><ele>1044.0</ele><time>2026-05-03T08:21:03.747Z</time></trkpt><trkpt lat="38.0008505" lon="14.995733"><ele>1047.0</ele><time>2026-05-03T08:21:04.747Z</time></trkpt><trkpt lat="38.0007814" lon="14.9957361"><ele>1050.0</ele><time>2026-05-03T08:21:05.747Z</time></trkpt><trkpt lat="38.0007153" lon="14.9957269"><ele>1053.0</ele><time>2026-05-03T08:21:06.747Z</time></trkpt><trkpt lat="38.0006509" lon="14.9957079"><ele>1056.0</ele><time>2026-05-03T08:21:07.747Z</time></trkpt><trkpt lat="38.0005449" lon="14.9956631"><ele>1059.0</ele><time>2026-05-03T08:21:09.747Z</time></trkpt><trkpt lat="38.0004648" lon="14.995641"><ele>1063.0</ele><time>2026-05-03T08:21:11.747Z</time></trkpt><trkpt lat="38.0003707" lon="14.9956606"><ele>1067.0</ele><time>2026-05-03T08:21:13.747Z</time></trkpt><trkpt lat="38.0002918" lon="14.9956998"><ele>1071.0</ele><time>2026-05-03T08:21:15.747Z</time></trkpt><trkpt lat="38.0002525" lon="14.9957923"><ele>1075.0</ele><time>2026-05-03T08:21:17.747Z</time></trkpt><trkpt lat="38.0001681" lon="14.9958146"><ele>1079.0</ele><time>2026-05-03T08:21:19.748Z</time></trkpt><trkpt lat="38.000119" lon="14.995697"><ele>1079.0</ele><time>2026-05-03T08:21:21.747Z</time></trkpt><trkpt lat="38.0001059" lon="14.9955516"><ele>1079.0</ele><time>2026-05-03T08:21:23.747Z</time></trkpt><trkpt lat="38.0000285" lon="14.9955253"><ele>1079.0</ele><time>2026-05-03T08:21:25.748Z</time></trkpt><trkpt lat="37.9999813" lon="14.9956375"><ele>1079.0</ele><time>2026-05-03T08:21:27.747Z</time></trkpt><trkpt lat="37.9998865" lon="14.995736"><ele>1079.0</ele><time>2026-05-03T08:21:29.747Z</time></trkpt><trkpt lat="37.9998151" lon="14.9957598"><ele>1079.0</ele><time>2026-05-03T08:21:30.747Z</time></trkpt><trkpt lat="37.999736" lon="14.9957985"><ele>1079.0</ele><time>2026-05-03T08:21:31.747Z</time></trkpt><trkpt lat="37.9996603" lon="14.9958226"><ele>1079.0</ele><time>2026-05-03T08:21:32.747Z</time></trkpt><trkpt lat="37.9995826" lon="14.9958538"><ele>1079.0</ele><time>2026-05-03T08:21:33.747Z</time></trkpt><trkpt lat="37.9995151" lon="14.9958953"><ele>1079.0</ele><time>2026-05-03T08:21:34.748Z</time></trkpt><trkpt lat="37.9994169" lon="14.9958935"><ele>1079.0</ele><time>2026-05-03T08:21:36.747Z</time></trkpt><trkpt lat="37.9993511" lon="14.995839"><ele>1079.0</ele><time>2026-05-03T08:21:38.747Z</time></trkpt><trkpt lat="37.9992828" lon="14.9957459"><ele>1079.0</ele><time>2026-05-03T08:21:40.748Z</time></trkpt><trkpt lat="37.9992031" lon="14.9956387"><ele>1079.0</ele><time>2026-05-03T08:21:42.747Z</time></trkpt><trkpt lat="37.9991562" lon="14.9955842"><ele>1079.0</ele><time>2026-05-03T08:21:43.747Z</time></trkpt><trkpt lat="37.9991065" lon="14.9955282"><ele>1079.0</ele><time>2026-05-03T08:21:44.748Z</time></trkpt><trkpt lat="37.9990244" lon="14.9954245"><ele>1081.8</ele><time>2026-05-03T08:21:46.747Z</time></trkpt><trkpt lat="37.998954" lon="14.9952998"><ele>1084.6000000000001</ele><time>2026-05-03T08:21:48.747Z</time></trkpt><trkpt lat="37.9988803" lon="14.9951796"><ele>1087.4</ele><time>2026-05-03T08:21:50.747Z</time></trkpt><trkpt lat="37.998795" lon="14.9950757"><ele>1090.2</ele><time>2026-05-03T08:21:52.747Z</time></trkpt><trkpt lat="37.9987612" lon="14.9950025"><ele>1093.0</ele><time>2026-05-03T08:21:53.747Z</time></trkpt><trkpt lat="37.9987269" lon="14.9949138"><ele>1095.0</ele><time>2026-05-03T08:21:54.747Z</time></trkpt><trkpt lat="37.9986837" lon="14.9948238"><ele>1097.0</ele><time>2026-05-03T08:21:55.748Z</time></trkpt><trkpt lat="37.9986342" lon="14.9947523"><ele>1099.0</ele><time>2026-05-03T08:21:56.747Z</time></trkpt><trkpt lat="37.9985901" lon="14.9946723"><ele>1101.0</ele><time>2026-05-03T08:21:57.747Z</time></trkpt><trkpt lat="37.9985491" lon="14.9945675"><ele>1103.0</ele><time>2026-05-03T08:21:58.748Z</time></trkpt><trkpt lat="37.9984923" lon="14.9944667"><ele>1105.0</ele><time>2026-05-03T08:21:59.748Z</time></trkpt><trkpt lat="37.9984481" lon="14.9943742"><ele>1105.0</ele><time>2026-05-03T08:22:00.747Z</time></trkpt><trkpt lat="37.9984004" lon="14.9942945"><ele>1105.0</ele><time>2026-05-03T08:22:01.747Z</time></trkpt><trkpt lat="37.9983394" lon="14.9942253"><ele>1105.0</ele><time>2026-05-03T08:22:02.748Z</time></trkpt><trkpt lat="37.998271" lon="14.994176"><ele>1105.0</ele><time>2026-05-03T08:22:03.747Z</time></trkpt><trkpt lat="37.9981957" lon="14.9941473"><ele>1105.0</ele><time>2026-05-03T08:22:04.747Z</time></trkpt><trkpt lat="37.9981197" lon="14.9941213"><ele>1105.0</ele><time>2026-05-03T08:22:05.747Z</time></trkpt><trkpt lat="37.9980388" lon="14.9940763"><ele>1106.6</ele><time>2026-05-03T08:22:06.747Z</time></trkpt><trkpt lat="37.9979538" lon="14.9940287"><ele>1108.2</ele><time>2026-05-03T08:22:07.747Z</time></trkpt><trkpt lat="37.9978686" lon="14.9939793"><ele>1109.8</ele><time>2026-05-03T08:22:08.747Z</time></trkpt><trkpt lat="37.9977783" lon="14.9939379"><ele>1111.4</ele><time>2026-05-03T08:22:09.747Z</time></trkpt><trkpt lat="37.9976837" lon="14.9939135"><ele>1113.0</ele><time>2026-05-03T08:22:10.747Z</time></trkpt><trkpt lat="37.9975869" lon="14.9938973"><ele>1113.4285714285713</ele><time>2026-05-03T08:22:11.747Z</time></trkpt><trkpt lat="37.9974986" lon="14.9938906"><ele>1113.857142857143</ele><time>2026-05-03T08:22:12.747Z</time></trkpt><trkpt lat="37.9974265" lon="14.9939023"><ele>1114.2857142857142</ele><time>2026-05-03T08:22:13.747Z</time></trkpt><trkpt lat="37.9973653" lon="14.9939435"><ele>1114.7142857142858</ele><time>2026-05-03T08:22:14.747Z</time></trkpt><trkpt lat="37.9973137" lon="14.9939985"><ele>1115.142857142857</ele><time>2026-05-03T08:22:15.747Z</time></trkpt><trkpt lat="37.9972756" lon="14.9940679"><ele>1115.5714285714284</ele><time>2026-05-03T08:22:16.747Z</time></trkpt><trkpt lat="37.9972588" lon="14.9941603"><ele>1116.0</ele><time>2026-05-03T08:22:17.748Z</time></trkpt><trkpt lat="37.9972586" lon="14.9942655"><ele>1116.0</ele><time>2026-05-03T08:22:18.747Z</time></trkpt><trkpt lat="37.9972713" lon="14.9943818"><ele>1116.0</ele><time>2026-05-03T08:22:19.747Z</time></trkpt><trkpt lat="37.9972688" lon="14.9944784"><ele>1116.0</ele><time>2026-05-03T08:22:20.747Z</time></trkpt><trkpt lat="37.9972527" lon="14.9945625"><ele>1116.0</ele><time>2026-05-03T08:22:21.747Z</time></trkpt><trkpt lat="37.9972313" lon="14.9946588"><ele>1116.0</ele><time>2026-05-03T08:22:22.747Z</time></trkpt><trkpt lat="37.9971918" lon="14.9947353"><ele>1116.0</ele><time>2026-05-03T08:22:23.747Z</time></trkpt><trkpt lat="37.9971304" lon="14.99478"><ele>1116.0</ele><time>2026-05-03T08:22:24.747Z</time></trkpt><trkpt lat="37.9970513" lon="14.9948157"><ele>1116.0</ele><time>2026-05-03T08:22:25.747Z</time></trkpt><trkpt lat="37.9969748" lon="14.9948472"><ele>1116.0</ele><time>2026-05-03T08:22:26.747Z</time></trkpt><trkpt lat="37.9969034" lon="14.9948887"><ele>1116.0</ele><time>2026-05-03T08:22:30.747Z</time></trkpt><trkpt lat="37.9968256" lon="14.9949346"><ele>1116.0</ele><time>2026-05-03T08:22:32.746Z</time></trkpt><trkpt lat="37.9967611" lon="14.9949765"><ele>1116.0</ele><time>2026-05-03T08:22:33.747Z</time></trkpt><trkpt lat="37.996687" lon="14.9950368"><ele>1115.3333333333333</ele><time>2026-05-03T08:22:34.747Z</time></trkpt><trkpt lat="37.9966083" lon="14.9951036"><ele>1114.6666666666667</ele><time>2026-05-03T08:22:35.746Z</time></trkpt><trkpt lat="37.996523" lon="14.9951396"><ele>1114.0</ele><time>2026-05-03T08:22:36.747Z</time></trkpt><trkpt lat="37.9964386" lon="14.9951548"><ele>1113.3333333333335</ele><time>2026-05-03T08:22:37.747Z</time></trkpt><trkpt lat="37.9963656" lon="14.9951835"><ele>1112.6666666666667</ele><time>2026-05-03T08:22:38.747Z</time></trkpt><trkpt lat="37.996284" lon="14.995243"><ele>1112.0</ele><time>2026-05-03T08:22:40.747Z</time></trkpt><trkpt lat="37.996195" lon="14.9952582"><ele>1112.0</ele><time>2026-05-03T08:22:43.748Z</time></trkpt><trkpt lat="37.9961255" lon="14.9953046"><ele>1112.0</ele><time>2026-05-03T08:22:45.746Z</time></trkpt><trkpt lat="37.9960183" lon="14.9953284"><ele>1112.0</ele><time>2026-05-03T08:22:47.747Z</time></trkpt><trkpt lat="37.9959469" lon="14.9953259"><ele>1112.0</ele><time>2026-05-03T08:22:48.747Z</time></trkpt><trkpt lat="37.9958819" lon="14.9953473"><ele>1112.0</ele><time>2026-05-03T08:22:49.748Z</time></trkpt><trkpt lat="37.9957951" lon="14.9954016"><ele>1112.0</ele><time>2026-05-03T08:22:51.748Z</time></trkpt><trkpt lat="37.9957231" lon="14.9954261"><ele>1114.1666666666667</ele><time>2026-05-03T08:22:52.746Z</time></trkpt><trkpt lat="37.9956343" lon="14.9954515"><ele>1116.3333333333335</ele><time>2026-05-03T08:22:53.748Z</time></trkpt><trkpt lat="37.9955456" lon="14.9954767"><ele>1118.5</ele><time>2026-05-03T08:22:54.747Z</time></trkpt><trkpt lat="37.9954769" lon="14.9955256"><ele>1120.6666666666667</ele><time>2026-05-03T08:22:55.747Z</time></trkpt><trkpt lat="37.9954283" lon="14.995599"><ele>1122.8333333333333</ele><time>2026-05-03T08:22:56.747Z</time></trkpt><trkpt lat="37.9953816" lon="14.9956741"><ele>1125.0</ele><time>2026-05-03T08:22:57.747Z</time></trkpt><trkpt lat="37.9953214" lon="14.9957134"><ele>1125.0</ele><time>2026-05-03T08:22:58.747Z</time></trkpt><trkpt lat="37.9952561" lon="14.9957417"><ele>1125.0</ele><time>2026-05-03T08:22:59.748Z</time></trkpt><trkpt lat="37.9951391" lon="14.9957289"><ele>1125.0</ele><time>2026-05-03T08:23:01.747Z</time></trkpt><trkpt lat="37.995027" lon="14.9957361"><ele>1125.0</ele><time>2026-05-03T08:23:03.748Z</time></trkpt><trkpt lat="37.9949571" lon="14.9957708"><ele>1125.0</ele><time>2026-05-03T08:23:04.747Z</time></trkpt><trkpt lat="37.9948896" lon="14.9958419"><ele>1124.8</ele><time>2026-05-03T08:23:05.747Z</time></trkpt><trkpt lat="37.9948429" lon="14.9959404"><ele>1124.6</ele><time>2026-05-03T08:23:06.746Z</time></trkpt><trkpt lat="37.9948015" lon="14.9960646"><ele>1124.4</ele><time>2026-05-03T08:23:07.747Z</time></trkpt><trkpt lat="37.9947654" lon="14.9961679"><ele>1124.2</ele><time>2026-05-03T08:23:08.747Z</time></trkpt><trkpt lat="37.9947249" lon="14.9962544"><ele>1124.0</ele><time>2026-05-03T08:23:09.747Z</time></trkpt><trkpt lat="37.9946506" lon="14.9963381"><ele>1124.0</ele><time>2026-05-03T08:23:10.747Z</time></trkpt><trkpt lat="37.994567" lon="14.9964261"><ele>1124.0</ele><time>2026-05-03T08:23:11.747Z</time></trkpt><trkpt lat="37.9944874" lon="14.9965096"><ele>1124.0</ele><time>2026-05-03T08:23:12.748Z</time></trkpt><trkpt lat="37.9944228" lon="14.9965715"><ele>1124.0</ele><time>2026-05-03T08:23:13.747Z</time></trkpt><trkpt lat="37.9943397" lon="14.9966368"><ele>1124.0</ele><time>2026-05-03T08:23:15.746Z</time></trkpt><trkpt lat="37.9942387" lon="14.9966857"><ele>1123.1666666666667</ele><time>2026-05-03T08:23:17.747Z</time></trkpt><trkpt lat="37.9941327" lon="14.9966926"><ele>1122.3333333333335</ele><time>2026-05-03T08:23:19.747Z</time></trkpt><trkpt lat="37.9940693" lon="14.9966948"><ele>1121.5</ele><time>2026-05-03T08:23:23.748Z</time></trkpt><trkpt lat="37.9939867" lon="14.9966954"><ele>1120.6666666666667</ele><time>2026-05-03T08:23:25.748Z</time></trkpt><trkpt lat="37.9939019" lon="14.9966985"><ele>1119.8333333333333</ele><time>2026-05-03T08:23:26.747Z</time></trkpt><trkpt lat="37.9938062" lon="14.9966726"><ele>1119.0</ele><time>2026-05-03T08:23:27.747Z</time></trkpt><trkpt lat="37.9937107" lon="14.9966413"><ele>1121.0</ele><time>2026-05-03T08:23:28.747Z</time></trkpt><trkpt lat="37.9936223" lon="14.9965853"><ele>1123.0</ele><time>2026-05-03T08:23:29.748Z</time></trkpt><trkpt lat="37.9935199" lon="14.996543"><ele>1125.0</ele><time>2026-05-03T08:23:30.746Z</time></trkpt><trkpt lat="37.99342" lon="14.9964945"><ele>1127.0</ele><time>2026-05-03T08:23:31.747Z</time></trkpt><trkpt lat="37.9933172" lon="14.9964264"><ele>1129.0</ele><time>2026-05-03T08:23:32.747Z</time></trkpt><trkpt lat="37.9932034" lon="14.9963782"><ele>1129.75</ele><time>2026-05-03T08:23:33.747Z</time></trkpt><trkpt lat="37.9930765" lon="14.9963264"><ele>1130.5</ele><time>2026-05-03T08:23:34.747Z</time></trkpt><trkpt lat="37.9929549" lon="14.9962648"><ele>1131.25</ele><time>2026-05-03T08:23:35.748Z</time></trkpt><trkpt lat="37.992843" lon="14.996191"><ele>1132.0</ele><time>2026-05-03T08:23:36.747Z</time></trkpt><trkpt lat="37.992739" lon="14.9961268"><ele>1132.0</ele><time>2026-05-03T08:23:37.747Z</time></trkpt><trkpt lat="37.9926364" lon="14.9960914"><ele>1132.0</ele><time>2026-05-03T08:23:38.747Z</time></trkpt><trkpt lat="37.9925323" lon="14.9960712"><ele>1132.0</ele><time>2026-05-03T08:23:39.747Z</time></trkpt><trkpt lat="37.9924363" lon="14.996072"><ele>1132.0</ele><time>2026-05-03T08:23:40.747Z</time></trkpt><trkpt lat="37.9923427" lon="14.9961071"><ele>1132.0</ele><time>2026-05-03T08:23:41.747Z</time></trkpt><trkpt lat="37.992262" lon="14.9961872"><ele>1131.2</ele><time>2026-05-03T08:23:42.747Z</time></trkpt><trkpt lat="37.992182" lon="14.9962664"><ele>1130.4</ele><time>2026-05-03T08:23:43.747Z</time></trkpt><trkpt lat="37.9920985" lon="14.9963061"><ele>1129.6</ele><time>2026-05-03T08:23:44.747Z</time></trkpt><trkpt lat="37.992007" lon="14.9963343"><ele>1128.8</ele><time>2026-05-03T08:23:45.747Z</time></trkpt><trkpt lat="37.9919041" lon="14.996381"><ele>1128.0</ele><time>2026-05-03T08:23:46.747Z</time></trkpt><trkpt lat="37.9917852" lon="14.9964399"><ele>1128.6</ele><time>2026-05-03T08:23:47.747Z</time></trkpt><trkpt lat="37.9916686" lon="14.9964903"><ele>1129.1999999999998</ele><time>2026-05-03T08:23:48.747Z</time></trkpt><trkpt lat="37.9915576" lon="14.996529"><ele>1129.8</ele><time>2026-05-03T08:23:49.747Z</time></trkpt><trkpt lat="37.9914513" lon="14.9965777"><ele>1130.3999999999999</ele><time>2026-05-03T08:23:50.747Z</time></trkpt><trkpt lat="37.991365" lon="14.9966216"><ele>1131.0</ele><time>2026-05-03T08:23:51.748Z</time></trkpt><trkpt lat="37.9912675" lon="14.9966731"><ele>1129.0</ele><time>2026-05-03T08:23:53.747Z</time></trkpt><trkpt lat="37.9912074" lon="14.9967033"><ele>1127.0</ele><time>2026-05-03T08:23:54.748Z</time></trkpt><trkpt lat="37.9911298" lon="14.996743"><ele>1125.0</ele><time>2026-05-03T08:23:55.746Z</time></trkpt><trkpt lat="37.9910381" lon="14.9967824"><ele>1123.0</ele><time>2026-05-03T08:23:56.747Z</time></trkpt><trkpt lat="37.9909422" lon="14.9968486"><ele>1121.0</ele><time>2026-05-03T08:23:57.747Z</time></trkpt><trkpt lat="37.9908371" lon="14.9969077"><ele>1121.0</ele><time>2026-05-03T08:23:58.747Z</time></trkpt><trkpt lat="37.9907233" lon="14.9969605"><ele>1121.0</ele><time>2026-05-03T08:23:59.747Z</time></trkpt><trkpt lat="37.9906102" lon="14.9970046"><ele>1121.0</ele><time>2026-05-03T08:24:00.748Z</time></trkpt><trkpt lat="37.9904952" lon="14.9970573"><ele>1121.0</ele><time>2026-05-03T08:24:01.747Z</time></trkpt><trkpt lat="37.9903874" lon="14.9971338"><ele>1121.0</ele><time>2026-05-03T08:24:02.747Z</time></trkpt><trkpt lat="37.9902904" lon="14.9971901"><ele>1121.0</ele><time>2026-05-03T08:24:03.748Z</time></trkpt><trkpt lat="37.9901866" lon="14.997237"><ele>1121.0</ele><time>2026-05-03T08:24:04.747Z</time></trkpt><trkpt lat="37.9900863" lon="14.9972648"><ele>1121.0</ele><time>2026-05-03T08:24:05.748Z</time></trkpt><trkpt lat="37.9899919" lon="14.9972832"><ele>1121.0</ele><time>2026-05-03T08:24:06.747Z</time></trkpt><trkpt lat="37.9898963" lon="14.9973062"><ele>1123.2</ele><time>2026-05-03T08:24:07.748Z</time></trkpt><trkpt lat="37.9898011" lon="14.997307"><ele>1125.3999999999999</ele><time>2026-05-03T08:24:08.747Z</time></trkpt><trkpt lat="37.9897083" lon="14.9973144"><ele>1127.6</ele><time>2026-05-03T08:24:09.747Z</time></trkpt><trkpt lat="37.9896092" lon="14.9973636"><ele>1129.8</ele><time>2026-05-03T08:24:10.747Z</time></trkpt><trkpt lat="37.989497" lon="14.9974177"><ele>1132.0</ele><time>2026-05-03T08:24:11.747Z</time></trkpt><trkpt lat="37.9893713" lon="14.9974594"><ele>1132.0</ele><time>2026-05-03T08:24:12.747Z</time></trkpt><trkpt lat="37.9892646" lon="14.9974921"><ele>1132.0</ele><time>2026-05-03T08:24:13.747Z</time></trkpt><trkpt lat="37.9891513" lon="14.9975061"><ele>1132.0</ele><time>2026-05-03T08:24:14.747Z</time></trkpt><trkpt lat="37.9890372" lon="14.9974917"><ele>1132.0</ele><time>2026-05-03T08:24:15.747Z</time></trkpt><trkpt lat="37.9889153" lon="14.9974942"><ele>1131.2</ele><time>2026-05-03T08:24:16.747Z</time></trkpt><trkpt lat="37.9887934" lon="14.9975162"><ele>1130.4</ele><time>2026-05-03T08:24:17.747Z</time></trkpt><trkpt lat="37.988687" lon="14.9975049"><ele>1129.6</ele><time>2026-05-03T08:24:18.747Z</time></trkpt><trkpt lat="37.9885848" lon="14.9974803"><ele>1128.8</ele><time>2026-05-03T08:24:19.747Z</time></trkpt><trkpt lat="37.9884811" lon="14.9974873"><ele>1128.0</ele><time>2026-05-03T08:24:20.747Z</time></trkpt><trkpt lat="37.9883769" lon="14.9975238"><ele>1129.5</ele><time>2026-05-03T08:24:21.747Z</time></trkpt><trkpt lat="37.9882626" lon="14.9975613"><ele>1131.0</ele><time>2026-05-03T08:24:22.746Z</time></trkpt><trkpt lat="37.98814" lon="14.9975889"><ele>1132.5</ele><time>2026-05-03T08:24:23.747Z</time></trkpt><trkpt lat="37.9880116" lon="14.9976178"><ele>1134.0</ele><time>2026-05-03T08:24:24.747Z</time></trkpt><trkpt lat="37.9878928" lon="14.9976305"><ele>1134.0</ele><time>2026-05-03T08:24:25.747Z</time></trkpt><trkpt lat="37.9877726" lon="14.997612"><ele>1134.0</ele><time>2026-05-03T08:24:26.748Z</time></trkpt><trkpt lat="37.9876521" lon="14.9975701"><ele>1134.0</ele><time>2026-05-03T08:24:27.747Z</time></trkpt><trkpt lat="37.9875327" lon="14.997506"><ele>1134.0</ele><time>2026-05-03T08:24:28.747Z</time></trkpt><trkpt lat="37.987424" lon="14.9974645"><ele>1138.0</ele><time>2026-05-03T08:24:29.747Z</time></trkpt><trkpt lat="37.9873129" lon="14.9974559"><ele>1142.0</ele><time>2026-05-03T08:24:30.747Z</time></trkpt><trkpt lat="37.9872034" lon="14.9974703"><ele>1146.0</ele><time>2026-05-03T08:24:31.747Z</time></trkpt><trkpt lat="37.9870755" lon="14.9974858"><ele>1150.0</ele><time>2026-05-03T08:24:32.747Z</time></trkpt><trkpt lat="37.9869501" lon="14.9974806"><ele>1150.0</ele><time>2026-05-03T08:24:33.747Z</time></trkpt><trkpt lat="37.9868338" lon="14.9974405"><ele>1150.0</ele><time>2026-05-03T08:24:34.747Z</time></trkpt><trkpt lat="37.9867369" lon="14.9973876"><ele>1150.0</ele><time>2026-05-03T08:24:35.747Z</time></trkpt><trkpt lat="37.9866378" lon="14.9973753"><ele>1150.0</ele><time>2026-05-03T08:24:36.747Z</time></trkpt><trkpt lat="37.9865499" lon="14.9973952"><ele>1150.0</ele><time>2026-05-03T08:24:37.747Z</time></trkpt><trkpt lat="37.9864545" lon="14.9974322"><ele>1150.25</ele><time>2026-05-03T08:24:38.747Z</time></trkpt><trkpt lat="37.986346" lon="14.9974745"><ele>1150.5</ele><time>2026-05-03T08:24:39.747Z</time></trkpt><trkpt lat="37.9862246" lon="14.997494"><ele>1150.75</ele><time>2026-05-03T08:24:40.747Z</time></trkpt><trkpt lat="37.9860911" lon="14.997505"><ele>1151.0</ele><time>2026-05-03T08:24:41.747Z</time></trkpt><trkpt lat="37.9859629" lon="14.9975167"><ele>1151.0</ele><time>2026-05-03T08:24:42.747Z</time></trkpt><trkpt lat="37.9858528" lon="14.9975176"><ele>1151.0</ele><time>2026-05-03T08:24:43.747Z</time></trkpt><trkpt lat="37.9857427" lon="14.9975385"><ele>1151.0</ele><time>2026-05-03T08:24:44.747Z</time></trkpt><trkpt lat="37.9856401" lon="14.9976179"><ele>1151.0</ele><time>2026-05-03T08:24:45.748Z</time></trkpt><trkpt lat="37.9855368" lon="14.9977193"><ele>1156.3333333333335</ele><time>2026-05-03T08:24:46.747Z</time></trkpt><trkpt lat="37.9854137" lon="14.9978074"><ele>1161.6666666666667</ele><time>2026-05-03T08:24:47.747Z</time></trkpt><trkpt lat="37.9852793" lon="14.9978967"><ele>1167.0</ele><time>2026-05-03T08:24:48.747Z</time></trkpt><trkpt lat="37.9851365" lon="14.997979"><ele>1167.75</ele><time>2026-05-03T08:24:49.748Z</time></trkpt><trkpt lat="37.9850001" lon="14.9980515"><ele>1168.5</ele><time>2026-05-03T08:24:50.748Z</time></trkpt><trkpt lat="37.984878" lon="14.9981284"><ele>1169.25</ele><time>2026-05-03T08:24:51.747Z</time></trkpt><trkpt lat="37.9847642" lon="14.9981984"><ele>1170.0</ele><time>2026-05-03T08:24:52.748Z</time></trkpt><trkpt lat="37.98466" lon="14.9982614"><ele>1172.0</ele><time>2026-05-03T08:24:53.747Z</time></trkpt><trkpt lat="37.9845595" lon="14.9983406"><ele>1174.0</ele><time>2026-05-03T08:24:54.747Z</time></trkpt><trkpt lat="37.9844597" lon="14.9984462"><ele>1176.0</ele><time>2026-05-03T08:24:55.747Z</time></trkpt><trkpt lat="37.9843674" lon="14.9985609"><ele>1178.0</ele><time>2026-05-03T08:24:56.746Z</time></trkpt><trkpt lat="37.9842859" lon="14.9986919"><ele>1178.0</ele><time>2026-05-03T08:24:57.747Z</time></trkpt><trkpt lat="37.9842231" lon="14.9988323"><ele>1178.0</ele><time>2026-05-03T08:24:58.747Z</time></trkpt><trkpt lat="37.9841833" lon="14.9989565"><ele>1178.0</ele><time>2026-05-03T08:24:59.747Z</time></trkpt><trkpt lat="37.9841596" lon="14.9990651"><ele>1178.0</ele><time>2026-05-03T08:25:00.747Z</time></trkpt><trkpt lat="37.9841396" lon="14.9991507"><ele>1178.0</ele><time>2026-05-03T08:25:01.748Z</time></trkpt><trkpt lat="37.9840953" lon="14.9992342"><ele>1176.2</ele><time>2026-05-03T08:25:03.747Z</time></trkpt><trkpt lat="37.9840593" lon="14.9993135"><ele>1174.4</ele><time>2026-05-03T08:38:39.749Z</time></trkpt><trkpt lat="37.984043" lon="14.9994341"><ele>1172.6000000000001</ele><time>2026-05-03T08:38:41.749Z</time></trkpt><trkpt lat="37.9840438" lon="14.9995963"><ele>1170.8</ele><time>2026-05-03T08:38:43.749Z</time></trkpt><trkpt lat="37.9840478" lon="14.9996935"><ele>1169.0</ele><time>2026-05-03T08:38:44.749Z</time></trkpt><trkpt lat="37.9840621" lon="14.9997921"><ele>1169.0</ele><time>2026-05-03T08:38:45.749Z</time></trkpt><trkpt lat="37.9840869" lon="14.9998951"><ele>1169.0</ele><time>2026-05-03T08:38:46.749Z</time></trkpt><trkpt lat="37.9841357" lon="14.9999974"><ele>1169.0</ele><time>2026-05-03T08:38:47.749Z</time></trkpt><trkpt lat="37.9841972" lon="15.0000862"><ele>1169.0</ele><time>2026-05-03T08:38:48.749Z</time></trkpt><trkpt lat="37.9842619" lon="15.0001676"><ele>1169.0</ele><time>2026-05-03T08:38:49.749Z</time></trkpt><trkpt lat="37.9843224" lon="15.0002442"><ele>1169.0</ele><time>2026-05-03T08:38:50.749Z</time></trkpt><trkpt lat="37.9843791" lon="15.000311"><ele>1169.6666666666667</ele><time>2026-05-03T08:38:51.749Z</time></trkpt><trkpt lat="37.9844315" lon="15.0003857"><ele>1170.3333333333335</ele><time>2026-05-03T08:38:52.749Z</time></trkpt><trkpt lat="37.984497" lon="15.0004748"><ele>1171.0</ele><time>2026-05-03T08:38:53.751Z</time></trkpt><trkpt lat="37.9845479" lon="15.0005525"><ele>1171.6666666666667</ele><time>2026-05-03T08:38:54.749Z</time></trkpt><trkpt lat="37.9845885" lon="15.0006216"><ele>1172.3333333333333</ele><time>2026-05-03T08:38:55.749Z</time></trkpt><trkpt lat="37.9846596" lon="15.0007233"><ele>1173.0</ele><time>2026-05-03T08:38:57.749Z</time></trkpt><trkpt lat="37.9847105" lon="15.0007904"><ele>1172.8333333333333</ele><time>2026-05-03T08:39:00.749Z</time></trkpt><trkpt lat="37.9847524" lon="15.0008537"><ele>1172.6666666666667</ele><time>2026-05-03T08:39:07.749Z</time></trkpt><trkpt lat="37.9847895" lon="15.0009264"><ele>1172.5</ele><time>2026-05-03T08:39:09.749Z</time></trkpt><trkpt lat="37.9848476" lon="15.0009959"><ele>1172.3333333333335</ele><time>2026-05-03T08:39:12.75Z</time></trkpt><trkpt lat="37.9849067" lon="15.0009498"><ele>1172.1666666666667</ele><time>2026-05-03T08:39:13.749Z</time></trkpt><trkpt lat="37.9850097" lon="15.0009634"><ele>1172.0</ele><time>2026-05-03T08:39:15.749Z</time></trkpt><trkpt lat="37.9850867" lon="15.0009718"><ele>1172.0</ele><time>2026-05-03T08:39:16.749Z</time></trkpt><trkpt lat="37.9851643" lon="15.0010008"><ele>1172.0</ele><time>2026-05-03T08:39:17.749Z</time></trkpt><trkpt lat="37.9852591" lon="15.0010335"><ele>1172.0</ele><time>2026-05-03T08:39:18.749Z</time></trkpt><trkpt lat="37.9853415" lon="15.0010691"><ele>1172.0</ele><time>2026-05-03T08:39:19.749Z</time></trkpt><trkpt lat="37.9854148" lon="15.0010719"><ele>1172.0</ele><time>2026-05-03T08:39:20.749Z</time></trkpt><trkpt lat="37.9854758" lon="15.0011059"><ele>1172.0</ele><time>2026-05-03T08:39:21.749Z</time></trkpt><trkpt lat="37.9855935" lon="15.0011731"><ele>1172.0</ele><time>2026-05-03T08:39:23.749Z</time></trkpt><trkpt lat="37.9857101" lon="15.0012028"><ele>1172.0</ele><time>2026-05-03T08:39:25.749Z</time></trkpt><trkpt lat="37.985795" lon="15.0012664"><ele>1172.0</ele><time>2026-05-03T08:39:27.749Z</time></trkpt><trkpt lat="37.9858591" lon="15.0012868"><ele>1172.0</ele><time>2026-05-03T08:39:29.748Z</time></trkpt><trkpt lat="37.9859242" lon="15.0013119"><ele>1172.0</ele><time>2026-05-03T08:39:30.749Z</time></trkpt><trkpt lat="37.9859857" lon="15.0013418"><ele>1172.0</ele><time>2026-05-03T08:39:31.749Z</time></trkpt><trkpt lat="37.9860909" lon="15.0014233"><ele>1170.5</ele><time>2026-05-03T08:39:33.749Z</time></trkpt><trkpt lat="37.9861346" lon="15.0014815"><ele>1169.0</ele><time>2026-05-03T08:39:35.749Z</time></trkpt><trkpt lat="37.9862036" lon="15.0015244"><ele>1167.5</ele><time>2026-05-03T08:39:37.749Z</time></trkpt><trkpt lat="37.9862761" lon="15.001562"><ele>1166.0</ele><time>2026-05-03T08:39:39.749Z</time></trkpt><trkpt lat="37.9863806" lon="15.0015816"><ele>1164.5</ele><time>2026-05-03T08:39:41.749Z</time></trkpt><trkpt lat="37.9864436" lon="15.0015998"><ele>1163.0</ele><time>2026-05-03T08:39:42.749Z</time></trkpt><trkpt lat="37.9865109" lon="15.0016337"><ele>1163.0</ele><time>2026-05-03T08:39:43.749Z</time></trkpt><trkpt lat="37.9865824" lon="15.0016646"><ele>1163.0</ele><time>2026-05-03T08:39:45.75Z</time></trkpt><trkpt lat="37.9866726" lon="15.0017129"><ele>1163.0</ele><time>2026-05-03T08:39:47.749Z</time></trkpt><trkpt lat="37.9867724" lon="15.0017833"><ele>1163.0</ele><time>2026-05-03T08:39:49.749Z</time></trkpt><trkpt lat="37.9868397" lon="15.0018295"><ele>1163.0</ele><time>2026-05-03T08:39:51.75Z</time></trkpt><trkpt lat="37.9868965" lon="15.0018649"><ele>1163.0</ele><time>2026-05-03T08:39:53.749Z</time></trkpt><trkpt lat="37.986961" lon="15.0018682"><ele>1164.5</ele><time>2026-05-03T08:39:57.749Z</time></trkpt><trkpt lat="37.9870283" lon="15.0018333"><ele>1166.0</ele><time>2026-05-03T08:40:01.749Z</time></trkpt><trkpt lat="37.9871003" lon="15.0018763"><ele>1167.5</ele><time>2026-05-03T08:40:02.749Z</time></trkpt><trkpt lat="37.987163" lon="15.0019054"><ele>1169.0</ele><time>2026-05-03T08:40:03.749Z</time></trkpt><trkpt lat="37.9872324" lon="15.0019673"><ele>1170.5</ele><time>2026-05-03T08:40:04.749Z</time></trkpt><trkpt lat="37.987304" lon="15.002012"><ele>1172.0</ele><time>2026-05-03T08:40:05.749Z</time></trkpt><trkpt lat="37.9873897" lon="15.0020488"><ele>1172.0</ele><time>2026-05-03T08:40:06.749Z</time></trkpt><trkpt lat="37.9874614" lon="15.0020631"><ele>1172.0</ele><time>2026-05-03T08:40:07.749Z</time></trkpt><trkpt lat="37.9875857" lon="15.0020314"><ele>1172.0</ele><time>2026-05-03T08:40:09.749Z</time></trkpt><trkpt lat="37.987666" lon="15.001986"><ele>1172.0</ele><time>2026-05-03T08:40:10.75Z</time></trkpt><trkpt lat="37.9877541" lon="15.0019612"><ele>1172.0</ele><time>2026-05-03T08:40:11.749Z</time></trkpt><trkpt lat="37.9878626" lon="15.0019505"><ele>1171.25</ele><time>2026-05-03T08:40:12.75Z</time></trkpt><trkpt lat="37.9880021" lon="15.0020487"><ele>1170.5</ele><time>2026-05-03T08:40:13.749Z</time></trkpt><trkpt lat="37.988131" lon="15.0021189"><ele>1169.75</ele><time>2026-05-03T08:40:14.75Z</time></trkpt><trkpt lat="37.9882565" lon="15.0021516"><ele>1169.0</ele><time>2026-05-03T08:40:15.749Z</time></trkpt><trkpt lat="37.9883794" lon="15.0021966"><ele>1164.25</ele><time>2026-05-03T08:40:16.749Z</time></trkpt><trkpt lat="37.9885038" lon="15.0022304"><ele>1159.5</ele><time>2026-05-03T08:40:17.75Z</time></trkpt><trkpt lat="37.9886297" lon="15.0022974"><ele>1154.75</ele><time>2026-05-03T08:40:18.749Z</time></trkpt><trkpt lat="37.9887388" lon="15.0023804"><ele>1150.0</ele><time>2026-05-03T08:40:19.749Z</time></trkpt><trkpt lat="37.9888479" lon="15.0024605"><ele>1153.6</ele><time>2026-05-03T08:40:20.749Z</time></trkpt><trkpt lat="37.9889299" lon="15.002545"><ele>1157.2</ele><time>2026-05-03T08:40:21.75Z</time></trkpt><trkpt lat="37.9889968" lon="15.0026515"><ele>1160.8</ele><time>2026-05-03T08:40:22.749Z</time></trkpt><trkpt lat="37.9890333" lon="15.0027233"><ele>1164.4</ele><time>2026-05-03T08:40:23.748Z</time></trkpt><trkpt lat="37.9889683" lon="15.002787"><ele>1168.0</ele><time>2026-05-03T08:40:24.749Z</time></trkpt><trkpt lat="37.9889369" lon="15.0028999"><ele>1168.0</ele><time>2026-05-03T08:40:26.75Z</time></trkpt><trkpt lat="37.9888476" lon="15.0029958"><ele>1168.0</ele><time>2026-05-03T08:40:28.75Z</time></trkpt><trkpt lat="37.9887709" lon="15.0031112"><ele>1168.0</ele><time>2026-05-03T08:40:30.749Z</time></trkpt><trkpt lat="37.988733" lon="15.0031767"><ele>1168.0</ele><time>2026-05-03T08:40:31.75Z</time></trkpt><trkpt lat="37.9886806" lon="15.0033057"><ele>1168.0</ele><time>2026-05-03T08:40:33.749Z</time></trkpt><trkpt lat="37.9886887" lon="15.003435"><ele>1168.5</ele><time>2026-05-03T08:40:35.749Z</time></trkpt><trkpt lat="37.9887506" lon="15.003511"><ele>1169.0</ele><time>2026-05-03T08:40:37.749Z</time></trkpt><trkpt lat="37.9888198" lon="15.0035275"><ele>1169.5</ele><time>2026-05-03T08:40:38.749Z</time></trkpt><trkpt lat="37.9888975" lon="15.0035479"><ele>1170.0</ele><time>2026-05-03T08:40:39.749Z</time></trkpt><trkpt lat="37.9889665" lon="15.0035891"><ele>1170.5</ele><time>2026-05-03T08:40:40.75Z</time></trkpt><trkpt lat="37.9890179" lon="15.0036563"><ele>1171.0</ele><time>2026-05-03T08:40:41.749Z</time></trkpt><trkpt lat="37.9890642" lon="15.0037375"><ele>1171.0</ele><time>2026-05-03T08:40:42.749Z</time></trkpt><trkpt lat="37.9891047" lon="15.0038235"><ele>1171.0</ele><time>2026-05-03T08:40:43.749Z</time></trkpt><trkpt lat="37.9890128" lon="15.0039544"><ele>1171.0</ele><time>2026-05-03T08:40:44.749Z</time></trkpt><trkpt lat="37.9889947" lon="15.0040814"><ele>1171.0</ele><time>2026-05-03T08:40:45.75Z</time></trkpt><trkpt lat="37.9889748" lon="15.0042074"><ele>1171.0</ele><time>2026-05-03T08:40:46.75Z</time></trkpt><trkpt lat="37.9889876" lon="15.0043281"><ele>1172.0</ele><time>2026-05-03T08:40:47.749Z</time></trkpt><trkpt lat="37.9889571" lon="15.0044114"><ele>1173.0</ele><time>2026-05-03T08:40:48.75Z</time></trkpt><trkpt lat="37.9889127" lon="15.004486"><ele>1174.0</ele><time>2026-05-03T08:40:49.749Z</time></trkpt><trkpt lat="37.9888634" lon="15.0045533"><ele>1175.0</ele><time>2026-05-03T08:40:50.749Z</time></trkpt><trkpt lat="37.9888207" lon="15.0046319"><ele>1176.0</ele><time>2026-05-03T08:40:51.749Z</time></trkpt><trkpt lat="37.9888221" lon="15.0047734"><ele>1177.0</ele><time>2026-05-03T08:40:53.75Z</time></trkpt><trkpt lat="37.9888892" lon="15.0048976"><ele>1177.0</ele><time>2026-05-03T08:40:55.749Z</time></trkpt><trkpt lat="37.9889169" lon="15.0049736"><ele>1177.0</ele><time>2026-05-03T08:40:56.75Z</time></trkpt><trkpt lat="37.9890003" lon="15.0050572"><ele>1177.0</ele><time>2026-05-03T08:40:58.749Z</time></trkpt><trkpt lat="37.9891024" lon="15.0050186"><ele>1177.0</ele><time>2026-05-03T08:41:00.749Z</time></trkpt><trkpt lat="37.9891703" lon="15.0049944"><ele>1177.0</ele><time>2026-05-03T08:41:01.749Z</time></trkpt><trkpt lat="37.9892572" lon="15.0049383"><ele>1177.0</ele><time>2026-05-03T08:41:02.749Z</time></trkpt><trkpt lat="37.9893415" lon="15.0048874"><ele>1173.6</ele><time>2026-05-03T08:41:03.75Z</time></trkpt><trkpt lat="37.9894407" lon="15.0048495"><ele>1170.2</ele><time>2026-05-03T08:41:04.749Z</time></trkpt><trkpt lat="37.9895415" lon="15.0048094"><ele>1166.8</ele><time>2026-05-03T08:41:05.749Z</time></trkpt><trkpt lat="37.9896458" lon="15.0047678"><ele>1163.4</ele><time>2026-05-03T08:41:06.75Z</time></trkpt><trkpt lat="37.9897429" lon="15.0047288"><ele>1160.0</ele><time>2026-05-03T08:41:07.749Z</time></trkpt><trkpt lat="37.9898187" lon="15.0046998"><ele>1160.0</ele><time>2026-05-03T08:41:08.749Z</time></trkpt><trkpt lat="37.9899017" lon="15.0046717"><ele>1160.0</ele><time>2026-05-03T08:41:09.75Z</time></trkpt><trkpt lat="37.9899808" lon="15.0046632"><ele>1160.0</ele><time>2026-05-03T08:41:10.749Z</time></trkpt><trkpt lat="37.9900582" lon="15.0046862"><ele>1160.0</ele><time>2026-05-03T08:41:11.749Z</time></trkpt><trkpt lat="37.9901336" lon="15.0047414"><ele>1160.0</ele><time>2026-05-03T08:41:12.749Z</time></trkpt><trkpt lat="37.9901916" lon="15.0048325"><ele>1160.0</ele><time>2026-05-03T08:41:13.749Z</time></trkpt><trkpt lat="37.9902463" lon="15.0049552"><ele>1159.8</ele><time>2026-05-03T08:41:14.75Z</time></trkpt><trkpt lat="37.9902958" lon="15.0050842"><ele>1159.6</ele><time>2026-05-03T08:41:15.749Z</time></trkpt><trkpt lat="37.9903183" lon="15.0052253"><ele>1159.4</ele><time>2026-05-03T08:41:16.75Z</time></trkpt><trkpt lat="37.9903364" lon="15.0053613"><ele>1159.2</ele><time>2026-05-03T08:41:17.749Z</time></trkpt><trkpt lat="37.9903458" lon="15.0054847"><ele>1159.0</ele><time>2026-05-03T08:41:18.749Z</time></trkpt><trkpt lat="37.9903545" lon="15.0056036"><ele>1159.0</ele><time>2026-05-03T08:41:19.748Z</time></trkpt><trkpt lat="37.9903649" lon="15.0056866"><ele>1159.0</ele><time>2026-05-03T08:41:20.749Z</time></trkpt><trkpt lat="37.9904086" lon="15.0057653"><ele>1159.0</ele><time>2026-05-03T08:41:21.749Z</time></trkpt><trkpt lat="37.9904838" lon="15.0058205"><ele>1159.0</ele><time>2026-05-03T08:41:22.749Z</time></trkpt><trkpt lat="37.9905358" lon="15.0059003"><ele>1159.0</ele><time>2026-05-03T08:41:23.749Z</time></trkpt><trkpt lat="37.9905722" lon="15.0059848"><ele>1159.0</ele><time>2026-05-03T08:41:24.749Z</time></trkpt><trkpt lat="37.9905968" lon="15.0060762"><ele>1159.2</ele><time>2026-05-03T08:41:25.749Z</time></trkpt><trkpt lat="37.9906227" lon="15.0061707"><ele>1159.4</ele><time>2026-05-03T08:41:26.75Z</time></trkpt><trkpt lat="37.9905586" lon="15.0063107"><ele>1159.6</ele><time>2026-05-03T08:41:27.749Z</time></trkpt><trkpt lat="37.990534" lon="15.0064342"><ele>1159.8</ele><time>2026-05-03T08:41:28.749Z</time></trkpt><trkpt lat="37.9905101" lon="15.0065324"><ele>1160.0</ele><time>2026-05-03T08:41:29.749Z</time></trkpt><trkpt lat="37.9904835" lon="15.0066353"><ele>1161.2</ele><time>2026-05-03T08:41:30.75Z</time></trkpt><trkpt lat="37.9904799" lon="15.0067231"><ele>1162.4</ele><time>2026-05-03T08:41:32.749Z</time></trkpt><trkpt lat="37.9904606" lon="15.0068487"><ele>1163.6</ele><time>2026-05-03T08:41:34.749Z</time></trkpt><trkpt lat="37.9904735" lon="15.0069986"><ele>1164.8</ele><time>2026-05-03T08:41:36.75Z</time></trkpt><trkpt lat="37.9904943" lon="15.0070778"><ele>1166.0</ele><time>2026-05-03T08:41:37.749Z</time></trkpt><trkpt lat="37.9906273" lon="15.0071998"><ele>1166.0</ele><time>2026-05-03T08:41:39.749Z</time></trkpt><trkpt lat="37.9907078" lon="15.0072503"><ele>1166.0</ele><time>2026-05-03T08:41:41.749Z</time></trkpt><trkpt lat="37.9907993" lon="15.0072896"><ele>1166.0</ele><time>2026-05-03T08:41:44.749Z</time></trkpt><trkpt lat="37.9908782" lon="15.0073117"><ele>1166.0</ele><time>2026-05-03T08:41:46.749Z</time></trkpt><trkpt lat="37.9909743" lon="15.0073304"><ele>1166.0</ele><time>2026-05-03T08:41:48.75Z</time></trkpt><trkpt lat="37.991046" lon="15.0073655"><ele>1166.0</ele><time>2026-05-03T08:41:52.749Z</time></trkpt><trkpt lat="37.9910744" lon="15.0074409"><ele>1166.1666666666667</ele><time>2026-05-03T08:41:55.749Z</time></trkpt><trkpt lat="37.9910419" lon="15.0075227"><ele>1166.3333333333335</ele><time>2026-05-03T08:41:57.749Z</time></trkpt><trkpt lat="37.9909963" lon="15.0076104"><ele>1166.5</ele><time>2026-05-03T08:41:59.749Z</time></trkpt><trkpt lat="37.9909706" lon="15.0077085"><ele>1166.6666666666667</ele><time>2026-05-03T08:42:08.75Z</time></trkpt><trkpt lat="37.9909388" lon="15.0078103"><ele>1166.8333333333333</ele><time>2026-05-03T08:42:11.749Z</time></trkpt><trkpt lat="37.9909047" lon="15.0078858"><ele>1167.0</ele><time>2026-05-03T08:42:13.749Z</time></trkpt><trkpt lat="37.990922" lon="15.0079912"><ele>1167.0</ele><time>2026-05-03T08:42:17.749Z</time></trkpt><trkpt lat="37.9910267" lon="15.0080498"><ele>1167.0</ele><time>2026-05-03T08:42:19.749Z</time></trkpt><trkpt lat="37.9911006" lon="15.0081214"><ele>1167.0</ele><time>2026-05-03T08:42:21.749Z</time></trkpt><trkpt lat="37.9911145" lon="15.0082156"><ele>1167.0</ele><time>2026-05-03T08:42:23.75Z</time></trkpt><trkpt lat="37.9909998" lon="15.0083046"><ele>1167.0</ele><time>2026-05-03T08:42:25.749Z</time></trkpt><trkpt lat="37.9909045" lon="15.0083252"><ele>1169.25</ele><time>2026-05-03T08:42:26.749Z</time></trkpt><trkpt lat="37.9908071" lon="15.0083182"><ele>1171.5</ele><time>2026-05-03T08:42:27.749Z</time></trkpt><trkpt lat="37.9906994" lon="15.0082864"><ele>1173.75</ele><time>2026-05-03T08:42:28.75Z</time></trkpt><trkpt lat="37.9905832" lon="15.008245"><ele>1176.0</ele><time>2026-05-03T08:42:29.749Z</time></trkpt><trkpt lat="37.9904663" lon="15.008203"><ele>1176.0</ele><time>2026-05-03T08:42:30.749Z</time></trkpt><trkpt lat="37.9903558" lon="15.0081638"><ele>1176.0</ele><time>2026-05-03T08:42:31.749Z</time></trkpt><trkpt lat="37.9902468" lon="15.0081142"><ele>1176.0</ele><time>2026-05-03T08:42:32.749Z</time></trkpt><trkpt lat="37.9901194" lon="15.008076"><ele>1176.0</ele><time>2026-05-03T08:42:33.749Z</time></trkpt><trkpt lat="37.9899997" lon="15.0080502"><ele>1180.0</ele><time>2026-05-03T08:42:34.749Z</time></trkpt><trkpt lat="37.9898855" lon="15.0080467"><ele>1184.0</ele><time>2026-05-03T08:42:35.749Z</time></trkpt><trkpt lat="37.9897715" lon="15.0080772"><ele>1188.0</ele><time>2026-05-03T08:42:36.749Z</time></trkpt><trkpt lat="37.9896519" lon="15.0080973"><ele>1192.0</ele><time>2026-05-03T08:42:37.749Z</time></trkpt><trkpt lat="37.989526" lon="15.0081337"><ele>1192.0</ele><time>2026-05-03T08:42:38.749Z</time></trkpt><trkpt lat="37.9893988" lon="15.0081673"><ele>1192.0</ele><time>2026-05-03T08:42:39.749Z</time></trkpt><trkpt lat="37.9892556" lon="15.0082143"><ele>1192.0</ele><time>2026-05-03T08:42:40.749Z</time></trkpt><trkpt lat="37.9891438" lon="15.0082743"><ele>1192.0</ele><time>2026-05-03T08:42:41.749Z</time></trkpt><trkpt lat="37.9890203" lon="15.0083042"><ele>1188.5</ele><time>2026-05-03T08:42:42.751Z</time></trkpt><trkpt lat="37.9888892" lon="15.0083353"><ele>1185.0</ele><time>2026-05-03T08:42:43.75Z</time></trkpt><trkpt lat="37.9887764" lon="15.0083868"><ele>1181.5</ele><time>2026-05-03T08:42:44.75Z</time></trkpt><trkpt lat="37.9886765" lon="15.0084446"><ele>1178.0</ele><time>2026-05-03T08:42:45.75Z</time></trkpt><trkpt lat="37.9885761" lon="15.0084683"><ele>1178.0</ele><time>2026-05-03T08:42:46.75Z</time></trkpt><trkpt lat="37.9884772" lon="15.008486"><ele>1178.0</ele><time>2026-05-03T08:42:47.75Z</time></trkpt><trkpt lat="37.9883708" lon="15.0083937"><ele>1178.0</ele><time>2026-05-03T08:42:48.751Z</time></trkpt><trkpt lat="37.9882636" lon="15.0083479"><ele>1178.0</ele><time>2026-05-03T08:42:49.75Z</time></trkpt><trkpt lat="37.9881757" lon="15.0083047"><ele>1178.0</ele><time>2026-05-03T08:42:50.75Z</time></trkpt><trkpt lat="37.9880915" lon="15.0082742"><ele>1178.8</ele><time>2026-05-03T08:42:51.75Z</time></trkpt><trkpt lat="37.9880195" lon="15.0082967"><ele>1179.6</ele><time>2026-05-03T08:42:52.75Z</time></trkpt><trkpt lat="37.9879397" lon="15.0084234"><ele>1180.4</ele><time>2026-05-03T08:42:54.75Z</time></trkpt><trkpt lat="37.987897" lon="15.0085085"><ele>1181.2</ele><time>2026-05-03T08:42:55.75Z</time></trkpt><trkpt lat="37.9878654" lon="15.008613"><ele>1182.0</ele><time>2026-05-03T08:42:56.75Z</time></trkpt><trkpt lat="37.9878613" lon="15.0087367"><ele>1182.0</ele><time>2026-05-03T08:42:57.749Z</time></trkpt><trkpt lat="37.9878557" lon="15.0088598"><ele>1182.0</ele><time>2026-05-03T08:42:58.75Z</time></trkpt><trkpt lat="37.9878689" lon="15.0089987"><ele>1182.0</ele><time>2026-05-03T08:42:59.75Z</time></trkpt><trkpt lat="37.9878701" lon="15.0091267"><ele>1182.0</ele><time>2026-05-03T08:43:00.749Z</time></trkpt><trkpt lat="37.9878599" lon="15.009248"><ele>1182.0</ele><time>2026-05-03T08:43:01.751Z</time></trkpt><trkpt lat="37.9878353" lon="15.0093678"><ele>1176.0</ele><time>2026-05-03T08:43:02.751Z</time></trkpt><trkpt lat="37.9877427" lon="15.0095125"><ele>1170.0</ele><time>2026-05-03T08:43:03.75Z</time></trkpt><trkpt lat="37.9877087" lon="15.0096466"><ele>1164.0</ele><time>2026-05-03T08:43:04.75Z</time></trkpt><trkpt lat="37.9876722" lon="15.009764"><ele>1158.0</ele><time>2026-05-03T08:43:05.751Z</time></trkpt><trkpt lat="37.9876442" lon="15.0098845"><ele>1156.25</ele><time>2026-05-03T08:43:06.751Z</time></trkpt><trkpt lat="37.9876205" lon="15.0099992"><ele>1154.5</ele><time>2026-05-03T08:43:07.75Z</time></trkpt><trkpt lat="37.9876434" lon="15.0101832"><ele>1152.75</ele><time>2026-05-03T08:43:08.749Z</time></trkpt><trkpt lat="37.9876544" lon="15.0103154"><ele>1151.0</ele><time>2026-05-03T08:43:09.751Z</time></trkpt><trkpt lat="37.9877218" lon="15.0104403"><ele>1151.0</ele><time>2026-05-03T08:43:10.75Z</time></trkpt><trkpt lat="37.9877706" lon="15.0105585"><ele>1151.0</ele><time>2026-05-03T08:43:11.75Z</time></trkpt><trkpt lat="37.9878312" lon="15.0106808"><ele>1151.0</ele><time>2026-05-03T08:43:12.75Z</time></trkpt><trkpt lat="37.98787" lon="15.0107859"><ele>1151.0</ele><time>2026-05-03T08:43:13.75Z</time></trkpt><trkpt lat="37.9878091" lon="15.0109099"><ele>1151.0</ele><time>2026-05-03T08:43:14.75Z</time></trkpt><trkpt lat="37.9877504" lon="15.0109994"><ele>1150.8333333333335</ele><time>2026-05-03T08:43:15.75Z</time></trkpt><trkpt lat="37.9876798" lon="15.011078"><ele>1150.6666666666667</ele><time>2026-05-03T08:43:16.75Z</time></trkpt><trkpt lat="37.9876429" lon="15.0111626"><ele>1150.5</ele><time>2026-05-03T08:43:17.751Z</time></trkpt><trkpt lat="37.9876548" lon="15.0112462"><ele>1150.3333333333333</ele><time>2026-05-03T08:43:18.75Z</time></trkpt><trkpt lat="37.9877136" lon="15.0113375"><ele>1150.1666666666665</ele><time>2026-05-03T08:43:19.75Z</time></trkpt><trkpt lat="37.9877725" lon="15.0114369"><ele>1150.0</ele><time>2026-05-03T08:43:20.751Z</time></trkpt><trkpt lat="37.9878209" lon="15.0115598"><ele>1150.6</ele><time>2026-05-03T08:43:21.751Z</time></trkpt><trkpt lat="37.9878539" lon="15.0116794"><ele>1151.2</ele><time>2026-05-03T08:43:22.75Z</time></trkpt><trkpt lat="37.9878631" lon="15.011797"><ele>1151.8</ele><time>2026-05-03T08:43:23.75Z</time></trkpt><trkpt lat="37.9878573" lon="15.0119175"><ele>1152.4</ele><time>2026-05-03T08:43:24.75Z</time></trkpt><trkpt lat="37.987846" lon="15.0120272"><ele>1153.0</ele><time>2026-05-03T08:43:25.75Z</time></trkpt><trkpt lat="37.9878298" lon="15.0121201"><ele>1153.0</ele><time>2026-05-03T08:43:26.75Z</time></trkpt><trkpt lat="37.9878147" lon="15.0122009"><ele>1153.0</ele><time>2026-05-03T08:43:27.75Z</time></trkpt><trkpt lat="37.9877966" lon="15.0122815"><ele>1153.0</ele><time>2026-05-03T08:43:28.751Z</time></trkpt><trkpt lat="37.9877754" lon="15.0123665"><ele>1153.0</ele><time>2026-05-03T08:43:29.75Z</time></trkpt><trkpt lat="37.9877519" lon="15.0124565"><ele>1153.0</ele><time>2026-05-03T08:43:30.751Z</time></trkpt><trkpt lat="37.9877343" lon="15.0125566"><ele>1153.0</ele><time>2026-05-03T08:43:31.751Z</time></trkpt><trkpt lat="37.9877248" lon="15.0126446"><ele>1153.0</ele><time>2026-05-03T08:43:32.75Z</time></trkpt><trkpt lat="37.9877197" lon="15.0127277"><ele>1152.2857142857142</ele><time>2026-05-03T08:43:33.75Z</time></trkpt><trkpt lat="37.9876985" lon="15.012809"><ele>1151.5714285714287</ele><time>2026-05-03T08:43:34.75Z</time></trkpt><trkpt lat="37.9876755" lon="15.0128877"><ele>1150.857142857143</ele><time>2026-05-03T08:43:35.75Z</time></trkpt><trkpt lat="37.9876414" lon="15.0129584"><ele>1150.142857142857</ele><time>2026-05-03T08:43:36.75Z</time></trkpt><trkpt lat="37.9875968" lon="15.0130356"><ele>1149.4285714285716</ele><time>2026-05-03T08:43:37.75Z</time></trkpt><trkpt lat="37.9875542" lon="15.0131217"><ele>1148.7142857142858</ele><time>2026-05-03T08:43:38.75Z</time></trkpt><trkpt lat="37.9875054" lon="15.0132128"><ele>1148.0</ele><time>2026-05-03T08:43:39.751Z</time></trkpt><trkpt lat="37.9874526" lon="15.0132929"><ele>1151.6666666666667</ele><time>2026-05-03T08:43:40.75Z</time></trkpt><trkpt lat="37.9874038" lon="15.0133649"><ele>1155.3333333333335</ele><time>2026-05-03T08:43:41.75Z</time></trkpt><trkpt lat="37.9873339" lon="15.0134659"><ele>1159.0</ele><time>2026-05-03T08:43:43.75Z</time></trkpt><trkpt lat="37.9872886" lon="15.0135324"><ele>1162.6666666666667</ele><time>2026-05-03T08:43:45.75Z</time></trkpt><trkpt lat="37.9872276" lon="15.0136282"><ele>1166.3333333333333</ele><time>2026-05-03T08:43:48.75Z</time></trkpt><trkpt lat="37.9871717" lon="15.0136941"><ele>1170.0</ele><time>2026-05-03T08:44:06.75Z</time></trkpt><trkpt lat="37.9871316" lon="15.013764"><ele>1170.0</ele><time>2026-05-03T08:44:09.751Z</time></trkpt><trkpt lat="37.9870976" lon="15.0138344"><ele>1170.0</ele><time>2026-05-03T08:44:13.75Z</time></trkpt><trkpt lat="37.9870461" lon="15.0138912"><ele>1170.0</ele><time>2026-05-03T08:44:20.75Z</time></trkpt><trkpt lat="37.9869771" lon="15.0139221"><ele>1170.0</ele><time>2026-05-03T08:44:26.751Z</time></trkpt><trkpt lat="37.9869636" lon="15.014022"><ele>1170.0</ele><time>2026-05-03T08:45:02.75Z</time></trkpt><trkpt lat="37.9869262" lon="15.0141343"><ele>1170.0</ele><time>2026-05-03T08:45:05.75Z</time></trkpt><trkpt lat="37.9868865" lon="15.0142262"><ele>1170.8</ele><time>2026-05-03T08:45:07.749Z</time></trkpt><trkpt lat="37.9868287" lon="15.0143204"><ele>1171.6</ele><time>2026-05-03T08:45:09.75Z</time></trkpt><trkpt lat="37.9867614" lon="15.0144155"><ele>1172.4</ele><time>2026-05-03T08:45:11.75Z</time></trkpt><trkpt lat="37.9866707" lon="15.014533"><ele>1173.2</ele><time>2026-05-03T08:45:13.75Z</time></trkpt><trkpt lat="37.9866069" lon="15.0145504"><ele>1174.0</ele><time>2026-05-03T08:45:14.75Z</time></trkpt><trkpt lat="37.9864879" lon="15.0146028"><ele>1174.0</ele><time>2026-05-03T08:45:16.75Z</time></trkpt><trkpt lat="37.9863763" lon="15.0146244"><ele>1174.0</ele><time>2026-05-03T08:45:18.75Z</time></trkpt><trkpt lat="37.9862732" lon="15.0147001"><ele>1174.0</ele><time>2026-05-03T08:45:20.75Z</time></trkpt><trkpt lat="37.9862198" lon="15.014759"><ele>1174.0</ele><time>2026-05-03T08:45:21.749Z</time></trkpt><trkpt lat="37.986159" lon="15.0148319"><ele>1174.0</ele><time>2026-05-03T08:45:23.75Z</time></trkpt><trkpt lat="37.986136" lon="15.0149335"><ele>1167.6666666666665</ele><time>2026-05-03T08:45:25.75Z</time></trkpt><trkpt lat="37.9861298" lon="15.0150319"><ele>1161.3333333333333</ele><time>2026-05-03T08:45:26.75Z</time></trkpt><trkpt lat="37.986158" lon="15.015124"><ele>1155.0</ele><time>2026-05-03T08:45:27.75Z</time></trkpt><trkpt lat="37.9861777" lon="15.0152107"><ele>1148.6666666666667</ele><time>2026-05-03T08:45:28.75Z</time></trkpt><trkpt lat="37.9861839" lon="15.0152995"><ele>1142.3333333333335</ele><time>2026-05-03T08:45:29.75Z</time></trkpt><trkpt lat="37.9861747" lon="15.0153835"><ele>1136.0</ele><time>2026-05-03T08:45:30.751Z</time></trkpt><trkpt lat="37.986143" lon="15.015525"><ele>1136.0</ele><time>2026-05-03T08:45:32.75Z</time></trkpt><trkpt lat="37.9860647" lon="15.0156296"><ele>1136.0</ele><time>2026-05-03T08:45:34.75Z</time></trkpt><trkpt lat="37.9860093" lon="15.015679"><ele>1136.0</ele><time>2026-05-03T08:45:36.75Z</time></trkpt><trkpt lat="37.98598" lon="15.015785"><ele>1136.0</ele><time>2026-05-03T08:45:39.75Z</time></trkpt><trkpt lat="37.9859892" lon="15.015875"><ele>1136.0</ele><time>2026-05-03T08:45:41.75Z</time></trkpt><trkpt lat="37.9860552" lon="15.015983"><ele>1136.0</ele><time>2026-05-03T08:45:43.75Z</time></trkpt><trkpt lat="37.9861359" lon="15.0160697"><ele>1133.3999999999999</ele><time>2026-05-03T08:45:45.749Z</time></trkpt><trkpt lat="37.9861879" lon="15.0161804"><ele>1130.8</ele><time>2026-05-03T08:45:47.75Z</time></trkpt><trkpt lat="37.9862377" lon="15.0162927"><ele>1128.1999999999998</ele><time>2026-05-03T08:45:49.751Z</time></trkpt><trkpt lat="37.9862477" lon="15.0164021"><ele>1125.6</ele><time>2026-05-03T08:45:51.75Z</time></trkpt><trkpt lat="37.9862102" lon="15.0164952"><ele>1123.0</ele><time>2026-05-03T08:45:54.75Z</time></trkpt><trkpt lat="37.9861354" lon="15.0165625"><ele>1123.0</ele><time>2026-05-03T08:45:57.75Z</time></trkpt><trkpt lat="37.9860417" lon="15.0166144"><ele>1123.0</ele><time>2026-05-03T08:45:59.75Z</time></trkpt><trkpt lat="37.9859522" lon="15.0166537"><ele>1123.0</ele><time>2026-05-03T08:46:01.75Z</time></trkpt><trkpt lat="37.9858864" lon="15.0166827"><ele>1123.0</ele><time>2026-05-03T08:46:02.75Z</time></trkpt><trkpt lat="37.9858223" lon="15.016694"><ele>1123.0</ele><time>2026-05-03T08:46:03.75Z</time></trkpt><trkpt lat="37.9857603" lon="15.0167119"><ele>1123.0</ele><time>2026-05-03T08:46:04.75Z</time></trkpt><trkpt lat="37.9856326" lon="15.0167562"><ele>1129.5</ele><time>2026-05-03T08:46:06.75Z</time></trkpt><trkpt lat="37.9855557" lon="15.0168215"><ele>1136.0</ele><time>2026-05-03T08:46:07.751Z</time></trkpt><trkpt lat="37.9854921" lon="15.0168715"><ele>1142.5</ele><time>2026-05-03T08:46:08.75Z</time></trkpt><trkpt lat="37.9854416" lon="15.0170261"><ele>1149.0</ele><time>2026-05-03T08:46:10.75Z</time></trkpt><trkpt lat="37.9854017" lon="15.0170941"><ele>1155.5</ele><time>2026-05-03T08:46:11.75Z</time></trkpt><trkpt lat="37.9853594" lon="15.0171574"><ele>1162.0</ele><time>2026-05-03T08:46:12.752Z</time></trkpt><trkpt lat="37.9853093" lon="15.0172073"><ele>1162.0</ele><time>2026-05-03T08:46:13.75Z</time></trkpt><trkpt lat="37.9852781" lon="15.0173376"><ele>1162.0</ele><time>2026-05-03T08:46:14.75Z</time></trkpt><trkpt lat="37.9852228" lon="15.0174745"><ele>1162.0</ele><time>2026-05-03T08:46:15.75Z</time></trkpt><trkpt lat="37.9852202" lon="15.0175738"><ele>1162.0</ele><time>2026-05-03T08:46:16.75Z</time></trkpt><trkpt lat="37.9852904" lon="15.0176304"><ele>1162.0</ele><time>2026-05-03T08:46:17.75Z</time></trkpt><trkpt lat="37.985362" lon="15.0177984"><ele>1161.6666666666665</ele><time>2026-05-03T08:46:19.75Z</time></trkpt><trkpt lat="37.9853984" lon="15.0178824"><ele>1161.3333333333333</ele><time>2026-05-03T08:46:20.751Z</time></trkpt><trkpt lat="37.9854311" lon="15.0179511"><ele>1161.0</ele><time>2026-05-03T08:46:21.75Z</time></trkpt><trkpt lat="37.9854638" lon="15.0180889"><ele>1160.6666666666667</ele><time>2026-05-03T08:46:23.75Z</time></trkpt><trkpt lat="37.9855204" lon="15.0181756"><ele>1160.3333333333335</ele><time>2026-05-03T08:46:24.75Z</time></trkpt><trkpt lat="37.9855513" lon="15.0182582"><ele>1160.0</ele><time>2026-05-03T08:46:25.75Z</time></trkpt><trkpt lat="37.9855982" lon="15.0183302"><ele>1160.0</ele><time>2026-05-03T08:46:26.75Z</time></trkpt><trkpt lat="37.9856477" lon="15.0184041"><ele>1160.0</ele><time>2026-05-03T08:46:27.751Z</time></trkpt><trkpt lat="37.985692" lon="15.0184693"><ele>1160.0</ele><time>2026-05-03T08:46:28.75Z</time></trkpt><trkpt lat="37.9857577" lon="15.0185172"><ele>1160.0</ele><time>2026-05-03T08:46:29.75Z</time></trkpt><trkpt lat="37.9858267" lon="15.0185642"><ele>1160.0</ele><time>2026-05-03T08:46:30.75Z</time></trkpt><trkpt lat="37.9858911" lon="15.0186187"><ele>1160.0</ele><time>2026-05-03T08:46:31.75Z</time></trkpt><trkpt lat="37.9859418" lon="15.018703"><ele>1156.3333333333335</ele><time>2026-05-03T08:46:32.75Z</time></trkpt><trkpt lat="37.9859968" lon="15.0187807"><ele>1152.6666666666667</ele><time>2026-05-03T08:46:33.75Z</time></trkpt><trkpt lat="37.9860655" lon="15.0188585"><ele>1149.0</ele><time>2026-05-03T08:46:34.75Z</time></trkpt><trkpt lat="37.9861142" lon="15.018955"><ele>1145.3333333333333</ele><time>2026-05-03T08:46:35.75Z</time></trkpt><trkpt lat="37.9861735" lon="15.0190406"><ele>1141.6666666666665</ele><time>2026-05-03T08:46:36.75Z</time></trkpt><trkpt lat="37.9862087" lon="15.0191386"><ele>1138.0</ele><time>2026-05-03T08:46:37.751Z</time></trkpt><trkpt lat="37.9862222" lon="15.0192402"><ele>1138.0</ele><time>2026-05-03T08:46:38.75Z</time></trkpt><trkpt lat="37.9862552" lon="15.0194069"><ele>1138.0</ele><time>2026-05-03T08:46:40.75Z</time></trkpt><trkpt lat="37.9862797" lon="15.0195641"><ele>1138.0</ele><time>2026-05-03T08:46:42.75Z</time></trkpt><trkpt lat="37.9862942" lon="15.0196624"><ele>1138.0</ele><time>2026-05-03T08:46:43.75Z</time></trkpt><trkpt lat="37.9863202" lon="15.01979"><ele>1138.0</ele><time>2026-05-03T08:46:44.75Z</time></trkpt><trkpt lat="37.9863508" lon="15.0198736"><ele>1138.0</ele><time>2026-05-03T08:46:45.75Z</time></trkpt><trkpt lat="37.9864294" lon="15.0199317"><ele>1138.0</ele><time>2026-05-03T08:46:46.75Z</time></trkpt><trkpt lat="37.9864855" lon="15.0199773"><ele>1138.0</ele><time>2026-05-03T08:46:47.75Z</time></trkpt><trkpt lat="37.9865771" lon="15.0199257"><ele>1138.0</ele><time>2026-05-03T08:46:48.75Z</time></trkpt><trkpt lat="37.9866567" lon="15.0199243"><ele>1138.0</ele><time>2026-05-03T08:46:49.75Z</time></trkpt><trkpt lat="37.9867421" lon="15.0199261"><ele>1138.0</ele><time>2026-05-03T08:46:50.75Z</time></trkpt><trkpt lat="37.9868265" lon="15.0199395"><ele>1137.6666666666665</ele><time>2026-05-03T08:46:51.75Z</time></trkpt><trkpt lat="37.9869071" lon="15.0199547"><ele>1137.3333333333333</ele><time>2026-05-03T08:46:52.75Z</time></trkpt><trkpt lat="37.9869749" lon="15.0200103"><ele>1137.0</ele><time>2026-05-03T08:46:53.751Z</time></trkpt><trkpt lat="37.9870557" lon="15.0200524"><ele>1136.6666666666667</ele><time>2026-05-03T08:46:54.75Z</time></trkpt><trkpt lat="37.9871325" lon="15.0200939"><ele>1136.3333333333335</ele><time>2026-05-03T08:46:55.75Z</time></trkpt><trkpt lat="37.9872026" lon="15.0201378"><ele>1136.0</ele><time>2026-05-03T08:46:56.75Z</time></trkpt><trkpt lat="37.9872565" lon="15.0201834"><ele>1136.0</ele><time>2026-05-03T08:46:57.751Z</time></trkpt><trkpt lat="37.987354" lon="15.0202085"><ele>1136.0</ele><time>2026-05-03T08:46:58.75Z</time></trkpt><trkpt lat="37.9874441" lon="15.0202489"><ele>1136.0</ele><time>2026-05-03T08:46:59.75Z</time></trkpt><trkpt lat="37.9875223" lon="15.0202617"><ele>1136.0</ele><time>2026-05-03T08:47:00.75Z</time></trkpt><trkpt lat="37.9875899" lon="15.0203042"><ele>1136.0</ele><time>2026-05-03T08:47:02.75Z</time></trkpt><trkpt lat="37.9876351" lon="15.0202344"><ele>1136.0</ele><time>2026-05-03T08:47:05.75Z</time></trkpt><trkpt lat="37.9876966" lon="15.0202136"><ele>1132.25</ele><time>2026-05-03T08:47:08.75Z</time></trkpt><trkpt lat="37.9877615" lon="15.0202861"><ele>1128.5</ele><time>2026-05-03T08:47:11.75Z</time></trkpt><trkpt lat="37.9877972" lon="15.0204174"><ele>1124.75</ele><time>2026-05-03T08:47:13.75Z</time></trkpt><trkpt lat="37.9879079" lon="15.0204374"><ele>1121.0</ele><time>2026-05-03T08:47:14.75Z</time></trkpt><trkpt lat="37.9880549" lon="15.0204471"><ele>1121.0</ele><time>2026-05-03T08:47:16.75Z</time></trkpt><trkpt lat="37.9881698" lon="15.0203719"><ele>1121.0</ele><time>2026-05-03T08:47:17.75Z</time></trkpt><trkpt lat="37.9882439" lon="15.020364"><ele>1121.0</ele><time>2026-05-03T08:47:18.752Z</time></trkpt><trkpt lat="37.9883388" lon="15.0203842"><ele>1121.0</ele><time>2026-05-03T08:47:19.75Z</time></trkpt><trkpt lat="37.9884318" lon="15.0204057"><ele>1121.0</ele><time>2026-05-03T08:47:20.75Z</time></trkpt><trkpt lat="37.9885349" lon="15.0204081"><ele>1119.2</ele><time>2026-05-03T08:47:21.751Z</time></trkpt><trkpt lat="37.9886422" lon="15.0204413"><ele>1117.3999999999999</ele><time>2026-05-03T08:47:22.751Z</time></trkpt><trkpt lat="37.9887331" lon="15.0204694"><ele>1115.6</ele><time>2026-05-03T08:47:23.75Z</time></trkpt><trkpt lat="37.9888136" lon="15.0205299"><ele>1113.8</ele><time>2026-05-03T08:47:24.75Z</time></trkpt><trkpt lat="37.9889152" lon="15.0205927"><ele>1112.0</ele><time>2026-05-03T08:47:25.751Z</time></trkpt><trkpt lat="37.9890098" lon="15.0206637"><ele>1112.0</ele><time>2026-05-03T08:47:26.75Z</time></trkpt><trkpt lat="37.9890884" lon="15.0207492"><ele>1112.0</ele><time>2026-05-03T08:47:27.751Z</time></trkpt><trkpt lat="37.9891815" lon="15.0208329"><ele>1112.0</ele><time>2026-05-03T08:47:28.75Z</time></trkpt><trkpt lat="37.9892944" lon="15.0208938"><ele>1112.0</ele><time>2026-05-03T08:47:29.751Z</time></trkpt><trkpt lat="37.9894146" lon="15.0209738"><ele>1113.4</ele><time>2026-05-03T08:47:30.75Z</time></trkpt><trkpt lat="37.989526" lon="15.0210427"><ele>1114.8000000000002</ele><time>2026-05-03T08:47:31.75Z</time></trkpt><trkpt lat="37.9895897" lon="15.021129"><ele>1116.2</ele><time>2026-05-03T08:47:32.75Z</time></trkpt><trkpt lat="37.9896816" lon="15.0212083"><ele>1117.6000000000001</ele><time>2026-05-03T08:47:33.75Z</time></trkpt><trkpt lat="37.9897522" lon="15.0212573"><ele>1119.0</ele><time>2026-05-03T08:47:34.752Z</time></trkpt><trkpt lat="37.989816" lon="15.021304"><ele>1119.0</ele><time>2026-05-03T08:47:35.751Z</time></trkpt><trkpt lat="37.989879" lon="15.0213558"><ele>1119.0</ele><time>2026-05-03T08:47:36.75Z</time></trkpt><trkpt lat="37.9899474" lon="15.0213969"><ele>1119.0</ele><time>2026-05-03T08:47:37.75Z</time></trkpt><trkpt lat="37.990017" lon="15.0214288"><ele>1119.0</ele><time>2026-05-03T08:47:38.751Z</time></trkpt><trkpt lat="37.9900886" lon="15.0214567"><ele>1119.0</ele><time>2026-05-03T08:47:39.75Z</time></trkpt><trkpt lat="37.9901534" lon="15.0215152"><ele>1119.0</ele><time>2026-05-03T08:47:40.75Z</time></trkpt><trkpt lat="37.9902149" lon="15.0215915"><ele>1118.6000000000001</ele><time>2026-05-03T08:47:41.75Z</time></trkpt><trkpt lat="37.9902778" lon="15.0216811"><ele>1118.2</ele><time>2026-05-03T08:47:42.751Z</time></trkpt><trkpt lat="37.9903497" lon="15.0217627"><ele>1117.8000000000002</ele><time>2026-05-03T08:47:43.75Z</time></trkpt><trkpt lat="37.9904303" lon="15.0218319"><ele>1117.4</ele><time>2026-05-03T08:47:44.75Z</time></trkpt><trkpt lat="37.9905113" lon="15.0219021"><ele>1117.0</ele><time>2026-05-03T08:47:45.75Z</time></trkpt><trkpt lat="37.9905869" lon="15.0219891"><ele>1117.0</ele><time>2026-05-03T08:47:46.75Z</time></trkpt><trkpt lat="37.9906547" lon="15.0221022"><ele>1117.0</ele><time>2026-05-03T08:47:47.75Z</time></trkpt><trkpt lat="37.9907205" lon="15.0222312"><ele>1117.0</ele><time>2026-05-03T08:47:48.751Z</time></trkpt><trkpt lat="37.9907929" lon="15.0223469"><ele>1117.0</ele><time>2026-05-03T08:47:49.75Z</time></trkpt><trkpt lat="37.9908677" lon="15.0224312"><ele>1117.5</ele><time>2026-05-03T08:47:50.75Z</time></trkpt><trkpt lat="37.9909291" lon="15.0225306"><ele>1118.0</ele><time>2026-05-03T08:47:51.75Z</time></trkpt><trkpt lat="37.9909897" lon="15.0226186"><ele>1118.5</ele><time>2026-05-03T08:47:52.75Z</time></trkpt><trkpt lat="37.9910453" lon="15.0226968"><ele>1119.0</ele><time>2026-05-03T08:47:53.75Z</time></trkpt><trkpt lat="37.9910971" lon="15.0227778"><ele>1119.5</ele><time>2026-05-03T08:47:54.75Z</time></trkpt><trkpt lat="37.9911586" lon="15.0228538"><ele>1120.0</ele><time>2026-05-03T08:47:55.75Z</time></trkpt><trkpt lat="37.991203" lon="15.0229416"><ele>1120.0</ele><time>2026-05-03T08:47:56.75Z</time></trkpt><trkpt lat="37.9912511" lon="15.0230371"><ele>1120.0</ele><time>2026-05-03T08:47:57.751Z</time></trkpt><trkpt lat="37.9913057" lon="15.0231285"><ele>1120.0</ele><time>2026-05-03T08:47:58.751Z</time></trkpt><trkpt lat="37.9913453" lon="15.0231974"><ele>1120.0</ele><time>2026-05-03T08:47:59.75Z</time></trkpt><trkpt lat="37.9913967" lon="15.0232733"><ele>1120.0</ele><time>2026-05-03T08:48:07.751Z</time></trkpt><trkpt lat="37.9914032" lon="15.0233821"><ele>1120.0</ele><time>2026-05-03T08:48:13.751Z</time></trkpt><trkpt lat="37.9914026" lon="15.0234893"><ele>1121.8</ele><time>2026-05-03T08:48:15.75Z</time></trkpt><trkpt lat="37.9913909" lon="15.0236299"><ele>1123.6</ele><time>2026-05-03T08:48:17.75Z</time></trkpt><trkpt lat="37.9913781" lon="15.0237271"><ele>1125.4</ele><time>2026-05-03T08:48:19.749Z</time></trkpt><trkpt lat="37.9913566" lon="15.0238235"><ele>1127.2</ele><time>2026-05-03T08:48:27.75Z</time></trkpt><trkpt lat="37.9913035" lon="15.0239061"><ele>1129.0</ele><time>2026-05-03T08:48:29.75Z</time></trkpt><trkpt lat="37.9912263" lon="15.0239982"><ele>1129.0</ele><time>2026-05-03T08:48:31.75Z</time></trkpt><trkpt lat="37.9911716" lon="15.0240395"><ele>1129.0</ele><time>2026-05-03T08:48:32.75Z</time></trkpt><trkpt lat="37.9911108" lon="15.0240747"><ele>1129.0</ele><time>2026-05-03T08:48:33.75Z</time></trkpt><trkpt lat="37.9910392" lon="15.0241108"><ele>1129.0</ele><time>2026-05-03T08:48:34.75Z</time></trkpt><trkpt lat="37.9909575" lon="15.0241368"><ele>1129.0</ele><time>2026-05-03T08:48:35.75Z</time></trkpt><trkpt lat="37.990864" lon="15.0241749"><ele>1129.0</ele><time>2026-05-03T08:48:36.75Z</time></trkpt><trkpt lat="37.9907709" lon="15.0242225"><ele>1132.1666666666665</ele><time>2026-05-03T08:48:37.751Z</time></trkpt><trkpt lat="37.9906809" lon="15.0242788"><ele>1135.3333333333333</ele><time>2026-05-03T08:48:38.75Z</time></trkpt><trkpt lat="37.9905888" lon="15.0243116"><ele>1138.5</ele><time>2026-05-03T08:48:39.75Z</time></trkpt><trkpt lat="37.9905136" lon="15.0243467"><ele>1141.6666666666667</ele><time>2026-05-03T08:48:40.75Z</time></trkpt><trkpt lat="37.9904444" lon="15.0243427"><ele>1144.8333333333335</ele><time>2026-05-03T08:48:41.75Z</time></trkpt><trkpt lat="37.9903616" lon="15.0243299"><ele>1148.0</ele><time>2026-05-03T08:48:42.75Z</time></trkpt><trkpt lat="37.9902769" lon="15.0243212"><ele>1148.0</ele><time>2026-05-03T08:48:43.75Z</time></trkpt><trkpt lat="37.9901889" lon="15.0242779"><ele>1148.0</ele><time>2026-05-03T08:48:44.75Z</time></trkpt><trkpt lat="37.9901036" lon="15.0242237"><ele>1148.0</ele><time>2026-05-03T08:48:45.75Z</time></trkpt><trkpt lat="37.9900174" lon="15.0241441"><ele>1148.0</ele><time>2026-05-03T08:48:46.75Z</time></trkpt><trkpt lat="37.9899336" lon="15.0240556"><ele>1148.0</ele><time>2026-05-03T08:48:47.75Z</time></trkpt><trkpt lat="37.9898571" lon="15.0239525"><ele>1149.6</ele><time>2026-05-03T08:48:48.75Z</time></trkpt><trkpt lat="37.9897857" lon="15.0238428"><ele>1151.1999999999998</ele><time>2026-05-03T08:48:49.75Z</time></trkpt><trkpt lat="37.989707" lon="15.0237679"><ele>1152.8</ele><time>2026-05-03T08:48:50.751Z</time></trkpt><trkpt lat="37.9896287" lon="15.0236926"><ele>1154.3999999999999</ele><time>2026-05-03T08:48:51.75Z</time></trkpt><trkpt lat="37.9895554" lon="15.023677"><ele>1156.0</ele><time>2026-05-03T08:48:52.75Z</time></trkpt><trkpt lat="37.9894584" lon="15.0236536"><ele>1156.0</ele><time>2026-05-03T08:48:53.75Z</time></trkpt><trkpt lat="37.9893651" lon="15.02359"><ele>1156.0</ele><time>2026-05-03T08:48:54.751Z</time></trkpt><trkpt lat="37.9892749" lon="15.0235141"><ele>1156.0</ele><time>2026-05-03T08:48:55.749Z</time></trkpt><trkpt lat="37.9891818" lon="15.0234472"><ele>1156.0</ele><time>2026-05-03T08:48:56.75Z</time></trkpt><trkpt lat="37.9891129" lon="15.0233709"><ele>1156.0</ele><time>2026-05-03T08:48:57.75Z</time></trkpt><trkpt lat="37.9890954" lon="15.0232702"><ele>1158.75</ele><time>2026-05-03T08:48:58.75Z</time></trkpt><trkpt lat="37.9890648" lon="15.0231631"><ele>1161.5</ele><time>2026-05-03T08:48:59.751Z</time></trkpt><trkpt lat="37.9889912" lon="15.0230572"><ele>1164.25</ele><time>2026-05-03T08:49:00.75Z</time></trkpt><trkpt lat="37.9889175" lon="15.0229308"><ele>1167.0</ele><time>2026-05-03T08:49:01.75Z</time></trkpt><trkpt lat="37.988852" lon="15.0227914"><ele>1167.0</ele><time>2026-05-03T08:49:02.751Z</time></trkpt><trkpt lat="37.9887835" lon="15.0226619"><ele>1167.0</ele><time>2026-05-03T08:49:03.75Z</time></trkpt><trkpt lat="37.9887162" lon="15.0225529"><ele>1167.0</ele><time>2026-05-03T08:49:04.75Z</time></trkpt><trkpt lat="37.9886541" lon="15.0224646"><ele>1167.0</ele><time>2026-05-03T08:49:05.75Z</time></trkpt><trkpt lat="37.9885988" lon="15.0223867"><ele>1167.0</ele><time>2026-05-03T08:49:06.75Z</time></trkpt><trkpt lat="37.9885484" lon="15.0223243"><ele>1167.6</ele><time>2026-05-03T08:49:07.75Z</time></trkpt><trkpt lat="37.9884602" lon="15.0222955"><ele>1168.2</ele><time>2026-05-03T08:49:08.751Z</time></trkpt><trkpt lat="37.9883685" lon="15.0222521"><ele>1168.8</ele><time>2026-05-03T08:49:09.75Z</time></trkpt><trkpt lat="37.9882698" lon="15.0221955"><ele>1169.4</ele><time>2026-05-03T08:49:10.751Z</time></trkpt><trkpt lat="37.9881757" lon="15.0221376"><ele>1170.0</ele><time>2026-05-03T08:49:11.75Z</time></trkpt><trkpt lat="37.9880881" lon="15.0220848"><ele>1170.0</ele><time>2026-05-03T08:49:12.75Z</time></trkpt><trkpt lat="37.9880096" lon="15.0220362"><ele>1170.0</ele><time>2026-05-03T08:49:13.749Z</time></trkpt><trkpt lat="37.987923" lon="15.021972"><ele>1170.0</ele><time>2026-05-03T08:49:14.75Z</time></trkpt><trkpt lat="37.9878306" lon="15.0219032"><ele>1170.0</ele><time>2026-05-03T08:49:15.75Z</time></trkpt><trkpt lat="37.98774" lon="15.0218379"><ele>1170.0</ele><time>2026-05-03T08:49:16.751Z</time></trkpt><trkpt lat="37.987658" lon="15.0217735"><ele>1170.0</ele><time>2026-05-03T08:49:17.75Z</time></trkpt><trkpt lat="37.9875926" lon="15.0217222"><ele>1170.0</ele><time>2026-05-03T08:49:18.751Z</time></trkpt><trkpt lat="37.9874992" lon="15.0216879"><ele>1170.0</ele><time>2026-05-03T08:49:20.75Z</time></trkpt><trkpt lat="37.9873753" lon="15.0216757"><ele>1170.0</ele><time>2026-05-03T08:49:22.75Z</time></trkpt><trkpt lat="37.9872922" lon="15.0216702"><ele>1170.0</ele><time>2026-05-03T08:49:23.75Z</time></trkpt><trkpt lat="37.9872056" lon="15.0216478"><ele>1168.6666666666667</ele><time>2026-05-03T08:49:24.75Z</time></trkpt><trkpt lat="37.987128" lon="15.0215956"><ele>1167.3333333333333</ele><time>2026-05-03T08:49:25.75Z</time></trkpt><trkpt lat="37.9870569" lon="15.0215359"><ele>1166.0</ele><time>2026-05-03T08:49:26.75Z</time></trkpt><trkpt lat="37.986982" lon="15.0214993"><ele>1164.6666666666665</ele><time>2026-05-03T08:49:27.75Z</time></trkpt><trkpt lat="37.9869063" lon="15.0214636"><ele>1163.3333333333333</ele><time>2026-05-03T08:49:28.751Z</time></trkpt><trkpt lat="37.986824" lon="15.0214229"><ele>1162.0</ele><time>2026-05-03T08:49:29.75Z</time></trkpt><trkpt lat="37.9867262" lon="15.0213773"><ele>1165.2</ele><time>2026-05-03T08:49:30.75Z</time></trkpt><trkpt lat="37.9866265" lon="15.0213278"><ele>1168.4</ele><time>2026-05-03T08:49:31.75Z</time></trkpt><trkpt lat="37.9865293" lon="15.0212807"><ele>1171.6</ele><time>2026-05-03T08:49:32.751Z</time></trkpt><trkpt lat="37.9864358" lon="15.0212362"><ele>1174.8</ele><time>2026-05-03T08:49:33.75Z</time></trkpt><trkpt lat="37.9863409" lon="15.0211995"><ele>1178.0</ele><time>2026-05-03T08:49:34.75Z</time></trkpt><trkpt lat="37.9862535" lon="15.0211785"><ele>1178.0</ele><time>2026-05-03T08:49:35.749Z</time></trkpt><trkpt lat="37.9861793" lon="15.0211603"><ele>1178.0</ele><time>2026-05-03T08:49:36.75Z</time></trkpt><trkpt lat="37.9861045" lon="15.0211545"><ele>1178.0</ele><time>2026-05-03T08:49:37.75Z</time></trkpt><trkpt lat="37.9860236" lon="15.0211363"><ele>1178.0</ele><time>2026-05-03T08:49:38.749Z</time></trkpt><trkpt lat="37.9859335" lon="15.0211093"><ele>1178.0</ele><time>2026-05-03T08:49:39.751Z</time></trkpt><trkpt lat="37.9858346" lon="15.0210821"><ele>1178.0</ele><time>2026-05-03T08:49:40.75Z</time></trkpt><trkpt lat="37.9857349" lon="15.0210569"><ele>1178.8</ele><time>2026-05-03T08:49:41.75Z</time></trkpt><trkpt lat="37.9856341" lon="15.0210296"><ele>1179.6</ele><time>2026-05-03T08:49:42.751Z</time></trkpt><trkpt lat="37.9855518" lon="15.0209508"><ele>1180.4</ele><time>2026-05-03T08:49:43.75Z</time></trkpt><trkpt lat="37.9854564" lon="15.0208629"><ele>1181.2</ele><time>2026-05-03T08:49:44.75Z</time></trkpt><trkpt lat="37.9853717" lon="15.0207687"><ele>1182.0</ele><time>2026-05-03T08:49:45.749Z</time></trkpt><trkpt lat="37.985296" lon="15.0206878"><ele>1182.0</ele><time>2026-05-03T08:49:46.75Z</time></trkpt><trkpt lat="37.9852226" lon="15.0206105"><ele>1182.0</ele><time>2026-05-03T08:49:47.75Z</time></trkpt><trkpt lat="37.9851148" lon="15.0205362"><ele>1182.0</ele><time>2026-05-03T08:49:48.75Z</time></trkpt><trkpt lat="37.9850131" lon="15.020463"><ele>1182.0</ele><time>2026-05-03T08:49:49.75Z</time></trkpt><trkpt lat="37.98494" lon="15.0203422"><ele>1186.0</ele><time>2026-05-03T08:49:50.75Z</time></trkpt><trkpt lat="37.984869" lon="15.0202271"><ele>1190.0</ele><time>2026-05-03T08:49:51.751Z</time></trkpt><trkpt lat="37.9848098" lon="15.0201115"><ele>1194.0</ele><time>2026-05-03T08:49:52.75Z</time></trkpt><trkpt lat="37.9847619" lon="15.0200122"><ele>1198.0</ele><time>2026-05-03T08:49:53.75Z</time></trkpt><trkpt lat="37.9847064" lon="15.0199059"><ele>1202.0</ele><time>2026-05-03T08:49:54.75Z</time></trkpt><trkpt lat="37.9845967" lon="15.0198176"><ele>1202.0</ele><time>2026-05-03T08:49:55.75Z</time></trkpt><trkpt lat="37.9845135" lon="15.0197003"><ele>1202.0</ele><time>2026-05-03T08:49:56.75Z</time></trkpt><trkpt lat="37.9843693" lon="15.0191938"><ele>1200.25</ele><time>2026-05-03T08:50:00.66Z</time></trkpt><trkpt lat="37.9843377" lon="15.0189742"><ele>1198.5</ele><time>2026-05-03T08:50:01.75Z</time></trkpt><trkpt lat="37.9843187" lon="15.0188409"><ele>1196.75</ele><time>2026-05-03T08:50:02.75Z</time></trkpt><trkpt lat="37.9842902" lon="15.0187186"><ele>1195.0</ele><time>2026-05-03T08:50:03.751Z</time></trkpt><trkpt lat="37.984275" lon="15.0185927"><ele>1195.0</ele><time>2026-05-03T08:50:04.75Z</time></trkpt><trkpt lat="37.9842568" lon="15.0184613"><ele>1195.0</ele><time>2026-05-03T08:50:05.751Z</time></trkpt><trkpt lat="37.9842562" lon="15.0183186"><ele>1195.0</ele><time>2026-05-03T08:50:06.751Z</time></trkpt><trkpt lat="37.9842607" lon="15.0181746"><ele>1195.0</ele><time>2026-05-03T08:50:07.75Z</time></trkpt><trkpt lat="37.9842796" lon="15.0180311"><ele>1195.0</ele><time>2026-05-03T08:50:08.75Z</time></trkpt><trkpt lat="37.9842952" lon="15.0178715"><ele>1193.5</ele><time>2026-05-03T08:50:09.75Z</time></trkpt><trkpt lat="37.9843145" lon="15.0177097"><ele>1192.0</ele><time>2026-05-03T08:50:10.751Z</time></trkpt><trkpt lat="37.984315" lon="15.0175417"><ele>1190.5</ele><time>2026-05-03T08:50:11.75Z</time></trkpt><trkpt lat="37.9843145" lon="15.0173846"><ele>1189.0</ele><time>2026-05-03T08:50:12.751Z</time></trkpt><trkpt lat="37.9843109" lon="15.017253"><ele>1191.3333333333333</ele><time>2026-05-03T08:50:13.75Z</time></trkpt><trkpt lat="37.9843055" lon="15.0171442"><ele>1193.6666666666665</ele><time>2026-05-03T08:50:14.75Z</time></trkpt><trkpt lat="37.9842947" lon="15.0170499"><ele>1196.0</ele><time>2026-05-03T08:50:15.75Z</time></trkpt><trkpt lat="37.9842949" lon="15.0169628"><ele>1198.3333333333333</ele><time>2026-05-03T08:50:16.751Z</time></trkpt><trkpt lat="37.9843238" lon="15.0168302"><ele>1200.6666666666667</ele><time>2026-05-03T08:50:18.751Z</time></trkpt><trkpt lat="37.9843584" lon="15.0167189"><ele>1203.0</ele><time>2026-05-03T08:50:20.75Z</time></trkpt><trkpt lat="37.9844006" lon="15.0166593"><ele>1205.1666666666667</ele><time>2026-05-03T08:50:21.75Z</time></trkpt><trkpt lat="37.9844406" lon="15.0165852"><ele>1207.3333333333333</ele><time>2026-05-03T08:50:22.75Z</time></trkpt><trkpt lat="37.984468" lon="15.0165048"><ele>1209.5</ele><time>2026-05-03T08:50:23.75Z</time></trkpt><trkpt lat="37.984494" lon="15.0164161"><ele>1211.6666666666665</ele><time>2026-05-03T08:50:24.75Z</time></trkpt><trkpt lat="37.9845191" lon="15.0163149"><ele>1213.8333333333333</ele><time>2026-05-03T08:50:25.75Z</time></trkpt><trkpt lat="37.9845231" lon="15.0162117"><ele>1216.0</ele><time>2026-05-03T08:50:26.751Z</time></trkpt><trkpt lat="37.9845093" lon="15.016114"><ele>1216.0</ele><time>2026-05-03T08:50:27.75Z</time></trkpt><trkpt lat="37.9844892" lon="15.0160165"><ele>1216.0</ele><time>2026-05-03T08:50:28.75Z</time></trkpt><trkpt lat="37.9844625" lon="15.0159015"><ele>1216.0</ele><time>2026-05-03T08:50:29.75Z</time></trkpt><trkpt lat="37.9844283" lon="15.0157786"><ele>1216.0</ele><time>2026-05-03T08:50:30.75Z</time></trkpt><trkpt lat="37.9843939" lon="15.015659"><ele>1216.0</ele><time>2026-05-03T08:50:31.75Z</time></trkpt><trkpt lat="37.9843638" lon="15.0155358"><ele>1218.6</ele><time>2026-05-03T08:50:32.75Z</time></trkpt><trkpt lat="37.9843566" lon="15.0154213"><ele>1221.1999999999998</ele><time>2026-05-03T08:50:33.75Z</time></trkpt><trkpt lat="37.9843563" lon="15.0153148"><ele>1223.8000000000002</ele><time>2026-05-03T08:50:34.75Z</time></trkpt><trkpt lat="37.9843352" lon="15.0152012"><ele>1226.4</ele><time>2026-05-03T08:50:35.75Z</time></trkpt><trkpt lat="37.9843228" lon="15.0150817"><ele>1229.0</ele><time>2026-05-03T08:50:36.751Z</time></trkpt><trkpt lat="37.9843453" lon="15.0149603"><ele>1232.2</ele><time>2026-05-03T08:50:37.751Z</time></trkpt><trkpt lat="37.984385" lon="15.0148362"><ele>1235.4</ele><time>2026-05-03T08:50:38.75Z</time></trkpt><trkpt lat="37.9844386" lon="15.0147156"><ele>1238.6</ele><time>2026-05-03T08:50:39.75Z</time></trkpt><trkpt lat="37.9844848" lon="15.0145943"><ele>1241.8</ele><time>2026-05-03T08:50:40.75Z</time></trkpt><trkpt lat="37.9845199" lon="15.0144676"><ele>1245.0</ele><time>2026-05-03T08:50:41.75Z</time></trkpt><trkpt lat="37.9845557" lon="15.014341"><ele>1245.0</ele><time>2026-05-03T08:50:42.75Z</time></trkpt><trkpt lat="37.9845752" lon="15.014208"><ele>1245.0</ele><time>2026-05-03T08:50:43.75Z</time></trkpt><trkpt lat="37.984607" lon="15.0140835"><ele>1245.0</ele><time>2026-05-03T08:50:44.751Z</time></trkpt><trkpt lat="37.9846421" lon="15.0139674"><ele>1245.0</ele><time>2026-05-03T08:50:45.75Z</time></trkpt><trkpt lat="37.9846587" lon="15.0138369"><ele>1245.0</ele><time>2026-05-03T08:50:46.75Z</time></trkpt><trkpt lat="37.9846861" lon="15.0137057"><ele>1247.4</ele><time>2026-05-03T08:50:47.75Z</time></trkpt><trkpt lat="37.98473" lon="15.0135794"><ele>1249.8</ele><time>2026-05-03T08:50:48.75Z</time></trkpt><trkpt lat="37.9847875" lon="15.013482"><ele>1252.2</ele><time>2026-05-03T08:50:49.75Z</time></trkpt><trkpt lat="37.9848528" lon="15.013413"><ele>1254.6</ele><time>2026-05-03T08:50:50.75Z</time></trkpt><trkpt lat="37.9849256" lon="15.0133291"><ele>1257.0</ele><time>2026-05-03T08:50:51.751Z</time></trkpt><trkpt lat="37.9850014" lon="15.0132289"><ele>1256.0</ele><time>2026-05-03T08:50:52.75Z</time></trkpt><trkpt lat="37.9850759" lon="15.0131402"><ele>1255.0</ele><time>2026-05-03T08:50:53.75Z</time></trkpt><trkpt lat="37.9851108" lon="15.0130423"><ele>1254.0</ele><time>2026-05-03T08:50:54.75Z</time></trkpt><trkpt lat="37.9851173" lon="15.0129195"><ele>1253.0</ele><time>2026-05-03T08:50:55.75Z</time></trkpt><trkpt lat="37.9851353" lon="15.0127782"><ele>1252.0</ele><time>2026-05-03T08:50:56.75Z</time></trkpt><trkpt lat="37.9851767" lon="15.0126319"><ele>1253.25</ele><time>2026-05-03T08:50:57.75Z</time></trkpt><trkpt lat="37.9852314" lon="15.0124864"><ele>1254.5</ele><time>2026-05-03T08:50:58.75Z</time></trkpt><trkpt lat="37.9853019" lon="15.0123377"><ele>1255.75</ele><time>2026-05-03T08:50:59.751Z</time></trkpt><trkpt lat="37.9853813" lon="15.012195"><ele>1257.0</ele><time>2026-05-03T08:51:00.75Z</time></trkpt><trkpt lat="37.9854404" lon="15.0120572"><ele>1257.0</ele><time>2026-05-03T08:51:01.75Z</time></trkpt><trkpt lat="37.9854753" lon="15.0119006"><ele>1257.0</ele><time>2026-05-03T08:51:02.751Z</time></trkpt><trkpt lat="37.9854977" lon="15.0117334"><ele>1257.0</ele><time>2026-05-03T08:51:03.75Z</time></trkpt><trkpt lat="37.985534" lon="15.0115914"><ele>1257.0</ele><time>2026-05-03T08:51:04.75Z</time></trkpt><trkpt lat="37.9855746" lon="15.0114695"><ele>1255.75</ele><time>2026-05-03T08:51:05.75Z</time></trkpt><trkpt lat="37.9855832" lon="15.0113313"><ele>1254.5</ele><time>2026-05-03T08:51:06.75Z</time></trkpt><trkpt lat="37.9856019" lon="15.0111909"><ele>1253.25</ele><time>2026-05-03T08:51:07.75Z</time></trkpt><trkpt lat="37.9856582" lon="15.0110517"><ele>1252.0</ele><time>2026-05-03T08:51:08.751Z</time></trkpt><trkpt lat="37.9857098" lon="15.0109139"><ele>1251.4</ele><time>2026-05-03T08:51:09.75Z</time></trkpt><trkpt lat="37.9857277" lon="15.0107923"><ele>1250.8000000000002</ele><time>2026-05-03T08:51:10.751Z</time></trkpt><trkpt lat="37.9857155" lon="15.0106708"><ele>1250.2</ele><time>2026-05-03T08:51:11.75Z</time></trkpt><trkpt lat="37.9857045" lon="15.0105491"><ele>1249.6000000000001</ele><time>2026-05-03T08:51:12.751Z</time></trkpt><trkpt lat="37.9857175" lon="15.0104412"><ele>1249.0</ele><time>2026-05-03T08:51:13.751Z</time></trkpt><trkpt lat="37.9857315" lon="15.0103475"><ele>1249.0</ele><time>2026-05-03T08:51:14.75Z</time></trkpt><trkpt lat="37.9857316" lon="15.0102592"><ele>1249.0</ele><time>2026-05-03T08:51:15.751Z</time></trkpt><trkpt lat="37.9856731" lon="15.0101349"><ele>1249.0</ele><time>2026-05-03T08:51:17.751Z</time></trkpt><trkpt lat="37.9856206" lon="15.0100858"><ele>1249.0</ele><time>2026-05-03T08:51:18.751Z</time></trkpt><trkpt lat="37.9855729" lon="15.0100214"><ele>1249.0</ele><time>2026-05-03T08:51:19.751Z</time></trkpt><trkpt lat="37.9855361" lon="15.0099532"><ele>1249.0</ele><time>2026-05-03T08:51:20.751Z</time></trkpt><trkpt lat="37.9854377" lon="15.0099323"><ele>1249.0</ele><time>2026-05-03T08:51:22.751Z</time></trkpt><trkpt lat="37.9853746" lon="15.0099696"><ele>1249.0</ele><time>2026-05-03T08:51:23.75Z</time></trkpt><trkpt lat="37.9852982" lon="15.0099857"><ele>1249.0</ele><time>2026-05-03T08:51:24.751Z</time></trkpt><trkpt lat="37.9852137" lon="15.0100111"><ele>1249.0</ele><time>2026-05-03T08:51:25.751Z</time></trkpt><trkpt lat="37.985112" lon="15.01"><ele>1249.0</ele><time>2026-05-03T08:51:26.751Z</time></trkpt><trkpt lat="37.985019" lon="15.0100231"><ele>1249.0</ele><time>2026-05-03T08:51:27.751Z</time></trkpt><trkpt lat="37.9849321" lon="15.0100625"><ele>1247.3333333333333</ele><time>2026-05-03T08:51:28.752Z</time></trkpt><trkpt lat="37.9848579" lon="15.010094"><ele>1245.6666666666665</ele><time>2026-05-03T08:51:29.751Z</time></trkpt><trkpt lat="37.9847631" lon="15.0101208"><ele>1244.0</ele><time>2026-05-03T08:51:31.751Z</time></trkpt><trkpt lat="37.9846876" lon="15.0101452"><ele>1242.3333333333333</ele><time>2026-05-03T08:51:33.751Z</time></trkpt><trkpt lat="37.9845994" lon="15.0101426"><ele>1240.6666666666667</ele><time>2026-05-03T08:51:35.751Z</time></trkpt><trkpt lat="37.984508" lon="15.0101523"><ele>1239.0</ele><time>2026-05-03T08:51:37.75Z</time></trkpt><trkpt lat="37.9844398" lon="15.0101877"><ele>1239.0</ele><time>2026-05-03T08:51:40.751Z</time></trkpt><trkpt lat="37.9843762" lon="15.0101937"><ele>1239.0</ele><time>2026-05-03T08:51:42.751Z</time></trkpt><trkpt lat="37.9842952" lon="15.0102022"><ele>1239.0</ele><time>2026-05-03T08:51:45.751Z</time></trkpt><trkpt lat="37.9842192" lon="15.0102069"><ele>1239.0</ele><time>2026-05-03T08:51:47.751Z</time></trkpt><trkpt lat="37.9841415" lon="15.0101844"><ele>1239.0</ele><time>2026-05-03T08:51:49.751Z</time></trkpt><trkpt lat="37.9840661" lon="15.0101627"><ele>1239.0</ele><time>2026-05-03T08:51:53.751Z</time></trkpt><trkpt lat="37.9839997" lon="15.0101302"><ele>1239.0</ele><time>2026-05-03T08:52:17.751Z</time></trkpt><trkpt lat="37.9839417" lon="15.0100963"><ele>1237.2857142857142</ele><time>2026-05-03T08:52:22.752Z</time></trkpt><trkpt lat="37.9838822" lon="15.0101248"><ele>1235.5714285714284</ele><time>2026-05-03T08:52:31.752Z</time></trkpt><trkpt lat="37.9838299" lon="15.0100678"><ele>1233.857142857143</ele><time>2026-05-03T08:53:10.751Z</time></trkpt><trkpt lat="37.9838033" lon="15.0099806"><ele>1232.142857142857</ele><time>2026-05-03T08:53:14.75Z</time></trkpt><trkpt lat="37.9837416" lon="15.0099402"><ele>1230.4285714285713</ele><time>2026-05-03T08:53:19.751Z</time></trkpt><trkpt lat="37.9836815" lon="15.0098901"><ele>1228.7142857142858</ele><time>2026-05-03T08:53:27.752Z</time></trkpt><trkpt lat="37.9836187" lon="15.0098294"><ele>1227.0</ele><time>2026-05-03T08:53:31.751Z</time></trkpt><trkpt lat="37.9836574" lon="15.0098942"><ele>1227.0</ele><time>2026-05-03T08:55:13.754Z</time></trkpt><trkpt lat="37.9837257" lon="15.0099217"><ele>1227.0</ele><time>2026-05-03T08:55:28.75Z</time></trkpt><trkpt lat="37.9837946" lon="15.0099493"><ele>1227.0</ele><time>2026-05-03T08:55:33.749Z</time></trkpt><trkpt lat="37.9838486" lon="15.0099904"><ele>1227.0</ele><time>2026-05-03T08:55:42.778Z</time></trkpt><trkpt lat="37.9838667" lon="15.0100746"><ele>1227.0</ele><time>2026-05-03T08:55:50.75Z</time></trkpt><trkpt lat="37.9839252" lon="15.0101381"><ele>1227.0</ele><time>2026-05-03T08:56:17.502Z</time></trkpt><trkpt lat="37.983979" lon="15.0101957"><ele>1227.0</ele><time>2026-05-03T08:56:39.845Z</time></trkpt><trkpt lat="37.9839456" lon="15.0102639"><ele>1226.7142857142858</ele><time>2026-05-03T08:57:08.751Z</time></trkpt><trkpt lat="37.9838996" lon="15.01032"><ele>1226.4285714285713</ele><time>2026-05-03T08:57:15.751Z</time></trkpt><trkpt lat="37.9838306" lon="15.0103391"><ele>1226.142857142857</ele><time>2026-05-03T08:57:21.751Z</time></trkpt><trkpt lat="37.9837984" lon="15.0104096"><ele>1225.857142857143</ele><time>2026-05-03T08:57:28.752Z</time></trkpt><trkpt lat="37.9838674" lon="15.0104154"><ele>1225.5714285714284</ele><time>2026-05-03T08:58:09.75Z</time></trkpt><trkpt lat="37.9838275" lon="15.0104979"><ele>1225.2857142857142</ele><time>2026-05-03T08:58:49.751Z</time></trkpt><trkpt lat="37.9837873" lon="15.0104216"><ele>1225.0</ele><time>2026-05-03T08:58:54.751Z</time></trkpt><trkpt lat="37.9838054" lon="15.0103409"><ele>1225.0</ele><time>2026-05-03T08:59:11.842Z</time></trkpt><trkpt lat="37.9838439" lon="15.01027"><ele>1225.0</ele><time>2026-05-03T08:59:22.751Z</time></trkpt><trkpt lat="37.9839102" lon="15.010256"><ele>1225.0</ele><time>2026-05-03T08:59:32.751Z</time></trkpt><trkpt lat="37.9838807" lon="15.0103386"><ele>1225.0</ele><time>2026-05-03T09:00:09.752Z</time></trkpt><trkpt lat="37.9838306" lon="15.0103965"><ele>1225.0</ele><time>2026-05-03T09:00:15.868Z</time></trkpt><trkpt lat="37.9838812" lon="15.0103288"><ele>1225.0</ele><time>2026-05-03T09:02:28.752Z</time></trkpt><trkpt lat="37.9838693" lon="15.0101641"><ele>1225.0</ele><time>2026-05-03T09:05:45.752Z</time></trkpt><trkpt lat="37.9838159" lon="15.0101217"><ele>1225.0</ele><time>2026-05-03T09:06:39.752Z</time></trkpt><trkpt lat="37.983862" lon="15.0101764"><ele>1225.0</ele><time>2026-05-03T09:07:12.752Z</time></trkpt><trkpt lat="37.9839042" lon="15.0102492"><ele>1225.0</ele><time>2026-05-03T09:07:36.752Z</time></trkpt><trkpt lat="37.9838605" lon="15.0103155"><ele>1225.0</ele><time>2026-05-03T09:08:39.752Z</time></trkpt><trkpt lat="37.9838384" lon="15.0103919"><ele>1225.0</ele><time>2026-05-03T09:08:57.752Z</time></trkpt><trkpt lat="37.9837696" lon="15.0104067"><ele>1225.0</ele><time>2026-05-03T09:12:42.753Z</time></trkpt><trkpt lat="37.9838277" lon="15.0102809"><ele>1225.0</ele><time>2026-05-03T09:13:09.754Z</time></trkpt><trkpt lat="37.983874" lon="15.0102213"><ele>1225.0</ele><time>2026-05-03T09:13:16.753Z</time></trkpt><trkpt lat="37.9839081" lon="15.0101435"><ele>1225.0</ele><time>2026-05-03T09:13:25.692Z</time></trkpt><trkpt lat="37.9838801" lon="15.0100645"><ele>1225.0</ele><time>2026-05-03T09:13:33.754Z</time></trkpt><trkpt lat="37.9838252" lon="15.0099988"><ele>1225.0</ele><time>2026-05-03T09:13:38.753Z</time></trkpt><trkpt lat="37.9838027" lon="15.0100761"><ele>1225.0</ele><time>2026-05-03T09:14:02.752Z</time></trkpt><trkpt lat="37.9837344" lon="15.0100245"><ele>1225.0</ele><time>2026-05-03T09:14:17.753Z</time></trkpt><trkpt lat="37.9836976" lon="15.009923"><ele>1225.2857142857142</ele><time>2026-05-03T09:14:19.752Z</time></trkpt><trkpt lat="37.9836346" lon="15.0098921"><ele>1225.5714285714284</ele><time>2026-05-03T09:14:23.753Z</time></trkpt><trkpt lat="37.9835701" lon="15.0098535"><ele>1225.857142857143</ele><time>2026-05-03T09:14:28.827Z</time></trkpt><trkpt lat="37.9836044" lon="15.009782"><ele>1226.142857142857</ele><time>2026-05-03T09:15:16.755Z</time></trkpt><trkpt lat="37.9836581" lon="15.0097316"><ele>1226.4285714285713</ele><time>2026-05-03T09:15:22.754Z</time></trkpt><trkpt lat="37.9835996" lon="15.0097731"><ele>1226.7142857142858</ele><time>2026-05-03T09:16:01.852Z</time></trkpt><trkpt lat="37.9835508" lon="15.0098291"><ele>1227.0</ele><time>2026-05-03T09:16:51.754Z</time></trkpt><trkpt lat="37.9836131" lon="15.0098436"><ele>1227.0</ele><time>2026-05-03T09:16:59.753Z</time></trkpt><trkpt lat="37.9836805" lon="15.0098143"><ele>1227.0</ele><time>2026-05-03T09:17:18.753Z</time></trkpt><trkpt lat="37.9837432" lon="15.0098551"><ele>1227.0</ele><time>2026-05-03T09:17:20.753Z</time></trkpt><trkpt lat="37.9837886" lon="15.0099127"><ele>1227.0</ele><time>2026-05-03T09:17:22.753Z</time></trkpt><trkpt lat="37.9838547" lon="15.0099575"><ele>1227.0</ele><time>2026-05-03T09:17:38.752Z</time></trkpt><trkpt lat="37.9838542" lon="15.0100416"><ele>1227.0</ele><time>2026-05-03T09:18:07.753Z</time></trkpt><trkpt lat="37.9838082" lon="15.0099828"><ele>1227.0</ele><time>2026-05-03T09:18:12.753Z</time></trkpt><trkpt lat="37.9837505" lon="15.0099171"><ele>1227.0</ele><time>2026-05-03T09:18:16.754Z</time></trkpt><trkpt lat="37.9837816" lon="15.0101301"><ele>1227.0</ele><time>2026-05-03T09:18:21.886Z</time></trkpt><trkpt lat="37.9837562" lon="15.0102206"><ele>1227.0</ele><time>2026-05-03T09:18:26.753Z</time></trkpt><trkpt lat="37.9837378" lon="15.010108"><ele>1227.0</ele><time>2026-05-03T09:18:29.753Z</time></trkpt><trkpt lat="37.983723" lon="15.00988"><ele>1227.0</ele><time>2026-05-03T09:18:30.753Z</time></trkpt><trkpt lat="37.9837202" lon="15.009742"><ele>1227.0</ele><time>2026-05-03T09:18:31.753Z</time></trkpt><trkpt lat="37.983725" lon="15.009647"><ele>1227.0</ele><time>2026-05-03T09:18:33.84Z</time></trkpt><trkpt lat="37.9837413" lon="15.0095684"><ele>1227.0</ele><time>2026-05-03T09:18:38.753Z</time></trkpt><trkpt lat="37.9838112" lon="15.0095456"><ele>1227.0</ele><time>2026-05-03T09:18:44.753Z</time></trkpt><trkpt lat="37.9838735" lon="15.0095297"><ele>1227.0</ele><time>2026-05-03T09:18:50.885Z</time></trkpt><trkpt lat="37.9839363" lon="15.0095031"><ele>1227.0</ele><time>2026-05-03T09:18:58.754Z</time></trkpt><trkpt lat="37.9840247" lon="15.0095175"><ele>1227.0</ele><time>2026-05-03T09:19:46.754Z</time></trkpt><trkpt lat="37.983972" lon="15.0095655"><ele>1227.0</ele><time>2026-05-03T09:20:38.753Z</time></trkpt><trkpt lat="37.98394" lon="15.0094741"><ele>1227.0</ele><time>2026-05-03T09:21:36.732Z</time></trkpt><trkpt lat="37.9839957" lon="15.0095117"><ele>1227.0</ele><time>2026-05-03T09:21:56.753Z</time></trkpt><trkpt lat="37.9839506" lon="15.0095685"><ele>1227.0</ele><time>2026-05-03T09:22:27.753Z</time></trkpt><trkpt lat="37.9839029" lon="15.0096218"><ele>1227.0</ele><time>2026-05-03T09:22:35.754Z</time></trkpt><trkpt lat="37.9838379" lon="15.0096213"><ele>1227.0</ele><time>2026-05-03T09:22:44.753Z</time></trkpt><trkpt lat="37.9837708" lon="15.0096058"><ele>1227.0</ele><time>2026-05-03T09:22:50.847Z</time></trkpt><trkpt lat="37.9837426" lon="15.0096866"><ele>1227.0</ele><time>2026-05-03T09:22:56.851Z</time></trkpt><trkpt lat="37.9837295" lon="15.0097748"><ele>1227.0</ele><time>2026-05-03T09:23:03.845Z</time></trkpt><trkpt lat="37.9837379" lon="15.0098643"><ele>1227.0</ele><time>2026-05-03T09:23:09.852Z</time></trkpt><trkpt lat="37.983777" lon="15.0099422"><ele>1227.0</ele><time>2026-05-03T09:23:14.753Z</time></trkpt><trkpt lat="37.9838091" lon="15.0100239"><ele>1227.0</ele><time>2026-05-03T09:23:20.879Z</time></trkpt><trkpt lat="37.9838819" lon="15.010113"><ele>1226.7142857142858</ele><time>2026-05-03T09:23:43.754Z</time></trkpt><trkpt lat="37.9839288" lon="15.0101681"><ele>1226.4285714285713</ele><time>2026-05-03T09:23:50.578Z</time></trkpt><trkpt lat="37.9839747" lon="15.0102263"><ele>1226.142857142857</ele><time>2026-05-03T09:23:59.755Z</time></trkpt><trkpt lat="37.9839414" lon="15.0102995"><ele>1225.857142857143</ele><time>2026-05-03T09:24:11.852Z</time></trkpt><trkpt lat="37.983899" lon="15.0103621"><ele>1225.5714285714284</ele><time>2026-05-03T09:24:28.805Z</time></trkpt><trkpt lat="37.9838536" lon="15.0104202"><ele>1225.2857142857142</ele><time>2026-05-03T09:24:34.754Z</time></trkpt><trkpt lat="37.9838305" lon="15.0105057"><ele>1225.0</ele><time>2026-05-03T09:24:42.754Z</time></trkpt><trkpt lat="37.9837814" lon="15.0105609"><ele>1225.0</ele><time>2026-05-03T09:24:48.754Z</time></trkpt><trkpt lat="37.9838487" lon="15.0105506"><ele>1225.0</ele><time>2026-05-03T09:25:06.754Z</time></trkpt><trkpt lat="37.983874" lon="15.0104716"><ele>1225.0</ele><time>2026-05-03T09:25:18.754Z</time></trkpt><trkpt lat="37.9838106" lon="15.0104586"><ele>1225.0</ele><time>2026-05-03T09:25:35.754Z</time></trkpt></trkseg><trkseg><trkpt lat="37.9836881" lon="15.0105778"><ele>1225.0</ele><time>2026-05-03T10:01:38.758Z</time></trkpt><trkpt lat="37.9837335" lon="15.0106337"><ele>1225.0</ele><time>2026-05-03T10:02:05.759Z</time></trkpt><trkpt lat="37.9837071" lon="15.0107159"><ele>1225.0</ele><time>2026-05-03T10:02:23.758Z</time></trkpt><trkpt lat="37.9837042" lon="15.010803"><ele>1225.0</ele><time>2026-05-03T10:05:37.759Z</time></trkpt><trkpt lat="37.9836621" lon="15.0108783"><ele>1225.0</ele><time>2026-05-03T10:05:41.758Z</time></trkpt><trkpt lat="37.9836074" lon="15.0109579"><ele>1225.0</ele><time>2026-05-03T10:05:44.758Z</time></trkpt><trkpt lat="37.9835603" lon="15.0110251"><ele>1225.0</ele><time>2026-05-03T10:05:46.758Z</time></trkpt><trkpt lat="37.9835036" lon="15.0111139"><ele>1225.4</ele><time>2026-05-03T10:05:48.759Z</time></trkpt><trkpt lat="37.9834601" lon="15.0112546"><ele>1225.8</ele><time>2026-05-03T10:05:50.757Z</time></trkpt><trkpt lat="37.983421" lon="15.0113737"><ele>1226.2</ele><time>2026-05-03T10:05:52.758Z</time></trkpt><trkpt lat="37.9833795" lon="15.0114394"><ele>1226.6</ele><time>2026-05-03T10:05:54.758Z</time></trkpt><trkpt lat="37.9833061" lon="15.0114664"><ele>1227.0</ele><time>2026-05-03T10:05:57.758Z</time></trkpt><trkpt lat="37.9832068" lon="15.0114779"><ele>1224.1666666666667</ele><time>2026-05-03T10:06:01.758Z</time></trkpt><trkpt lat="37.9831455" lon="15.0114539"><ele>1221.3333333333333</ele><time>2026-05-03T10:06:03.758Z</time></trkpt><trkpt lat="37.9830773" lon="15.0114044"><ele>1218.5</ele><time>2026-05-03T10:06:05.758Z</time></trkpt><trkpt lat="37.9830104" lon="15.0113913"><ele>1215.6666666666665</ele><time>2026-05-03T10:06:07.758Z</time></trkpt><trkpt lat="37.9829311" lon="15.0113816"><ele>1212.8333333333333</ele><time>2026-05-03T10:06:10.758Z</time></trkpt><trkpt lat="37.9829005" lon="15.0114809"><ele>1210.0</ele><time>2026-05-03T10:06:13.758Z</time></trkpt><trkpt lat="37.9829302" lon="15.0116041"><ele>1210.2</ele><time>2026-05-03T10:06:15.758Z</time></trkpt><trkpt lat="37.9829394" lon="15.0116847"><ele>1210.4</ele><time>2026-05-03T10:06:16.758Z</time></trkpt><trkpt lat="37.982946" lon="15.0118079"><ele>1210.6</ele><time>2026-05-03T10:06:17.758Z</time></trkpt><trkpt lat="37.9829534" lon="15.0119415"><ele>1210.8</ele><time>2026-05-03T10:06:18.758Z</time></trkpt><trkpt lat="37.9829619" lon="15.0120827"><ele>1211.0</ele><time>2026-05-03T10:06:19.758Z</time></trkpt><trkpt lat="37.9829699" lon="15.0122466"><ele>1211.0</ele><time>2026-05-03T10:06:20.758Z</time></trkpt><trkpt lat="37.982977" lon="15.0124025"><ele>1211.0</ele><time>2026-05-03T10:06:21.758Z</time></trkpt><trkpt lat="37.9829809" lon="15.0125335"><ele>1211.0</ele><time>2026-05-03T10:06:22.758Z</time></trkpt><trkpt lat="37.9829792" lon="15.0126555"><ele>1211.0</ele><time>2026-05-03T10:06:23.758Z</time></trkpt><trkpt lat="37.9829822" lon="15.0127697"><ele>1211.0</ele><time>2026-05-03T10:06:24.759Z</time></trkpt><trkpt lat="37.9829828" lon="15.0128895"><ele>1211.75</ele><time>2026-05-03T10:06:25.758Z</time></trkpt><trkpt lat="37.9829953" lon="15.0130189"><ele>1212.5</ele><time>2026-05-03T10:06:26.758Z</time></trkpt><trkpt lat="37.9829922" lon="15.0131862"><ele>1213.25</ele><time>2026-05-03T10:06:27.758Z</time></trkpt><trkpt lat="37.9829945" lon="15.0133116"><ele>1214.0</ele><time>2026-05-03T10:06:28.758Z</time></trkpt><trkpt lat="37.9830119" lon="15.0134597"><ele>1214.25</ele><time>2026-05-03T10:06:29.758Z</time></trkpt><trkpt lat="37.9830261" lon="15.0136225"><ele>1214.5</ele><time>2026-05-03T10:06:30.758Z</time></trkpt><trkpt lat="37.9830297" lon="15.0137675"><ele>1214.75</ele><time>2026-05-03T10:06:31.758Z</time></trkpt><trkpt lat="37.983046" lon="15.0139274"><ele>1215.0</ele><time>2026-05-03T10:06:32.758Z</time></trkpt><trkpt lat="37.9830642" lon="15.0140828"><ele>1215.0</ele><time>2026-05-03T10:06:33.758Z</time></trkpt><trkpt lat="37.9830817" lon="15.0142313"><ele>1215.0</ele><time>2026-05-03T10:06:34.758Z</time></trkpt><trkpt lat="37.983102" lon="15.0143848"><ele>1215.0</ele><time>2026-05-03T10:06:35.758Z</time></trkpt><trkpt lat="37.983135" lon="15.0145385"><ele>1215.0</ele><time>2026-05-03T10:06:36.759Z</time></trkpt><trkpt lat="37.9831697" lon="15.0146933"><ele>1215.0</ele><time>2026-05-03T10:06:37.758Z</time></trkpt><trkpt lat="37.9832181" lon="15.0148333"><ele>1215.0</ele><time>2026-05-03T10:06:38.758Z</time></trkpt><trkpt lat="37.9832742" lon="15.0149832"><ele>1215.0</ele><time>2026-05-03T10:06:39.758Z</time></trkpt><trkpt lat="37.983332" lon="15.0151304"><ele>1215.0</ele><time>2026-05-03T10:06:40.758Z</time></trkpt><trkpt lat="37.9833872" lon="15.0152819"><ele>1217.5</ele><time>2026-05-03T10:06:41.758Z</time></trkpt><trkpt lat="37.9834416" lon="15.0154284"><ele>1220.0</ele><time>2026-05-03T10:06:42.758Z</time></trkpt><trkpt lat="37.9834907" lon="15.0155779"><ele>1222.5</ele><time>2026-05-03T10:06:43.758Z</time></trkpt><trkpt lat="37.9835456" lon="15.0157207"><ele>1225.0</ele><time>2026-05-03T10:06:44.758Z</time></trkpt><trkpt lat="37.9836028" lon="15.015863"><ele>1225.0</ele><time>2026-05-03T10:06:45.759Z</time></trkpt><trkpt lat="37.9836513" lon="15.0160088"><ele>1225.0</ele><time>2026-05-03T10:06:46.758Z</time></trkpt><trkpt lat="37.983699" lon="15.0161649"><ele>1225.0</ele><time>2026-05-03T10:06:47.758Z</time></trkpt><trkpt lat="37.9837475" lon="15.0163288"><ele>1225.0</ele><time>2026-05-03T10:06:48.758Z</time></trkpt><trkpt lat="37.9838018" lon="15.0164745"><ele>1225.0</ele><time>2026-05-03T10:06:49.759Z</time></trkpt><trkpt lat="37.9838573" lon="15.0166007"><ele>1225.0</ele><time>2026-05-03T10:06:50.759Z</time></trkpt><trkpt lat="37.9839016" lon="15.0167407"><ele>1225.0</ele><time>2026-05-03T10:06:51.758Z</time></trkpt><trkpt lat="37.9839516" lon="15.0168719"><ele>1225.0</ele><time>2026-05-03T10:06:52.759Z</time></trkpt><trkpt lat="37.9840049" lon="15.017"><ele>1222.25</ele><time>2026-05-03T10:06:53.758Z</time></trkpt><trkpt lat="37.9840522" lon="15.0171359"><ele>1219.5</ele><time>2026-05-03T10:06:54.758Z</time></trkpt><trkpt lat="37.9840983" lon="15.0172718"><ele>1216.75</ele><time>2026-05-03T10:06:55.758Z</time></trkpt><trkpt lat="37.9841288" lon="15.017411"><ele>1214.0</ele><time>2026-05-03T10:06:56.759Z</time></trkpt><trkpt lat="37.984148" lon="15.0175518"><ele>1210.75</ele><time>2026-05-03T10:06:57.76Z</time></trkpt><trkpt lat="37.9841614" lon="15.01769"><ele>1207.5</ele><time>2026-05-03T10:06:58.759Z</time></trkpt><trkpt lat="37.9841713" lon="15.0178318"><ele>1204.25</ele><time>2026-05-03T10:06:59.758Z</time></trkpt><trkpt lat="37.9841787" lon="15.0179773"><ele>1201.0</ele><time>2026-05-03T10:07:00.759Z</time></trkpt><trkpt lat="37.9841902" lon="15.0181312"><ele>1199.5</ele><time>2026-05-03T10:07:01.758Z</time></trkpt><trkpt lat="37.984199" lon="15.0182941"><ele>1198.0</ele><time>2026-05-03T10:07:02.758Z</time></trkpt><trkpt lat="37.9842099" lon="15.0184548"><ele>1196.5</ele><time>2026-05-03T10:07:03.758Z</time></trkpt><trkpt lat="37.984221" lon="15.0186213"><ele>1195.0</ele><time>2026-05-03T10:07:04.758Z</time></trkpt><trkpt lat="37.9842299" lon="15.0187889"><ele>1195.0</ele><time>2026-05-03T10:07:05.758Z</time></trkpt><trkpt lat="37.9842385" lon="15.0189311"><ele>1195.0</ele><time>2026-05-03T10:07:06.758Z</time></trkpt><trkpt lat="37.9842461" lon="15.0190506"><ele>1195.0</ele><time>2026-05-03T10:07:07.759Z</time></trkpt><trkpt lat="37.9842476" lon="15.0191529"><ele>1195.0</ele><time>2026-05-03T10:07:08.758Z</time></trkpt><trkpt lat="37.9842468" lon="15.0192418"><ele>1195.0</ele><time>2026-05-03T10:07:09.758Z</time></trkpt><trkpt lat="37.9842244" lon="15.0193861"><ele>1196.4</ele><time>2026-05-03T10:07:11.758Z</time></trkpt><trkpt lat="37.9841878" lon="15.0195185"><ele>1197.8</ele><time>2026-05-03T10:07:13.758Z</time></trkpt><trkpt lat="37.9841712" lon="15.0196723"><ele>1199.2</ele><time>2026-05-03T10:07:15.758Z</time></trkpt><trkpt lat="37.9841591" lon="15.0197676"><ele>1200.6</ele><time>2026-05-03T10:07:16.758Z</time></trkpt><trkpt lat="37.9841523" lon="15.019876"><ele>1202.0</ele><time>2026-05-03T10:07:17.759Z</time></trkpt><trkpt lat="37.9841476" lon="15.0200007"><ele>1204.4</ele><time>2026-05-03T10:07:18.759Z</time></trkpt><trkpt lat="37.9841457" lon="15.020138"><ele>1206.8000000000002</ele><time>2026-05-03T10:07:19.759Z</time></trkpt><trkpt lat="37.9841312" lon="15.0202834"><ele>1209.2</ele><time>2026-05-03T10:07:20.758Z</time></trkpt><trkpt lat="37.9841159" lon="15.0204228"><ele>1211.6000000000001</ele><time>2026-05-03T10:07:21.758Z</time></trkpt><trkpt lat="37.9841221" lon="15.0205235"><ele>1214.0</ele><time>2026-05-03T10:07:22.758Z</time></trkpt><trkpt lat="37.9841621" lon="15.0206238"><ele>1213.6666666666667</ele><time>2026-05-03T10:07:24.759Z</time></trkpt><trkpt lat="37.98423" lon="15.0207056"><ele>1213.3333333333335</ele><time>2026-05-03T10:07:26.758Z</time></trkpt><trkpt lat="37.9842474" lon="15.0207882"><ele>1213.0</ele><time>2026-05-03T10:07:27.758Z</time></trkpt><trkpt lat="37.9842406" lon="15.0208971"><ele>1212.6666666666667</ele><time>2026-05-03T10:07:28.758Z</time></trkpt><trkpt lat="37.9842472" lon="15.0210049"><ele>1212.3333333333333</ele><time>2026-05-03T10:07:29.758Z</time></trkpt><trkpt lat="37.984249" lon="15.0211086"><ele>1212.0</ele><time>2026-05-03T10:07:30.758Z</time></trkpt><trkpt lat="37.9842607" lon="15.0211997"><ele>1212.0</ele><time>2026-05-03T10:07:31.758Z</time></trkpt><trkpt lat="37.9843109" lon="15.0212633"><ele>1212.0</ele><time>2026-05-03T10:07:32.758Z</time></trkpt><trkpt lat="37.9843861" lon="15.0213841"><ele>1212.0</ele><time>2026-05-03T10:07:34.758Z</time></trkpt><trkpt lat="37.9844088" lon="15.0214604"><ele>1212.0</ele><time>2026-05-03T10:07:35.759Z</time></trkpt><trkpt lat="37.9844201" lon="15.0215533"><ele>1212.0</ele><time>2026-05-03T10:07:36.759Z</time></trkpt><trkpt lat="37.9844342" lon="15.0216638"><ele>1212.0</ele><time>2026-05-03T10:07:37.758Z</time></trkpt><trkpt lat="37.9844513" lon="15.0217877"><ele>1214.3333333333333</ele><time>2026-05-03T10:07:38.758Z</time></trkpt><trkpt lat="37.9844739" lon="15.0219082"><ele>1216.6666666666667</ele><time>2026-05-03T10:07:39.758Z</time></trkpt><trkpt lat="37.9844771" lon="15.0220119"><ele>1219.0</ele><time>2026-05-03T10:07:40.758Z</time></trkpt><trkpt lat="37.9844717" lon="15.0221127"><ele>1221.3333333333335</ele><time>2026-05-03T10:07:41.758Z</time></trkpt><trkpt lat="37.9844564" lon="15.0222052"><ele>1223.6666666666667</ele><time>2026-05-03T10:07:42.758Z</time></trkpt><trkpt lat="37.9844438" lon="15.0222925"><ele>1226.0</ele><time>2026-05-03T10:07:43.758Z</time></trkpt><trkpt lat="37.9844468" lon="15.0223725"><ele>1229.0</ele><time>2026-05-03T10:07:44.758Z</time></trkpt><trkpt lat="37.9844017" lon="15.022506"><ele>1232.0</ele><time>2026-05-03T10:07:46.758Z</time></trkpt><trkpt lat="37.9843622" lon="15.0226161"><ele>1235.0</ele><time>2026-05-03T10:07:48.758Z</time></trkpt><trkpt lat="37.9843449" lon="15.0227001"><ele>1238.0</ele><time>2026-05-03T10:07:50.758Z</time></trkpt><trkpt lat="37.9843398" lon="15.0227881"><ele>1241.0</ele><time>2026-05-03T10:07:52.758Z</time></trkpt><trkpt lat="37.9843397" lon="15.0228766"><ele>1244.0</ele><time>2026-05-03T10:07:54.758Z</time></trkpt><trkpt lat="37.9843297" lon="15.0229659"><ele>1244.0</ele><time>2026-05-03T10:07:56.758Z</time></trkpt><trkpt lat="37.9843169" lon="15.0230606"><ele>1244.0</ele><time>2026-05-03T10:07:58.759Z</time></trkpt><trkpt lat="37.9843256" lon="15.0231572"><ele>1244.0</ele><time>2026-05-03T10:08:00.758Z</time></trkpt><trkpt lat="37.9843744" lon="15.0232817"><ele>1244.0</ele><time>2026-05-03T10:08:02.758Z</time></trkpt><trkpt lat="37.9844273" lon="15.0234333"><ele>1244.0</ele><time>2026-05-03T10:08:04.758Z</time></trkpt><trkpt lat="37.9844561" lon="15.0235234"><ele>1245.7142857142856</ele><time>2026-05-03T10:08:05.758Z</time></trkpt><trkpt lat="37.9844821" lon="15.0236087"><ele>1247.4285714285716</ele><time>2026-05-03T10:08:06.758Z</time></trkpt><trkpt lat="37.9845108" lon="15.0236916"><ele>1249.142857142857</ele><time>2026-05-03T10:08:07.758Z</time></trkpt><trkpt lat="37.9845351" lon="15.0237736"><ele>1250.8571428571427</ele><time>2026-05-03T10:08:08.758Z</time></trkpt><trkpt lat="37.9845491" lon="15.0238608"><ele>1252.5714285714284</ele><time>2026-05-03T10:08:09.759Z</time></trkpt><trkpt lat="37.9845628" lon="15.0239471"><ele>1254.2857142857142</ele><time>2026-05-03T10:08:10.758Z</time></trkpt><trkpt lat="37.9845966" lon="15.0240304"><ele>1256.0</ele><time>2026-05-03T10:08:11.758Z</time></trkpt><trkpt lat="37.9846468" lon="15.024107"><ele>1256.5</ele><time>2026-05-03T10:08:12.758Z</time></trkpt><trkpt lat="37.9846972" lon="15.0241829"><ele>1257.0</ele><time>2026-05-03T10:08:13.758Z</time></trkpt><trkpt lat="37.9847461" lon="15.0242629"><ele>1257.5</ele><time>2026-05-03T10:08:14.759Z</time></trkpt><trkpt lat="37.9847942" lon="15.0243478"><ele>1258.0</ele><time>2026-05-03T10:08:15.758Z</time></trkpt><trkpt lat="37.9848388" lon="15.0244362"><ele>1258.5</ele><time>2026-05-03T10:08:16.758Z</time></trkpt><trkpt lat="37.9848823" lon="15.0245255"><ele>1259.0</ele><time>2026-05-03T10:08:17.758Z</time></trkpt><trkpt lat="37.9849244" lon="15.0246259"><ele>1259.0</ele><time>2026-05-03T10:08:18.758Z</time></trkpt><trkpt lat="37.9849647" lon="15.0247328"><ele>1259.0</ele><time>2026-05-03T10:08:19.758Z</time></trkpt><trkpt lat="37.9850062" lon="15.0248534"><ele>1259.0</ele><time>2026-05-03T10:08:20.759Z</time></trkpt><trkpt lat="37.9850366" lon="15.0249986"><ele>1259.0</ele><time>2026-05-03T10:08:21.759Z</time></trkpt><trkpt lat="37.9850841" lon="15.0251487"><ele>1259.0</ele><time>2026-05-03T10:08:22.758Z</time></trkpt><trkpt lat="37.9851289" lon="15.0253178"><ele>1258.25</ele><time>2026-05-03T10:08:23.758Z</time></trkpt><trkpt lat="37.9851751" lon="15.02549"><ele>1257.5</ele><time>2026-05-03T10:08:24.759Z</time></trkpt><trkpt lat="37.9852248" lon="15.0256569"><ele>1256.75</ele><time>2026-05-03T10:08:25.758Z</time></trkpt><trkpt lat="37.9852687" lon="15.025821"><ele>1256.0</ele><time>2026-05-03T10:08:26.759Z</time></trkpt><trkpt lat="37.9853098" lon="15.0259787"><ele>1257.5</ele><time>2026-05-03T10:08:27.758Z</time></trkpt><trkpt lat="37.9853521" lon="15.0261409"><ele>1259.0</ele><time>2026-05-03T10:08:28.758Z</time></trkpt><trkpt lat="37.9853889" lon="15.0262941"><ele>1260.5</ele><time>2026-05-03T10:08:29.758Z</time></trkpt><trkpt lat="37.9854238" lon="15.0264346"><ele>1262.0</ele><time>2026-05-03T10:08:30.758Z</time></trkpt><trkpt lat="37.985457" lon="15.026571"><ele>1262.8</ele><time>2026-05-03T10:08:31.758Z</time></trkpt><trkpt lat="37.9854936" lon="15.026692"><ele>1263.6</ele><time>2026-05-03T10:08:32.758Z</time></trkpt><trkpt lat="37.985529" lon="15.0268066"><ele>1264.3999999999999</ele><time>2026-05-03T10:08:33.758Z</time></trkpt><trkpt lat="37.9855628" lon="15.0269292"><ele>1265.2</ele><time>2026-05-03T10:08:34.759Z</time></trkpt><trkpt lat="37.9855992" lon="15.0270556"><ele>1266.0</ele><time>2026-05-03T10:08:35.758Z</time></trkpt><trkpt lat="37.9856259" lon="15.0271647"><ele>1266.0</ele><time>2026-05-03T10:08:36.758Z</time></trkpt><trkpt lat="37.9856406" lon="15.0272493"><ele>1266.0</ele><time>2026-05-03T10:08:37.759Z</time></trkpt><trkpt lat="37.9856108" lon="15.027352"><ele>1266.0</ele><time>2026-05-03T10:08:39.758Z</time></trkpt><trkpt lat="37.9855406" lon="15.0273613"><ele>1266.0</ele><time>2026-05-03T10:08:41.758Z</time></trkpt><trkpt lat="37.985451" lon="15.0273736"><ele>1266.0</ele><time>2026-05-03T10:08:43.758Z</time></trkpt><trkpt lat="37.9853688" lon="15.0274208"><ele>1266.0</ele><time>2026-05-03T10:08:45.758Z</time></trkpt><trkpt lat="37.9852623" lon="15.0274784"><ele>1266.0</ele><time>2026-05-03T10:08:47.758Z</time></trkpt><trkpt lat="37.9851408" lon="15.0274912"><ele>1266.0</ele><time>2026-05-03T10:08:49.758Z</time></trkpt><trkpt lat="37.9850769" lon="15.0274738"><ele>1266.0</ele><time>2026-05-03T10:08:50.759Z</time></trkpt><trkpt lat="37.9849966" lon="15.0274535"><ele>1266.0</ele><time>2026-05-03T10:08:51.758Z</time></trkpt><trkpt lat="37.9849195" lon="15.0274273"><ele>1266.0</ele><time>2026-05-03T10:08:52.757Z</time></trkpt><trkpt lat="37.9848568" lon="15.027392"><ele>1266.0</ele><time>2026-05-03T10:08:53.758Z</time></trkpt><trkpt lat="37.9847692" lon="15.0273614"><ele>1266.1666666666667</ele><time>2026-05-03T10:08:55.758Z</time></trkpt><trkpt lat="37.9846928" lon="15.0273339"><ele>1266.3333333333333</ele><time>2026-05-03T10:08:57.759Z</time></trkpt><trkpt lat="37.9845781" lon="15.0273117"><ele>1266.5</ele><time>2026-05-03T10:08:59.759Z</time></trkpt><trkpt lat="37.9845054" lon="15.0272914"><ele>1266.6666666666665</ele><time>2026-05-03T10:09:00.758Z</time></trkpt><trkpt lat="37.9844315" lon="15.0272642"><ele>1266.8333333333333</ele><time>2026-05-03T10:09:01.759Z</time></trkpt><trkpt lat="37.9843553" lon="15.0272574"><ele>1267.0</ele><time>2026-05-03T10:09:02.758Z</time></trkpt><trkpt lat="37.9842758" lon="15.0272604"><ele>1267.0</ele><time>2026-05-03T10:09:03.759Z</time></trkpt><trkpt lat="37.984205" lon="15.0272881"><ele>1267.0</ele><time>2026-05-03T10:09:04.759Z</time></trkpt><trkpt lat="37.9841497" lon="15.027365"><ele>1267.0</ele><time>2026-05-03T10:09:05.759Z</time></trkpt><trkpt lat="37.9840819" lon="15.0274176"><ele>1267.0</ele><time>2026-05-03T10:09:06.758Z</time></trkpt><trkpt lat="37.9840124" lon="15.0274828"><ele>1267.0</ele><time>2026-05-03T10:09:07.758Z</time></trkpt><trkpt lat="37.9839315" lon="15.0275356"><ele>1267.0</ele><time>2026-05-03T10:09:08.759Z</time></trkpt><trkpt lat="37.9838356" lon="15.0275813"><ele>1265.2</ele><time>2026-05-03T10:09:10.758Z</time></trkpt><trkpt lat="37.9837345" lon="15.0276898"><ele>1263.4</ele><time>2026-05-03T10:09:12.758Z</time></trkpt><trkpt lat="37.9836975" lon="15.027774"><ele>1261.6</ele><time>2026-05-03T10:09:13.758Z</time></trkpt><trkpt lat="37.9837214" lon="15.0278728"><ele>1259.8</ele><time>2026-05-03T10:09:14.757Z</time></trkpt><trkpt lat="37.9836933" lon="15.027946"><ele>1258.0</ele><time>2026-05-03T10:09:15.758Z</time></trkpt><trkpt lat="37.9836034" lon="15.0279881"><ele>1258.0</ele><time>2026-05-03T10:09:17.758Z</time></trkpt><trkpt lat="37.9835267" lon="15.0279347"><ele>1258.0</ele><time>2026-05-03T10:09:19.758Z</time></trkpt><trkpt lat="37.9834722" lon="15.0278768"><ele>1258.0</ele><time>2026-05-03T10:09:20.759Z</time></trkpt><trkpt lat="37.9833942" lon="15.0278075"><ele>1258.0</ele><time>2026-05-03T10:09:22.759Z</time></trkpt><trkpt lat="37.983307" lon="15.027735"><ele>1258.0</ele><time>2026-05-03T10:09:24.757Z</time></trkpt><trkpt lat="37.9832331" lon="15.0276631"><ele>1257.0</ele><time>2026-05-03T10:09:26.758Z</time></trkpt><trkpt lat="37.9831362" lon="15.0275924"><ele>1256.0</ele><time>2026-05-03T10:09:28.758Z</time></trkpt><trkpt lat="37.9830933" lon="15.0275338"><ele>1255.0</ele><time>2026-05-03T10:09:29.759Z</time></trkpt><trkpt lat="37.9830148" lon="15.0274625"><ele>1254.0</ele><time>2026-05-03T10:09:31.758Z</time></trkpt><trkpt lat="37.9829392" lon="15.0273906"><ele>1253.0</ele><time>2026-05-03T10:09:32.759Z</time></trkpt><trkpt lat="37.9828625" lon="15.0273323"><ele>1253.0</ele><time>2026-05-03T10:09:33.758Z</time></trkpt><trkpt lat="37.9827635" lon="15.027264"><ele>1253.0</ele><time>2026-05-03T10:09:34.758Z</time></trkpt><trkpt lat="37.982685" lon="15.0271939"><ele>1253.0</ele><time>2026-05-03T10:09:35.758Z</time></trkpt><trkpt lat="37.9825783" lon="15.0270981"><ele>1253.0</ele><time>2026-05-03T10:09:36.758Z</time></trkpt><trkpt lat="37.9825173" lon="15.0270298"><ele>1253.0</ele><time>2026-05-03T10:09:37.759Z</time></trkpt><trkpt lat="37.9824523" lon="15.026973"><ele>1252.0</ele><time>2026-05-03T10:09:38.758Z</time></trkpt><trkpt lat="37.9823921" lon="15.0269243"><ele>1251.0</ele><time>2026-05-03T10:09:39.758Z</time></trkpt><trkpt lat="37.9824134" lon="15.0267748"><ele>1250.0</ele><time>2026-05-03T10:09:41.759Z</time></trkpt><trkpt lat="37.982427" lon="15.0266171"><ele>1249.0</ele><time>2026-05-03T10:09:43.757Z</time></trkpt><trkpt lat="37.9823894" lon="15.0264859"><ele>1248.0</ele><time>2026-05-03T10:09:44.759Z</time></trkpt><trkpt lat="37.9824198" lon="15.0263676"><ele>1246.8</ele><time>2026-05-03T10:09:45.758Z</time></trkpt><trkpt lat="37.9824294" lon="15.026245"><ele>1245.6</ele><time>2026-05-03T10:09:46.758Z</time></trkpt><trkpt lat="37.9823949" lon="15.0261135"><ele>1244.4</ele><time>2026-05-03T10:09:48.758Z</time></trkpt><trkpt lat="37.982374" lon="15.0259968"><ele>1243.2</ele><time>2026-05-03T10:09:50.758Z</time></trkpt><trkpt lat="37.9823412" lon="15.0259064"><ele>1242.0</ele><time>2026-05-03T10:09:51.758Z</time></trkpt><trkpt lat="37.982245" lon="15.0257884"><ele>1237.8</ele><time>2026-05-03T10:09:52.758Z</time></trkpt><trkpt lat="37.9821779" lon="15.0257106"><ele>1233.6</ele><time>2026-05-03T10:09:53.758Z</time></trkpt><trkpt lat="37.9821007" lon="15.0256275"><ele>1229.3999999999999</ele><time>2026-05-03T10:09:54.758Z</time></trkpt><trkpt lat="37.9820052" lon="15.025546"><ele>1225.2</ele><time>2026-05-03T10:09:55.758Z</time></trkpt><trkpt lat="37.9819152" lon="15.0254906"><ele>1221.0</ele><time>2026-05-03T10:09:56.759Z</time></trkpt><trkpt lat="37.9818339" lon="15.0254538"><ele>1221.0</ele><time>2026-05-03T10:09:57.758Z</time></trkpt><trkpt lat="37.9817453" lon="15.0254207"><ele>1221.0</ele><time>2026-05-03T10:09:58.758Z</time></trkpt><trkpt lat="37.9817044" lon="15.0255744"><ele>1221.0</ele><time>2026-05-03T10:09:59.758Z</time></trkpt><trkpt lat="37.9816369" lon="15.0256463"><ele>1221.0</ele><time>2026-05-03T10:10:00.758Z</time></trkpt><trkpt lat="37.9815555" lon="15.0257036"><ele>1221.0</ele><time>2026-05-03T10:10:01.758Z</time></trkpt><trkpt lat="37.9814619" lon="15.0257375"><ele>1219.25</ele><time>2026-05-03T10:10:02.759Z</time></trkpt><trkpt lat="37.9813605" lon="15.0257409"><ele>1217.5</ele><time>2026-05-03T10:10:03.758Z</time></trkpt><trkpt lat="37.9812523" lon="15.0257448"><ele>1215.75</ele><time>2026-05-03T10:10:04.758Z</time></trkpt><trkpt lat="37.981127" lon="15.0257104"><ele>1214.0</ele><time>2026-05-03T10:10:05.758Z</time></trkpt><trkpt lat="37.981013" lon="15.0256627"><ele>1214.0</ele><time>2026-05-03T10:10:06.758Z</time></trkpt><trkpt lat="37.9808685" lon="15.0255306"><ele>1214.0</ele><time>2026-05-03T10:10:07.759Z</time></trkpt><trkpt lat="37.9807837" lon="15.0253534"><ele>1214.0</ele><time>2026-05-03T10:10:08.758Z</time></trkpt><trkpt lat="37.9807116" lon="15.0251628"><ele>1217.0</ele><time>2026-05-03T10:10:09.758Z</time></trkpt><trkpt lat="37.9806048" lon="15.0250478"><ele>1220.0</ele><time>2026-05-03T10:10:10.759Z</time></trkpt><trkpt lat="37.9804517" lon="15.0249254"><ele>1223.0</ele><time>2026-05-03T10:10:11.758Z</time></trkpt><trkpt lat="37.9803405" lon="15.024816"><ele>1219.0</ele><time>2026-05-03T10:10:12.758Z</time></trkpt><trkpt lat="37.9802166" lon="15.0247404"><ele>1215.0</ele><time>2026-05-03T10:10:13.759Z</time></trkpt><trkpt lat="37.9801134" lon="15.0246482"><ele>1211.0</ele><time>2026-05-03T10:10:14.758Z</time></trkpt><trkpt lat="37.9799845" lon="15.0245792"><ele>1207.0</ele><time>2026-05-03T10:10:15.758Z</time></trkpt><trkpt lat="37.9798719" lon="15.0245136"><ele>1207.0</ele><time>2026-05-03T10:10:16.759Z</time></trkpt><trkpt lat="37.9797733" lon="15.0244612"><ele>1207.0</ele><time>2026-05-03T10:10:17.758Z</time></trkpt><trkpt lat="37.9796637" lon="15.0244233"><ele>1207.0</ele><time>2026-05-03T10:10:18.758Z</time></trkpt><trkpt lat="37.9795539" lon="15.0243924"><ele>1207.0</ele><time>2026-05-03T10:10:19.758Z</time></trkpt><trkpt lat="37.979441" lon="15.0243809"><ele>1207.0</ele><time>2026-05-03T10:10:20.758Z</time></trkpt><trkpt lat="37.9793193" lon="15.0243853"><ele>1207.0</ele><time>2026-05-03T10:10:21.758Z</time></trkpt><trkpt lat="37.9791903" lon="15.0243615"><ele>1207.0</ele><time>2026-05-03T10:10:22.758Z</time></trkpt><trkpt lat="37.9790758" lon="15.0243108"><ele>1207.0</ele><time>2026-05-03T10:10:23.759Z</time></trkpt><trkpt lat="37.9789464" lon="15.0242663"><ele>1207.0</ele><time>2026-05-03T10:10:24.758Z</time></trkpt><trkpt lat="37.9788113" lon="15.0241933"><ele>1201.25</ele><time>2026-05-03T10:10:25.758Z</time></trkpt><trkpt lat="37.9786862" lon="15.0241386"><ele>1195.5</ele><time>2026-05-03T10:10:26.758Z</time></trkpt><trkpt lat="37.9785802" lon="15.0240786"><ele>1189.75</ele><time>2026-05-03T10:10:27.758Z</time></trkpt><trkpt lat="37.9784662" lon="15.0240324"><ele>1184.0</ele><time>2026-05-03T10:10:28.758Z</time></trkpt><trkpt lat="37.9783737" lon="15.0239949"><ele>1185.6000000000001</ele><time>2026-05-03T10:10:29.758Z</time></trkpt><trkpt lat="37.978278" lon="15.0239479"><ele>1187.2</ele><time>2026-05-03T10:10:30.758Z</time></trkpt><trkpt lat="37.9781909" lon="15.0239081"><ele>1188.8000000000002</ele><time>2026-05-03T10:10:31.758Z</time></trkpt><trkpt lat="37.9780755" lon="15.0238445"><ele>1190.4</ele><time>2026-05-03T10:10:32.758Z</time></trkpt><trkpt lat="37.9779776" lon="15.0237864"><ele>1192.0</ele><time>2026-05-03T10:10:33.758Z</time></trkpt><trkpt lat="37.9778657" lon="15.0237052"><ele>1192.0</ele><time>2026-05-03T10:10:34.759Z</time></trkpt><trkpt lat="37.9777746" lon="15.0236398"><ele>1192.0</ele><time>2026-05-03T10:10:35.758Z</time></trkpt><trkpt lat="37.9776811" lon="15.0235624"><ele>1192.0</ele><time>2026-05-03T10:10:36.758Z</time></trkpt><trkpt lat="37.9775953" lon="15.0235069"><ele>1192.0</ele><time>2026-05-03T10:10:37.759Z</time></trkpt><trkpt lat="37.9775015" lon="15.0234609"><ele>1192.0</ele><time>2026-05-03T10:10:38.758Z</time></trkpt><trkpt lat="37.9774276" lon="15.0234248"><ele>1193.1666666666665</ele><time>2026-05-03T10:10:39.758Z</time></trkpt><trkpt lat="37.9773537" lon="15.0233918"><ele>1194.3333333333333</ele><time>2026-05-03T10:10:40.759Z</time></trkpt><trkpt lat="37.9772637" lon="15.023335"><ele>1195.5</ele><time>2026-05-03T10:10:42.759Z</time></trkpt><trkpt lat="37.9772163" lon="15.0232652"><ele>1196.6666666666667</ele><time>2026-05-03T10:10:58.759Z</time></trkpt><trkpt lat="37.9771547" lon="15.0232157"><ele>1197.8333333333335</ele><time>2026-05-03T10:11:01.759Z</time></trkpt><trkpt lat="37.9770885" lon="15.0231606"><ele>1199.0</ele><time>2026-05-03T10:11:04.759Z</time></trkpt><trkpt lat="37.9769641" lon="15.0231062"><ele>1196.1666666666667</ele><time>2026-05-03T10:11:06.759Z</time></trkpt><trkpt lat="37.9769014" lon="15.0230708"><ele>1193.3333333333335</ele><time>2026-05-03T10:11:07.759Z</time></trkpt><trkpt lat="37.9768252" lon="15.023031"><ele>1190.5</ele><time>2026-05-03T10:11:08.759Z</time></trkpt><trkpt lat="37.9767546" lon="15.0230145"><ele>1187.6666666666667</ele><time>2026-05-03T10:11:09.759Z</time></trkpt><trkpt lat="37.9766817" lon="15.0230133"><ele>1184.8333333333333</ele><time>2026-05-03T10:11:10.759Z</time></trkpt><trkpt lat="37.9765991" lon="15.0230084"><ele>1182.0</ele><time>2026-05-03T10:11:11.759Z</time></trkpt><trkpt lat="37.9765064" lon="15.0230011"><ele>1182.0</ele><time>2026-05-03T10:11:12.759Z</time></trkpt><trkpt lat="37.9764248" lon="15.0229786"><ele>1182.0</ele><time>2026-05-03T10:11:13.759Z</time></trkpt><trkpt lat="37.9763543" lon="15.0229697"><ele>1182.0</ele><time>2026-05-03T10:11:14.759Z</time></trkpt><trkpt lat="37.976278" lon="15.0229783"><ele>1182.0</ele><time>2026-05-03T10:11:15.759Z</time></trkpt><trkpt lat="37.9761848" lon="15.0230128"><ele>1182.0</ele><time>2026-05-03T10:11:16.759Z</time></trkpt><trkpt lat="37.9761021" lon="15.0230517"><ele>1182.0</ele><time>2026-05-03T10:11:17.759Z</time></trkpt><trkpt lat="37.9760245" lon="15.0230979"><ele>1182.0</ele><time>2026-05-03T10:11:18.759Z</time></trkpt><trkpt lat="37.9759428" lon="15.0231095"><ele>1182.0</ele><time>2026-05-03T10:11:20.76Z</time></trkpt><trkpt lat="37.9758756" lon="15.02315"><ele>1182.0</ele><time>2026-05-03T10:11:21.759Z</time></trkpt><trkpt lat="37.975789" lon="15.0232082"><ele>1182.0</ele><time>2026-05-03T10:11:22.759Z</time></trkpt><trkpt lat="37.9757078" lon="15.0232368"><ele>1182.0</ele><time>2026-05-03T10:11:23.759Z</time></trkpt><trkpt lat="37.9756301" lon="15.023281"><ele>1182.0</ele><time>2026-05-03T10:11:24.758Z</time></trkpt><trkpt lat="37.9755734" lon="15.0233605"><ele>1184.6</ele><time>2026-05-03T10:11:25.76Z</time></trkpt><trkpt lat="37.9755219" lon="15.0234126"><ele>1187.2</ele><time>2026-05-03T10:11:27.759Z</time></trkpt><trkpt lat="37.9754567" lon="15.0233909"><ele>1189.8</ele><time>2026-05-03T10:11:28.76Z</time></trkpt><trkpt lat="37.9753483" lon="15.0233559"><ele>1192.4</ele><time>2026-05-03T10:11:30.759Z</time></trkpt><trkpt lat="37.975241" lon="15.0233217"><ele>1195.0</ele><time>2026-05-03T10:11:32.759Z</time></trkpt><trkpt lat="37.9751425" lon="15.0233524"><ele>1195.0</ele><time>2026-05-03T10:11:33.759Z</time></trkpt><trkpt lat="37.9750636" lon="15.0233682"><ele>1195.0</ele><time>2026-05-03T10:11:34.759Z</time></trkpt><trkpt lat="37.9749566" lon="15.0234186"><ele>1195.0</ele><time>2026-05-03T10:11:36.759Z</time></trkpt><trkpt lat="37.9748401" lon="15.0234752"><ele>1195.0</ele><time>2026-05-03T10:11:38.76Z</time></trkpt><trkpt lat="37.9747746" lon="15.0235941"><ele>1195.0</ele><time>2026-05-03T10:11:40.759Z</time></trkpt><trkpt lat="37.9747425" lon="15.0237575"><ele>1194.1666666666665</ele><time>2026-05-03T10:11:42.759Z</time></trkpt><trkpt lat="37.9747307" lon="15.023845"><ele>1193.3333333333333</ele><time>2026-05-03T10:11:43.759Z</time></trkpt><trkpt lat="37.9747149" lon="15.023936"><ele>1192.5</ele><time>2026-05-03T10:11:44.76Z</time></trkpt><trkpt lat="37.974695" lon="15.0240349"><ele>1191.6666666666667</ele><time>2026-05-03T10:11:45.76Z</time></trkpt><trkpt lat="37.9746971" lon="15.0241332"><ele>1190.8333333333335</ele><time>2026-05-03T10:11:46.76Z</time></trkpt><trkpt lat="37.9746766" lon="15.0242185"><ele>1190.0</ele><time>2026-05-03T10:11:47.76Z</time></trkpt><trkpt lat="37.9745789" lon="15.0242682"><ele>1190.0</ele><time>2026-05-03T10:11:49.759Z</time></trkpt><trkpt lat="37.9744512" lon="15.0243284"><ele>1190.0</ele><time>2026-05-03T10:11:51.759Z</time></trkpt><trkpt lat="37.9743732" lon="15.0243501"><ele>1190.0</ele><time>2026-05-03T10:11:52.759Z</time></trkpt><trkpt lat="37.9742946" lon="15.0243797"><ele>1190.0</ele><time>2026-05-03T10:11:53.76Z</time></trkpt><trkpt lat="37.9741953" lon="15.0244147"><ele>1190.0</ele><time>2026-05-03T10:11:54.759Z</time></trkpt><trkpt lat="37.9740945" lon="15.0244278"><ele>1187.2</ele><time>2026-05-03T10:11:55.759Z</time></trkpt><trkpt lat="37.9740079" lon="15.0244368"><ele>1184.4</ele><time>2026-05-03T10:11:56.759Z</time></trkpt><trkpt lat="37.9739514" lon="15.0243974"><ele>1181.6</ele><time>2026-05-03T10:11:57.759Z</time></trkpt><trkpt lat="37.9738639" lon="15.0243877"><ele>1178.8</ele><time>2026-05-03T10:11:58.759Z</time></trkpt><trkpt lat="37.9737456" lon="15.0243912"><ele>1176.0</ele><time>2026-05-03T10:12:00.759Z</time></trkpt><trkpt lat="37.973604" lon="15.0243782"><ele>1176.0</ele><time>2026-05-03T10:12:02.759Z</time></trkpt><trkpt lat="37.9734966" lon="15.0243838"><ele>1176.0</ele><time>2026-05-03T10:12:03.759Z</time></trkpt><trkpt lat="37.9734146" lon="15.0244011"><ele>1176.0</ele><time>2026-05-03T10:12:04.759Z</time></trkpt><trkpt lat="37.9733253" lon="15.0243958"><ele>1176.0</ele><time>2026-05-03T10:12:05.759Z</time></trkpt><trkpt lat="37.9732313" lon="15.0243466"><ele>1176.0</ele><time>2026-05-03T10:12:06.759Z</time></trkpt><trkpt lat="37.9731358" lon="15.0242678"><ele>1175.6</ele><time>2026-05-03T10:12:07.759Z</time></trkpt><trkpt lat="37.9730383" lon="15.0242145"><ele>1175.1999999999998</ele><time>2026-05-03T10:12:08.759Z</time></trkpt><trkpt lat="37.972939" lon="15.0241609"><ele>1174.8000000000002</ele><time>2026-05-03T10:12:09.759Z</time></trkpt><trkpt lat="37.9728265" lon="15.0241255"><ele>1174.4</ele><time>2026-05-03T10:12:10.759Z</time></trkpt><trkpt lat="37.9727131" lon="15.0240958"><ele>1174.0</ele><time>2026-05-03T10:12:11.759Z</time></trkpt><trkpt lat="37.9726095" lon="15.0240586"><ele>1171.0</ele><time>2026-05-03T10:12:12.759Z</time></trkpt><trkpt lat="37.9725046" lon="15.0240279"><ele>1168.0</ele><time>2026-05-03T10:12:13.759Z</time></trkpt><trkpt lat="37.972392" lon="15.0240248"><ele>1165.0</ele><time>2026-05-03T10:12:14.759Z</time></trkpt><trkpt lat="37.9722941" lon="15.0240157"><ele>1162.0</ele><time>2026-05-03T10:12:15.759Z</time></trkpt><trkpt lat="37.9722086" lon="15.0239948"><ele>1159.0</ele><time>2026-05-03T10:12:16.76Z</time></trkpt><trkpt lat="37.9721387" lon="15.0239763"><ele>1159.0</ele><time>2026-05-03T10:12:17.759Z</time></trkpt><trkpt lat="37.9720332" lon="15.0239695"><ele>1159.0</ele><time>2026-05-03T10:12:19.759Z</time></trkpt><trkpt lat="37.9719715" lon="15.0239123"><ele>1159.0</ele><time>2026-05-03T10:12:21.759Z</time></trkpt><trkpt lat="37.9719223" lon="15.0237622"><ele>1159.0</ele><time>2026-05-03T10:12:23.759Z</time></trkpt><trkpt lat="37.9718927" lon="15.023666"><ele>1159.0</ele><time>2026-05-03T10:12:24.759Z</time></trkpt><trkpt lat="37.9718236" lon="15.0235634"><ele>1159.0</ele><time>2026-05-03T10:12:25.759Z</time></trkpt><trkpt lat="37.9717767" lon="15.0234585"><ele>1159.0</ele><time>2026-05-03T10:12:26.759Z</time></trkpt><trkpt lat="37.9717397" lon="15.0233392"><ele>1159.0</ele><time>2026-05-03T10:12:27.759Z</time></trkpt><trkpt lat="37.9717267" lon="15.0232414"><ele>1159.0</ele><time>2026-05-03T10:12:28.758Z</time></trkpt><trkpt lat="37.9716985" lon="15.0230953"><ele>1159.0</ele><time>2026-05-03T10:12:30.759Z</time></trkpt><trkpt lat="37.9716892" lon="15.0230128"><ele>1158.5</ele><time>2026-05-03T10:12:31.759Z</time></trkpt><trkpt lat="37.9716753" lon="15.022909"><ele>1158.0</ele><time>2026-05-03T10:12:32.759Z</time></trkpt><trkpt lat="37.9716716" lon="15.0227965"><ele>1157.5</ele><time>2026-05-03T10:12:33.759Z</time></trkpt><trkpt lat="37.9716618" lon="15.0226807"><ele>1157.0</ele><time>2026-05-03T10:12:34.759Z</time></trkpt><trkpt lat="37.971646" lon="15.0225717"><ele>1156.5</ele><time>2026-05-03T10:12:35.759Z</time></trkpt><trkpt lat="37.9716188" lon="15.0224663"><ele>1156.0</ele><time>2026-05-03T10:12:36.759Z</time></trkpt><trkpt lat="37.9715878" lon="15.022374"><ele>1152.5</ele><time>2026-05-03T10:12:37.759Z</time></trkpt><trkpt lat="37.9715621" lon="15.0222924"><ele>1149.0</ele><time>2026-05-03T10:12:38.759Z</time></trkpt><trkpt lat="37.9715273" lon="15.0222228"><ele>1145.5</ele><time>2026-05-03T10:12:39.758Z</time></trkpt><trkpt lat="37.9714449" lon="15.0221484"><ele>1142.0</ele><time>2026-05-03T10:12:41.759Z</time></trkpt><trkpt lat="37.9713741" lon="15.0221653"><ele>1138.5</ele><time>2026-05-03T10:12:42.759Z</time></trkpt><trkpt lat="37.9712865" lon="15.022226"><ele>1135.0</ele><time>2026-05-03T10:12:43.759Z</time></trkpt><trkpt lat="37.9712095" lon="15.0223198"><ele>1135.0</ele><time>2026-05-03T10:12:44.759Z</time></trkpt><trkpt lat="37.971138" lon="15.0224018"><ele>1135.0</ele><time>2026-05-03T10:12:45.759Z</time></trkpt><trkpt lat="37.9710583" lon="15.0224333"><ele>1135.0</ele><time>2026-05-03T10:12:46.759Z</time></trkpt><trkpt lat="37.9709678" lon="15.0224364"><ele>1135.0</ele><time>2026-05-03T10:12:47.76Z</time></trkpt><trkpt lat="37.9708889" lon="15.0224589"><ele>1135.0</ele><time>2026-05-03T10:12:48.759Z</time></trkpt><trkpt lat="37.9708412" lon="15.0225224"><ele>1135.0</ele><time>2026-05-03T10:12:49.759Z</time></trkpt><trkpt lat="37.9708146" lon="15.0226463"><ele>1139.2</ele><time>2026-05-03T10:12:51.759Z</time></trkpt><trkpt lat="37.9708818" lon="15.0227914"><ele>1143.4</ele><time>2026-05-03T10:12:53.76Z</time></trkpt><trkpt lat="37.9709232" lon="15.0228896"><ele>1147.6</ele><time>2026-05-03T10:12:54.759Z</time></trkpt><trkpt lat="37.9709526" lon="15.0230102"><ele>1151.8</ele><time>2026-05-03T10:12:55.759Z</time></trkpt><trkpt lat="37.97098" lon="15.0231414"><ele>1156.0</ele><time>2026-05-03T10:12:56.759Z</time></trkpt><trkpt lat="37.9710205" lon="15.0232744"><ele>1157.5</ele><time>2026-05-03T10:12:57.76Z</time></trkpt><trkpt lat="37.9710649" lon="15.0234027"><ele>1159.0</ele><time>2026-05-03T10:12:58.759Z</time></trkpt><trkpt lat="37.972392" lon="15.0240248"><ele>1159.0</ele><time>2026-05-03T10:12:14.759Z</time></trkpt><trkpt lat="37.9722941" lon="15.0240157"><ele>1159.0</ele><time>2026-05-03T10:12:15.759Z</time></trkpt><trkpt lat="37.9722086" lon="15.0239948"><ele>1159.0</ele><time>2026-05-03T10:12:16.76Z</time></trkpt><trkpt lat="37.9721387" lon="15.0239763"><ele>1159.0</ele><time>2026-05-03T10:12:17.759Z</time></trkpt><trkpt lat="37.9720332" lon="15.0239695"><ele>1159.0</ele><time>2026-05-03T10:12:19.759Z</time></trkpt><trkpt lat="37.9719715" lon="15.0239123"><ele>1159.0</ele><time>2026-05-03T10:12:21.759Z</time></trkpt><trkpt lat="37.9719223" lon="15.0237622"><ele>1159.0</ele><time>2026-05-03T10:12:23.759Z</time></trkpt><trkpt lat="37.9718927" lon="15.023666"><ele>1159.0</ele><time>2026-05-03T10:12:24.759Z</time></trkpt><trkpt lat="37.9718236" lon="15.0235634"><ele>1159.0</ele><time>2026-05-03T10:12:25.759Z</time></trkpt><trkpt lat="37.9717767" lon="15.0234585"><ele>1159.0</ele><time>2026-05-03T10:12:26.759Z</time></trkpt><trkpt lat="37.9717397" lon="15.0233392"><ele>1159.0</ele><time>2026-05-03T10:12:27.759Z</time></trkpt><trkpt lat="37.9717267" lon="15.0232414"><ele>1158.5</ele><time>2026-05-03T10:12:28.758Z</time></trkpt><trkpt lat="37.9716985" lon="15.0230953"><ele>1158.0</ele><time>2026-05-03T10:12:30.759Z</time></trkpt><trkpt lat="37.9716892" lon="15.0230128"><ele>1157.5</ele><time>2026-05-03T10:12:31.759Z</time></trkpt><trkpt lat="37.9716753" lon="15.022909"><ele>1157.0</ele><time>2026-05-03T10:12:32.759Z</time></trkpt><trkpt lat="37.9716716" lon="15.0227965"><ele>1156.5</ele><time>2026-05-03T10:12:33.759Z</time></trkpt><trkpt lat="37.9716618" lon="15.0226807"><ele>1156.0</ele><time>2026-05-03T10:12:34.759Z</time></trkpt><trkpt lat="37.971646" lon="15.0225717"><ele>1152.5</ele><time>2026-05-03T10:12:35.759Z</time></trkpt><trkpt lat="37.9716188" lon="15.0224663"><ele>1149.0</ele><time>2026-05-03T10:12:36.759Z</time></trkpt><trkpt lat="37.9715878" lon="15.022374"><ele>1145.5</ele><time>2026-05-03T10:12:37.759Z</time></trkpt><trkpt lat="37.9715621" lon="15.0222924"><ele>1142.0</ele><time>2026-05-03T10:12:38.759Z</time></trkpt><trkpt lat="37.9715273" lon="15.0222228"><ele>1138.5</ele><time>2026-05-03T10:12:39.758Z</time></trkpt><trkpt lat="37.9714449" lon="15.0221484"><ele>1135.0</ele><time>2026-05-03T10:12:41.759Z</time></trkpt><trkpt lat="37.9713741" lon="15.0221653"><ele>1135.0</ele><time>2026-05-03T10:12:42.759Z</time></trkpt><trkpt lat="37.9712865" lon="15.022226"><ele>1135.0</ele><time>2026-05-03T10:12:43.759Z</time></trkpt><trkpt lat="37.9712095" lon="15.0223198"><ele>1135.0</ele><time>2026-05-03T10:12:44.759Z</time></trkpt><trkpt lat="37.971138" lon="15.0224018"><ele>1135.0</ele><time>2026-05-03T10:12:45.759Z</time></trkpt><trkpt lat="37.9710583" lon="15.0224333"><ele>1135.0</ele><time>2026-05-03T10:12:46.759Z</time></trkpt><trkpt lat="37.9709678" lon="15.0224364"><ele>1135.0</ele><time>2026-05-03T10:12:47.76Z</time></trkpt><trkpt lat="37.9708889" lon="15.0224589"><ele>1135.0</ele><time>2026-05-03T10:12:48.759Z</time></trkpt><trkpt lat="37.9708412" lon="15.0225224"><ele>1135.0</ele><time>2026-05-03T10:12:49.759Z</time></trkpt><trkpt lat="37.9708146" lon="15.0226463"><ele>1135.0</ele><time>2026-05-03T10:12:51.759Z</time></trkpt><trkpt lat="37.9708818" lon="15.0227914"><ele>1135.0</ele><time>2026-05-03T10:12:53.76Z</time></trkpt><trkpt lat="37.9709232" lon="15.0228896"><ele>1139.2</ele><time>2026-05-03T10:12:54.759Z</time></trkpt><trkpt lat="37.9709526" lon="15.0230102"><ele>1143.4</ele><time>2026-05-03T10:12:55.759Z</time></trkpt><trkpt lat="37.97098" lon="15.0231414"><ele>1147.6</ele><time>2026-05-03T10:12:56.759Z</time></trkpt><trkpt lat="37.9710205" lon="15.0232744"><ele>1151.8</ele><time>2026-05-03T10:12:57.76Z</time></trkpt><trkpt lat="37.9710649" lon="15.0234027"><ele>1156.0</ele><time>2026-05-03T10:12:58.759Z</time></trkpt><trkpt lat="37.971091" lon="15.0234991"><ele>1158.0</ele><time>2026-05-03T10:12:59.759Z</time></trkpt><trkpt lat="37.9710576" lon="15.0236103"><ele>1160.0</ele><time>2026-05-03T10:13:01.759Z</time></trkpt><trkpt lat="37.9710048" lon="15.023659"><ele>1162.0</ele><time>2026-05-03T10:13:03.759Z</time></trkpt><trkpt lat="37.9709396" lon="15.0236661"><ele>1164.0</ele><time>2026-05-03T10:13:06.759Z</time></trkpt><trkpt lat="37.9708643" lon="15.0236444"><ele>1166.0</ele><time>2026-05-03T10:13:08.759Z</time></trkpt><trkpt lat="37.9707761" lon="15.0236241"><ele>1168.0</ele><time>2026-05-03T10:13:10.759Z</time></trkpt><trkpt lat="37.9706781" lon="15.023602"><ele>1168.1666666666665</ele><time>2026-05-03T10:13:12.759Z</time></trkpt><trkpt lat="37.9706088" lon="15.0235824"><ele>1168.3333333333333</ele><time>2026-05-03T10:13:13.759Z</time></trkpt><trkpt lat="37.970526" lon="15.0235711"><ele>1168.5</ele><time>2026-05-03T10:13:14.759Z</time></trkpt><trkpt lat="37.9704334" lon="15.023568"><ele>1168.6666666666667</ele><time>2026-05-03T10:13:15.76Z</time></trkpt><trkpt lat="37.9703478" lon="15.0235635"><ele>1168.8333333333335</ele><time>2026-05-03T10:13:16.759Z</time></trkpt><trkpt lat="37.9702697" lon="15.0235587"><ele>1169.0</ele><time>2026-05-03T10:13:17.759Z</time></trkpt><trkpt lat="37.9701991" lon="15.0235632"><ele>1169.0</ele><time>2026-05-03T10:13:18.759Z</time></trkpt><trkpt lat="37.9700911" lon="15.0235668"><ele>1169.0</ele><time>2026-05-03T10:13:20.759Z</time></trkpt><trkpt lat="37.9700056" lon="15.0235971"><ele>1169.0</ele><time>2026-05-03T10:13:23.76Z</time></trkpt><trkpt lat="37.9699158" lon="15.0235501"><ele>1169.0</ele><time>2026-05-03T10:13:25.759Z</time></trkpt><trkpt lat="37.9698347" lon="15.0234703"><ele>1169.0</ele><time>2026-05-03T10:13:27.759Z</time></trkpt><trkpt lat="37.9697276" lon="15.0234193"><ele>1169.5</ele><time>2026-05-03T10:13:29.759Z</time></trkpt><trkpt lat="37.9696555" lon="15.0234123"><ele>1170.0</ele><time>2026-05-03T10:13:30.759Z</time></trkpt><trkpt lat="37.9695729" lon="15.0234141"><ele>1170.5</ele><time>2026-05-03T10:13:31.759Z</time></trkpt><trkpt lat="37.9694927" lon="15.0234279"><ele>1171.0</ele><time>2026-05-03T10:13:32.759Z</time></trkpt><trkpt lat="37.9694124" lon="15.0234172"><ele>1171.5</ele><time>2026-05-03T10:13:33.759Z</time></trkpt><trkpt lat="37.9693293" lon="15.0233938"><ele>1172.0</ele><time>2026-05-03T10:13:34.759Z</time></trkpt><trkpt lat="37.9692452" lon="15.0234222"><ele>1174.0</ele><time>2026-05-03T10:13:35.759Z</time></trkpt><trkpt lat="37.9691504" lon="15.0234493"><ele>1176.0</ele><time>2026-05-03T10:13:36.759Z</time></trkpt><trkpt lat="37.969036" lon="15.023443"><ele>1178.0</ele><time>2026-05-03T10:13:37.759Z</time></trkpt><trkpt lat="37.9689051" lon="15.0234366"><ele>1180.0</ele><time>2026-05-03T10:13:38.759Z</time></trkpt><trkpt lat="37.9687667" lon="15.0234295"><ele>1180.0</ele><time>2026-05-03T10:13:39.759Z</time></trkpt><trkpt lat="37.9686455" lon="15.0234203"><ele>1180.0</ele><time>2026-05-03T10:13:40.76Z</time></trkpt><trkpt lat="37.9685488" lon="15.0234003"><ele>1180.0</ele><time>2026-05-03T10:13:41.759Z</time></trkpt><trkpt lat="37.9684727" lon="15.0233712"><ele>1180.0</ele><time>2026-05-03T10:13:42.759Z</time></trkpt><trkpt lat="37.9684135" lon="15.0233341"><ele>1180.0</ele><time>2026-05-03T10:13:43.76Z</time></trkpt><trkpt lat="37.9683429" lon="15.0232811"><ele>1180.0</ele><time>2026-05-03T10:13:45.759Z</time></trkpt><trkpt lat="37.9682762" lon="15.0232832"><ele>1181.0</ele><time>2026-05-03T10:13:50.76Z</time></trkpt><trkpt lat="37.9681984" lon="15.0232681"><ele>1182.0</ele><time>2026-05-03T10:13:52.76Z</time></trkpt><trkpt lat="37.9679811" lon="15.0232517"><ele>1183.0</ele><time>2026-05-03T10:13:56.672Z</time></trkpt><trkpt lat="37.9678682" lon="15.0232961"><ele>1184.0</ele><time>2026-05-03T10:13:57.76Z</time></trkpt><trkpt lat="37.9677343" lon="15.0233451"><ele>1184.0</ele><time>2026-05-03T10:13:59.76Z</time></trkpt><trkpt lat="37.9676534" lon="15.0233872"><ele>1184.0</ele><time>2026-05-03T10:14:00.758Z</time></trkpt><trkpt lat="37.9675505" lon="15.0234257"><ele>1184.0</ele><time>2026-05-03T10:14:01.759Z</time></trkpt><trkpt lat="37.9674468" lon="15.0234657"><ele>1184.0</ele><time>2026-05-03T10:14:02.759Z</time></trkpt><trkpt lat="37.9673541" lon="15.0235037"><ele>1184.0</ele><time>2026-05-03T10:14:03.76Z</time></trkpt><trkpt lat="37.9672603" lon="15.0235325"><ele>1184.0</ele><time>2026-05-03T10:14:04.76Z</time></trkpt><trkpt lat="37.967172" lon="15.023573"><ele>1184.0</ele><time>2026-05-03T10:14:05.759Z</time></trkpt><trkpt lat="37.9670967" lon="15.0236175"><ele>1184.0</ele><time>2026-05-03T10:14:06.759Z</time></trkpt><trkpt lat="37.9670309" lon="15.0236458"><ele>1184.0</ele><time>2026-05-03T10:14:07.76Z</time></trkpt><trkpt lat="37.9669631" lon="15.0236741"><ele>1184.0</ele><time>2026-05-03T10:14:08.76Z</time></trkpt><trkpt lat="37.9668616" lon="15.0237449"><ele>1184.0</ele><time>2026-05-03T10:14:10.76Z</time></trkpt><trkpt lat="37.9667475" lon="15.0238225"><ele>1183.0</ele><time>2026-05-03T10:14:12.76Z</time></trkpt><trkpt lat="37.9666593" lon="15.0238687"><ele>1182.0</ele><time>2026-05-03T10:14:13.759Z</time></trkpt><trkpt lat="37.9665724" lon="15.0239021"><ele>1181.0</ele><time>2026-05-03T10:14:14.759Z</time></trkpt><trkpt lat="37.9664871" lon="15.02392"><ele>1180.0</ele><time>2026-05-03T10:14:15.759Z</time></trkpt><trkpt lat="37.9663983" lon="15.0239366"><ele>1179.0</ele><time>2026-05-03T10:14:16.759Z</time></trkpt><trkpt lat="37.9663291" lon="15.023959"><ele>1178.0</ele><time>2026-05-03T10:14:17.759Z</time></trkpt><trkpt lat="37.9661988" lon="15.0239556"><ele>1178.0</ele><time>2026-05-03T10:14:18.759Z</time></trkpt><trkpt lat="37.9660783" lon="15.0239654"><ele>1178.0</ele><time>2026-05-03T10:14:19.759Z</time></trkpt><trkpt lat="37.965949" lon="15.0239655"><ele>1178.0</ele><time>2026-05-03T10:14:20.76Z</time></trkpt><trkpt lat="37.9658171" lon="15.0239585"><ele>1178.0</ele><time>2026-05-03T10:14:21.759Z</time></trkpt><trkpt lat="37.9656996" lon="15.0239603"><ele>1177.8</ele><time>2026-05-03T10:14:22.759Z</time></trkpt><trkpt lat="37.9655941" lon="15.0239618"><ele>1177.6</ele><time>2026-05-03T10:14:23.759Z</time></trkpt><trkpt lat="37.9654935" lon="15.0239687"><ele>1177.4</ele><time>2026-05-03T10:14:24.759Z</time></trkpt><trkpt lat="37.9654015" lon="15.0239847"><ele>1177.2</ele><time>2026-05-03T10:14:25.759Z</time></trkpt><trkpt lat="37.9653135" lon="15.0240005"><ele>1177.0</ele><time>2026-05-03T10:14:26.76Z</time></trkpt><trkpt lat="37.96523" lon="15.0240214"><ele>1177.0</ele><time>2026-05-03T10:14:27.758Z</time></trkpt><trkpt lat="37.965154" lon="15.0240377"><ele>1177.0</ele><time>2026-05-03T10:14:28.759Z</time></trkpt><trkpt lat="37.9650761" lon="15.024047"><ele>1177.0</ele><time>2026-05-03T10:14:29.759Z</time></trkpt><trkpt lat="37.9650033" lon="15.0240542"><ele>1177.0</ele><time>2026-05-03T10:14:30.76Z</time></trkpt><trkpt lat="37.9649343" lon="15.0240657"><ele>1177.0</ele><time>2026-05-03T10:14:31.759Z</time></trkpt><trkpt lat="37.9648598" lon="15.0240825"><ele>1177.0</ele><time>2026-05-03T10:14:32.759Z</time></trkpt><trkpt lat="37.9647839" lon="15.0241054"><ele>1179.5</ele><time>2026-05-03T10:14:33.759Z</time></trkpt><trkpt lat="37.9647115" lon="15.0241475"><ele>1182.0</ele><time>2026-05-03T10:14:34.759Z</time></trkpt><trkpt lat="37.9646393" lon="15.0241874"><ele>1184.5</ele><time>2026-05-03T10:14:35.759Z</time></trkpt><trkpt lat="37.964562" lon="15.0242194"><ele>1187.0</ele><time>2026-05-03T10:14:36.759Z</time></trkpt><trkpt lat="37.9644877" lon="15.024265"><ele>1189.5</ele><time>2026-05-03T10:14:37.76Z</time></trkpt><trkpt lat="37.9644146" lon="15.0243164"><ele>1192.0</ele><time>2026-05-03T10:14:38.759Z</time></trkpt><trkpt lat="37.9643502" lon="15.0243843"><ele>1192.0</ele><time>2026-05-03T10:14:39.759Z</time></trkpt><trkpt lat="37.964289" lon="15.0244776"><ele>1192.0</ele><time>2026-05-03T10:14:40.759Z</time></trkpt><trkpt lat="37.9642335" lon="15.0245847"><ele>1192.0</ele><time>2026-05-03T10:14:41.759Z</time></trkpt><trkpt lat="37.9641767" lon="15.0246877"><ele>1192.0</ele><time>2026-05-03T10:14:42.759Z</time></trkpt><trkpt lat="37.9640965" lon="15.0247651"><ele>1192.0</ele><time>2026-05-03T10:14:43.759Z</time></trkpt><trkpt lat="37.9639905" lon="15.0248026"><ele>1192.2</ele><time>2026-05-03T10:14:44.759Z</time></trkpt><trkpt lat="37.9638735" lon="15.0248212"><ele>1192.4</ele><time>2026-05-03T10:14:45.76Z</time></trkpt><trkpt lat="37.963761" lon="15.0248523"><ele>1192.6</ele><time>2026-05-03T10:14:46.759Z</time></trkpt><trkpt lat="37.9636529" lon="15.02488"><ele>1192.8</ele><time>2026-05-03T10:14:47.759Z</time></trkpt><trkpt lat="37.9635667" lon="15.0248997"><ele>1193.0</ele><time>2026-05-03T10:14:48.759Z</time></trkpt><trkpt lat="37.9635018" lon="15.0249212"><ele>1192.9999999999998</ele><time>2026-05-03T10:14:49.759Z</time></trkpt><trkpt lat="37.9634346" lon="15.0249631"><ele>1193.0</ele><time>2026-05-03T10:14:51.76Z</time></trkpt><trkpt lat="37.9634312" lon="15.025059"><ele>1193.0</ele><time>2026-05-03T10:14:59.76Z</time></trkpt><trkpt lat="37.963471" lon="15.0251238"><ele>1193.0</ele><time>2026-05-03T10:15:02.759Z</time></trkpt><trkpt lat="37.9635285" lon="15.0251846"><ele>1193.0</ele><time>2026-05-03T10:15:11.76Z</time></trkpt><trkpt lat="37.9635738" lon="15.0252567"><ele>1192.9999999999998</ele><time>2026-05-03T10:15:15.761Z</time></trkpt><trkpt lat="37.9636116" lon="15.0253265"><ele>1193.0</ele><time>2026-05-03T10:15:20.759Z</time></trkpt><trkpt lat="37.9636231" lon="15.0254164"><ele>1193.7142857142856</ele><time>2026-05-03T10:15:24.76Z</time></trkpt><trkpt lat="37.9636541" lon="15.0254909"><ele>1194.4285714285713</ele><time>2026-05-03T10:15:29.76Z</time></trkpt><trkpt lat="37.9636849" lon="15.0255663"><ele>1195.142857142857</ele><time>2026-05-03T10:15:32.76Z</time></trkpt><trkpt lat="37.9637117" lon="15.0256442"><ele>1195.8571428571427</ele><time>2026-05-03T10:15:35.76Z</time></trkpt><trkpt lat="37.9637347" lon="15.0257196"><ele>1196.5714285714284</ele><time>2026-05-03T10:15:38.76Z</time></trkpt><trkpt lat="37.9637652" lon="15.0258121"><ele>1197.2857142857142</ele><time>2026-05-03T10:15:41.761Z</time></trkpt><trkpt lat="37.9637922" lon="15.0258983"><ele>1198.0</ele><time>2026-05-03T10:15:44.761Z</time></trkpt><trkpt lat="37.9638191" lon="15.0259909"><ele>1198.0</ele><time>2026-05-03T10:15:47.761Z</time></trkpt><trkpt lat="37.9638479" lon="15.0260894"><ele>1198.0</ele><time>2026-05-03T10:15:50.76Z</time></trkpt><trkpt lat="37.9638868" lon="15.0262097"><ele>1198.0</ele><time>2026-05-03T10:15:53.76Z</time></trkpt><trkpt lat="37.9639048" lon="15.0263159"><ele>1198.0</ele><time>2026-05-03T10:15:55.761Z</time></trkpt><trkpt lat="37.9639194" lon="15.026417"><ele>1198.0</ele><time>2026-05-03T10:15:57.76Z</time></trkpt><trkpt lat="37.9639338" lon="15.0265498"><ele>1198.0</ele><time>2026-05-03T10:15:59.76Z</time></trkpt><trkpt lat="37.9639439" lon="15.0266371"><ele>1198.0</ele><time>2026-05-03T10:16:00.761Z</time></trkpt><trkpt lat="37.9639502" lon="15.0267189"><ele>1198.0</ele><time>2026-05-03T10:16:01.76Z</time></trkpt><trkpt lat="37.9639576" lon="15.0268066"><ele>1198.0</ele><time>2026-05-03T10:16:02.76Z</time></trkpt><trkpt lat="37.9639699" lon="15.0269059"><ele>1198.0</ele><time>2026-05-03T10:16:03.761Z</time></trkpt><trkpt lat="37.9639799" lon="15.0269994"><ele>1198.0</ele><time>2026-05-03T10:16:04.761Z</time></trkpt><trkpt lat="37.9639764" lon="15.0270835"><ele>1198.0</ele><time>2026-05-03T10:16:05.759Z</time></trkpt><trkpt lat="37.9640039" lon="15.0272069"><ele>1195.1666666666665</ele><time>2026-05-03T10:16:07.76Z</time></trkpt><trkpt lat="37.9640788" lon="15.0272594"><ele>1192.3333333333333</ele><time>2026-05-03T10:16:09.76Z</time></trkpt><trkpt lat="37.9641703" lon="15.0272285"><ele>1189.5</ele><time>2026-05-03T10:16:11.76Z</time></trkpt><trkpt lat="37.9642703" lon="15.0271573"><ele>1186.6666666666667</ele><time>2026-05-03T10:16:13.76Z</time></trkpt><trkpt lat="37.964329" lon="15.0271212"><ele>1183.8333333333335</ele><time>2026-05-03T10:16:14.76Z</time></trkpt><trkpt lat="37.9643899" lon="15.0270812"><ele>1181.0</ele><time>2026-05-03T10:16:15.76Z</time></trkpt><trkpt lat="37.9643938" lon="15.026936"><ele>1181.5</ele><time>2026-05-03T10:16:16.76Z</time></trkpt><trkpt lat="37.9644212" lon="15.0268309"><ele>1182.0</ele><time>2026-05-03T10:16:17.76Z</time></trkpt><trkpt lat="37.9644492" lon="15.0267205"><ele>1182.5</ele><time>2026-05-03T10:16:18.76Z</time></trkpt><trkpt lat="37.9644667" lon="15.0266021"><ele>1183.0</ele><time>2026-05-03T10:16:19.761Z</time></trkpt><trkpt lat="37.9644992" lon="15.026511"><ele>1183.5</ele><time>2026-05-03T10:16:20.76Z</time></trkpt><trkpt lat="37.9645253" lon="15.0264139"><ele>1184.0</ele><time>2026-05-03T10:16:21.76Z</time></trkpt><trkpt lat="37.9645016" lon="15.0263098"><ele>1184.0</ele><time>2026-05-03T10:16:22.76Z</time></trkpt><trkpt lat="37.964536" lon="15.0262208"><ele>1184.0</ele><time>2026-05-03T10:16:23.76Z</time></trkpt><trkpt lat="37.9645877" lon="15.0261583"><ele>1184.0</ele><time>2026-05-03T10:16:24.761Z</time></trkpt><trkpt lat="37.9646527" lon="15.026139"><ele>1184.0</ele><time>2026-05-03T10:16:25.76Z</time></trkpt><trkpt lat="37.9647232" lon="15.0261231"><ele>1184.0</ele><time>2026-05-03T10:16:26.76Z</time></trkpt><trkpt lat="37.9648317" lon="15.0260831"><ele>1184.0</ele><time>2026-05-03T10:16:28.76Z</time></trkpt><trkpt lat="37.9649232" lon="15.0259894"><ele>1184.0</ele><time>2026-05-03T10:16:30.76Z</time></trkpt><trkpt lat="37.9649693" lon="15.0259327"><ele>1184.0</ele><time>2026-05-03T10:16:31.76Z</time></trkpt><trkpt lat="37.9650716" lon="15.0258464"><ele>1184.0</ele><time>2026-05-03T10:16:33.761Z</time></trkpt><trkpt lat="37.9651243" lon="15.0258017"><ele>1184.0</ele><time>2026-05-03T10:16:34.76Z</time></trkpt><trkpt lat="37.9651846" lon="15.0257515"><ele>1184.0</ele><time>2026-05-03T10:16:35.76Z</time></trkpt><trkpt lat="37.9652472" lon="15.0256816"><ele>1184.0</ele><time>2026-05-03T10:16:36.761Z</time></trkpt><trkpt lat="37.9653033" lon="15.0256097"><ele>1182.8333333333335</ele><time>2026-05-03T10:16:37.76Z</time></trkpt><trkpt lat="37.9653515" lon="15.0255213"><ele>1181.6666666666667</ele><time>2026-05-03T10:16:38.76Z</time></trkpt><trkpt lat="37.9653852" lon="15.0254414"><ele>1180.5</ele><time>2026-05-03T10:16:39.76Z</time></trkpt><trkpt lat="37.9653971" lon="15.0253458"><ele>1179.3333333333333</ele><time>2026-05-03T10:16:40.76Z</time></trkpt><trkpt lat="37.9654238" lon="15.0252491"><ele>1178.1666666666665</ele><time>2026-05-03T10:16:41.76Z</time></trkpt><trkpt lat="37.9654511" lon="15.0251424"><ele>1177.0</ele><time>2026-05-03T10:16:42.76Z</time></trkpt><trkpt lat="37.9654804" lon="15.025034"><ele>1177.6666666666665</ele><time>2026-05-03T10:16:43.76Z</time></trkpt><trkpt lat="37.9654924" lon="15.0249348"><ele>1178.3333333333333</ele><time>2026-05-03T10:16:44.76Z</time></trkpt><trkpt lat="37.9655104" lon="15.0248398"><ele>1179.0</ele><time>2026-05-03T10:16:45.76Z</time></trkpt><trkpt lat="37.9655564" lon="15.024785"><ele>1179.6666666666667</ele><time>2026-05-03T10:16:46.761Z</time></trkpt><trkpt lat="37.9656204" lon="15.0247244"><ele>1180.3333333333335</ele><time>2026-05-03T10:16:48.76Z</time></trkpt><trkpt lat="37.9656944" lon="15.0246937"><ele>1181.0</ele><time>2026-05-03T10:16:50.759Z</time></trkpt><trkpt lat="37.9657672" lon="15.0246677"><ele>1181.0</ele><time>2026-05-03T10:16:52.76Z</time></trkpt><trkpt lat="37.9658366" lon="15.0246435"><ele>1181.0</ele><time>2026-05-03T10:16:54.76Z</time></trkpt><trkpt lat="37.9659123" lon="15.0246431"><ele>1181.0</ele><time>2026-05-03T10:16:57.761Z</time></trkpt><trkpt lat="37.96598" lon="15.0245723"><ele>1181.0</ele><time>2026-05-03T10:17:00.76Z</time></trkpt><trkpt lat="37.9660365" lon="15.0244938"><ele>1181.0</ele><time>2026-05-03T10:17:02.759Z</time></trkpt><trkpt lat="37.9660993" lon="15.024408"><ele>1181.0</ele><time>2026-05-03T10:17:04.76Z</time></trkpt><trkpt lat="37.9661705" lon="15.024395"><ele>1180.6</ele><time>2026-05-03T10:17:05.76Z</time></trkpt><trkpt lat="37.9662705" lon="15.0244298"><ele>1180.1999999999998</ele><time>2026-05-03T10:17:06.76Z</time></trkpt><trkpt lat="37.9663509" lon="15.0244414"><ele>1179.8000000000002</ele><time>2026-05-03T10:17:07.761Z</time></trkpt><trkpt lat="37.966442" lon="15.0244961"><ele>1179.4</ele><time>2026-05-03T10:17:09.76Z</time></trkpt><trkpt lat="37.9665044" lon="15.0245725"><ele>1179.0</ele><time>2026-05-03T10:17:11.76Z</time></trkpt><trkpt lat="37.9666022" lon="15.0246437"><ele>1179.0</ele><time>2026-05-03T10:17:13.759Z</time></trkpt><trkpt lat="37.9666855" lon="15.0246693"><ele>1179.0</ele><time>2026-05-03T10:17:15.76Z</time></trkpt><trkpt lat="37.9667556" lon="15.0246881"><ele>1179.0</ele><time>2026-05-03T10:17:17.76Z</time></trkpt><trkpt lat="37.9668193" lon="15.0246361"><ele>1179.0</ele><time>2026-05-03T10:17:20.761Z</time></trkpt><trkpt lat="37.9668487" lon="15.0245557"><ele>1179.0</ele><time>2026-05-03T10:17:23.76Z</time></trkpt><trkpt lat="37.9668758" lon="15.0244757"><ele>1179.0</ele><time>2026-05-03T10:17:25.76Z</time></trkpt><trkpt lat="37.9669534" lon="15.0244361"><ele>1178.9999999999998</ele><time>2026-05-03T10:17:28.76Z</time></trkpt><trkpt lat="37.9670174" lon="15.0244014"><ele>1179.0</ele><time>2026-05-03T10:17:34.76Z</time></trkpt><trkpt lat="37.9670835" lon="15.0243688"><ele>1179.0</ele><time>2026-05-03T10:17:38.76Z</time></trkpt><trkpt lat="37.96715" lon="15.024333"><ele>1179.0</ele><time>2026-05-03T10:17:40.76Z</time></trkpt><trkpt lat="37.9672472" lon="15.0242817"><ele>1179.0</ele><time>2026-05-03T10:17:42.76Z</time></trkpt><trkpt lat="37.9673093" lon="15.0242665"><ele>1178.9999999999998</ele><time>2026-05-03T10:17:43.761Z</time></trkpt><trkpt lat="37.9673755" lon="15.0242569"><ele>1179.0</ele><time>2026-05-03T10:17:44.76Z</time></trkpt><trkpt lat="37.9674635" lon="15.0242581"><ele>1180.5</ele><time>2026-05-03T10:17:45.761Z</time></trkpt><trkpt lat="37.9675444" lon="15.0242593"><ele>1182.0</ele><time>2026-05-03T10:17:46.76Z</time></trkpt><trkpt lat="37.9676199" lon="15.0242893"><ele>1183.5</ele><time>2026-05-03T10:17:47.76Z</time></trkpt><trkpt lat="37.9677052" lon="15.0243257"><ele>1185.0</ele><time>2026-05-03T10:17:48.759Z</time></trkpt><trkpt lat="37.9677832" lon="15.0243557"><ele>1186.5</ele><time>2026-05-03T10:17:49.761Z</time></trkpt><trkpt lat="37.9678658" lon="15.024398"><ele>1188.0</ele><time>2026-05-03T10:17:50.76Z</time></trkpt><trkpt lat="37.9679469" lon="15.0244477"><ele>1188.0</ele><time>2026-05-03T10:17:51.761Z</time></trkpt><trkpt lat="37.9680646" lon="15.0245246"><ele>1188.0</ele><time>2026-05-03T10:17:53.761Z</time></trkpt><trkpt lat="37.9681327" lon="15.0245432"><ele>1188.0</ele><time>2026-05-03T10:17:54.76Z</time></trkpt><trkpt lat="37.9681965" lon="15.02458"><ele>1188.0</ele><time>2026-05-03T10:17:55.76Z</time></trkpt><trkpt lat="37.9682491" lon="15.0246337"><ele>1188.0</ele><time>2026-05-03T10:17:56.76Z</time></trkpt><trkpt lat="37.9683172" lon="15.0246912"><ele>1188.0</ele><time>2026-05-03T10:17:57.76Z</time></trkpt><trkpt lat="37.9683882" lon="15.024739"><ele>1187.8333333333333</ele><time>2026-05-03T10:17:58.76Z</time></trkpt><trkpt lat="37.968461" lon="15.0247594"><ele>1187.6666666666667</ele><time>2026-05-03T10:17:59.76Z</time></trkpt><trkpt lat="37.9685334" lon="15.0248136"><ele>1187.5</ele><time>2026-05-03T10:18:01.76Z</time></trkpt><trkpt lat="37.9685997" lon="15.0248556"><ele>1187.3333333333335</ele><time>2026-05-03T10:18:03.76Z</time></trkpt><trkpt lat="37.9686962" lon="15.0248975"><ele>1187.1666666666667</ele><time>2026-05-03T10:18:05.76Z</time></trkpt><trkpt lat="37.9687965" lon="15.0249247"><ele>1187.0</ele><time>2026-05-03T10:18:07.76Z</time></trkpt><trkpt lat="37.9689178" lon="15.0249663"><ele>1183.8</ele><time>2026-05-03T10:18:09.76Z</time></trkpt><trkpt lat="37.9690392" lon="15.0250095"><ele>1180.6</ele><time>2026-05-03T10:18:11.76Z</time></trkpt><trkpt lat="37.9691548" lon="15.0250418"><ele>1177.3999999999999</ele><time>2026-05-03T10:18:14.76Z</time></trkpt><trkpt lat="37.9692457" lon="15.0250744"><ele>1174.2</ele><time>2026-05-03T10:18:17.76Z</time></trkpt><trkpt lat="37.9693248" lon="15.0250533"><ele>1171.0</ele><time>2026-05-03T10:18:19.76Z</time></trkpt><trkpt lat="37.9694081" lon="15.0250174"><ele>1170.3999999999999</ele><time>2026-05-03T10:18:21.76Z</time></trkpt><trkpt lat="37.9694992" lon="15.0249829"><ele>1169.8</ele><time>2026-05-03T10:18:23.76Z</time></trkpt><trkpt lat="37.9695872" lon="15.0249404"><ele>1169.1999999999998</ele><time>2026-05-03T10:18:25.76Z</time></trkpt><trkpt lat="37.9696923" lon="15.0249426"><ele>1168.6</ele><time>2026-05-03T10:18:27.76Z</time></trkpt><trkpt lat="37.9698061" lon="15.0248973"><ele>1168.0</ele><time>2026-05-03T10:18:29.76Z</time></trkpt><trkpt lat="37.9698678" lon="15.0248747"><ele>1169.0</ele><time>2026-05-03T10:18:30.759Z</time></trkpt><trkpt lat="37.9699393" lon="15.0248488"><ele>1170.0</ele><time>2026-05-03T10:18:31.761Z</time></trkpt><trkpt lat="37.9700102" lon="15.0248404"><ele>1171.0</ele><time>2026-05-03T10:18:32.76Z</time></trkpt><trkpt lat="37.9701018" lon="15.024753"><ele>1172.0</ele><time>2026-05-03T10:18:34.761Z</time></trkpt><trkpt lat="37.9701641" lon="15.0247077"><ele>1173.0</ele><time>2026-05-03T10:18:35.761Z</time></trkpt><trkpt lat="37.9702241" lon="15.0246683"><ele>1174.0</ele><time>2026-05-03T10:18:36.76Z</time></trkpt><trkpt lat="37.9702906" lon="15.0246198"><ele>1174.0</ele><time>2026-05-03T10:18:38.76Z</time></trkpt><trkpt lat="37.9703839" lon="15.024588"><ele>1174.0</ele><time>2026-05-03T10:18:40.76Z</time></trkpt><trkpt lat="37.970468" lon="15.0245649"><ele>1174.0</ele><time>2026-05-03T10:18:41.76Z</time></trkpt><trkpt lat="37.970534" lon="15.02456"><ele>1174.0</ele><time>2026-05-03T10:18:42.76Z</time></trkpt><trkpt lat="37.9706043" lon="15.0245355"><ele>1174.0</ele><time>2026-05-03T10:18:43.76Z</time></trkpt><trkpt lat="37.9706713" lon="15.024514"><ele>1174.0</ele><time>2026-05-03T10:18:44.76Z</time></trkpt><trkpt lat="37.9707597" lon="15.0244506"><ele>1174.0</ele><time>2026-05-03T10:18:45.76Z</time></trkpt><trkpt lat="37.9708386" lon="15.0244157"><ele>1174.0</ele><time>2026-05-03T10:18:46.761Z</time></trkpt><trkpt lat="37.9709058" lon="15.0243842"><ele>1174.0</ele><time>2026-05-03T10:18:47.76Z</time></trkpt><trkpt lat="37.9709743" lon="15.0243367"><ele>1174.0</ele><time>2026-05-03T10:18:48.76Z</time></trkpt><trkpt lat="37.9710435" lon="15.0242909"><ele>1174.0</ele><time>2026-05-03T10:18:49.76Z</time></trkpt><trkpt lat="37.9711348" lon="15.0242525"><ele>1174.0</ele><time>2026-05-03T10:18:50.76Z</time></trkpt><trkpt lat="37.9712372" lon="15.0242337"><ele>1173.8333333333333</ele><time>2026-05-03T10:18:51.76Z</time></trkpt><trkpt lat="37.971328" lon="15.0242151"><ele>1173.6666666666665</ele><time>2026-05-03T10:18:52.76Z</time></trkpt><trkpt lat="37.9714052" lon="15.0242039"><ele>1173.5</ele><time>2026-05-03T10:18:53.76Z</time></trkpt><trkpt lat="37.9714746" lon="15.0242238"><ele>1173.3333333333333</ele><time>2026-05-03T10:18:54.759Z</time></trkpt><trkpt lat="37.9715466" lon="15.0242936"><ele>1173.1666666666667</ele><time>2026-05-03T10:18:57.76Z</time></trkpt><trkpt lat="37.9716053" lon="15.0243381"><ele>1173.0</ele><time>2026-05-03T10:19:00.76Z</time></trkpt><trkpt lat="37.9716748" lon="15.0243966"><ele>1173.1666666666667</ele><time>2026-05-03T10:19:39.76Z</time></trkpt><trkpt lat="37.9717107" lon="15.0244718"><ele>1173.3333333333333</ele><time>2026-05-03T10:19:41.76Z</time></trkpt><trkpt lat="37.9717458" lon="15.0245462"><ele>1173.5</ele><time>2026-05-03T10:19:43.761Z</time></trkpt><trkpt lat="37.9717648" lon="15.024653"><ele>1173.6666666666665</ele><time>2026-05-03T10:19:46.761Z</time></trkpt><trkpt lat="37.9717305" lon="15.0247725"><ele>1173.8333333333333</ele><time>2026-05-03T10:19:48.76Z</time></trkpt><trkpt lat="37.9717147" lon="15.0248522"><ele>1174.0</ele><time>2026-05-03T10:19:49.76Z</time></trkpt><trkpt lat="37.9716939" lon="15.0249495"><ele>1174.5</ele><time>2026-05-03T10:19:50.761Z</time></trkpt><trkpt lat="37.9717139" lon="15.025061"><ele>1175.0</ele><time>2026-05-03T10:19:51.76Z</time></trkpt><trkpt lat="37.9717172" lon="15.0251592"><ele>1175.5</ele><time>2026-05-03T10:19:52.761Z</time></trkpt><trkpt lat="37.9717497" lon="15.0252405"><ele>1176.0</ele><time>2026-05-03T10:19:53.76Z</time></trkpt><trkpt lat="37.9717889" lon="15.0253274"><ele>1176.5</ele><time>2026-05-03T10:19:54.759Z</time></trkpt><trkpt lat="37.9718183" lon="15.0254204"><ele>1177.0</ele><time>2026-05-03T10:19:55.76Z</time></trkpt><trkpt lat="37.9718591" lon="15.0255068"><ele>1177.0</ele><time>2026-05-03T10:19:56.761Z</time></trkpt><trkpt lat="37.9718871" lon="15.0255887"><ele>1177.0</ele><time>2026-05-03T10:19:57.761Z</time></trkpt><trkpt lat="37.9719155" lon="15.025671"><ele>1177.0</ele><time>2026-05-03T10:19:58.76Z</time></trkpt><trkpt lat="37.971937" lon="15.0257466"><ele>1177.0</ele><time>2026-05-03T10:19:59.76Z</time></trkpt><trkpt lat="37.9719584" lon="15.0258292"><ele>1177.0</ele><time>2026-05-03T10:20:00.76Z</time></trkpt><trkpt lat="37.9719913" lon="15.0259646"><ele>1177.0</ele><time>2026-05-03T10:20:02.76Z</time></trkpt><trkpt lat="37.9720277" lon="15.0261267"><ele>1177.5714285714287</ele><time>2026-05-03T10:20:04.759Z</time></trkpt><trkpt lat="37.9720531" lon="15.0262201"><ele>1178.142857142857</ele><time>2026-05-03T10:20:05.76Z</time></trkpt><trkpt lat="37.9720867" lon="15.026315"><ele>1178.7142857142858</ele><time>2026-05-03T10:20:06.76Z</time></trkpt><trkpt lat="37.9721144" lon="15.0264074"><ele>1179.2857142857142</ele><time>2026-05-03T10:20:07.76Z</time></trkpt><trkpt lat="37.9721521" lon="15.0264934"><ele>1179.857142857143</ele><time>2026-05-03T10:20:08.76Z</time></trkpt><trkpt lat="37.9721809" lon="15.026569"><ele>1180.4285714285716</ele><time>2026-05-03T10:20:09.76Z</time></trkpt><trkpt lat="37.9722079" lon="15.0266472"><ele>1181.0</ele><time>2026-05-03T10:20:10.76Z</time></trkpt><trkpt lat="37.9722293" lon="15.0267296"><ele>1181.2857142857142</ele><time>2026-05-03T10:20:11.76Z</time></trkpt><trkpt lat="37.972259" lon="15.0268145"><ele>1181.5714285714287</ele><time>2026-05-03T10:20:12.76Z</time></trkpt><trkpt lat="37.9722951" lon="15.0268939"><ele>1181.857142857143</ele><time>2026-05-03T10:20:13.76Z</time></trkpt><trkpt lat="37.9723323" lon="15.0269769"><ele>1182.142857142857</ele><time>2026-05-03T10:20:14.76Z</time></trkpt><trkpt lat="37.9723786" lon="15.027049"><ele>1182.4285714285716</ele><time>2026-05-03T10:20:15.76Z</time></trkpt><trkpt lat="37.9724293" lon="15.0271219"><ele>1182.7142857142858</ele><time>2026-05-03T10:20:16.759Z</time></trkpt><trkpt lat="37.9724798" lon="15.0271961"><ele>1183.0</ele><time>2026-05-03T10:20:17.76Z</time></trkpt><trkpt lat="37.9725261" lon="15.0272596"><ele>1183.142857142857</ele><time>2026-05-03T10:20:18.76Z</time></trkpt><trkpt lat="37.9725694" lon="15.0273214"><ele>1183.2857142857142</ele><time>2026-05-03T10:20:19.76Z</time></trkpt><trkpt lat="37.9726239" lon="15.02738"><ele>1183.4285714285716</ele><time>2026-05-03T10:20:20.762Z</time></trkpt><trkpt lat="37.9726778" lon="15.0274487"><ele>1183.5714285714284</ele><time>2026-05-03T10:20:21.76Z</time></trkpt><trkpt lat="37.9727283" lon="15.0275145"><ele>1183.7142857142858</ele><time>2026-05-03T10:20:22.76Z</time></trkpt><trkpt lat="37.9727787" lon="15.0275771"><ele>1183.857142857143</ele><time>2026-05-03T10:20:23.76Z</time></trkpt><trkpt lat="37.9728278" lon="15.0276485"><ele>1184.0</ele><time>2026-05-03T10:20:24.761Z</time></trkpt><trkpt lat="37.9728773" lon="15.0277158"><ele>1184.0</ele><time>2026-05-03T10:20:25.76Z</time></trkpt><trkpt lat="37.9729273" lon="15.0277806"><ele>1184.0</ele><time>2026-05-03T10:20:26.76Z</time></trkpt><trkpt lat="37.9730108" lon="15.0278834"><ele>1184.0</ele><time>2026-05-03T10:20:28.76Z</time></trkpt><trkpt lat="37.9731109" lon="15.027976"><ele>1184.0</ele><time>2026-05-03T10:20:30.76Z</time></trkpt><trkpt lat="37.9732009" lon="15.0280582"><ele>1184.0</ele><time>2026-05-03T10:20:32.761Z</time></trkpt><trkpt lat="37.97328" lon="15.0281138"><ele>1184.4</ele><time>2026-05-03T10:20:34.76Z</time></trkpt><trkpt lat="37.9733739" lon="15.0281924"><ele>1184.8000000000002</ele><time>2026-05-03T10:20:36.761Z</time></trkpt><trkpt lat="37.9734256" lon="15.0282512"><ele>1185.1999999999998</ele><time>2026-05-03T10:20:37.76Z</time></trkpt><trkpt lat="37.9735052" lon="15.0283449"><ele>1185.6</ele><time>2026-05-03T10:20:39.76Z</time></trkpt><trkpt lat="37.9735964" lon="15.0284226"><ele>1186.0</ele><time>2026-05-03T10:20:41.76Z</time></trkpt><trkpt lat="37.9736776" lon="15.0284948"><ele>1186.0</ele><time>2026-05-03T10:20:43.761Z</time></trkpt><trkpt lat="37.9737488" lon="15.0285742"><ele>1186.0</ele><time>2026-05-03T10:20:45.76Z</time></trkpt><trkpt lat="37.973797" lon="15.0286678"><ele>1186.0</ele><time>2026-05-03T10:20:47.761Z</time></trkpt><trkpt lat="37.9738207" lon="15.0287906"><ele>1186.0</ele><time>2026-05-03T10:20:49.76Z</time></trkpt><trkpt lat="37.9738104" lon="15.0289079"><ele>1186.0</ele><time>2026-05-03T10:20:51.76Z</time></trkpt><trkpt lat="37.9737706" lon="15.0290218"><ele>1186.0</ele><time>2026-05-03T10:20:53.76Z</time></trkpt><trkpt lat="37.9736834" lon="15.0291357"><ele>1186.0</ele><time>2026-05-03T10:20:55.76Z</time></trkpt><trkpt lat="37.9736232" lon="15.0291725"><ele>1186.0</ele><time>2026-05-03T10:20:56.76Z</time></trkpt><trkpt lat="37.9735666" lon="15.0292168"><ele>1186.0</ele><time>2026-05-03T10:20:57.761Z</time></trkpt><trkpt lat="37.9734906" lon="15.0293263"><ele>1186.0</ele><time>2026-05-03T10:20:59.761Z</time></trkpt><trkpt lat="37.973427" lon="15.0294234"><ele>1184.8333333333333</ele><time>2026-05-03T10:21:01.76Z</time></trkpt><trkpt lat="37.9733619" lon="15.0295028"><ele>1183.6666666666665</ele><time>2026-05-03T10:21:03.76Z</time></trkpt><trkpt lat="37.9732996" lon="15.0295751"><ele>1182.5</ele><time>2026-05-03T10:21:05.76Z</time></trkpt><trkpt lat="37.9732641" lon="15.0296438"><ele>1181.3333333333333</ele><time>2026-05-03T10:21:08.761Z</time></trkpt><trkpt lat="37.9732596" lon="15.0297445"><ele>1180.1666666666667</ele><time>2026-05-03T10:21:11.76Z</time></trkpt><trkpt lat="37.9732075" lon="15.0298673"><ele>1179.0</ele><time>2026-05-03T10:21:13.76Z</time></trkpt><trkpt lat="37.9731435" lon="15.0299881"><ele>1176.8</ele><time>2026-05-03T10:21:15.76Z</time></trkpt><trkpt lat="37.9731301" lon="15.030133"><ele>1174.6000000000001</ele><time>2026-05-03T10:21:16.76Z</time></trkpt><trkpt lat="37.9731018" lon="15.0302231"><ele>1172.4</ele><time>2026-05-03T10:21:17.76Z</time></trkpt><trkpt lat="37.9730602" lon="15.030356"><ele>1170.2</ele><time>2026-05-03T10:21:18.759Z</time></trkpt><trkpt lat="37.9730057" lon="15.0304547"><ele>1168.0</ele><time>2026-05-03T10:21:19.76Z</time></trkpt><trkpt lat="37.9729065" lon="15.0304814"><ele>1168.0</ele><time>2026-05-03T10:21:20.759Z</time></trkpt><trkpt lat="37.9728264" lon="15.0305195"><ele>1168.0</ele><time>2026-05-03T10:21:21.76Z</time></trkpt><trkpt lat="37.9727023" lon="15.0305866"><ele>1168.0</ele><time>2026-05-03T10:21:23.76Z</time></trkpt><trkpt lat="37.9726382" lon="15.0305968"><ele>1168.0</ele><time>2026-05-03T10:21:24.761Z</time></trkpt><trkpt lat="37.9725652" lon="15.0306217"><ele>1168.0</ele><time>2026-05-03T10:21:25.762Z</time></trkpt><trkpt lat="37.9724585" lon="15.0305599"><ele>1164.4</ele><time>2026-05-03T10:21:26.761Z</time></trkpt><trkpt lat="37.9723789" lon="15.0305729"><ele>1160.8</ele><time>2026-05-03T10:21:27.761Z</time></trkpt><trkpt lat="37.9722708" lon="15.0306153"><ele>1157.2</ele><time>2026-05-03T10:21:29.761Z</time></trkpt><trkpt lat="37.9721596" lon="15.03061"><ele>1153.6</ele><time>2026-05-03T10:21:31.762Z</time></trkpt><trkpt lat="37.9720767" lon="15.0306061"><ele>1150.0</ele><time>2026-05-03T10:21:32.761Z</time></trkpt><trkpt lat="37.9719824" lon="15.0306181"><ele>1150.0</ele><time>2026-05-03T10:21:33.761Z</time></trkpt><trkpt lat="37.9719139" lon="15.0306212"><ele>1150.0</ele><time>2026-05-03T10:21:34.761Z</time></trkpt><trkpt lat="37.9718065" lon="15.0306309"><ele>1150.0</ele><time>2026-05-03T10:21:35.761Z</time></trkpt><trkpt lat="37.9717328" lon="15.0306177"><ele>1150.0</ele><time>2026-05-03T10:21:36.76Z</time></trkpt><trkpt lat="37.9716557" lon="15.0306031"><ele>1150.0</ele><time>2026-05-03T10:21:37.761Z</time></trkpt><trkpt lat="37.9715943" lon="15.0305598"><ele>1150.0</ele><time>2026-05-03T10:21:38.761Z</time></trkpt><trkpt lat="37.9715288" lon="15.0305815"><ele>1149.0</ele><time>2026-05-03T10:21:39.761Z</time></trkpt><trkpt lat="37.9714426" lon="15.0306074"><ele>1148.0</ele><time>2026-05-03T10:21:41.761Z</time></trkpt><trkpt lat="37.9713432" lon="15.0306876"><ele>1147.0</ele><time>2026-05-03T10:21:43.761Z</time></trkpt><trkpt lat="37.9712748" lon="15.0307244"><ele>1146.0</ele><time>2026-05-03T10:21:44.761Z</time></trkpt><trkpt lat="37.9712006" lon="15.0308022"><ele>1145.0</ele><time>2026-05-03T10:21:45.761Z</time></trkpt><trkpt lat="37.9711278" lon="15.030859"><ele>1147.3333333333335</ele><time>2026-05-03T10:21:46.76Z</time></trkpt><trkpt lat="37.9710522" lon="15.0309064"><ele>1149.6666666666667</ele><time>2026-05-03T10:21:47.761Z</time></trkpt><trkpt lat="37.9709796" lon="15.0309577"><ele>1152.0</ele><time>2026-05-03T10:21:48.761Z</time></trkpt><trkpt lat="37.9709134" lon="15.0309984"><ele>1154.3333333333333</ele><time>2026-05-03T10:21:49.761Z</time></trkpt><trkpt lat="37.9708503" lon="15.0310433"><ele>1156.6666666666665</ele><time>2026-05-03T10:21:50.761Z</time></trkpt><trkpt lat="37.9707881" lon="15.0310894"><ele>1159.0</ele><time>2026-05-03T10:21:51.761Z</time></trkpt><trkpt lat="37.9707325" lon="15.0311448"><ele>1159.0</ele><time>2026-05-03T10:21:52.761Z</time></trkpt><trkpt lat="37.9706707" lon="15.0312039"><ele>1159.0</ele><time>2026-05-03T10:21:53.761Z</time></trkpt><trkpt lat="37.9706052" lon="15.0312616"><ele>1159.0</ele><time>2026-05-03T10:21:54.761Z</time></trkpt><trkpt lat="37.9705425" lon="15.0313235"><ele>1159.0</ele><time>2026-05-03T10:21:55.761Z</time></trkpt><trkpt lat="37.9704818" lon="15.0313848"><ele>1159.0</ele><time>2026-05-03T10:21:56.761Z</time></trkpt><trkpt lat="37.9704169" lon="15.0314526"><ele>1159.0</ele><time>2026-05-03T10:21:57.761Z</time></trkpt><trkpt lat="37.9703497" lon="15.0315166"><ele>1159.0</ele><time>2026-05-03T10:21:58.761Z</time></trkpt><trkpt lat="37.9702975" lon="15.0315914"><ele>1159.0</ele><time>2026-05-03T10:21:59.761Z</time></trkpt><trkpt lat="37.9702505" lon="15.0316641"><ele>1159.0</ele><time>2026-05-03T10:22:00.761Z</time></trkpt><trkpt lat="37.9702013" lon="15.0317353"><ele>1159.0</ele><time>2026-05-03T10:22:01.761Z</time></trkpt><trkpt lat="37.9701791" lon="15.0318113"><ele>1159.0</ele><time>2026-05-03T10:22:02.762Z</time></trkpt><trkpt lat="37.9701525" lon="15.0319567"><ele>1159.0</ele><time>2026-05-03T10:22:04.761Z</time></trkpt><trkpt lat="37.9701071" lon="15.0320587"><ele>1161.0</ele><time>2026-05-03T10:22:07.761Z</time></trkpt><trkpt lat="37.9700511" lon="15.0321314"><ele>1163.0</ele><time>2026-05-03T10:22:10.761Z</time></trkpt><trkpt lat="37.9699889" lon="15.0321981"><ele>1165.0</ele><time>2026-05-03T10:22:12.761Z</time></trkpt><trkpt lat="37.9698772" lon="15.0322098"><ele>1167.0</ele><time>2026-05-03T10:22:14.761Z</time></trkpt><trkpt lat="37.9698131" lon="15.0322198"><ele>1169.0</ele><time>2026-05-03T10:22:15.762Z</time></trkpt><trkpt lat="37.9697026" lon="15.0322733"><ele>1169.0</ele><time>2026-05-03T10:22:17.761Z</time></trkpt><trkpt lat="37.9696022" lon="15.0323391"><ele>1169.0</ele><time>2026-05-03T10:22:19.761Z</time></trkpt><trkpt lat="37.9694941" lon="15.0324128"><ele>1169.0</ele><time>2026-05-03T10:22:21.761Z</time></trkpt><trkpt lat="37.9694414" lon="15.0324566"><ele>1169.0</ele><time>2026-05-03T10:22:22.761Z</time></trkpt><trkpt lat="37.9693937" lon="15.0325129"><ele>1169.0</ele><time>2026-05-03T10:22:23.762Z</time></trkpt><trkpt lat="37.9693067" lon="15.0326282"><ele>1171.4</ele><time>2026-05-03T10:22:25.761Z</time></trkpt><trkpt lat="37.96926" lon="15.0327469"><ele>1173.8000000000002</ele><time>2026-05-03T10:22:27.762Z</time></trkpt><trkpt lat="37.9691977" lon="15.0328223"><ele>1176.1999999999998</ele><time>2026-05-03T10:22:29.76Z</time></trkpt><trkpt lat="37.9691768" lon="15.0329762"><ele>1178.6</ele><time>2026-05-03T10:22:31.761Z</time></trkpt><trkpt lat="37.9691688" lon="15.0331293"><ele>1181.0</ele><time>2026-05-03T10:22:33.761Z</time></trkpt><trkpt lat="37.9691684" lon="15.0332175"><ele>1183.0</ele><time>2026-05-03T10:22:34.761Z</time></trkpt><trkpt lat="37.9691678" lon="15.0333081"><ele>1185.0</ele><time>2026-05-03T10:22:35.761Z</time></trkpt><trkpt lat="37.9691875" lon="15.0334002"><ele>1187.0</ele><time>2026-05-03T10:22:36.761Z</time></trkpt><trkpt lat="37.9691735" lon="15.0335359"><ele>1189.0</ele><time>2026-05-03T10:22:38.761Z</time></trkpt><trkpt lat="37.9692156" lon="15.03365"><ele>1191.0</ele><time>2026-05-03T10:22:40.761Z</time></trkpt><trkpt lat="37.9692555" lon="15.0337746"><ele>1191.2</ele><time>2026-05-03T10:22:42.761Z</time></trkpt><trkpt lat="37.9692988" lon="15.0338562"><ele>1191.3999999999999</ele><time>2026-05-03T10:22:44.761Z</time></trkpt><trkpt lat="37.9693669" lon="15.0338523"><ele>1191.6</ele><time>2026-05-03T10:22:46.761Z</time></trkpt><trkpt lat="37.9694236" lon="15.0337923"><ele>1191.8</ele><time>2026-05-03T10:22:47.761Z</time></trkpt><trkpt lat="37.9695333" lon="15.0337303"><ele>1192.0</ele><time>2026-05-03T10:22:49.762Z</time></trkpt><trkpt lat="37.9696168" lon="15.0336183"><ele>1192.0</ele><time>2026-05-03T10:22:51.761Z</time></trkpt><trkpt lat="37.9696774" lon="15.0335433"><ele>1192.0</ele><time>2026-05-03T10:22:52.761Z</time></trkpt><trkpt lat="37.9697493" lon="15.0335238"><ele>1192.0</ele><time>2026-05-03T10:22:53.761Z</time></trkpt><trkpt lat="37.9698431" lon="15.0334833"><ele>1192.0</ele><time>2026-05-03T10:22:55.761Z</time></trkpt><trkpt lat="37.9699307" lon="15.0334271"><ele>1192.0</ele><time>2026-05-03T10:22:57.761Z</time></trkpt><trkpt lat="37.9699769" lon="15.0333536"><ele>1192.0</ele><time>2026-05-03T10:22:59.761Z</time></trkpt><trkpt lat="37.9700372" lon="15.0332981"><ele>1191.5</ele><time>2026-05-03T10:23:02.761Z</time></trkpt><trkpt lat="37.970096" lon="15.0332658"><ele>1191.0</ele><time>2026-05-03T10:23:07.761Z</time></trkpt><trkpt lat="37.9701739" lon="15.033234"><ele>1190.5</ele><time>2026-05-03T10:23:10.76Z</time></trkpt><trkpt lat="37.9702524" lon="15.0332514"><ele>1190.0</ele><time>2026-05-03T10:23:13.762Z</time></trkpt><trkpt lat="37.9703512" lon="15.0332546"><ele>1189.5</ele><time>2026-05-03T10:23:16.761Z</time></trkpt><trkpt lat="37.9704287" lon="15.0333185"><ele>1189.0</ele><time>2026-05-03T10:23:19.761Z</time></trkpt><trkpt lat="37.9705029" lon="15.033377"><ele>1189.0</ele><time>2026-05-03T10:23:22.761Z</time></trkpt><trkpt lat="37.9705463" lon="15.0334708"><ele>1189.0</ele><time>2026-05-03T10:23:25.762Z</time></trkpt><trkpt lat="37.9705419" lon="15.0335683"><ele>1189.0</ele><time>2026-05-03T10:23:40.761Z</time></trkpt><trkpt lat="37.9705964" lon="15.0336141"><ele>1189.0</ele><time>2026-05-03T10:23:44.762Z</time></trkpt><trkpt lat="37.9706589" lon="15.0336023"><ele>1189.0</ele><time>2026-05-03T10:23:46.761Z</time></trkpt><trkpt lat="37.9707204" lon="15.0336231"><ele>1189.0</ele><time>2026-05-03T10:23:49.761Z</time></trkpt><trkpt lat="37.9708117" lon="15.0336424"><ele>1189.0</ele><time>2026-05-03T10:23:52.762Z</time></trkpt><trkpt lat="37.9708866" lon="15.0336685"><ele>1189.857142857143</ele><time>2026-05-03T10:23:55.761Z</time></trkpt><trkpt lat="37.9709442" lon="15.0337401"><ele>1190.7142857142858</ele><time>2026-05-03T10:23:58.761Z</time></trkpt><trkpt lat="37.9709484" lon="15.0338246"><ele>1191.5714285714284</ele><time>2026-05-03T10:24:00.761Z</time></trkpt><trkpt lat="37.9709696" lon="15.033908"><ele>1192.4285714285716</ele><time>2026-05-03T10:24:03.761Z</time></trkpt><trkpt lat="37.9709916" lon="15.033998"><ele>1193.2857142857144</ele><time>2026-05-03T10:24:10.762Z</time></trkpt><trkpt lat="37.9710649" lon="15.0340274"><ele>1194.142857142857</ele><time>2026-05-03T10:24:12.761Z</time></trkpt><trkpt lat="37.9711334" lon="15.0340317"><ele>1195.0</ele><time>2026-05-03T10:24:14.762Z</time></trkpt><trkpt lat="37.9712224" lon="15.0340499"><ele>1195.0</ele><time>2026-05-03T10:24:16.761Z</time></trkpt><trkpt lat="37.971338" lon="15.0340794"><ele>1195.0</ele><time>2026-05-03T10:24:18.761Z</time></trkpt><trkpt lat="37.9714331" lon="15.0340719"><ele>1195.0</ele><time>2026-05-03T10:24:19.761Z</time></trkpt><trkpt lat="37.9715156" lon="15.0340723"><ele>1195.0</ele><time>2026-05-03T10:24:20.762Z</time></trkpt><trkpt lat="37.9715891" lon="15.0340634"><ele>1195.0</ele><time>2026-05-03T10:24:21.761Z</time></trkpt><trkpt lat="37.9716606" lon="15.0340522"><ele>1195.0</ele><time>2026-05-03T10:24:22.761Z</time></trkpt><trkpt lat="37.9717325" lon="15.0340441"><ele>1194.8333333333333</ele><time>2026-05-03T10:24:23.762Z</time></trkpt><trkpt lat="37.9718094" lon="15.0340174"><ele>1194.6666666666665</ele><time>2026-05-03T10:24:24.761Z</time></trkpt><trkpt lat="37.9718919" lon="15.034015"><ele>1194.5</ele><time>2026-05-03T10:24:25.761Z</time></trkpt><trkpt lat="37.9719675" lon="15.0340332"><ele>1194.3333333333333</ele><time>2026-05-03T10:24:26.762Z</time></trkpt><trkpt lat="37.9720375" lon="15.0340398"><ele>1194.1666666666667</ele><time>2026-05-03T10:24:27.761Z</time></trkpt><trkpt lat="37.9721115" lon="15.0340295"><ele>1194.0</ele><time>2026-05-03T10:24:28.761Z</time></trkpt><trkpt lat="37.9721928" lon="15.0340052"><ele>1194.0</ele><time>2026-05-03T10:24:29.761Z</time></trkpt><trkpt lat="37.9722327" lon="15.0339263"><ele>1194.0</ele><time>2026-05-03T10:24:30.761Z</time></trkpt><trkpt lat="37.9723073" lon="15.0338889"><ele>1194.0</ele><time>2026-05-03T10:24:31.761Z</time></trkpt><trkpt lat="37.9723578" lon="15.0338399"><ele>1194.0</ele><time>2026-05-03T10:24:32.761Z</time></trkpt><trkpt lat="37.972428" lon="15.0337839"><ele>1194.0</ele><time>2026-05-03T10:24:33.761Z</time></trkpt><trkpt lat="37.9724916" lon="15.0337345"><ele>1194.0</ele><time>2026-05-03T10:24:34.761Z</time></trkpt><trkpt lat="37.9725667" lon="15.0336613"><ele>1192.0</ele><time>2026-05-03T10:24:35.762Z</time></trkpt><trkpt lat="37.9726665" lon="15.0335978"><ele>1190.0</ele><time>2026-05-03T10:24:36.762Z</time></trkpt><trkpt lat="37.9727556" lon="15.0335335"><ele>1188.0</ele><time>2026-05-03T10:24:37.76Z</time></trkpt><trkpt lat="37.972832" lon="15.0334883"><ele>1186.0</ele><time>2026-05-03T10:24:38.761Z</time></trkpt><trkpt lat="37.9728787" lon="15.033432"><ele>1184.0</ele><time>2026-05-03T10:24:39.762Z</time></trkpt><trkpt lat="37.9729461" lon="15.0334056"><ele>1182.0</ele><time>2026-05-03T10:24:40.761Z</time></trkpt><trkpt lat="37.9729994" lon="15.0333537"><ele>1181.3333333333333</ele><time>2026-05-03T10:24:41.761Z</time></trkpt><trkpt lat="37.9730612" lon="15.0332972"><ele>1180.6666666666667</ele><time>2026-05-03T10:24:42.761Z</time></trkpt><trkpt lat="37.9731152" lon="15.0332236"><ele>1180.0</ele><time>2026-05-03T10:24:43.761Z</time></trkpt><trkpt lat="37.973205" lon="15.0331561"><ele>1179.3333333333335</ele><time>2026-05-03T10:24:44.761Z</time></trkpt><trkpt lat="37.9732754" lon="15.0331003"><ele>1178.6666666666667</ele><time>2026-05-03T10:24:45.762Z</time></trkpt><trkpt lat="37.9733021" lon="15.0330177"><ele>1178.0</ele><time>2026-05-03T10:24:46.761Z</time></trkpt><trkpt lat="37.973361" lon="15.0329583"><ele>1178.0</ele><time>2026-05-03T10:24:47.761Z</time></trkpt><trkpt lat="37.9734409" lon="15.0329014"><ele>1178.0</ele><time>2026-05-03T10:24:48.761Z</time></trkpt><trkpt lat="37.9734991" lon="15.0328288"><ele>1178.0</ele><time>2026-05-03T10:24:49.761Z</time></trkpt><trkpt lat="37.9735477" lon="15.0327551"><ele>1178.0</ele><time>2026-05-03T10:24:50.762Z</time></trkpt><trkpt lat="37.9736205" lon="15.0326859"><ele>1178.0</ele><time>2026-05-03T10:24:51.761Z</time></trkpt><trkpt lat="37.9736848" lon="15.0325963"><ele>1178.0</ele><time>2026-05-03T10:24:52.762Z</time></trkpt><trkpt lat="37.9737521" lon="15.0324943"><ele>1181.2</ele><time>2026-05-03T10:24:53.761Z</time></trkpt><trkpt lat="37.9738097" lon="15.0323794"><ele>1184.4</ele><time>2026-05-03T10:24:54.761Z</time></trkpt><trkpt lat="37.9738723" lon="15.032277"><ele>1187.6000000000001</ele><time>2026-05-03T10:24:55.762Z</time></trkpt><trkpt lat="37.9739302" lon="15.0321712"><ele>1190.8</ele><time>2026-05-03T10:24:56.762Z</time></trkpt><trkpt lat="37.9739676" lon="15.0320772"><ele>1194.0</ele><time>2026-05-03T10:24:57.762Z</time></trkpt><trkpt lat="37.974002" lon="15.031986"><ele>1194.0000000000002</ele><time>2026-05-03T10:24:58.761Z</time></trkpt><trkpt lat="37.9740409" lon="15.0319184"><ele>1194.0</ele><time>2026-05-03T10:24:59.762Z</time></trkpt><trkpt lat="37.9740809" lon="15.0318395"><ele>1194.0</ele><time>2026-05-03T10:25:00.761Z</time></trkpt><trkpt lat="37.9740718" lon="15.0317381"><ele>1194.0</ele><time>2026-05-03T10:25:01.761Z</time></trkpt><trkpt lat="37.974123" lon="15.0316569"><ele>1194.0</ele><time>2026-05-03T10:25:02.76Z</time></trkpt><trkpt lat="37.97417" lon="15.0315914"><ele>1194.0000000000002</ele><time>2026-05-03T10:25:03.761Z</time></trkpt><trkpt lat="37.9742143" lon="15.0315226"><ele>1194.0</ele><time>2026-05-03T10:25:04.761Z</time></trkpt><trkpt lat="37.9742507" lon="15.0314511"><ele>1192.6000000000001</ele><time>2026-05-03T10:25:05.761Z</time></trkpt><trkpt lat="37.9743277" lon="15.0313596"><ele>1191.2</ele><time>2026-05-03T10:25:07.761Z</time></trkpt><trkpt lat="37.9743702" lon="15.0312499"><ele>1189.8000000000002</ele><time>2026-05-03T10:25:09.762Z</time></trkpt><trkpt lat="37.9744327" lon="15.0311041"><ele>1188.4</ele><time>2026-05-03T10:25:11.761Z</time></trkpt><trkpt lat="37.9744814" lon="15.0310126"><ele>1187.0</ele><time>2026-05-03T10:25:12.761Z</time></trkpt><trkpt lat="37.9745202" lon="15.0309252"><ele>1187.0000000000002</ele><time>2026-05-03T10:25:13.76Z</time></trkpt><trkpt lat="37.9745613" lon="15.0308489"><ele>1187.0</ele><time>2026-05-03T10:25:14.761Z</time></trkpt><trkpt lat="37.9746005" lon="15.0307684"><ele>1187.0</ele><time>2026-05-03T10:25:15.761Z</time></trkpt><trkpt lat="37.9746375" lon="15.0306885"><ele>1187.0</ele><time>2026-05-03T10:25:16.761Z</time></trkpt><trkpt lat="37.974665" lon="15.0306093"><ele>1187.0</ele><time>2026-05-03T10:25:17.761Z</time></trkpt><trkpt lat="37.9746873" lon="15.0305281"><ele>1187.0000000000002</ele><time>2026-05-03T10:25:18.761Z</time></trkpt><trkpt lat="37.9746986" lon="15.0304416"><ele>1187.0</ele><time>2026-05-03T10:25:19.761Z</time></trkpt><trkpt lat="37.9747118" lon="15.0303479"><ele>1189.1666666666667</ele><time>2026-05-03T10:25:20.761Z</time></trkpt><trkpt lat="37.974727" lon="15.0302453"><ele>1191.3333333333335</ele><time>2026-05-03T10:25:21.762Z</time></trkpt><trkpt lat="37.9747414" lon="15.0301433"><ele>1193.5</ele><time>2026-05-03T10:25:22.762Z</time></trkpt><trkpt lat="37.9747447" lon="15.0300201"><ele>1195.6666666666667</ele><time>2026-05-03T10:25:23.761Z</time></trkpt><trkpt lat="37.9747357" lon="15.0299051"><ele>1197.8333333333333</ele><time>2026-05-03T10:25:24.762Z</time></trkpt><trkpt lat="37.9747346" lon="15.029793"><ele>1200.0</ele><time>2026-05-03T10:25:25.761Z</time></trkpt><trkpt lat="37.9747293" lon="15.0296796"><ele>1201.2</ele><time>2026-05-03T10:25:26.76Z</time></trkpt><trkpt lat="37.9747226" lon="15.0295625"><ele>1202.4</ele><time>2026-05-03T10:25:27.762Z</time></trkpt><trkpt lat="37.9747209" lon="15.0294425"><ele>1203.6</ele><time>2026-05-03T10:25:28.761Z</time></trkpt><trkpt lat="37.9747171" lon="15.029325"><ele>1204.8</ele><time>2026-05-03T10:25:29.761Z</time></trkpt><trkpt lat="37.9746979" lon="15.029205"><ele>1206.0</ele><time>2026-05-03T10:25:30.761Z</time></trkpt><trkpt lat="37.9746852" lon="15.0290944"><ele>1206.6666666666667</ele><time>2026-05-03T10:25:31.761Z</time></trkpt><trkpt lat="37.9746774" lon="15.0289773"><ele>1207.3333333333333</ele><time>2026-05-03T10:25:32.761Z</time></trkpt><trkpt lat="37.9746985" lon="15.0288916"><ele>1208.0</ele><time>2026-05-03T10:25:33.761Z</time></trkpt><trkpt lat="37.9747109" lon="15.0287872"><ele>1208.6666666666665</ele><time>2026-05-03T10:25:34.761Z</time></trkpt><trkpt lat="37.9747112" lon="15.0286724"><ele>1209.3333333333333</ele><time>2026-05-03T10:25:35.761Z</time></trkpt><trkpt lat="37.974713" lon="15.0285614"><ele>1210.0</ele><time>2026-05-03T10:25:36.761Z</time></trkpt><trkpt lat="37.9747207" lon="15.0284482"><ele>1209.8</ele><time>2026-05-03T10:25:37.761Z</time></trkpt><trkpt lat="37.9746749" lon="15.0282989"><ele>1209.6</ele><time>2026-05-03T10:25:38.761Z</time></trkpt><trkpt lat="37.9746612" lon="15.0281767"><ele>1209.4</ele><time>2026-05-03T10:25:39.761Z</time></trkpt><trkpt lat="37.9746388" lon="15.0280407"><ele>1209.2</ele><time>2026-05-03T10:25:40.761Z</time></trkpt><trkpt lat="37.9745996" lon="15.0279198"><ele>1209.0</ele><time>2026-05-03T10:25:41.761Z</time></trkpt><trkpt lat="37.9745561" lon="15.0278346"><ele>1209.0</ele><time>2026-05-03T10:25:42.761Z</time></trkpt><trkpt lat="37.9745367" lon="15.0277571"><ele>1209.0</ele><time>2026-05-03T10:25:43.761Z</time></trkpt><trkpt lat="37.9745728" lon="15.0276743"><ele>1209.0</ele><time>2026-05-03T10:25:45.761Z</time></trkpt><trkpt lat="37.9746484" lon="15.0276466"><ele>1209.0</ele><time>2026-05-03T10:25:47.762Z</time></trkpt><trkpt lat="37.9747375" lon="15.0276061"><ele>1209.0</ele><time>2026-05-03T10:25:49.761Z</time></trkpt><trkpt lat="37.9748539" lon="15.0275212"><ele>1209.0</ele><time>2026-05-03T10:25:51.761Z</time></trkpt><trkpt lat="37.9749255" lon="15.0274517"><ele>1208.1666666666667</ele><time>2026-05-03T10:25:53.761Z</time></trkpt><trkpt lat="37.9749747" lon="15.0273857"><ele>1207.3333333333333</ele><time>2026-05-03T10:25:55.761Z</time></trkpt><trkpt lat="37.9749965" lon="15.0272667"><ele>1206.5</ele><time>2026-05-03T10:25:58.761Z</time></trkpt><trkpt lat="37.9750747" lon="15.0272324"><ele>1205.6666666666665</ele><time>2026-05-03T10:26:00.762Z</time></trkpt><trkpt lat="37.9751542" lon="15.0272175"><ele>1204.8333333333333</ele><time>2026-05-03T10:26:07.761Z</time></trkpt><trkpt lat="37.9752437" lon="15.0271938"><ele>1204.0</ele><time>2026-05-03T10:26:09.761Z</time></trkpt><trkpt lat="37.9753527" lon="15.0272081"><ele>1206.6666666666665</ele><time>2026-05-03T10:26:11.761Z</time></trkpt><trkpt lat="37.9754165" lon="15.027208"><ele>1209.3333333333333</ele><time>2026-05-03T10:26:12.761Z</time></trkpt><trkpt lat="37.9754955" lon="15.0271291"><ele>1212.0</ele><time>2026-05-03T10:26:14.761Z</time></trkpt><trkpt lat="37.9755712" lon="15.0271203"><ele>1214.6666666666667</ele><time>2026-05-03T10:26:16.761Z</time></trkpt><trkpt lat="37.9756317" lon="15.027151"><ele>1217.3333333333335</ele><time>2026-05-03T10:26:18.761Z</time></trkpt><trkpt lat="37.9756787" lon="15.0272315"><ele>1220.0</ele><time>2026-05-03T10:26:21.762Z</time></trkpt><trkpt lat="37.9757458" lon="15.0272579"><ele>1220.0</ele><time>2026-05-03T10:26:28.762Z</time></trkpt><trkpt lat="37.9758155" lon="15.027232"><ele>1220.0</ele><time>2026-05-03T10:26:30.763Z</time></trkpt><trkpt lat="37.975885" lon="15.0271902"><ele>1220.0</ele><time>2026-05-03T10:26:33.761Z</time></trkpt><trkpt lat="37.9759474" lon="15.0271487"><ele>1220.0</ele><time>2026-05-03T10:26:41.762Z</time></trkpt><trkpt lat="37.9760141" lon="15.0271321"><ele>1220.0</ele><time>2026-05-03T10:26:46.762Z</time></trkpt><trkpt lat="37.9760814" lon="15.0270863"><ele>1220.0</ele><time>2026-05-03T10:26:50.762Z</time></trkpt><trkpt lat="37.9761491" lon="15.0270422"><ele>1220.0</ele><time>2026-05-03T10:26:52.762Z</time></trkpt><trkpt lat="37.9762254" lon="15.0270207"><ele>1222.6666666666667</ele><time>2026-05-03T10:26:54.763Z</time></trkpt><trkpt lat="37.9762947" lon="15.0269623"><ele>1225.3333333333335</ele><time>2026-05-03T10:26:58.761Z</time></trkpt><trkpt lat="37.9763469" lon="15.0268837"><ele>1228.0</ele><time>2026-05-03T10:27:01.762Z</time></trkpt><trkpt lat="37.9764189" lon="15.0268826"><ele>1230.6666666666667</ele><time>2026-05-03T10:27:04.762Z</time></trkpt><trkpt lat="37.9764688" lon="15.0269477"><ele>1233.3333333333333</ele><time>2026-05-03T10:27:07.763Z</time></trkpt><trkpt lat="37.9765158" lon="15.0268835"><ele>1236.0</ele><time>2026-05-03T10:27:18.762Z</time></trkpt><trkpt lat="37.9765904" lon="15.0268454"><ele>1236.0</ele><time>2026-05-03T10:27:22.762Z</time></trkpt><trkpt lat="37.9766755" lon="15.0268693"><ele>1236.0</ele><time>2026-05-03T10:27:25.762Z</time></trkpt><trkpt lat="37.9767583" lon="15.0268518"><ele>1236.0</ele><time>2026-05-03T10:27:28.763Z</time></trkpt><trkpt lat="37.9768335" lon="15.0268363"><ele>1236.0</ele><time>2026-05-03T10:27:31.762Z</time></trkpt><trkpt lat="37.9768966" lon="15.0268804"><ele>1236.0</ele><time>2026-05-03T10:27:39.763Z</time></trkpt><trkpt lat="37.97689" lon="15.0269822"><ele>1236.0</ele><time>2026-05-03T10:27:42.762Z</time></trkpt><trkpt lat="37.9768734" lon="15.0270745"><ele>1237.6666666666667</ele><time>2026-05-03T10:27:44.763Z</time></trkpt><trkpt lat="37.9768981" lon="15.0271736"><ele>1239.3333333333333</ele><time>2026-05-03T10:27:46.762Z</time></trkpt><trkpt lat="37.976974" lon="15.0272505"><ele>1241.0</ele><time>2026-05-03T10:27:52.762Z</time></trkpt><trkpt lat="37.9770462" lon="15.027283"><ele>1242.6666666666665</ele><time>2026-05-03T10:27:54.762Z</time></trkpt><trkpt lat="37.977148" lon="15.027264"><ele>1244.3333333333333</ele><time>2026-05-03T10:27:56.763Z</time></trkpt><trkpt lat="37.9772119" lon="15.0272471"><ele>1246.0</ele><time>2026-05-03T10:27:57.762Z</time></trkpt><trkpt lat="37.9772791" lon="15.0272221"><ele>1246.0</ele><time>2026-05-03T10:27:58.762Z</time></trkpt><trkpt lat="37.9773571" lon="15.027212"><ele>1246.0</ele><time>2026-05-03T10:27:59.762Z</time></trkpt><trkpt lat="37.977443" lon="15.0272057"><ele>1246.0</ele><time>2026-05-03T10:28:00.762Z</time></trkpt><trkpt lat="37.9775168" lon="15.0272039"><ele>1246.0</ele><time>2026-05-03T10:28:01.762Z</time></trkpt><trkpt lat="37.977643" lon="15.0272001"><ele>1246.0</ele><time>2026-05-03T10:28:03.763Z</time></trkpt><trkpt lat="37.9777253" lon="15.0272153"><ele>1246.0</ele><time>2026-05-03T10:28:05.762Z</time></trkpt><trkpt lat="37.9777911" lon="15.0272133"><ele>1246.3333333333333</ele><time>2026-05-03T10:28:07.762Z</time></trkpt><trkpt lat="37.9778597" lon="15.0272129"><ele>1246.6666666666665</ele><time>2026-05-03T10:28:09.762Z</time></trkpt><trkpt lat="37.9779359" lon="15.027227"><ele>1247.0</ele><time>2026-05-03T10:28:11.761Z</time></trkpt><trkpt lat="37.9780551" lon="15.0272186"><ele>1247.3333333333333</ele><time>2026-05-03T10:28:13.762Z</time></trkpt><trkpt lat="37.9781595" lon="15.0271817"><ele>1247.6666666666667</ele><time>2026-05-03T10:28:15.762Z</time></trkpt><trkpt lat="37.9782251" lon="15.0271787"><ele>1248.0</ele><time>2026-05-03T10:28:16.762Z</time></trkpt><trkpt lat="37.9783259" lon="15.0271554"><ele>1248.2857142857144</ele><time>2026-05-03T10:28:18.762Z</time></trkpt><trkpt lat="37.9784362" lon="15.027136"><ele>1248.5714285714284</ele><time>2026-05-03T10:28:20.762Z</time></trkpt><trkpt lat="37.9784996" lon="15.0271249"><ele>1248.857142857143</ele><time>2026-05-03T10:28:21.762Z</time></trkpt><trkpt lat="37.9785678" lon="15.027114"><ele>1249.1428571428573</ele><time>2026-05-03T10:28:22.762Z</time></trkpt><trkpt lat="37.9786333" lon="15.027103"><ele>1249.4285714285716</ele><time>2026-05-03T10:28:23.762Z</time></trkpt><trkpt lat="37.9786989" lon="15.0270942"><ele>1249.7142857142858</ele><time>2026-05-03T10:28:24.762Z</time></trkpt><trkpt lat="37.978768" lon="15.0270777"><ele>1250.0</ele><time>2026-05-03T10:28:25.762Z</time></trkpt><trkpt lat="37.9788496" lon="15.0270717"><ele>1250.0</ele><time>2026-05-03T10:28:26.762Z</time></trkpt><trkpt lat="37.9789329" lon="15.0270659"><ele>1250.0</ele><time>2026-05-03T10:28:27.762Z</time></trkpt><trkpt lat="37.9790224" lon="15.0270611"><ele>1250.0</ele><time>2026-05-03T10:28:28.762Z</time></trkpt><trkpt lat="37.9791362" lon="15.0271166"><ele>1250.0</ele><time>2026-05-03T10:28:29.762Z</time></trkpt><trkpt lat="37.97926" lon="15.0271534"><ele>1250.0</ele><time>2026-05-03T10:28:30.762Z</time></trkpt><trkpt lat="37.97938" lon="15.0271858"><ele>1250.0</ele><time>2026-05-03T10:28:31.762Z</time></trkpt><trkpt lat="37.979489" lon="15.0272111"><ele>1250.0</ele><time>2026-05-03T10:28:32.762Z</time></trkpt><trkpt lat="37.9795629" lon="15.0272184"><ele>1250.0</ele><time>2026-05-03T10:28:33.762Z</time></trkpt><trkpt lat="37.9796548" lon="15.0272343"><ele>1250.0</ele><time>2026-05-03T10:28:34.762Z</time></trkpt><trkpt lat="37.9797376" lon="15.0272765"><ele>1250.0</ele><time>2026-05-03T10:28:35.763Z</time></trkpt><trkpt lat="37.9798284" lon="15.0273318"><ele>1250.0</ele><time>2026-05-03T10:28:36.762Z</time></trkpt><trkpt lat="37.979934" lon="15.0273867"><ele>1250.0</ele><time>2026-05-03T10:28:37.762Z</time></trkpt><trkpt lat="37.9800495" lon="15.0274409"><ele>1250.0</ele><time>2026-05-03T10:28:38.762Z</time></trkpt><trkpt lat="37.9801476" lon="15.0274879"><ele>1250.0</ele><time>2026-05-03T10:28:39.762Z</time></trkpt><trkpt lat="37.9802404" lon="15.0275343"><ele>1250.0</ele><time>2026-05-03T10:28:40.763Z</time></trkpt><trkpt lat="37.9803292" lon="15.0275559"><ele>1247.6</ele><time>2026-05-03T10:28:41.761Z</time></trkpt><trkpt lat="37.9804401" lon="15.0275797"><ele>1245.2</ele><time>2026-05-03T10:28:42.762Z</time></trkpt><trkpt lat="37.980526" lon="15.0276043"><ele>1242.8</ele><time>2026-05-03T10:28:43.762Z</time></trkpt><trkpt lat="37.9806102" lon="15.0276172"><ele>1240.4</ele><time>2026-05-03T10:28:44.762Z</time></trkpt><trkpt lat="37.9806989" lon="15.0276128"><ele>1238.0</ele><time>2026-05-03T10:28:45.762Z</time></trkpt><trkpt lat="37.9807822" lon="15.0275962"><ele>1237.8333333333335</ele><time>2026-05-03T10:28:46.762Z</time></trkpt><trkpt lat="37.9808658" lon="15.0275698"><ele>1237.6666666666667</ele><time>2026-05-03T10:28:47.762Z</time></trkpt><trkpt lat="37.9809461" lon="15.0275505"><ele>1237.5</ele><time>2026-05-03T10:28:48.762Z</time></trkpt><trkpt lat="37.9810295" lon="15.0275343"><ele>1237.3333333333333</ele><time>2026-05-03T10:28:49.763Z</time></trkpt><trkpt lat="37.9811018" lon="15.0275164"><ele>1237.1666666666665</ele><time>2026-05-03T10:28:50.761Z</time></trkpt><trkpt lat="37.9812021" lon="15.0274815"><ele>1237.0</ele><time>2026-05-03T10:28:52.762Z</time></trkpt><trkpt lat="37.9812862" lon="15.0274551"><ele>1238.3333333333333</ele><time>2026-05-03T10:28:54.763Z</time></trkpt><trkpt lat="37.981395" lon="15.0274377"><ele>1239.6666666666665</ele><time>2026-05-03T10:28:56.762Z</time></trkpt><trkpt lat="37.9814608" lon="15.0274351"><ele>1241.0</ele><time>2026-05-03T10:28:57.762Z</time></trkpt><trkpt lat="37.9815265" lon="15.0274207"><ele>1242.3333333333333</ele><time>2026-05-03T10:28:58.762Z</time></trkpt><trkpt lat="37.9816007" lon="15.0274239"><ele>1243.6666666666667</ele><time>2026-05-03T10:28:59.762Z</time></trkpt><trkpt lat="37.9816651" lon="15.027442"><ele>1245.0</ele><time>2026-05-03T10:29:00.762Z</time></trkpt><trkpt lat="37.9817278" lon="15.027487"><ele>1245.0</ele><time>2026-05-03T10:29:01.763Z</time></trkpt><trkpt lat="37.9818035" lon="15.0275282"><ele>1245.0</ele><time>2026-05-03T10:29:02.762Z</time></trkpt><trkpt lat="37.9818849" lon="15.027572"><ele>1245.0</ele><time>2026-05-03T10:29:03.762Z</time></trkpt><trkpt lat="37.9819581" lon="15.0276587"><ele>1245.0</ele><time>2026-05-03T10:29:04.762Z</time></trkpt><trkpt lat="37.9820261" lon="15.0277706"><ele>1245.0</ele><time>2026-05-03T10:29:05.762Z</time></trkpt><trkpt lat="37.9820985" lon="15.0278811"><ele>1245.0</ele><time>2026-05-03T10:29:06.762Z</time></trkpt><trkpt lat="37.9821614" lon="15.027977"><ele>1245.0</ele><time>2026-05-03T10:29:07.762Z</time></trkpt><trkpt lat="37.982226" lon="15.0280403"><ele>1245.0</ele><time>2026-05-03T10:29:08.762Z</time></trkpt><trkpt lat="37.9822867" lon="15.0281028"><ele>1245.0</ele><time>2026-05-03T10:29:09.762Z</time></trkpt><trkpt lat="37.9823316" lon="15.0281764"><ele>1245.0</ele><time>2026-05-03T10:29:10.763Z</time></trkpt><trkpt lat="37.9823844" lon="15.028281"><ele>1245.0</ele><time>2026-05-03T10:29:12.762Z</time></trkpt><trkpt lat="37.9824534" lon="15.0283451"><ele>1245.3333333333333</ele><time>2026-05-03T10:29:15.762Z</time></trkpt><trkpt lat="37.9825209" lon="15.0283789"><ele>1245.6666666666667</ele><time>2026-05-03T10:29:35.762Z</time></trkpt><trkpt lat="37.9825802" lon="15.0284365"><ele>1246.0</ele><time>2026-05-03T10:30:18.763Z</time></trkpt><trkpt lat="37.9826325" lon="15.0285036"><ele>1246.3333333333335</ele><time>2026-05-03T10:30:21.762Z</time></trkpt><trkpt lat="37.9826761" lon="15.0285844"><ele>1246.6666666666667</ele><time>2026-05-03T10:30:34.762Z</time></trkpt><trkpt lat="37.9827235" lon="15.0286745"><ele>1247.0</ele><time>2026-05-03T10:30:37.762Z</time></trkpt><trkpt lat="37.9827662" lon="15.0287613"><ele>1247.0</ele><time>2026-05-03T10:30:40.762Z</time></trkpt><trkpt lat="37.982799" lon="15.0288354"><ele>1247.0</ele><time>2026-05-03T10:30:42.762Z</time></trkpt><trkpt lat="37.9828436" lon="15.0289254"><ele>1247.0</ele><time>2026-05-03T10:30:44.762Z</time></trkpt><trkpt lat="37.9829021" lon="15.0290358"><ele>1247.0</ele><time>2026-05-03T10:30:46.762Z</time></trkpt><trkpt lat="37.9829608" lon="15.0291363"><ele>1247.0</ele><time>2026-05-03T10:30:48.762Z</time></trkpt><trkpt lat="37.9830145" lon="15.0292113"><ele>1247.0</ele><time>2026-05-03T10:30:51.762Z</time></trkpt><trkpt lat="37.9830708" lon="15.0292652"><ele>1245.3333333333335</ele><time>2026-05-03T10:30:54.763Z</time></trkpt><trkpt lat="37.9831275" lon="15.0293248"><ele>1243.6666666666667</ele><time>2026-05-03T10:30:57.762Z</time></trkpt><trkpt lat="37.9831892" lon="15.0293839"><ele>1242.0</ele><time>2026-05-03T10:31:00.762Z</time></trkpt><trkpt lat="37.9832422" lon="15.0294734"><ele>1240.3333333333333</ele><time>2026-05-03T10:31:04.762Z</time></trkpt><trkpt lat="37.9832907" lon="15.0295598"><ele>1238.6666666666665</ele><time>2026-05-03T10:31:07.762Z</time></trkpt><trkpt lat="37.9833286" lon="15.0296284"><ele>1237.0</ele><time>2026-05-03T10:31:11.762Z</time></trkpt><trkpt lat="37.9833695" lon="15.0296907"><ele>1237.0</ele><time>2026-05-03T10:31:15.763Z</time></trkpt><trkpt lat="37.9834428" lon="15.0297539"><ele>1237.0</ele><time>2026-05-03T10:31:18.762Z</time></trkpt><trkpt lat="37.9835264" lon="15.0297648"><ele>1237.0</ele><time>2026-05-03T10:31:21.763Z</time></trkpt><trkpt lat="37.9835932" lon="15.0298359"><ele>1237.0</ele><time>2026-05-03T10:31:24.762Z</time></trkpt><trkpt lat="37.9836497" lon="15.0298769"><ele>1237.0</ele><time>2026-05-03T10:31:27.762Z</time></trkpt><trkpt lat="37.9837064" lon="15.0299234"><ele>1237.0</ele><time>2026-05-03T10:31:31.761Z</time></trkpt><trkpt lat="37.9837731" lon="15.0299762"><ele>1235.5714285714284</ele><time>2026-05-03T10:31:37.762Z</time></trkpt><trkpt lat="37.9838392" lon="15.0299996"><ele>1234.1428571428573</ele><time>2026-05-03T10:31:40.762Z</time></trkpt><trkpt lat="37.9839206" lon="15.0299979"><ele>1232.7142857142858</ele><time>2026-05-03T10:31:44.763Z</time></trkpt><trkpt lat="37.9839869" lon="15.0300041"><ele>1231.2857142857142</ele><time>2026-05-03T10:31:50.763Z</time></trkpt><trkpt lat="37.9840522" lon="15.0299898"><ele>1229.8571428571427</ele><time>2026-05-03T10:31:55.763Z</time></trkpt><trkpt lat="37.9841058" lon="15.0300475"><ele>1228.4285714285716</ele><time>2026-05-03T10:31:58.763Z</time></trkpt><trkpt lat="37.9841277" lon="15.0301237"><ele>1227.0</ele><time>2026-05-03T10:32:01.763Z</time></trkpt><trkpt lat="37.9841308" lon="15.0302107"><ele>1227.0</ele><time>2026-05-03T10:32:04.763Z</time></trkpt><trkpt lat="37.9840957" lon="15.0303244"><ele>1227.0</ele><time>2026-05-03T10:32:06.763Z</time></trkpt><trkpt lat="37.9840621" lon="15.0304187"><ele>1227.0</ele><time>2026-05-03T10:32:08.763Z</time></trkpt><trkpt lat="37.9840167" lon="15.0305569"><ele>1227.0</ele><time>2026-05-03T10:32:10.763Z</time></trkpt><trkpt lat="37.9839834" lon="15.0306338"><ele>1227.0</ele><time>2026-05-03T10:32:11.763Z</time></trkpt><trkpt lat="37.9839597" lon="15.0307121"><ele>1227.0</ele><time>2026-05-03T10:32:12.763Z</time></trkpt><trkpt lat="37.9839215" lon="15.0308339"><ele>1223.2</ele><time>2026-05-03T10:32:14.763Z</time></trkpt><trkpt lat="37.98388" lon="15.0309257"><ele>1219.4</ele><time>2026-05-03T10:32:16.763Z</time></trkpt><trkpt lat="37.9838308" lon="15.031019"><ele>1215.6</ele><time>2026-05-03T10:32:18.763Z</time></trkpt><trkpt lat="37.9837527" lon="15.0311099"><ele>1211.8</ele><time>2026-05-03T10:32:20.763Z</time></trkpt><trkpt lat="37.9836982" lon="15.0311675"><ele>1208.0</ele><time>2026-05-03T10:32:21.763Z</time></trkpt><trkpt lat="37.9836098" lon="15.0312708"><ele>1208.0</ele><time>2026-05-03T10:32:23.763Z</time></trkpt><trkpt lat="37.9835322" lon="15.0313511"><ele>1208.0</ele><time>2026-05-03T10:32:25.763Z</time></trkpt><trkpt lat="37.9834542" lon="15.0314174"><ele>1208.0</ele><time>2026-05-03T10:32:27.763Z</time></trkpt><trkpt lat="37.9833474" lon="15.0314655"><ele>1208.0</ele><time>2026-05-03T10:32:29.763Z</time></trkpt><trkpt lat="37.9832639" lon="15.0315122"><ele>1208.0</ele><time>2026-05-03T10:32:31.764Z</time></trkpt><trkpt lat="37.9831691" lon="15.0315672"><ele>1209.6</ele><time>2026-05-03T10:32:33.763Z</time></trkpt><trkpt lat="37.9830599" lon="15.0316028"><ele>1211.1999999999998</ele><time>2026-05-03T10:32:35.763Z</time></trkpt><trkpt lat="37.9829593" lon="15.031642"><ele>1212.8</ele><time>2026-05-03T10:32:37.763Z</time></trkpt><trkpt lat="37.9828625" lon="15.0316927"><ele>1214.3999999999999</ele><time>2026-05-03T10:32:39.763Z</time></trkpt><trkpt lat="37.9828074" lon="15.0317345"><ele>1216.0</ele><time>2026-05-03T10:32:41.763Z</time></trkpt><trkpt lat="37.9827474" lon="15.0317732"><ele>1213.0</ele><time>2026-05-03T10:32:44.764Z</time></trkpt><trkpt lat="37.9827547" lon="15.0318598"><ele>1210.0</ele><time>2026-05-03T10:32:55.764Z</time></trkpt><trkpt lat="37.9828626" lon="15.0318118"><ele>1207.0</ele><time>2026-05-03T10:33:00.763Z</time></trkpt><trkpt lat="37.9829685" lon="15.0318074"><ele>1204.0</ele><time>2026-05-03T10:33:02.763Z</time></trkpt><trkpt lat="37.9830424" lon="15.0318263"><ele>1201.0</ele><time>2026-05-03T10:33:03.763Z</time></trkpt><trkpt lat="37.9831189" lon="15.031856"><ele>1198.0</ele><time>2026-05-03T10:33:04.763Z</time></trkpt><trkpt lat="37.9831936" lon="15.0319062"><ele>1198.0</ele><time>2026-05-03T10:33:05.763Z</time></trkpt><trkpt lat="37.9832789" lon="15.0319156"><ele>1198.0</ele><time>2026-05-03T10:33:06.763Z</time></trkpt><trkpt lat="37.9833687" lon="15.0319043"><ele>1198.0</ele><time>2026-05-03T10:33:07.762Z</time></trkpt><trkpt lat="37.9834426" lon="15.0318824"><ele>1198.0</ele><time>2026-05-03T10:33:08.763Z</time></trkpt><trkpt lat="37.9835041" lon="15.0318516"><ele>1198.0</ele><time>2026-05-03T10:33:09.763Z</time></trkpt><trkpt lat="37.9836127" lon="15.0317914"><ele>1198.0</ele><time>2026-05-03T10:33:11.763Z</time></trkpt><trkpt lat="37.983703" lon="15.0316953"><ele>1200.0</ele><time>2026-05-03T10:33:13.762Z</time></trkpt><trkpt lat="37.9837476" lon="15.0316347"><ele>1202.0</ele><time>2026-05-03T10:33:14.763Z</time></trkpt><trkpt lat="37.9838359" lon="15.0315333"><ele>1204.0</ele><time>2026-05-03T10:33:16.763Z</time></trkpt><trkpt lat="37.983942" lon="15.0314716"><ele>1206.0</ele><time>2026-05-03T10:33:18.763Z</time></trkpt><trkpt lat="37.9840075" lon="15.0314543"><ele>1208.0</ele><time>2026-05-03T10:33:19.763Z</time></trkpt><trkpt lat="37.9841136" lon="15.0314604"><ele>1207.6</ele><time>2026-05-03T10:33:21.763Z</time></trkpt><trkpt lat="37.9842093" lon="15.0314476"><ele>1207.1999999999998</ele><time>2026-05-03T10:33:23.763Z</time></trkpt><trkpt lat="37.9842836" lon="15.0313886"><ele>1206.8</ele><time>2026-05-03T10:33:25.763Z</time></trkpt><trkpt lat="37.9843493" lon="15.0313629"><ele>1206.3999999999999</ele><time>2026-05-03T10:33:27.763Z</time></trkpt><trkpt lat="37.9844441" lon="15.0313824"><ele>1206.0</ele><time>2026-05-03T10:33:29.763Z</time></trkpt><trkpt lat="37.9845388" lon="15.0314358"><ele>1206.0</ele><time>2026-05-03T10:33:31.763Z</time></trkpt><trkpt lat="37.9846316" lon="15.0314889"><ele>1206.0</ele><time>2026-05-03T10:33:33.764Z</time></trkpt><trkpt lat="37.9847221" lon="15.0315144"><ele>1206.0</ele><time>2026-05-03T10:33:35.763Z</time></trkpt><trkpt lat="37.9848108" lon="15.0315214"><ele>1206.0</ele><time>2026-05-03T10:33:37.763Z</time></trkpt><trkpt lat="37.9848837" lon="15.031517"><ele>1206.0</ele><time>2026-05-03T10:33:40.763Z</time></trkpt><trkpt lat="37.9849463" lon="15.0314721"><ele>1206.0</ele><time>2026-05-03T10:33:43.763Z</time></trkpt><trkpt lat="37.9849955" lon="15.0313977"><ele>1205.5</ele><time>2026-05-03T10:33:45.763Z</time></trkpt><trkpt lat="37.9850698" lon="15.0313119"><ele>1205.0</ele><time>2026-05-03T10:33:47.762Z</time></trkpt><trkpt lat="37.9851946" lon="15.0312632"><ele>1204.5</ele><time>2026-05-03T10:33:49.763Z</time></trkpt><trkpt lat="37.9852658" lon="15.0312592"><ele>1204.0</ele><time>2026-05-03T10:33:50.763Z</time></trkpt><trkpt lat="37.9853316" lon="15.0312569"><ele>1203.5</ele><time>2026-05-03T10:33:51.763Z</time></trkpt><trkpt lat="37.9853939" lon="15.0312419"><ele>1203.0</ele><time>2026-05-03T10:33:52.764Z</time></trkpt><trkpt lat="37.9854528" lon="15.0312011"><ele>1203.0</ele><time>2026-05-03T10:33:53.763Z</time></trkpt><trkpt lat="37.9855645" lon="15.0311238"><ele>1203.0</ele><time>2026-05-03T10:33:55.764Z</time></trkpt><trkpt lat="37.985654" lon="15.0310429"><ele>1203.0</ele><time>2026-05-03T10:33:57.763Z</time></trkpt><trkpt lat="37.9857109" lon="15.0310013"><ele>1203.0</ele><time>2026-05-03T10:33:58.764Z</time></trkpt><trkpt lat="37.9857739" lon="15.0309785"><ele>1203.0</ele><time>2026-05-03T10:33:59.763Z</time></trkpt><trkpt lat="37.9858384" lon="15.0309727"><ele>1203.0</ele><time>2026-05-03T10:34:00.763Z</time></trkpt><trkpt lat="37.985902" lon="15.0309633"><ele>1203.0</ele><time>2026-05-03T10:34:01.762Z</time></trkpt><trkpt lat="37.9859974" lon="15.0309419"><ele>1203.0</ele><time>2026-05-03T10:34:03.764Z</time></trkpt><trkpt lat="37.9860734" lon="15.030951"><ele>1203.0</ele><time>2026-05-03T10:34:06.762Z</time></trkpt><trkpt lat="37.9861433" lon="15.0309808"><ele>1203.0</ele><time>2026-05-03T10:34:08.762Z</time></trkpt><trkpt lat="37.9862132" lon="15.031028"><ele>1203.0</ele><time>2026-05-03T10:34:10.763Z</time></trkpt><trkpt lat="37.9862628" lon="15.0311242"><ele>1203.0</ele><time>2026-05-03T10:34:12.763Z</time></trkpt><trkpt lat="37.9863297" lon="15.0312308"><ele>1203.0</ele><time>2026-05-03T10:34:14.763Z</time></trkpt><trkpt lat="37.9863888" lon="15.0313443"><ele>1203.0</ele><time>2026-05-03T10:34:16.764Z</time></trkpt><trkpt lat="37.9864265" lon="15.0314304"><ele>1203.0</ele><time>2026-05-03T10:34:18.763Z</time></trkpt><trkpt lat="37.9864769" lon="15.0315136"><ele>1203.0</ele><time>2026-05-03T10:34:20.763Z</time></trkpt><trkpt lat="37.9865392" lon="15.031629"><ele>1203.0</ele><time>2026-05-03T10:34:22.764Z</time></trkpt><trkpt lat="37.9865778" lon="15.0316965"><ele>1203.0</ele><time>2026-05-03T10:34:23.763Z</time></trkpt><trkpt lat="37.9866189" lon="15.0317631"><ele>1202.3333333333333</ele><time>2026-05-03T10:34:24.763Z</time></trkpt><trkpt lat="37.9866662" lon="15.0318404"><ele>1201.6666666666667</ele><time>2026-05-03T10:34:25.764Z</time></trkpt><trkpt lat="37.9867177" lon="15.0319062"><ele>1201.0</ele><time>2026-05-03T10:34:26.763Z</time></trkpt><trkpt lat="37.986762" lon="15.031963"><ele>1200.3333333333335</ele><time>2026-05-03T10:34:27.763Z</time></trkpt><trkpt lat="37.9868365" lon="15.0320819"><ele>1199.6666666666667</ele><time>2026-05-03T10:34:29.763Z</time></trkpt><trkpt lat="37.9869076" lon="15.0321804"><ele>1199.0</ele><time>2026-05-03T10:34:31.764Z</time></trkpt><trkpt lat="37.9869554" lon="15.0322545"><ele>1199.0</ele><time>2026-05-03T10:34:33.762Z</time></trkpt><trkpt lat="37.9870082" lon="15.0323463"><ele>1199.0</ele><time>2026-05-03T10:34:36.763Z</time></trkpt><trkpt lat="37.9870585" lon="15.0324497"><ele>1199.0</ele><time>2026-05-03T10:34:38.764Z</time></trkpt><trkpt lat="37.9871265" lon="15.03255"><ele>1199.0</ele><time>2026-05-03T10:34:40.763Z</time></trkpt><trkpt lat="37.9871972" lon="15.0326366"><ele>1199.0</ele><time>2026-05-03T10:34:42.763Z</time></trkpt><trkpt lat="37.9872476" lon="15.0326877"><ele>1198.3333333333335</ele><time>2026-05-03T10:34:44.763Z</time></trkpt><trkpt lat="37.9872967" lon="15.0327943"><ele>1197.6666666666667</ele><time>2026-05-03T10:34:47.764Z</time></trkpt><trkpt lat="37.9873225" lon="15.0328998"><ele>1197.0</ele><time>2026-05-03T10:34:49.764Z</time></trkpt><trkpt lat="37.9873504" lon="15.0330382"><ele>1196.3333333333333</ele><time>2026-05-03T10:34:51.764Z</time></trkpt><trkpt lat="37.9873609" lon="15.0331187"><ele>1195.6666666666665</ele><time>2026-05-03T10:34:52.764Z</time></trkpt><trkpt lat="37.9873708" lon="15.0332181"><ele>1195.0</ele><time>2026-05-03T10:34:53.763Z</time></trkpt><trkpt lat="37.9873841" lon="15.033318"><ele>1194.0</ele><time>2026-05-03T10:34:54.764Z</time></trkpt><trkpt lat="37.9874213" lon="15.0334208"><ele>1193.0</ele><time>2026-05-03T10:34:56.763Z</time></trkpt><trkpt lat="37.9874379" lon="15.0335162"><ele>1192.0</ele><time>2026-05-03T10:34:59.763Z</time></trkpt><trkpt lat="37.9873942" lon="15.0336318"><ele>1191.0</ele><time>2026-05-03T10:35:01.763Z</time></trkpt><trkpt lat="37.9873596" lon="15.0337172"><ele>1190.0</ele><time>2026-05-03T10:35:02.763Z</time></trkpt><trkpt lat="37.987319" lon="15.0338063"><ele>1189.0</ele><time>2026-05-03T10:35:03.764Z</time></trkpt><trkpt lat="37.9872949" lon="15.0338914"><ele>1189.0</ele><time>2026-05-03T10:35:04.763Z</time></trkpt><trkpt lat="37.987281" lon="15.0339705"><ele>1189.0</ele><time>2026-05-03T10:35:05.763Z</time></trkpt><trkpt lat="37.987305" lon="15.0341123"><ele>1189.0</ele><time>2026-05-03T10:35:07.764Z</time></trkpt><trkpt lat="37.9873458" lon="15.0341846"><ele>1189.0</ele><time>2026-05-03T10:35:08.763Z</time></trkpt><trkpt lat="37.9874064" lon="15.0342609"><ele>1189.0</ele><time>2026-05-03T10:35:09.763Z</time></trkpt><trkpt lat="37.9874804" lon="15.034352"><ele>1189.0</ele><time>2026-05-03T10:35:10.763Z</time></trkpt><trkpt lat="37.9875742" lon="15.0344547"><ele>1189.75</ele><time>2026-05-03T10:35:11.764Z</time></trkpt><trkpt lat="37.9876843" lon="15.0345545"><ele>1190.5</ele><time>2026-05-03T10:35:12.764Z</time></trkpt><trkpt lat="37.9877991" lon="15.0346372"><ele>1191.25</ele><time>2026-05-03T10:35:13.762Z</time></trkpt><trkpt lat="37.9879071" lon="15.0347062"><ele>1192.0</ele><time>2026-05-03T10:35:14.763Z</time></trkpt><trkpt lat="37.9879965" lon="15.0347652"><ele>1192.0</ele><time>2026-05-03T10:35:15.763Z</time></trkpt><trkpt lat="37.9880771" lon="15.0348253"><ele>1192.0</ele><time>2026-05-03T10:35:16.763Z</time></trkpt><trkpt lat="37.9881453" lon="15.0349057"><ele>1192.0</ele><time>2026-05-03T10:35:17.763Z</time></trkpt><trkpt lat="37.9881993" lon="15.0349921"><ele>1192.0</ele><time>2026-05-03T10:35:18.763Z</time></trkpt><trkpt lat="37.9882502" lon="15.0350935"><ele>1192.0</ele><time>2026-05-03T10:35:19.763Z</time></trkpt><trkpt lat="37.9883029" lon="15.0352077"><ele>1185.25</ele><time>2026-05-03T10:35:20.763Z</time></trkpt><trkpt lat="37.9883667" lon="15.0353325"><ele>1178.5</ele><time>2026-05-03T10:35:21.763Z</time></trkpt><trkpt lat="37.9884338" lon="15.0354754"><ele>1171.75</ele><time>2026-05-03T10:35:22.763Z</time></trkpt><trkpt lat="37.9884968" lon="15.0356107"><ele>1165.0</ele><time>2026-05-03T10:35:23.763Z</time></trkpt><trkpt lat="37.9885588" lon="15.0357428"><ele>1164.2</ele><time>2026-05-03T10:35:24.763Z</time></trkpt><trkpt lat="37.9886146" lon="15.0358623"><ele>1163.4</ele><time>2026-05-03T10:35:25.764Z</time></trkpt><trkpt lat="37.9886599" lon="15.0359674"><ele>1162.6</ele><time>2026-05-03T10:35:26.763Z</time></trkpt><trkpt lat="37.9887028" lon="15.036061"><ele>1161.8</ele><time>2026-05-03T10:35:27.763Z</time></trkpt><trkpt lat="37.9887987" lon="15.0362068"><ele>1161.0</ele><time>2026-05-03T10:35:29.763Z</time></trkpt><trkpt lat="37.9888594" lon="15.0362533"><ele>1161.0</ele><time>2026-05-03T10:35:30.763Z</time></trkpt><trkpt lat="37.9889243" lon="15.0362906"><ele>1161.0</ele><time>2026-05-03T10:35:31.763Z</time></trkpt><trkpt lat="37.9890189" lon="15.0363293"><ele>1161.0</ele><time>2026-05-03T10:35:33.763Z</time></trkpt><trkpt lat="37.9890765" lon="15.0363669"><ele>1161.0</ele><time>2026-05-03T10:35:36.763Z</time></trkpt><trkpt lat="37.9891581" lon="15.0364137"><ele>1161.0</ele><time>2026-05-03T10:35:39.763Z</time></trkpt><trkpt lat="37.9892184" lon="15.0364418"><ele>1161.0</ele><time>2026-05-03T10:35:42.763Z</time></trkpt><trkpt lat="37.9892968" lon="15.0364767"><ele>1159.142857142857</ele><time>2026-05-03T10:35:45.763Z</time></trkpt><trkpt lat="37.9893684" lon="15.0364914"><ele>1157.2857142857142</ele><time>2026-05-03T10:35:53.763Z</time></trkpt><trkpt lat="37.9894303" lon="15.0365218"><ele>1155.4285714285716</ele><time>2026-05-03T10:35:56.764Z</time></trkpt><trkpt lat="37.989509" lon="15.0365292"><ele>1153.5714285714284</ele><time>2026-05-03T10:35:59.763Z</time></trkpt><trkpt lat="37.9895769" lon="15.0365157"><ele>1151.7142857142858</ele><time>2026-05-03T10:36:01.763Z</time></trkpt><trkpt lat="37.9896413" lon="15.0364924"><ele>1149.857142857143</ele><time>2026-05-03T10:36:04.763Z</time></trkpt><trkpt lat="37.9897216" lon="15.0365056"><ele>1148.0</ele><time>2026-05-03T10:36:07.762Z</time></trkpt><trkpt lat="37.9897829" lon="15.036553"><ele>1148.0</ele><time>2026-05-03T10:36:10.763Z</time></trkpt><trkpt lat="37.9898499" lon="15.0366047"><ele>1148.0</ele><time>2026-05-03T10:36:12.763Z</time></trkpt><trkpt lat="37.9899197" lon="15.0366444"><ele>1148.0</ele><time>2026-05-03T10:36:14.763Z</time></trkpt><trkpt lat="37.9899982" lon="15.036692"><ele>1148.0</ele><time>2026-05-03T10:36:18.763Z</time></trkpt><trkpt lat="37.9900673" lon="15.0367681"><ele>1148.0</ele><time>2026-05-03T10:36:21.763Z</time></trkpt><trkpt lat="37.9901129" lon="15.0368316"><ele>1148.0</ele><time>2026-05-03T10:36:24.763Z</time></trkpt><trkpt lat="37.990179" lon="15.0368865"><ele>1150.8333333333335</ele><time>2026-05-03T10:36:27.763Z</time></trkpt><trkpt lat="37.9902451" lon="15.0369066"><ele>1153.6666666666667</ele><time>2026-05-03T10:36:30.763Z</time></trkpt><trkpt lat="37.9903312" lon="15.0369491"><ele>1156.5</ele><time>2026-05-03T10:36:33.763Z</time></trkpt><trkpt lat="37.9903855" lon="15.0370458"><ele>1159.3333333333333</ele><time>2026-05-03T10:36:36.763Z</time></trkpt><trkpt lat="37.9904007" lon="15.0371416"><ele>1162.1666666666665</ele><time>2026-05-03T10:36:39.763Z</time></trkpt><trkpt lat="37.9904091" lon="15.0372393"><ele>1165.0</ele><time>2026-05-03T10:36:42.763Z</time></trkpt><trkpt lat="37.9904105" lon="15.0373279"><ele>1165.0</ele><time>2026-05-03T10:36:45.764Z</time></trkpt><trkpt lat="37.990408" lon="15.0374152"><ele>1165.0</ele><time>2026-05-03T10:36:48.764Z</time></trkpt><trkpt lat="37.9904078" lon="15.0375147"><ele>1165.0</ele><time>2026-05-03T10:36:51.764Z</time></trkpt><trkpt lat="37.9904424" lon="15.0376333"><ele>1165.0</ele><time>2026-05-03T10:36:54.764Z</time></trkpt><trkpt lat="37.9904757" lon="15.0377271"><ele>1165.0</ele><time>2026-05-03T10:36:56.764Z</time></trkpt><trkpt lat="37.9905105" lon="15.0377963"><ele>1165.0</ele><time>2026-05-03T10:37:00.764Z</time></trkpt><trkpt lat="37.9905526" lon="15.0378897"><ele>1169.4</ele><time>2026-05-03T10:37:06.764Z</time></trkpt><trkpt lat="37.9906177" lon="15.0379988"><ele>1173.8</ele><time>2026-05-03T10:37:08.764Z</time></trkpt><trkpt lat="37.990693" lon="15.038075"><ele>1178.2</ele><time>2026-05-03T10:37:10.764Z</time></trkpt><trkpt lat="37.9907714" lon="15.0380981"><ele>1182.6</ele><time>2026-05-03T10:37:12.765Z</time></trkpt><trkpt lat="37.9908679" lon="15.0381751"><ele>1187.0</ele><time>2026-05-03T10:37:14.765Z</time></trkpt><trkpt lat="37.9909877" lon="15.0382356"><ele>1187.4285714285716</ele><time>2026-05-03T10:37:16.764Z</time></trkpt><trkpt lat="37.991051" lon="15.0382659"><ele>1187.857142857143</ele><time>2026-05-03T10:37:17.764Z</time></trkpt><trkpt lat="37.9911153" lon="15.0382906"><ele>1188.2857142857142</ele><time>2026-05-03T10:37:18.764Z</time></trkpt><trkpt lat="37.9911775" lon="15.0383199"><ele>1188.7142857142858</ele><time>2026-05-03T10:37:19.764Z</time></trkpt><trkpt lat="37.9912485" lon="15.0383487"><ele>1189.142857142857</ele><time>2026-05-03T10:37:20.764Z</time></trkpt><trkpt lat="37.9913157" lon="15.0383819"><ele>1189.5714285714287</ele><time>2026-05-03T10:37:21.764Z</time></trkpt><trkpt lat="37.9913814" lon="15.0384186"><ele>1190.0</ele><time>2026-05-03T10:37:22.764Z</time></trkpt><trkpt lat="37.9914494" lon="15.0384556"><ele>1188.8</ele><time>2026-05-03T10:37:23.765Z</time></trkpt><trkpt lat="37.9915164" lon="15.0384951"><ele>1187.6</ele><time>2026-05-03T10:37:24.764Z</time></trkpt><trkpt lat="37.991598" lon="15.0385372"><ele>1186.4</ele><time>2026-05-03T10:37:25.764Z</time></trkpt><trkpt lat="37.9916878" lon="15.0385932"><ele>1185.2</ele><time>2026-05-03T10:37:26.764Z</time></trkpt><trkpt lat="37.9917936" lon="15.0386565"><ele>1184.0</ele><time>2026-05-03T10:37:27.765Z</time></trkpt><trkpt lat="37.9919077" lon="15.0387292"><ele>1184.0</ele><time>2026-05-03T10:37:28.764Z</time></trkpt><trkpt lat="37.9920288" lon="15.0388062"><ele>1184.0</ele><time>2026-05-03T10:37:29.764Z</time></trkpt><trkpt lat="37.992149" lon="15.038891"><ele>1184.0</ele><time>2026-05-03T10:37:30.764Z</time></trkpt><trkpt lat="37.9922617" lon="15.0389698"><ele>1184.0</ele><time>2026-05-03T10:37:31.764Z</time></trkpt><trkpt lat="37.9923681" lon="15.0390358"><ele>1184.0</ele><time>2026-05-03T10:37:32.764Z</time></trkpt><trkpt lat="37.9924776" lon="15.039102"><ele>1184.0</ele><time>2026-05-03T10:37:33.764Z</time></trkpt><trkpt lat="37.9925984" lon="15.0391801"><ele>1184.0</ele><time>2026-05-03T10:37:34.764Z</time></trkpt><trkpt lat="37.9927275" lon="15.039264"><ele>1184.0</ele><time>2026-05-03T10:37:35.764Z</time></trkpt><trkpt lat="37.9928616" lon="15.0393413"><ele>1183.25</ele><time>2026-05-03T10:37:36.764Z</time></trkpt><trkpt lat="37.9930012" lon="15.0394105"><ele>1182.5</ele><time>2026-05-03T10:37:37.763Z</time></trkpt><trkpt lat="37.9931476" lon="15.0394555"><ele>1181.75</ele><time>2026-05-03T10:37:38.763Z</time></trkpt><trkpt lat="37.9932799" lon="15.0394949"><ele>1181.0</ele><time>2026-05-03T10:37:39.764Z</time></trkpt><trkpt lat="37.9933879" lon="15.0395242"><ele>1181.0</ele><time>2026-05-03T10:37:40.764Z</time></trkpt><trkpt lat="37.9934745" lon="15.0395341"><ele>1181.0</ele><time>2026-05-03T10:37:41.764Z</time></trkpt><trkpt lat="37.9935416" lon="15.0395432"><ele>1181.0</ele><time>2026-05-03T10:37:42.764Z</time></trkpt><trkpt lat="37.9936405" lon="15.0395588"><ele>1181.0</ele><time>2026-05-03T10:37:44.764Z</time></trkpt><trkpt lat="37.9937182" lon="15.0395705"><ele>1181.0</ele><time>2026-05-03T10:37:47.764Z</time></trkpt><trkpt lat="37.9937814" lon="15.0395769"><ele>1181.0</ele><time>2026-05-03T10:37:50.763Z</time></trkpt><trkpt lat="37.9938662" lon="15.0395869"><ele>1181.0</ele><time>2026-05-03T10:37:55.765Z</time></trkpt><trkpt lat="37.9939372" lon="15.0395743"><ele>1181.0</ele><time>2026-05-03T10:37:58.764Z</time></trkpt><trkpt lat="37.9940062" lon="15.0395511"><ele>1181.0</ele><time>2026-05-03T10:38:01.764Z</time></trkpt><trkpt lat="37.9940642" lon="15.0395061"><ele>1181.0</ele><time>2026-05-03T10:38:04.764Z</time></trkpt><trkpt lat="37.9941109" lon="15.039449"><ele>1181.0</ele><time>2026-05-03T10:38:08.764Z</time></trkpt><trkpt lat="37.9941766" lon="15.039406"><ele>1181.0</ele><time>2026-05-03T10:38:12.764Z</time></trkpt><trkpt lat="37.9942385" lon="15.0393472"><ele>1181.0</ele><time>2026-05-03T10:38:15.764Z</time></trkpt><trkpt lat="37.9943036" lon="15.0392973"><ele>1178.1666666666667</ele><time>2026-05-03T10:38:19.764Z</time></trkpt><trkpt lat="37.9943836" lon="15.0392434"><ele>1175.3333333333335</ele><time>2026-05-03T10:38:22.764Z</time></trkpt><trkpt lat="37.994462" lon="15.0392012"><ele>1172.5</ele><time>2026-05-03T10:38:25.765Z</time></trkpt><trkpt lat="37.9945354" lon="15.0391642"><ele>1169.6666666666667</ele><time>2026-05-03T10:38:28.764Z</time></trkpt><trkpt lat="37.9946062" lon="15.0391235"><ele>1166.8333333333333</ele><time>2026-05-03T10:38:31.764Z</time></trkpt><trkpt lat="37.9946656" lon="15.0390882"><ele>1164.0</ele><time>2026-05-03T10:38:34.764Z</time></trkpt><trkpt lat="37.9947314" lon="15.039029"><ele>1162.7142857142858</ele><time>2026-05-03T10:38:37.764Z</time></trkpt><trkpt lat="37.9948014" lon="15.0390016"><ele>1161.4285714285713</ele><time>2026-05-03T10:38:40.764Z</time></trkpt><trkpt lat="37.9948784" lon="15.0390171"><ele>1160.142857142857</ele><time>2026-05-03T10:38:43.764Z</time></trkpt><trkpt lat="37.9949413" lon="15.039048"><ele>1158.857142857143</ele><time>2026-05-03T10:38:48.764Z</time></trkpt><trkpt lat="37.9950033" lon="15.0390079"><ele>1157.5714285714284</ele><time>2026-05-03T10:38:53.764Z</time></trkpt><trkpt lat="37.9950768" lon="15.0389552"><ele>1156.2857142857142</ele><time>2026-05-03T10:38:56.764Z</time></trkpt><trkpt lat="37.9951458" lon="15.0389566"><ele>1155.0</ele><time>2026-05-03T10:38:59.764Z</time></trkpt><trkpt lat="37.9952164" lon="15.0390115"><ele>1153.2857142857142</ele><time>2026-05-03T10:39:02.764Z</time></trkpt><trkpt lat="37.9952729" lon="15.0390516"><ele>1151.5714285714284</ele><time>2026-05-03T10:39:05.765Z</time></trkpt><trkpt lat="37.9953294" lon="15.0390937"><ele>1149.857142857143</ele><time>2026-05-03T10:39:09.764Z</time></trkpt><trkpt lat="37.9953995" lon="15.039122"><ele>1148.142857142857</ele><time>2026-05-03T10:39:14.764Z</time></trkpt><trkpt lat="37.995465" lon="15.0391722"><ele>1146.4285714285713</ele><time>2026-05-03T10:39:19.764Z</time></trkpt><trkpt lat="37.9955311" lon="15.0392352"><ele>1144.7142857142858</ele><time>2026-05-03T10:39:23.764Z</time></trkpt><trkpt lat="37.9955913" lon="15.0392809"><ele>1143.0</ele><time>2026-05-03T10:39:26.764Z</time></trkpt><trkpt lat="37.9956429" lon="15.0393426"><ele>1143.0</ele><time>2026-05-03T10:39:29.764Z</time></trkpt><trkpt lat="37.9957209" lon="15.0394339"><ele>1143.0</ele><time>2026-05-03T10:39:32.765Z</time></trkpt><trkpt lat="37.9957983" lon="15.0395428"><ele>1143.0</ele><time>2026-05-03T10:39:34.764Z</time></trkpt><trkpt lat="37.9958401" lon="15.0396055"><ele>1143.0</ele><time>2026-05-03T10:39:35.764Z</time></trkpt><trkpt lat="37.9958954" lon="15.0396886"><ele>1143.0</ele><time>2026-05-03T10:39:37.764Z</time></trkpt><trkpt lat="37.9959376" lon="15.0397618"><ele>1143.0</ele><time>2026-05-03T10:39:39.765Z</time></trkpt><trkpt lat="37.996006" lon="15.0398406"><ele>1142.6666666666667</ele><time>2026-05-03T10:39:41.764Z</time></trkpt><trkpt lat="37.9960972" lon="15.0399209"><ele>1142.3333333333333</ele><time>2026-05-03T10:39:43.764Z</time></trkpt><trkpt lat="37.9961598" lon="15.0399677"><ele>1142.0</ele><time>2026-05-03T10:39:46.765Z</time></trkpt><trkpt lat="37.9962148" lon="15.040015"><ele>1141.6666666666665</ele><time>2026-05-03T10:39:49.764Z</time></trkpt><trkpt lat="37.9962816" lon="15.0400544"><ele>1141.3333333333333</ele><time>2026-05-03T10:39:51.765Z</time></trkpt><trkpt lat="37.99637" lon="15.0401282"><ele>1141.0</ele><time>2026-05-03T10:39:53.764Z</time></trkpt><trkpt lat="37.9964248" lon="15.0401764"><ele>1141.0</ele><time>2026-05-03T10:39:54.764Z</time></trkpt><trkpt lat="37.9964719" lon="15.0402325"><ele>1141.0</ele><time>2026-05-03T10:39:55.765Z</time></trkpt><trkpt lat="37.9965105" lon="15.0402974"><ele>1141.0</ele><time>2026-05-03T10:39:57.765Z</time></trkpt><trkpt lat="37.9965352" lon="15.0403812"><ele>1141.0</ele><time>2026-05-03T10:40:06.764Z</time></trkpt><trkpt lat="37.9965886" lon="15.0405083"><ele>1141.0</ele><time>2026-05-03T10:40:08.764Z</time></trkpt><trkpt lat="37.9966174" lon="15.0405927"><ele>1141.0</ele><time>2026-05-03T10:40:10.764Z</time></trkpt><trkpt lat="37.9966309" lon="15.0406936"><ele>1141.0</ele><time>2026-05-03T10:40:20.765Z</time></trkpt><trkpt lat="37.9966536" lon="15.0407971"><ele>1141.0</ele><time>2026-05-03T10:40:22.764Z</time></trkpt><trkpt lat="37.9966846" lon="15.0408798"><ele>1141.0</ele><time>2026-05-03T10:40:23.764Z</time></trkpt><trkpt lat="37.9967155" lon="15.0409646"><ele>1141.0</ele><time>2026-05-03T10:40:24.764Z</time></trkpt><trkpt lat="37.9967394" lon="15.0410399"><ele>1141.0</ele><time>2026-05-03T10:40:25.763Z</time></trkpt><trkpt lat="37.9967808" lon="15.0411664"><ele>1141.0</ele><time>2026-05-03T10:40:27.764Z</time></trkpt><trkpt lat="37.9968051" lon="15.0412418"><ele>1139.8333333333333</ele><time>2026-05-03T10:40:30.764Z</time></trkpt><trkpt lat="37.9968399" lon="15.0413236"><ele>1138.6666666666665</ele><time>2026-05-03T10:40:33.765Z</time></trkpt><trkpt lat="37.996881" lon="15.0414118"><ele>1137.5</ele><time>2026-05-03T10:40:36.764Z</time></trkpt><trkpt lat="37.9969067" lon="15.0414972"><ele>1136.3333333333333</ele><time>2026-05-03T10:40:38.765Z</time></trkpt><trkpt lat="37.9969477" lon="15.04158"><ele>1135.1666666666667</ele><time>2026-05-03T10:40:40.764Z</time></trkpt><trkpt lat="37.9969875" lon="15.0416676"><ele>1134.0</ele><time>2026-05-03T10:40:42.764Z</time></trkpt><trkpt lat="37.9970358" lon="15.0417427"><ele>1134.0</ele><time>2026-05-03T10:40:44.764Z</time></trkpt><trkpt lat="37.997076" lon="15.0418542"><ele>1134.0</ele><time>2026-05-03T10:40:46.764Z</time></trkpt><trkpt lat="37.9971199" lon="15.0419405"><ele>1134.0</ele><time>2026-05-03T10:40:48.765Z</time></trkpt><trkpt lat="37.9971492" lon="15.0420167"><ele>1134.0</ele><time>2026-05-03T10:40:51.764Z</time></trkpt><trkpt lat="37.9971983" lon="15.042108"><ele>1134.0</ele><time>2026-05-03T10:40:54.764Z</time></trkpt><trkpt lat="37.9972498" lon="15.0422134"><ele>1134.0</ele><time>2026-05-03T10:40:56.764Z</time></trkpt><trkpt lat="37.9972809" lon="15.0423025"><ele>1134.0</ele><time>2026-05-03T10:40:58.765Z</time></trkpt><trkpt lat="37.9973228" lon="15.0423986"><ele>1134.0</ele><time>2026-05-03T10:41:00.765Z</time></trkpt><trkpt lat="37.997379" lon="15.0425121"><ele>1134.0</ele><time>2026-05-03T10:41:02.764Z</time></trkpt><trkpt lat="37.9974326" lon="15.0425684"><ele>1134.0</ele><time>2026-05-03T10:41:05.764Z</time></trkpt><trkpt lat="37.9974711" lon="15.042632"><ele>1134.0</ele><time>2026-05-03T10:41:11.764Z</time></trkpt><trkpt lat="37.9974875" lon="15.0427134"><ele>1134.0</ele><time>2026-05-03T10:41:14.764Z</time></trkpt><trkpt lat="37.9975243" lon="15.0428287"><ele>1131.3333333333333</ele><time>2026-05-03T10:41:18.764Z</time></trkpt><trkpt lat="37.9975435" lon="15.0429253"><ele>1128.6666666666667</ele><time>2026-05-03T10:41:21.764Z</time></trkpt><trkpt lat="37.9975508" lon="15.0430162"><ele>1126.0</ele><time>2026-05-03T10:41:24.764Z</time></trkpt><trkpt lat="37.9975683" lon="15.0430995"><ele>1123.3333333333335</ele><time>2026-05-03T10:41:27.764Z</time></trkpt><trkpt lat="37.9976186" lon="15.0431845"><ele>1120.6666666666667</ele><time>2026-05-03T10:41:32.765Z</time></trkpt><trkpt lat="37.9976978" lon="15.0432234"><ele>1118.0</ele><time>2026-05-03T10:41:34.764Z</time></trkpt><trkpt lat="37.9977862" lon="15.0433191"><ele>1117.8333333333335</ele><time>2026-05-03T10:41:36.764Z</time></trkpt><trkpt lat="37.9978201" lon="15.0433908"><ele>1117.6666666666667</ele><time>2026-05-03T10:41:37.764Z</time></trkpt><trkpt lat="37.9978617" lon="15.0434532"><ele>1117.5</ele><time>2026-05-03T10:41:38.764Z</time></trkpt><trkpt lat="37.997942" lon="15.0435373"><ele>1117.3333333333333</ele><time>2026-05-03T10:41:40.764Z</time></trkpt><trkpt lat="37.9980195" lon="15.0435685"><ele>1117.1666666666665</ele><time>2026-05-03T10:41:43.765Z</time></trkpt><trkpt lat="37.9980978" lon="15.0435847"><ele>1117.0</ele><time>2026-05-03T10:41:45.764Z</time></trkpt><trkpt lat="37.9981734" lon="15.0435491"><ele>1117.0</ele><time>2026-05-03T10:41:47.764Z</time></trkpt><trkpt lat="37.9982999" lon="15.0435209"><ele>1117.0</ele><time>2026-05-03T10:41:49.765Z</time></trkpt><trkpt lat="37.9983857" lon="15.0435285"><ele>1117.0</ele><time>2026-05-03T10:41:50.764Z</time></trkpt><trkpt lat="37.9984823" lon="15.0435457"><ele>1117.0</ele><time>2026-05-03T10:41:51.765Z</time></trkpt><trkpt lat="37.9985992" lon="15.0435727"><ele>1117.0</ele><time>2026-05-03T10:41:52.764Z</time></trkpt><trkpt lat="37.9987129" lon="15.0436008"><ele>1115.0</ele><time>2026-05-03T10:41:53.765Z</time></trkpt><trkpt lat="37.998826" lon="15.0436635"><ele>1113.0</ele><time>2026-05-03T10:41:54.764Z</time></trkpt><trkpt lat="37.9989413" lon="15.043729"><ele>1111.0</ele><time>2026-05-03T10:41:55.764Z</time></trkpt><trkpt lat="37.9990451" lon="15.0437851"><ele>1109.0</ele><time>2026-05-03T10:41:56.764Z</time></trkpt><trkpt lat="37.9991417" lon="15.0438415"><ele>1109.0</ele><time>2026-05-03T10:41:57.765Z</time></trkpt><trkpt lat="37.999231" lon="15.0438993"><ele>1109.0</ele><time>2026-05-03T10:41:58.764Z</time></trkpt><trkpt lat="37.9993171" lon="15.0439612"><ele>1109.0</ele><time>2026-05-03T10:41:59.764Z</time></trkpt><trkpt lat="37.9994087" lon="15.0440375"><ele>1109.0</ele><time>2026-05-03T10:42:00.764Z</time></trkpt><trkpt lat="37.9995045" lon="15.0441279"><ele>1109.0</ele><time>2026-05-03T10:42:01.763Z</time></trkpt><trkpt lat="37.9995866" lon="15.0442009"><ele>1109.0</ele><time>2026-05-03T10:42:02.764Z</time></trkpt><trkpt lat="37.9996555" lon="15.0442602"><ele>1109.0</ele><time>2026-05-03T10:42:03.764Z</time></trkpt><trkpt lat="37.9997152" lon="15.0443191"><ele>1109.0</ele><time>2026-05-03T10:42:04.764Z</time></trkpt><trkpt lat="37.9998017" lon="15.0443878"><ele>1109.0</ele><time>2026-05-03T10:42:06.764Z</time></trkpt><trkpt lat="37.9997701" lon="15.0444732"><ele>1109.0</ele><time>2026-05-03T10:45:18.765Z</time></trkpt><trkpt lat="37.9998091" lon="15.0445442"><ele>1109.0</ele><time>2026-05-03T10:46:40.765Z</time></trkpt><trkpt lat="37.9998366" lon="15.0444704"><ele>1109.0</ele><time>2026-05-03T10:47:23.766Z</time></trkpt><trkpt lat="37.9997892" lon="15.0445331"><ele>1109.0</ele><time>2026-05-03T10:47:34.766Z</time></trkpt><trkpt lat="37.9998693" lon="15.0445449"><ele>1109.0</ele><time>2026-05-03T10:58:25.766Z</time></trkpt><trkpt lat="37.999937" lon="15.0445568"><ele>1109.0</ele><time>2026-05-03T10:58:54.765Z</time></trkpt><trkpt lat="38.0000261" lon="15.0445513"><ele>1109.0</ele><time>2026-05-03T10:59:01.766Z</time></trkpt><trkpt lat="38.0000914" lon="15.044617"><ele>1109.0</ele><time>2026-05-03T10:59:03.767Z</time></trkpt><trkpt lat="38.0001443" lon="15.044682"><ele>1109.0</ele><time>2026-05-03T10:59:05.766Z</time></trkpt><trkpt lat="38.0002123" lon="15.0447589"><ele>1109.0</ele><time>2026-05-03T10:59:08.766Z</time></trkpt><trkpt lat="38.0002794" lon="15.0448342"><ele>1109.0</ele><time>2026-05-03T10:59:10.765Z</time></trkpt><trkpt lat="38.0003594" lon="15.0449214"><ele>1109.0</ele><time>2026-05-03T10:59:12.766Z</time></trkpt><trkpt lat="38.0004408" lon="15.0450289"><ele>1109.0</ele><time>2026-05-03T10:59:14.766Z</time></trkpt><trkpt lat="38.0004833" lon="15.0451449"><ele>1108.6666666666667</ele><time>2026-05-03T10:59:16.767Z</time></trkpt><trkpt lat="38.0005091" lon="15.045257"><ele>1108.3333333333335</ele><time>2026-05-03T10:59:18.766Z</time></trkpt><trkpt lat="38.000524" lon="15.0453366"><ele>1108.0</ele><time>2026-05-03T10:59:20.766Z</time></trkpt><trkpt lat="38.0005767" lon="15.0454312"><ele>1107.6666666666667</ele><time>2026-05-03T10:59:23.767Z</time></trkpt><trkpt lat="38.0006284" lon="15.0454926"><ele>1107.3333333333333</ele><time>2026-05-03T10:59:25.766Z</time></trkpt><trkpt lat="38.0006805" lon="15.045583"><ele>1107.0</ele><time>2026-05-03T10:59:28.766Z</time></trkpt><trkpt lat="38.0007195" lon="15.0456477"><ele>1107.0</ele><time>2026-05-03T10:59:30.766Z</time></trkpt><trkpt lat="38.0007665" lon="15.0457181"><ele>1107.0</ele><time>2026-05-03T10:59:32.766Z</time></trkpt><trkpt lat="38.0008169" lon="15.0457874"><ele>1107.0</ele><time>2026-05-03T10:59:34.766Z</time></trkpt><trkpt lat="38.0008795" lon="15.0458776"><ele>1107.0</ele><time>2026-05-03T10:59:36.766Z</time></trkpt><trkpt lat="38.0009686" lon="15.0459412"><ele>1107.0</ele><time>2026-05-03T10:59:38.766Z</time></trkpt><trkpt lat="38.0010263" lon="15.0459991"><ele>1107.0</ele><time>2026-05-03T10:59:40.766Z</time></trkpt><trkpt lat="38.0011012" lon="15.0460704"><ele>1104.2</ele><time>2026-05-03T10:59:42.766Z</time></trkpt><trkpt lat="38.0012024" lon="15.0461291"><ele>1101.4</ele><time>2026-05-03T10:59:44.766Z</time></trkpt><trkpt lat="38.0013026" lon="15.0462232"><ele>1098.6</ele><time>2026-05-03T10:59:46.766Z</time></trkpt><trkpt lat="38.0013593" lon="15.0463196"><ele>1095.8</ele><time>2026-05-03T10:59:48.766Z</time></trkpt><trkpt lat="38.001399" lon="15.046386"><ele>1093.0</ele><time>2026-05-03T10:59:51.766Z</time></trkpt><trkpt lat="38.0014334" lon="15.0464731"><ele>1093.0</ele><time>2026-05-03T10:59:56.767Z</time></trkpt><trkpt lat="38.0014702" lon="15.0465558"><ele>1093.0</ele><time>2026-05-03T10:59:59.766Z</time></trkpt><trkpt lat="38.0015029" lon="15.0466386"><ele>1093.0</ele><time>2026-05-03T11:00:04.767Z</time></trkpt><trkpt lat="38.0015341" lon="15.0467342"><ele>1093.0</ele><time>2026-05-03T11:00:08.766Z</time></trkpt><trkpt lat="38.00155" lon="15.0468296"><ele>1093.0</ele><time>2026-05-03T11:00:11.766Z</time></trkpt><trkpt lat="38.0015976" lon="15.0468883"><ele>1093.0</ele><time>2026-05-03T11:00:16.766Z</time></trkpt><trkpt lat="38.0016681" lon="15.0469036"><ele>1093.0</ele><time>2026-05-03T11:00:23.766Z</time></trkpt><trkpt lat="38.0017335" lon="15.0469554"><ele>1090.0</ele><time>2026-05-03T11:00:27.766Z</time></trkpt><trkpt lat="38.0017928" lon="15.0470021"><ele>1087.0</ele><time>2026-05-03T11:00:29.766Z</time></trkpt><trkpt lat="38.001849" lon="15.0470455"><ele>1084.0</ele><time>2026-05-03T11:00:31.766Z</time></trkpt><trkpt lat="38.0019099" lon="15.047106"><ele>1081.0</ele><time>2026-05-03T11:00:35.766Z</time></trkpt><trkpt lat="38.0019806" lon="15.0471788"><ele>1078.0</ele><time>2026-05-03T11:00:39.767Z</time></trkpt><trkpt lat="38.0020629" lon="15.047227"><ele>1075.0</ele><time>2026-05-03T11:00:41.766Z</time></trkpt><trkpt lat="38.0021611" lon="15.0472823"><ele>1075.0</ele><time>2026-05-03T11:00:43.767Z</time></trkpt><trkpt lat="38.0022566" lon="15.0473332"><ele>1075.0</ele><time>2026-05-03T11:00:45.766Z</time></trkpt><trkpt lat="38.0023253" lon="15.0473466"><ele>1075.0</ele><time>2026-05-03T11:00:47.766Z</time></trkpt><trkpt lat="38.0023913" lon="15.0473367"><ele>1075.0</ele><time>2026-05-03T11:00:50.766Z</time></trkpt><trkpt lat="38.0024288" lon="15.0472474"><ele>1075.0</ele><time>2026-05-03T11:00:53.766Z</time></trkpt><trkpt lat="38.0024626" lon="15.0471751"><ele>1075.0</ele><time>2026-05-03T11:00:55.766Z</time></trkpt><trkpt lat="38.0024973" lon="15.0470972"><ele>1073.3333333333333</ele><time>2026-05-03T11:00:57.766Z</time></trkpt><trkpt lat="38.0025311" lon="15.0470029"><ele>1071.6666666666665</ele><time>2026-05-03T11:01:00.766Z</time></trkpt><trkpt lat="38.0025526" lon="15.0468866"><ele>1070.0</ele><time>2026-05-03T11:01:03.766Z</time></trkpt><trkpt lat="38.002558" lon="15.0467831"><ele>1068.3333333333333</ele><time>2026-05-03T11:01:06.766Z</time></trkpt><trkpt lat="38.0025677" lon="15.0466867"><ele>1066.6666666666667</ele><time>2026-05-03T11:01:09.766Z</time></trkpt><trkpt lat="38.0025729" lon="15.0466"><ele>1065.0</ele><time>2026-05-03T11:01:11.766Z</time></trkpt><trkpt lat="38.00259" lon="15.0465033"><ele>1065.0</ele><time>2026-05-03T11:01:14.766Z</time></trkpt><trkpt lat="38.0026387" lon="15.0463962"><ele>1065.0</ele><time>2026-05-03T11:01:17.766Z</time></trkpt><trkpt lat="38.0027133" lon="15.0462871"><ele>1065.0</ele><time>2026-05-03T11:01:19.766Z</time></trkpt><trkpt lat="38.0027624" lon="15.0462329"><ele>1065.0</ele><time>2026-05-03T11:01:20.766Z</time></trkpt><trkpt lat="38.00282" lon="15.0461691"><ele>1065.0</ele><time>2026-05-03T11:01:22.766Z</time></trkpt><trkpt lat="38.0028874" lon="15.0460913"><ele>1065.0</ele><time>2026-05-03T11:01:26.765Z</time></trkpt><trkpt lat="38.0029759" lon="15.0460125"><ele>1065.0</ele><time>2026-05-03T11:01:28.766Z</time></trkpt><trkpt lat="38.0030527" lon="15.04593"><ele>1065.0</ele><time>2026-05-03T11:01:30.766Z</time></trkpt><trkpt lat="38.0031379" lon="15.0458799"><ele>1065.0</ele><time>2026-05-03T11:01:32.766Z</time></trkpt><trkpt lat="38.0032186" lon="15.0457828"><ele>1065.0</ele><time>2026-05-03T11:01:34.766Z</time></trkpt><trkpt lat="38.0032632" lon="15.0457236"><ele>1065.0</ele><time>2026-05-03T11:01:35.766Z</time></trkpt><trkpt lat="38.0033074" lon="15.0456527"><ele>1065.0</ele><time>2026-05-03T11:01:36.766Z</time></trkpt><trkpt lat="38.0033748" lon="15.0455389"><ele>1063.0</ele><time>2026-05-03T11:01:38.767Z</time></trkpt><trkpt lat="38.0034344" lon="15.0454048"><ele>1061.0</ele><time>2026-05-03T11:01:40.766Z</time></trkpt><trkpt lat="38.0034595" lon="15.0453306"><ele>1059.0</ele><time>2026-05-03T11:01:41.767Z</time></trkpt><trkpt lat="38.0035356" lon="15.0452374"><ele>1057.0</ele><time>2026-05-03T11:01:43.766Z</time></trkpt><trkpt lat="38.0036193" lon="15.0451747"><ele>1055.0</ele><time>2026-05-03T11:01:45.766Z</time></trkpt><trkpt lat="38.0037023" lon="15.0451425"><ele>1055.0</ele><time>2026-05-03T11:01:47.766Z</time></trkpt><trkpt lat="38.0037754" lon="15.0451282"><ele>1055.0</ele><time>2026-05-03T11:01:49.766Z</time></trkpt><trkpt lat="38.003855" lon="15.0451017"><ele>1055.0</ele><time>2026-05-03T11:01:51.766Z</time></trkpt><trkpt lat="38.0039359" lon="15.045077"><ele>1055.0</ele><time>2026-05-03T11:01:53.767Z</time></trkpt><trkpt lat="38.0040038" lon="15.0450545"><ele>1055.0</ele><time>2026-05-03T11:01:56.767Z</time></trkpt><trkpt lat="38.0040821" lon="15.0450087"><ele>1055.0</ele><time>2026-05-03T11:02:00.767Z</time></trkpt><trkpt lat="38.0041609" lon="15.0449803"><ele>1052.0</ele><time>2026-05-03T11:02:02.767Z</time></trkpt><trkpt lat="38.0042296" lon="15.0449086"><ele>1049.0</ele><time>2026-05-03T11:02:04.767Z</time></trkpt><trkpt lat="38.0042519" lon="15.044812"><ele>1046.0</ele><time>2026-05-03T11:02:06.767Z</time></trkpt><trkpt lat="38.004238" lon="15.0447273"><ele>1043.0</ele><time>2026-05-03T11:02:08.766Z</time></trkpt><trkpt lat="38.0042911" lon="15.0447731"><ele>1040.0</ele><time>2026-05-03T11:02:35.767Z</time></trkpt><trkpt lat="38.0043719" lon="15.0447238"><ele>1037.0</ele><time>2026-05-03T11:02:39.767Z</time></trkpt><trkpt lat="38.0044438" lon="15.0447032"><ele>1037.0</ele><time>2026-05-03T11:02:41.767Z</time></trkpt><trkpt lat="38.0044894" lon="15.0446327"><ele>1037.0</ele><time>2026-05-03T11:02:44.767Z</time></trkpt><trkpt lat="38.004529" lon="15.044537"><ele>1037.0</ele><time>2026-05-03T11:02:53.767Z</time></trkpt><trkpt lat="38.0045717" lon="15.0444372"><ele>1037.0</ele><time>2026-05-03T11:02:55.767Z</time></trkpt><trkpt lat="38.0046161" lon="15.0443105"><ele>1037.0</ele><time>2026-05-03T11:02:57.767Z</time></trkpt><trkpt lat="38.0046516" lon="15.0441665"><ele>1035.8</ele><time>2026-05-03T11:02:59.767Z</time></trkpt><trkpt lat="38.0047078" lon="15.0440533"><ele>1034.6</ele><time>2026-05-03T11:03:01.767Z</time></trkpt><trkpt lat="38.0047332" lon="15.0439363"><ele>1033.3999999999999</ele><time>2026-05-03T11:03:03.767Z</time></trkpt><trkpt lat="38.0047252" lon="15.0438195"><ele>1032.2</ele><time>2026-05-03T11:03:05.767Z</time></trkpt><trkpt lat="38.0047105" lon="15.0437072"><ele>1031.0</ele><time>2026-05-03T11:03:07.767Z</time></trkpt><trkpt lat="38.0047017" lon="15.0435953"><ele>1031.0</ele><time>2026-05-03T11:03:09.767Z</time></trkpt><trkpt lat="38.0047183" lon="15.0435013"><ele>1031.0</ele><time>2026-05-03T11:03:11.767Z</time></trkpt><trkpt lat="38.0047612" lon="15.0434114"><ele>1031.0</ele><time>2026-05-03T11:03:13.767Z</time></trkpt><trkpt lat="38.0047955" lon="15.0432719"><ele>1031.0</ele><time>2026-05-03T11:03:15.767Z</time></trkpt><trkpt lat="38.0048065" lon="15.043185"><ele>1031.0</ele><time>2026-05-03T11:03:16.767Z</time></trkpt><trkpt lat="38.0048118" lon="15.0430962"><ele>1031.0</ele><time>2026-05-03T11:03:17.767Z</time></trkpt><trkpt lat="38.0048107" lon="15.0429575"><ele>1032.0</ele><time>2026-05-03T11:03:19.767Z</time></trkpt><trkpt lat="38.0047954" lon="15.04285"><ele>1033.0</ele><time>2026-05-03T11:03:21.767Z</time></trkpt><trkpt lat="38.0047966" lon="15.0427543"><ele>1034.0</ele><time>2026-05-03T11:03:23.767Z</time></trkpt><trkpt lat="38.0048397" lon="15.0426514"><ele>1035.0</ele><time>2026-05-03T11:03:25.767Z</time></trkpt><trkpt lat="38.0048782" lon="15.0425555"><ele>1036.0</ele><time>2026-05-03T11:03:27.767Z</time></trkpt><trkpt lat="38.0049364" lon="15.0424781"><ele>1037.0</ele><time>2026-05-03T11:03:29.767Z</time></trkpt><trkpt lat="38.0050219" lon="15.0423555"><ele>1035.2857142857142</ele><time>2026-05-03T11:03:31.767Z</time></trkpt><trkpt lat="38.0050614" lon="15.0422811"><ele>1033.5714285714284</ele><time>2026-05-03T11:03:32.767Z</time></trkpt><trkpt lat="38.0050924" lon="15.0421984"><ele>1031.8571428571427</ele><time>2026-05-03T11:03:33.767Z</time></trkpt><trkpt lat="38.0051244" lon="15.0421224"><ele>1030.142857142857</ele><time>2026-05-03T11:03:34.767Z</time></trkpt><trkpt lat="38.0051627" lon="15.0420503"><ele>1028.4285714285713</ele><time>2026-05-03T11:03:35.767Z</time></trkpt><trkpt lat="38.0051902" lon="15.0419634"><ele>1026.7142857142856</ele><time>2026-05-03T11:03:36.768Z</time></trkpt><trkpt lat="38.0052094" lon="15.0418716"><ele>1025.0</ele><time>2026-05-03T11:03:37.767Z</time></trkpt><trkpt lat="38.0052284" lon="15.0417925"><ele>1025.0</ele><time>2026-05-03T11:03:38.767Z</time></trkpt><trkpt lat="38.0052514" lon="15.041716"><ele>1025.0</ele><time>2026-05-03T11:03:39.767Z</time></trkpt><trkpt lat="38.005285" lon="15.0415894"><ele>1025.0</ele><time>2026-05-03T11:03:41.767Z</time></trkpt><trkpt lat="38.0053123" lon="15.0414673"><ele>1025.0</ele><time>2026-05-03T11:03:43.768Z</time></trkpt><trkpt lat="38.0053627" lon="15.041347"><ele>1025.0</ele><time>2026-05-03T11:03:45.767Z</time></trkpt><trkpt lat="38.0054298" lon="15.0412172"><ele>1024.5</ele><time>2026-05-03T11:03:47.767Z</time></trkpt><trkpt lat="38.0054334" lon="15.041075"><ele>1024.0</ele><time>2026-05-03T11:03:49.767Z</time></trkpt><trkpt lat="38.0054093" lon="15.0409275"><ele>1023.5</ele><time>2026-05-03T11:03:51.767Z</time></trkpt><trkpt lat="38.0053612" lon="15.0407971"><ele>1023.0</ele><time>2026-05-03T11:03:53.768Z</time></trkpt><trkpt lat="38.0052929" lon="15.0406792"><ele>1023.0</ele><time>2026-05-03T11:03:55.768Z</time></trkpt><trkpt lat="38.0052167" lon="15.0405972"><ele>1023.0</ele><time>2026-05-03T11:03:57.767Z</time></trkpt><trkpt lat="38.0051546" lon="15.0405434"><ele>1023.0</ele><time>2026-05-03T11:03:59.767Z</time></trkpt><trkpt lat="38.0051191" lon="15.0404747"><ele>1023.0</ele><time>2026-05-03T11:04:02.767Z</time></trkpt><trkpt lat="38.0051695" lon="15.0403883"><ele>1023.0</ele><time>2026-05-03T11:04:21.767Z</time></trkpt><trkpt lat="38.00523" lon="15.0403405"><ele>1023.0</ele><time>2026-05-03T11:04:24.767Z</time></trkpt><trkpt lat="38.0052906" lon="15.0402995"><ele>1023.0</ele><time>2026-05-03T11:04:28.767Z</time></trkpt><trkpt lat="38.0053567" lon="15.0402399"><ele>1023.0</ele><time>2026-05-03T11:04:31.767Z</time></trkpt><trkpt lat="38.0054117" lon="15.0401725"><ele>1023.0</ele><time>2026-05-03T11:04:33.767Z</time></trkpt><trkpt lat="38.0054524" lon="15.0400843"><ele>1023.0</ele><time>2026-05-03T11:04:35.768Z</time></trkpt><trkpt lat="38.0054753" lon="15.0399657"><ele>1023.0</ele><time>2026-05-03T11:04:37.767Z</time></trkpt><trkpt lat="38.0054843" lon="15.0398332"><ele>1023.0</ele><time>2026-05-03T11:04:39.767Z</time></trkpt><trkpt lat="38.0054943" lon="15.0396817"><ele>1023.5</ele><time>2026-05-03T11:04:41.767Z</time></trkpt><trkpt lat="38.0055039" lon="15.0395946"><ele>1024.0</ele><time>2026-05-03T11:04:42.767Z</time></trkpt><trkpt lat="38.0055105" lon="15.0395058"><ele>1024.5</ele><time>2026-05-03T11:04:43.768Z</time></trkpt><trkpt lat="38.0055121" lon="15.039424"><ele>1025.0</ele><time>2026-05-03T11:04:44.767Z</time></trkpt><trkpt lat="38.0055086" lon="15.0392958"><ele>1025.5</ele><time>2026-05-03T11:04:46.767Z</time></trkpt><trkpt lat="38.0054982" lon="15.0391633"><ele>1026.0</ele><time>2026-05-03T11:04:48.768Z</time></trkpt><trkpt lat="38.0055102" lon="15.0390393"><ele>1026.0</ele><time>2026-05-03T11:04:50.767Z</time></trkpt><trkpt lat="38.0055526" lon="15.0388994"><ele>1026.0</ele><time>2026-05-03T11:04:52.767Z</time></trkpt><trkpt lat="38.0055861" lon="15.0387723"><ele>1026.0</ele><time>2026-05-03T11:04:54.768Z</time></trkpt><trkpt lat="38.0056254" lon="15.038636"><ele>1026.0</ele><time>2026-05-03T11:04:56.767Z</time></trkpt><trkpt lat="38.0056647" lon="15.0385241"><ele>1026.0</ele><time>2026-05-03T11:04:58.768Z</time></trkpt><trkpt lat="38.0057083" lon="15.0384166"><ele>1026.0</ele><time>2026-05-03T11:05:00.767Z</time></trkpt><trkpt lat="38.0057787" lon="15.0383114"><ele>1026.0</ele><time>2026-05-03T11:05:02.766Z</time></trkpt><trkpt lat="38.0058214" lon="15.0382407"><ele>1026.0</ele><time>2026-05-03T11:05:04.767Z</time></trkpt><trkpt lat="38.0058701" lon="15.0381647"><ele>1026.0</ele><time>2026-05-03T11:05:06.767Z</time></trkpt><trkpt lat="38.0059079" lon="15.0380884"><ele>1026.0</ele><time>2026-05-03T11:05:08.767Z</time></trkpt><trkpt lat="38.0059418" lon="15.0379879"><ele>1026.0</ele><time>2026-05-03T11:05:10.767Z</time></trkpt><trkpt lat="38.0059605" lon="15.0378883"><ele>1025.5</ele><time>2026-05-03T11:05:12.767Z</time></trkpt><trkpt lat="38.0059642" lon="15.0378068"><ele>1025.0</ele><time>2026-05-03T11:05:14.767Z</time></trkpt><trkpt lat="38.0059423" lon="15.0376867"><ele>1024.5</ele><time>2026-05-03T11:05:17.767Z</time></trkpt><trkpt lat="38.0058849" lon="15.0376255"><ele>1024.0</ele><time>2026-05-03T11:05:19.767Z</time></trkpt><trkpt lat="38.0058507" lon="15.0375476"><ele>1023.5</ele><time>2026-05-03T11:05:22.767Z</time></trkpt><trkpt lat="38.005856" lon="15.0374155"><ele>1023.0</ele><time>2026-05-03T11:06:02.768Z</time></trkpt><trkpt lat="38.0059115" lon="15.0373095"><ele>1023.0</ele><time>2026-05-03T11:06:04.767Z</time></trkpt><trkpt lat="38.0059272" lon="15.037181"><ele>1023.0</ele><time>2026-05-03T11:06:06.767Z</time></trkpt><trkpt lat="38.0059896" lon="15.0370422"><ele>1023.0</ele><time>2026-05-03T11:06:08.767Z</time></trkpt><trkpt lat="38.0060678" lon="15.0369332"><ele>1023.0</ele><time>2026-05-03T11:06:10.767Z</time></trkpt><trkpt lat="38.0061377" lon="15.0368042"><ele>1023.0</ele><time>2026-05-03T11:06:12.767Z</time></trkpt><trkpt lat="38.0061607" lon="15.0367193"><ele>1023.0</ele><time>2026-05-03T11:06:13.767Z</time></trkpt><trkpt lat="38.006175" lon="15.036621"><ele>1023.0</ele><time>2026-05-03T11:06:14.767Z</time></trkpt><trkpt lat="38.0062027" lon="15.0365229"><ele>1023.0</ele><time>2026-05-03T11:06:15.767Z</time></trkpt><trkpt lat="38.0062262" lon="15.0364161"><ele>1023.0</ele><time>2026-05-03T11:06:16.768Z</time></trkpt><trkpt lat="38.0062271" lon="15.0363214"><ele>1023.0</ele><time>2026-05-03T11:06:17.768Z</time></trkpt><trkpt lat="38.0062302" lon="15.0362266"><ele>1023.3333333333334</ele><time>2026-05-03T11:06:18.767Z</time></trkpt><trkpt lat="38.0062572" lon="15.0361285"><ele>1023.6666666666667</ele><time>2026-05-03T11:06:19.767Z</time></trkpt><trkpt lat="38.0062859" lon="15.0360411"><ele>1024.0</ele><time>2026-05-03T11:06:20.768Z</time></trkpt><trkpt lat="38.0063009" lon="15.0359573"><ele>1024.3333333333335</ele><time>2026-05-03T11:06:21.767Z</time></trkpt><trkpt lat="38.006278" lon="15.0358347"><ele>1024.6666666666667</ele><time>2026-05-03T11:06:23.767Z</time></trkpt><trkpt lat="38.0062369" lon="15.035727"><ele>1025.0</ele><time>2026-05-03T11:06:25.767Z</time></trkpt><trkpt lat="38.0061935" lon="15.0356199"><ele>1026.5</ele><time>2026-05-03T11:06:27.767Z</time></trkpt><trkpt lat="38.0061726" lon="15.0355288"><ele>1028.0</ele><time>2026-05-03T11:06:29.767Z</time></trkpt><trkpt lat="38.0061996" lon="15.0354235"><ele>1029.5</ele><time>2026-05-03T11:06:32.767Z</time></trkpt><trkpt lat="38.0062298" lon="15.0353269"><ele>1031.0</ele><time>2026-05-03T11:06:34.767Z</time></trkpt><trkpt lat="38.0062892" lon="15.0351977"><ele>1032.5</ele><time>2026-05-03T11:06:36.767Z</time></trkpt><trkpt lat="38.0063289" lon="15.035135"><ele>1034.0</ele><time>2026-05-03T11:06:37.767Z</time></trkpt><trkpt lat="38.0063753" lon="15.0350748"><ele>1034.0</ele><time>2026-05-03T11:06:38.766Z</time></trkpt><trkpt lat="38.0064241" lon="15.0350214"><ele>1034.0</ele><time>2026-05-03T11:06:39.767Z</time></trkpt><trkpt lat="38.0064802" lon="15.0349768"><ele>1034.0</ele><time>2026-05-03T11:06:40.767Z</time></trkpt><trkpt lat="38.0065377" lon="15.0349359"><ele>1034.0</ele><time>2026-05-03T11:06:41.767Z</time></trkpt><trkpt lat="38.0065972" lon="15.0348956"><ele>1034.0</ele><time>2026-05-03T11:06:42.768Z</time></trkpt><trkpt lat="38.0066883" lon="15.0347797"><ele>1034.0</ele><time>2026-05-03T11:06:44.767Z</time></trkpt><trkpt lat="38.0067229" lon="15.0347128"><ele>1035.5</ele><time>2026-05-03T11:06:45.767Z</time></trkpt><trkpt lat="38.0067717" lon="15.0346478"><ele>1037.0</ele><time>2026-05-03T11:06:46.768Z</time></trkpt><trkpt lat="38.0068256" lon="15.0345784"><ele>1038.5</ele><time>2026-05-03T11:06:47.767Z</time></trkpt><trkpt lat="38.0068894" lon="15.0345148"><ele>1040.0</ele><time>2026-05-03T11:06:48.767Z</time></trkpt><trkpt lat="38.0069633" lon="15.0344645"><ele>1041.5</ele><time>2026-05-03T11:06:49.767Z</time></trkpt><trkpt lat="38.0070343" lon="15.0343908"><ele>1043.0</ele><time>2026-05-03T11:06:50.767Z</time></trkpt><trkpt lat="38.0071165" lon="15.0343518"><ele>1043.0</ele><time>2026-05-03T11:06:51.767Z</time></trkpt><trkpt lat="38.0072073" lon="15.0343354"><ele>1043.0</ele><time>2026-05-03T11:06:52.767Z</time></trkpt><trkpt lat="38.0072715" lon="15.0343274"><ele>1043.0</ele><time>2026-05-03T11:06:53.768Z</time></trkpt><trkpt lat="38.0073609" lon="15.0343179"><ele>1043.0</ele><time>2026-05-03T11:06:55.767Z</time></trkpt><trkpt lat="38.0074182" lon="15.0342801"><ele>1043.0</ele><time>2026-05-03T11:06:58.767Z</time></trkpt><trkpt lat="38.007494" lon="15.0342011"><ele>1043.0</ele><time>2026-05-03T11:07:01.768Z</time></trkpt><trkpt lat="38.0075565" lon="15.0341116"><ele>1043.6</ele><time>2026-05-03T11:07:03.767Z</time></trkpt><trkpt lat="38.0076319" lon="15.034015"><ele>1044.1999999999998</ele><time>2026-05-03T11:07:05.767Z</time></trkpt><trkpt lat="38.0077198" lon="15.0339411"><ele>1044.8</ele><time>2026-05-03T11:07:07.767Z</time></trkpt><trkpt lat="38.0078241" lon="15.0338727"><ele>1045.3999999999999</ele><time>2026-05-03T11:07:09.768Z</time></trkpt><trkpt lat="38.0079137" lon="15.0337811"><ele>1046.0</ele><time>2026-05-03T11:07:11.767Z</time></trkpt><trkpt lat="38.0079819" lon="15.0336754"><ele>1046.0</ele><time>2026-05-03T11:07:13.767Z</time></trkpt><trkpt lat="38.0080137" lon="15.0335476"><ele>1046.0</ele><time>2026-05-03T11:07:15.768Z</time></trkpt><trkpt lat="38.0079872" lon="15.0334652"><ele>1046.0</ele><time>2026-05-03T11:07:18.767Z</time></trkpt><trkpt lat="38.0079314" lon="15.0334217"><ele>1046.0</ele><time>2026-05-03T11:07:25.767Z</time></trkpt><trkpt lat="38.007889" lon="15.0332858"><ele>1046.0</ele><time>2026-05-03T11:07:27.767Z</time></trkpt><trkpt lat="38.007901" lon="15.0331667"><ele>1048.3999999999999</ele><time>2026-05-03T11:07:29.767Z</time></trkpt><trkpt lat="38.007973" lon="15.0330723"><ele>1050.8</ele><time>2026-05-03T11:07:31.767Z</time></trkpt><trkpt lat="38.0080717" lon="15.0329226"><ele>1053.1999999999998</ele><time>2026-05-03T11:07:33.767Z</time></trkpt><trkpt lat="38.0081184" lon="15.0328211"><ele>1055.6</ele><time>2026-05-03T11:07:34.768Z</time></trkpt><trkpt lat="38.0081641" lon="15.0327168"><ele>1058.0</ele><time>2026-05-03T11:07:35.767Z</time></trkpt><trkpt lat="38.0082069" lon="15.0326134"><ele>1058.0</ele><time>2026-05-03T11:07:36.767Z</time></trkpt><trkpt lat="38.0082296" lon="15.0325002"><ele>1058.0</ele><time>2026-05-03T11:07:37.768Z</time></trkpt><trkpt lat="38.008234" lon="15.0323789"><ele>1058.0</ele><time>2026-05-03T11:07:38.767Z</time></trkpt><trkpt lat="38.0082199" lon="15.032253"><ele>1058.0</ele><time>2026-05-03T11:07:39.767Z</time></trkpt><trkpt lat="38.0082092" lon="15.0321283"><ele>1058.0</ele><time>2026-05-03T11:07:40.767Z</time></trkpt><trkpt lat="38.008182" lon="15.0320054"><ele>1056.8</ele><time>2026-05-03T11:07:41.767Z</time></trkpt><trkpt lat="38.0081435" lon="15.0318712"><ele>1055.6</ele><time>2026-05-03T11:07:42.767Z</time></trkpt><trkpt lat="38.0081086" lon="15.031742"><ele>1054.4</ele><time>2026-05-03T11:07:43.768Z</time></trkpt><trkpt lat="38.0080784" lon="15.0316301"><ele>1053.2</ele><time>2026-05-03T11:07:44.767Z</time></trkpt><trkpt lat="38.0080587" lon="15.0315381"><ele>1052.0</ele><time>2026-05-03T11:07:45.767Z</time></trkpt><trkpt lat="38.0080215" lon="15.0313956"><ele>1051.8</ele><time>2026-05-03T11:07:47.767Z</time></trkpt><trkpt lat="38.0079986" lon="15.0312561"><ele>1051.6</ele><time>2026-05-03T11:07:49.767Z</time></trkpt><trkpt lat="38.0079666" lon="15.0311518"><ele>1051.3999999999999</ele><time>2026-05-03T11:07:51.768Z</time></trkpt><trkpt lat="38.0080014" lon="15.0310623"><ele>1051.2</ele><time>2026-05-03T11:07:53.766Z</time></trkpt><trkpt lat="38.0080758" lon="15.0309306"><ele>1051.0</ele><time>2026-05-03T11:07:55.767Z</time></trkpt><trkpt lat="38.0081312" lon="15.0308609"><ele>1051.0</ele><time>2026-05-03T11:07:56.767Z</time></trkpt><trkpt lat="38.0081908" lon="15.0307924"><ele>1051.0</ele><time>2026-05-03T11:07:57.767Z</time></trkpt><trkpt lat="38.0082584" lon="15.0307286"><ele>1051.0</ele><time>2026-05-03T11:07:58.767Z</time></trkpt><trkpt lat="38.0083161" lon="15.0306601"><ele>1051.0</ele><time>2026-05-03T11:07:59.767Z</time></trkpt><trkpt lat="38.0083616" lon="15.0305942"><ele>1051.0</ele><time>2026-05-03T11:08:00.768Z</time></trkpt><trkpt lat="38.0084048" lon="15.0304613"><ele>1051.0</ele><time>2026-05-03T11:08:02.767Z</time></trkpt><trkpt lat="38.0083957" lon="15.0303209"><ele>1051.0</ele><time>2026-05-03T11:08:04.767Z</time></trkpt><trkpt lat="38.0083747" lon="15.0301859"><ele>1051.0</ele><time>2026-05-03T11:08:06.767Z</time></trkpt><trkpt lat="38.0083088" lon="15.0300617"><ele>1051.0</ele><time>2026-05-03T11:08:08.768Z</time></trkpt><trkpt lat="38.0082651" lon="15.0300013"><ele>1051.0</ele><time>2026-05-03T11:08:09.767Z</time></trkpt><trkpt lat="38.0081999" lon="15.0298839"><ele>1051.0</ele><time>2026-05-03T11:08:11.767Z</time></trkpt><trkpt lat="38.0081882" lon="15.0297857"><ele>1051.0</ele><time>2026-05-03T11:08:14.767Z</time></trkpt><trkpt lat="38.008237" lon="15.0297058"><ele>1051.0</ele><time>2026-05-03T11:08:18.767Z</time></trkpt><trkpt lat="38.0082983" lon="15.029613"><ele>1051.0</ele><time>2026-05-03T11:08:20.767Z</time></trkpt><trkpt lat="38.0083778" lon="15.0294904"><ele>1051.0</ele><time>2026-05-03T11:08:22.767Z</time></trkpt><trkpt lat="38.0084284" lon="15.0294192"><ele>1051.0</ele><time>2026-05-03T11:08:23.767Z</time></trkpt><trkpt lat="38.00848" lon="15.0293397"><ele>1050.5</ele><time>2026-05-03T11:08:24.767Z</time></trkpt><trkpt lat="38.0085367" lon="15.029253"><ele>1050.0</ele><time>2026-05-03T11:08:25.767Z</time></trkpt><trkpt lat="38.0085961" lon="15.0291659"><ele>1049.5</ele><time>2026-05-03T11:08:26.767Z</time></trkpt><trkpt lat="38.0086591" lon="15.0290823"><ele>1049.0</ele><time>2026-05-03T11:08:27.768Z</time></trkpt><trkpt lat="38.0087173" lon="15.0289967"><ele>1048.5</ele><time>2026-05-03T11:08:28.768Z</time></trkpt><trkpt lat="38.0087783" lon="15.0289136"><ele>1048.0</ele><time>2026-05-03T11:08:29.768Z</time></trkpt><trkpt lat="38.0088387" lon="15.0288323"><ele>1047.4</ele><time>2026-05-03T11:08:30.767Z</time></trkpt><trkpt lat="38.0089" lon="15.0287554"><ele>1046.8</ele><time>2026-05-03T11:08:31.767Z</time></trkpt><trkpt lat="38.0089704" lon="15.0286898"><ele>1046.2</ele><time>2026-05-03T11:08:32.766Z</time></trkpt><trkpt lat="38.0090513" lon="15.028627"><ele>1045.6</ele><time>2026-05-03T11:08:33.768Z</time></trkpt><trkpt lat="38.0091374" lon="15.0285622"><ele>1045.0</ele><time>2026-05-03T11:08:34.767Z</time></trkpt><trkpt lat="38.009226" lon="15.0284956"><ele>1045.0</ele><time>2026-05-03T11:08:35.767Z</time></trkpt><trkpt lat="38.0093168" lon="15.0284258"><ele>1045.0</ele><time>2026-05-03T11:08:36.767Z</time></trkpt><trkpt lat="38.009414" lon="15.0283498"><ele>1045.0</ele><time>2026-05-03T11:08:37.767Z</time></trkpt><trkpt lat="38.0095139" lon="15.0282734"><ele>1045.0</ele><time>2026-05-03T11:08:38.768Z</time></trkpt><trkpt lat="38.0096139" lon="15.0281972"><ele>1044.6</ele><time>2026-05-03T11:08:39.768Z</time></trkpt><trkpt lat="38.0097133" lon="15.0281254"><ele>1044.2</ele><time>2026-05-03T11:08:40.768Z</time></trkpt><trkpt lat="38.0098109" lon="15.028073"><ele>1043.8</ele><time>2026-05-03T11:08:41.767Z</time></trkpt><trkpt lat="38.0099059" lon="15.0280339"><ele>1043.4</ele><time>2026-05-03T11:08:42.767Z</time></trkpt><trkpt lat="38.0100037" lon="15.0280082"><ele>1043.0</ele><time>2026-05-03T11:08:43.767Z</time></trkpt><trkpt lat="38.010103" lon="15.0279913"><ele>1042.75</ele><time>2026-05-03T11:08:44.767Z</time></trkpt><trkpt lat="38.0102173" lon="15.0279718"><ele>1042.5</ele><time>2026-05-03T11:08:45.767Z</time></trkpt><trkpt lat="38.0103425" lon="15.0279545"><ele>1042.25</ele><time>2026-05-03T11:08:46.767Z</time></trkpt><trkpt lat="38.01047" lon="15.0279386"><ele>1042.0</ele><time>2026-05-03T11:08:47.767Z</time></trkpt><trkpt lat="38.0106015" lon="15.0279243"><ele>1042.0</ele><time>2026-05-03T11:08:48.768Z</time></trkpt><trkpt lat="38.010737" lon="15.0279077"><ele>1042.0</ele><time>2026-05-03T11:08:49.767Z</time></trkpt><trkpt lat="38.010875" lon="15.0278933"><ele>1042.0</ele><time>2026-05-03T11:08:50.768Z</time></trkpt><trkpt lat="38.0110224" lon="15.0278766"><ele>1042.0</ele><time>2026-05-03T11:08:51.767Z</time></trkpt><trkpt lat="38.0111734" lon="15.0278582"><ele>1041.75</ele><time>2026-05-03T11:08:52.767Z</time></trkpt><trkpt lat="38.0113156" lon="15.0278408"><ele>1041.5</ele><time>2026-05-03T11:08:53.767Z</time></trkpt><trkpt lat="38.0114472" lon="15.0278305"><ele>1041.25</ele><time>2026-05-03T11:08:54.768Z</time></trkpt><trkpt lat="38.0115685" lon="15.0278382"><ele>1041.0</ele><time>2026-05-03T11:08:55.767Z</time></trkpt><trkpt lat="38.011685" lon="15.0278751"><ele>1039.5</ele><time>2026-05-03T11:08:56.767Z</time></trkpt><trkpt lat="38.0117896" lon="15.0279387"><ele>1038.0</ele><time>2026-05-03T11:08:57.767Z</time></trkpt><trkpt lat="38.011893" lon="15.0280036"><ele>1036.5</ele><time>2026-05-03T11:08:58.768Z</time></trkpt><trkpt lat="38.0119999" lon="15.028067"><ele>1035.0</ele><time>2026-05-03T11:08:59.767Z</time></trkpt><trkpt lat="38.012111" lon="15.028121"><ele>1035.0</ele><time>2026-05-03T11:09:00.767Z</time></trkpt><trkpt lat="38.0122235" lon="15.0281588"><ele>1035.0</ele><time>2026-05-03T11:09:01.767Z</time></trkpt><trkpt lat="38.0123431" lon="15.0281867"><ele>1035.0</ele><time>2026-05-03T11:09:02.767Z</time></trkpt><trkpt lat="38.012474" lon="15.0282029"><ele>1035.0</ele><time>2026-05-03T11:09:03.767Z</time></trkpt><trkpt lat="38.0126156" lon="15.0282217"><ele>1033.75</ele><time>2026-05-03T11:09:04.767Z</time></trkpt><trkpt lat="38.0127636" lon="15.0282358"><ele>1032.5</ele><time>2026-05-03T11:09:05.767Z</time></trkpt><trkpt lat="38.0128987" lon="15.028249"><ele>1031.25</ele><time>2026-05-03T11:09:06.767Z</time></trkpt><trkpt lat="38.0130274" lon="15.028254"><ele>1030.0</ele><time>2026-05-03T11:09:07.767Z</time></trkpt><trkpt lat="38.0131608" lon="15.0282403"><ele>1030.0</ele><time>2026-05-03T11:09:08.768Z</time></trkpt><trkpt lat="38.0132934" lon="15.0282054"><ele>1030.0</ele><time>2026-05-03T11:09:09.767Z</time></trkpt><trkpt lat="38.0134332" lon="15.0281516"><ele>1030.0</ele><time>2026-05-03T11:09:10.767Z</time></trkpt><trkpt lat="38.0135761" lon="15.0280912"><ele>1030.0</ele><time>2026-05-03T11:09:11.767Z</time></trkpt><trkpt lat="38.0136989" lon="15.0280366"><ele>1027.8333333333333</ele><time>2026-05-03T11:09:12.767Z</time></trkpt><trkpt lat="38.0138032" lon="15.0279906"><ele>1025.6666666666665</ele><time>2026-05-03T11:09:13.767Z</time></trkpt><trkpt lat="38.0138923" lon="15.0279533"><ele>1023.5</ele><time>2026-05-03T11:09:14.768Z</time></trkpt><trkpt lat="38.0139675" lon="15.0279209"><ele>1021.3333333333333</ele><time>2026-05-03T11:09:15.766Z</time></trkpt><trkpt lat="38.0140304" lon="15.0278876"><ele>1019.1666666666666</ele><time>2026-05-03T11:09:16.768Z</time></trkpt><trkpt lat="38.0140928" lon="15.0278645"><ele>1017.0</ele><time>2026-05-03T11:09:17.768Z</time></trkpt><trkpt lat="38.0141537" lon="15.0278403"><ele>1016.6</ele><time>2026-05-03T11:09:18.767Z</time></trkpt><trkpt lat="38.0142256" lon="15.027817"><ele>1016.2</ele><time>2026-05-03T11:09:19.767Z</time></trkpt><trkpt lat="38.0143148" lon="15.0277927"><ele>1015.8</ele><time>2026-05-03T11:09:20.768Z</time></trkpt><trkpt lat="38.0144169" lon="15.0277701"><ele>1015.4</ele><time>2026-05-03T11:09:21.768Z</time></trkpt><trkpt lat="38.0145305" lon="15.0277437"><ele>1015.0</ele><time>2026-05-03T11:09:22.767Z</time></trkpt><trkpt lat="38.0146512" lon="15.0277173"><ele>1015.0</ele><time>2026-05-03T11:09:23.767Z</time></trkpt><trkpt lat="38.0147644" lon="15.0276919"><ele>1015.0</ele><time>2026-05-03T11:09:24.768Z</time></trkpt><trkpt lat="38.0148695" lon="15.0276666"><ele>1015.0</ele><time>2026-05-03T11:09:25.767Z</time></trkpt><trkpt lat="38.0149698" lon="15.0276586"><ele>1015.0</ele><time>2026-05-03T11:09:26.768Z</time></trkpt><trkpt lat="38.0150576" lon="15.0276639"><ele>1015.0</ele><time>2026-05-03T11:09:27.768Z</time></trkpt><trkpt lat="38.0151344" lon="15.0276933"><ele>1015.1666666666666</ele><time>2026-05-03T11:09:28.767Z</time></trkpt><trkpt lat="38.0152009" lon="15.0277345"><ele>1015.3333333333333</ele><time>2026-05-03T11:09:29.767Z</time></trkpt><trkpt lat="38.0152605" lon="15.0277861"><ele>1015.5</ele><time>2026-05-03T11:09:30.767Z</time></trkpt><trkpt lat="38.0153254" lon="15.0278364"><ele>1015.6666666666667</ele><time>2026-05-03T11:09:31.767Z</time></trkpt><trkpt lat="38.0153899" lon="15.0279006"><ele>1015.8333333333334</ele><time>2026-05-03T11:09:32.767Z</time></trkpt><trkpt lat="38.0154683" lon="15.0279749"><ele>1016.0</ele><time>2026-05-03T11:09:33.767Z</time></trkpt><trkpt lat="38.01556" lon="15.0280599"><ele>1016.0</ele><time>2026-05-03T11:09:34.767Z</time></trkpt><trkpt lat="38.015662" lon="15.0281541"><ele>1016.0</ele><time>2026-05-03T11:09:35.767Z</time></trkpt><trkpt lat="38.0157686" lon="15.028238"><ele>1016.0</ele><time>2026-05-03T11:09:36.767Z</time></trkpt><trkpt lat="38.0158647" lon="15.0283142"><ele>1016.0</ele><time>2026-05-03T11:09:37.767Z</time></trkpt><trkpt lat="38.0159556" lon="15.0283773"><ele>1015.6666666666667</ele><time>2026-05-03T11:09:38.768Z</time></trkpt><trkpt lat="38.0160359" lon="15.0284334"><ele>1015.3333333333334</ele><time>2026-05-03T11:09:39.767Z</time></trkpt><trkpt lat="38.0161029" lon="15.028489"><ele>1015.0</ele><time>2026-05-03T11:09:40.768Z</time></trkpt><trkpt lat="38.0161623" lon="15.0285479"><ele>1014.6666666666667</ele><time>2026-05-03T11:09:41.766Z</time></trkpt><trkpt lat="38.0162157" lon="15.0286212"><ele>1014.3333333333334</ele><time>2026-05-03T11:09:42.767Z</time></trkpt><trkpt lat="38.0162547" lon="15.0287219"><ele>1014.0</ele><time>2026-05-03T11:09:43.768Z</time></trkpt><trkpt lat="38.0162991" lon="15.0288347"><ele>1014.0</ele><time>2026-05-03T11:09:44.768Z</time></trkpt><trkpt lat="38.0163455" lon="15.0289536"><ele>1014.0000000000001</ele><time>2026-05-03T11:09:45.767Z</time></trkpt><trkpt lat="38.0163897" lon="15.0290639"><ele>1014.0000000000001</ele><time>2026-05-03T11:09:46.767Z</time></trkpt><trkpt lat="38.0164335" lon="15.0291618"><ele>1014.0</ele><time>2026-05-03T11:09:47.767Z</time></trkpt><trkpt lat="38.0164845" lon="15.0292398"><ele>1014.0</ele><time>2026-05-03T11:09:48.767Z</time></trkpt><trkpt lat="38.0165473" lon="15.0293128"><ele>1014.0</ele><time>2026-05-03T11:09:49.766Z</time></trkpt><trkpt lat="38.0166146" lon="15.0293976"><ele>1014.0000000000001</ele><time>2026-05-03T11:09:50.767Z</time></trkpt><trkpt lat="38.0166866" lon="15.0294721"><ele>1014.0000000000001</ele><time>2026-05-03T11:09:51.767Z</time></trkpt><trkpt lat="38.0167685" lon="15.0295376"><ele>1014.0</ele><time>2026-05-03T11:09:52.767Z</time></trkpt><trkpt lat="38.0168687" lon="15.0295899"><ele>1014.0</ele><time>2026-05-03T11:09:53.768Z</time></trkpt><trkpt lat="38.0169686" lon="15.0296432"><ele>1014.0</ele><time>2026-05-03T11:09:54.767Z</time></trkpt><trkpt lat="38.0170549" lon="15.029715"><ele>1014.0000000000001</ele><time>2026-05-03T11:09:55.767Z</time></trkpt><trkpt lat="38.0171306" lon="15.0297954"><ele>1014.0000000000001</ele><time>2026-05-03T11:09:56.767Z</time></trkpt><trkpt lat="38.01721" lon="15.0298594"><ele>1014.0</ele><time>2026-05-03T11:09:57.767Z</time></trkpt><trkpt lat="38.0173004" lon="15.0298905"><ele>1014.0</ele><time>2026-05-03T11:09:58.768Z</time></trkpt><trkpt lat="38.017398" lon="15.029912"><ele>1016.25</ele><time>2026-05-03T11:09:59.768Z</time></trkpt><trkpt lat="38.0175071" lon="15.0299359"><ele>1018.5</ele><time>2026-05-03T11:10:00.767Z</time></trkpt><trkpt lat="38.0176207" lon="15.0299652"><ele>1020.75</ele><time>2026-05-03T11:10:01.767Z</time></trkpt><trkpt lat="38.017747" lon="15.0299824"><ele>1023.0</ele><time>2026-05-03T11:10:02.767Z</time></trkpt><trkpt lat="38.0178843" lon="15.0299771"><ele>1019.2</ele><time>2026-05-03T11:10:03.768Z</time></trkpt><trkpt lat="38.018008" lon="15.0299764"><ele>1015.4</ele><time>2026-05-03T11:10:04.767Z</time></trkpt><trkpt lat="38.018119" lon="15.0299932"><ele>1011.6000000000001</ele><time>2026-05-03T11:10:05.767Z</time></trkpt><trkpt lat="38.0182148" lon="15.0300355"><ele>1007.8000000000001</ele><time>2026-05-03T11:10:06.767Z</time></trkpt><trkpt lat="38.0183011" lon="15.030081"><ele>1004.0</ele><time>2026-05-03T11:10:07.767Z</time></trkpt><trkpt lat="38.0183841" lon="15.0301467"><ele>1004.0</ele><time>2026-05-03T11:10:08.767Z</time></trkpt><trkpt lat="38.0184771" lon="15.0301849"><ele>1004.0000000000001</ele><time>2026-05-03T11:10:09.767Z</time></trkpt><trkpt lat="38.0185825" lon="15.0301953"><ele>1004.0000000000001</ele><time>2026-05-03T11:10:10.767Z</time></trkpt><trkpt lat="38.0186946" lon="15.0302193"><ele>1004.0</ele><time>2026-05-03T11:10:11.767Z</time></trkpt><trkpt lat="38.0188143" lon="15.0302475"><ele>1004.0</ele><time>2026-05-03T11:10:12.767Z</time></trkpt><trkpt lat="38.0189244" lon="15.0302656"><ele>1004.0000000000001</ele><time>2026-05-03T11:10:13.767Z</time></trkpt><trkpt lat="38.019022" lon="15.0302677"><ele>1004.0</ele><time>2026-05-03T11:10:14.767Z</time></trkpt><trkpt lat="38.0191099" lon="15.0302533"><ele>1004.0</ele><time>2026-05-03T11:10:15.767Z</time></trkpt><trkpt lat="38.0191903" lon="15.0302461"><ele>1004.0</ele><time>2026-05-03T11:10:16.767Z</time></trkpt><trkpt lat="38.019275" lon="15.0302605"><ele>1004.0000000000001</ele><time>2026-05-03T11:10:17.768Z</time></trkpt><trkpt lat="38.0193651" lon="15.0302868"><ele>1004.0</ele><time>2026-05-03T11:10:18.768Z</time></trkpt><trkpt lat="38.0194499" lon="15.0303149"><ele>1004.0000000000001</ele><time>2026-05-03T11:10:19.767Z</time></trkpt><trkpt lat="38.0195274" lon="15.0303453"><ele>1004.0</ele><time>2026-05-03T11:10:20.766Z</time></trkpt><trkpt lat="38.0195969" lon="15.0303887"><ele>1004.0</ele><time>2026-05-03T11:10:21.767Z</time></trkpt><trkpt lat="38.0196753" lon="15.0304224"><ele>1004.0</ele><time>2026-05-03T11:10:22.767Z</time></trkpt><trkpt lat="38.0197596" lon="15.030459"><ele>1004.0000000000001</ele><time>2026-05-03T11:10:23.768Z</time></trkpt><trkpt lat="38.0198458" lon="15.0305056"><ele>1004.0</ele><time>2026-05-03T11:10:24.767Z</time></trkpt><trkpt lat="38.019924" lon="15.0305385"><ele>1002.8333333333334</ele><time>2026-05-03T11:10:25.767Z</time></trkpt><trkpt lat="38.0199935" lon="15.03056"><ele>1001.6666666666667</ele><time>2026-05-03T11:10:26.767Z</time></trkpt><trkpt lat="38.0200975" lon="15.0305418"><ele>1000.5</ele><time>2026-05-03T11:10:28.767Z</time></trkpt><trkpt lat="38.0201593" lon="15.0305236"><ele>999.3333333333333</ele><time>2026-05-03T11:10:31.768Z</time></trkpt><trkpt lat="38.0202285" lon="15.0305066"><ele>998.1666666666666</ele><time>2026-05-03T11:10:38.767Z</time></trkpt><trkpt lat="38.0202987" lon="15.0305053"><ele>997.0</ele><time>2026-05-03T11:10:43.767Z</time></trkpt><trkpt lat="38.0203849" lon="15.0305067"><ele>997.0</ele><time>2026-05-03T11:10:47.767Z</time></trkpt><trkpt lat="38.0204656" lon="15.0305211"><ele>997.0</ele><time>2026-05-03T11:10:49.767Z</time></trkpt><trkpt lat="38.0205637" lon="15.0305417"><ele>997.0</ele><time>2026-05-03T11:10:51.767Z</time></trkpt><trkpt lat="38.0206734" lon="15.0305715"><ele>997.0</ele><time>2026-05-03T11:10:53.767Z</time></trkpt><trkpt lat="38.0207808" lon="15.030644"><ele>997.0</ele><time>2026-05-03T11:10:55.767Z</time></trkpt><trkpt lat="38.0208852" lon="15.0307206"><ele>996.6</ele><time>2026-05-03T11:10:57.767Z</time></trkpt><trkpt lat="38.0209451" lon="15.0307742"><ele>996.2</ele><time>2026-05-03T11:10:58.767Z</time></trkpt><trkpt lat="38.0210206" lon="15.0308296"><ele>995.8</ele><time>2026-05-03T11:10:59.767Z</time></trkpt><trkpt lat="38.0211094" lon="15.0308838"><ele>995.4</ele><time>2026-05-03T11:11:00.767Z</time></trkpt><trkpt lat="38.0211999" lon="15.0309423"><ele>995.0</ele><time>2026-05-03T11:11:01.768Z</time></trkpt><trkpt lat="38.0212982" lon="15.0309951"><ele>995.0</ele><time>2026-05-03T11:11:02.767Z</time></trkpt><trkpt lat="38.0213939" lon="15.0310504"><ele>995.0</ele><time>2026-05-03T11:11:03.766Z</time></trkpt><trkpt lat="38.0214939" lon="15.0311008"><ele>995.0</ele><time>2026-05-03T11:11:04.767Z</time></trkpt><trkpt lat="38.0215912" lon="15.0311353"><ele>995.0</ele><time>2026-05-03T11:11:05.767Z</time></trkpt><trkpt lat="38.0216789" lon="15.0311608"><ele>995.0</ele><time>2026-05-03T11:11:06.768Z</time></trkpt><trkpt lat="38.0217586" lon="15.0311857"><ele>993.8333333333334</ele><time>2026-05-03T11:11:07.767Z</time></trkpt><trkpt lat="38.0218233" lon="15.0312161"><ele>992.6666666666667</ele><time>2026-05-03T11:11:08.767Z</time></trkpt><trkpt lat="38.021887" lon="15.0312452"><ele>991.5</ele><time>2026-05-03T11:11:09.767Z</time></trkpt><trkpt lat="38.0219577" lon="15.0312732"><ele>990.3333333333333</ele><time>2026-05-03T11:11:10.767Z</time></trkpt><trkpt lat="38.0220386" lon="15.0313049"><ele>989.1666666666666</ele><time>2026-05-03T11:11:11.767Z</time></trkpt><trkpt lat="38.0221221" lon="15.0313412"><ele>988.0</ele><time>2026-05-03T11:11:12.767Z</time></trkpt><trkpt lat="38.0222073" lon="15.0313843"><ele>988.0</ele><time>2026-05-03T11:11:13.768Z</time></trkpt><trkpt lat="38.0222958" lon="15.0314522"><ele>988.0</ele><time>2026-05-03T11:11:14.768Z</time></trkpt><trkpt lat="38.0223842" lon="15.0315282"><ele>988.0</ele><time>2026-05-03T11:11:15.766Z</time></trkpt><trkpt lat="38.0224708" lon="15.031594"><ele>988.0</ele><time>2026-05-03T11:11:16.767Z</time></trkpt><trkpt lat="38.0225516" lon="15.0316578"><ele>988.0</ele><time>2026-05-03T11:11:17.768Z</time></trkpt><trkpt lat="38.0226284" lon="15.0317319"><ele>987.2</ele><time>2026-05-03T11:11:18.767Z</time></trkpt><trkpt lat="38.0227021" lon="15.0318146"><ele>986.4</ele><time>2026-05-03T11:11:19.768Z</time></trkpt><trkpt lat="38.0227693" lon="15.0318967"><ele>985.6000000000001</ele><time>2026-05-03T11:11:20.767Z</time></trkpt><trkpt lat="38.0228191" lon="15.0319791"><ele>984.8000000000001</ele><time>2026-05-03T11:11:21.767Z</time></trkpt><trkpt lat="38.0228631" lon="15.0320979"><ele>984.0</ele><time>2026-05-03T11:11:23.767Z</time></trkpt><trkpt lat="38.0228275" lon="15.0322191"><ele>984.0</ele><time>2026-05-03T11:11:25.767Z</time></trkpt><trkpt lat="38.0227822" lon="15.0323658"><ele>984.0000000000001</ele><time>2026-05-03T11:11:27.767Z</time></trkpt><trkpt lat="38.0227513" lon="15.0324492"><ele>984.0000000000001</ele><time>2026-05-03T11:11:28.767Z</time></trkpt><trkpt lat="38.0227168" lon="15.0325404"><ele>984.0</ele><time>2026-05-03T11:11:29.767Z</time></trkpt><trkpt lat="38.0226815" lon="15.0326393"><ele>984.0</ele><time>2026-05-03T11:11:30.767Z</time></trkpt><trkpt lat="38.02264" lon="15.0327455"><ele>984.0</ele><time>2026-05-03T11:11:31.768Z</time></trkpt><trkpt lat="38.0225965" lon="15.0328619"><ele>984.0000000000001</ele><time>2026-05-03T11:11:32.768Z</time></trkpt><trkpt lat="38.0225519" lon="15.032988"><ele>984.0000000000001</ele><time>2026-05-03T11:11:33.767Z</time></trkpt><trkpt lat="38.0225075" lon="15.0331222"><ele>984.0</ele><time>2026-05-03T11:11:34.768Z</time></trkpt><trkpt lat="38.0224608" lon="15.0332538"><ele>984.0</ele><time>2026-05-03T11:11:35.768Z</time></trkpt><trkpt lat="38.0224166" lon="15.0333841"><ele>985.2</ele><time>2026-05-03T11:11:36.768Z</time></trkpt><trkpt lat="38.0223713" lon="15.0335145"><ele>986.4000000000001</ele><time>2026-05-03T11:11:37.767Z</time></trkpt><trkpt lat="38.0223271" lon="15.0336442"><ele>987.6</ele><time>2026-05-03T11:11:38.767Z</time></trkpt><trkpt lat="38.0222812" lon="15.0337749"><ele>988.8</ele><time>2026-05-03T11:11:39.767Z</time></trkpt><trkpt lat="38.0222383" lon="15.0338949"><ele>990.0</ele><time>2026-05-03T11:11:40.767Z</time></trkpt><trkpt lat="38.0222016" lon="15.0340008"><ele>990.0</ele><time>2026-05-03T11:11:41.767Z</time></trkpt><trkpt lat="38.0221586" lon="15.0340845"><ele>990.0</ele><time>2026-05-03T11:11:42.767Z</time></trkpt><trkpt lat="38.0221053" lon="15.0341628"><ele>990.0</ele><time>2026-05-03T11:11:43.768Z</time></trkpt><trkpt lat="38.0220573" lon="15.0342428"><ele>990.0</ele><time>2026-05-03T11:11:44.768Z</time></trkpt><trkpt lat="38.0220128" lon="15.0343207"><ele>990.0</ele><time>2026-05-03T11:11:45.767Z</time></trkpt><trkpt lat="38.0219719" lon="15.0343893"><ele>990.0</ele><time>2026-05-03T11:11:46.767Z</time></trkpt><trkpt lat="38.0219043" lon="15.0345007"><ele>989.9999999999999</ele><time>2026-05-03T11:11:48.767Z</time></trkpt><trkpt lat="38.0218626" lon="15.0345666"><ele>990.0</ele><time>2026-05-03T11:11:51.767Z</time></trkpt><trkpt lat="38.0218098" lon="15.0346344"><ele>989.9999999999999</ele><time>2026-05-03T11:11:57.767Z</time></trkpt><trkpt lat="38.0217456" lon="15.0346992"><ele>989.9999999999999</ele><time>2026-05-03T11:12:01.767Z</time></trkpt><trkpt lat="38.0216895" lon="15.034765"><ele>990.0</ele><time>2026-05-03T11:12:04.766Z</time></trkpt><trkpt lat="38.0216448" lon="15.0348373"><ele>989.9999999999999</ele><time>2026-05-03T11:12:07.768Z</time></trkpt><trkpt lat="38.0216022" lon="15.0349144"><ele>989.9999999999999</ele><time>2026-05-03T11:12:10.767Z</time></trkpt><trkpt lat="38.0215616" lon="15.034983"><ele>988.142857142857</ele><time>2026-05-03T11:12:14.768Z</time></trkpt><trkpt lat="38.0215153" lon="15.03505"><ele>986.2857142857142</ele><time>2026-05-03T11:12:17.767Z</time></trkpt><trkpt lat="38.0214666" lon="15.0351169"><ele>984.4285714285714</ele><time>2026-05-03T11:12:22.767Z</time></trkpt><trkpt lat="38.0214081" lon="15.0351861"><ele>982.5714285714286</ele><time>2026-05-03T11:12:26.767Z</time></trkpt><trkpt lat="38.0213611" lon="15.0352443"><ele>980.7142857142858</ele><time>2026-05-03T11:12:29.767Z</time></trkpt><trkpt lat="38.0212947" lon="15.0353145"><ele>978.857142857143</ele><time>2026-05-03T11:12:34.767Z</time></trkpt><trkpt lat="38.0212264" lon="15.0353514"><ele>977.0000000000001</ele><time>2026-05-03T11:12:36.768Z</time></trkpt><trkpt lat="38.0211327" lon="15.0353847"><ele>977.0000000000001</ele><time>2026-05-03T11:12:39.767Z</time></trkpt><trkpt lat="38.0210757" lon="15.0354532"><ele>977.0</ele><time>2026-05-03T11:12:41.768Z</time></trkpt><trkpt lat="38.0210224" lon="15.035509"><ele>977.0000000000001</ele><time>2026-05-03T11:12:43.767Z</time></trkpt><trkpt lat="38.0209707" lon="15.0355733"><ele>977.0000000000001</ele><time>2026-05-03T11:12:46.767Z</time></trkpt><trkpt lat="38.0209227" lon="15.0356511"><ele>977.0</ele><time>2026-05-03T11:12:48.767Z</time></trkpt><trkpt lat="38.0208654" lon="15.0356932"><ele>977.0000000000001</ele><time>2026-05-03T11:12:51.767Z</time></trkpt><trkpt lat="38.0207821" lon="15.0356814"><ele>977.0000000000001</ele><time>2026-05-03T11:12:55.767Z</time></trkpt><trkpt lat="38.020706" lon="15.0357183"><ele>975.0000000000001</ele><time>2026-05-03T11:12:58.767Z</time></trkpt><trkpt lat="38.0206438" lon="15.0357547"><ele>973.0</ele><time>2026-05-03T11:13:01.766Z</time></trkpt><trkpt lat="38.0205656" lon="15.035787"><ele>971.0</ele><time>2026-05-03T11:13:04.767Z</time></trkpt><trkpt lat="38.0205013" lon="15.0358064"><ele>969.0</ele><time>2026-05-03T11:13:06.767Z</time></trkpt><trkpt lat="38.0204374" lon="15.0358106"><ele>967.0000000000001</ele><time>2026-05-03T11:13:08.767Z</time></trkpt><trkpt lat="38.0203549" lon="15.0357702"><ele>965.0</ele><time>2026-05-03T11:13:11.766Z</time></trkpt><trkpt lat="38.0202798" lon="15.0357199"><ele>965.0</ele><time>2026-05-03T11:13:14.767Z</time></trkpt><trkpt lat="38.0202078" lon="15.0356811"><ele>965.0</ele><time>2026-05-03T11:13:18.767Z</time></trkpt><trkpt lat="38.0201313" lon="15.0356452"><ele>965.0</ele><time>2026-05-03T11:13:21.767Z</time></trkpt><trkpt lat="38.0200651" lon="15.0356081"><ele>965.0</ele><time>2026-05-03T11:13:24.767Z</time></trkpt><trkpt lat="38.019992" lon="15.0355905"><ele>965.0</ele><time>2026-05-03T11:13:28.767Z</time></trkpt><trkpt lat="38.019958" lon="15.0356598"><ele>965.0</ele><time>2026-05-03T11:13:31.767Z</time></trkpt><trkpt lat="38.0200111" lon="15.0357301"><ele>965.0</ele><time>2026-05-03T11:13:34.767Z</time></trkpt><trkpt lat="38.020073" lon="15.0357991"><ele>961.3333333333334</ele><time>2026-05-03T11:13:36.767Z</time></trkpt><trkpt lat="38.0200821" lon="15.0358867"><ele>957.6666666666667</ele><time>2026-05-03T11:13:37.768Z</time></trkpt><trkpt lat="38.0201391" lon="15.0359841"><ele>954.0</ele><time>2026-05-03T11:13:39.769Z</time></trkpt><trkpt lat="38.020191" lon="15.036076"><ele>950.3333333333333</ele><time>2026-05-03T11:13:41.768Z</time></trkpt><trkpt lat="38.0202354" lon="15.0361734"><ele>946.6666666666666</ele><time>2026-05-03T11:13:43.768Z</time></trkpt><trkpt lat="38.0202973" lon="15.0362402"><ele>943.0</ele><time>2026-05-03T11:13:45.769Z</time></trkpt><trkpt lat="38.0203616" lon="15.0362774"><ele>942.9999999999999</ele><time>2026-05-03T11:13:48.768Z</time></trkpt><trkpt lat="38.0204316" lon="15.0363401"><ele>943.0</ele><time>2026-05-03T11:13:53.768Z</time></trkpt><trkpt lat="38.0204443" lon="15.0364275"><ele>943.0</ele><time>2026-05-03T11:13:56.768Z</time></trkpt><trkpt lat="38.0204403" lon="15.0365326"><ele>943.0</ele><time>2026-05-03T11:14:01.769Z</time></trkpt><trkpt lat="38.0204015" lon="15.0366244"><ele>942.9999999999999</ele><time>2026-05-03T11:14:04.769Z</time></trkpt><trkpt lat="38.0203483" lon="15.0366959"><ele>943.0</ele><time>2026-05-03T11:14:08.768Z</time></trkpt><trkpt lat="38.0202874" lon="15.0367393"><ele>940.5714285714287</ele><time>2026-05-03T11:14:12.768Z</time></trkpt><trkpt lat="38.0202152" lon="15.0367286"><ele>938.1428571428572</ele><time>2026-05-03T11:14:19.768Z</time></trkpt><trkpt lat="38.0201488" lon="15.0367363"><ele>935.7142857142858</ele><time>2026-05-03T11:14:22.768Z</time></trkpt><trkpt lat="38.0201091" lon="15.0368001"><ele>933.2857142857142</ele><time>2026-05-03T11:14:33.768Z</time></trkpt><trkpt lat="38.0201292" lon="15.0368818"><ele>930.8571428571428</ele><time>2026-05-03T11:14:38.767Z</time></trkpt><trkpt lat="38.0201666" lon="15.036973"><ele>928.4285714285713</ele><time>2026-05-03T11:14:46.768Z</time></trkpt><trkpt lat="38.020157" lon="15.0370563"><ele>926.0</ele><time>2026-05-03T11:14:49.767Z</time></trkpt><trkpt lat="38.0200988" lon="15.0371077"><ele>926.0</ele><time>2026-05-03T11:14:53.767Z</time></trkpt><trkpt lat="38.0200303" lon="15.0371206"><ele>925.9999999999999</ele><time>2026-05-03T11:14:57.767Z</time></trkpt><trkpt lat="38.0199565" lon="15.0371743"><ele>926.0</ele><time>2026-05-03T11:15:00.767Z</time></trkpt><trkpt lat="38.0199165" lon="15.0372392"><ele>926.0</ele><time>2026-05-03T11:15:02.767Z</time></trkpt><trkpt lat="38.0199167" lon="15.0373221"><ele>925.9999999999999</ele><time>2026-05-03T11:15:05.767Z</time></trkpt><trkpt lat="38.0199471" lon="15.0374065"><ele>926.0</ele><time>2026-05-03T11:15:11.767Z</time></trkpt><trkpt lat="38.0199467" lon="15.0375045"><ele>926.0</ele><time>2026-05-03T11:15:17.767Z</time></trkpt><trkpt lat="38.0199175" lon="15.0375806"><ele>920.5000000000001</ele><time>2026-05-03T11:15:21.768Z</time></trkpt><trkpt lat="38.0198914" lon="15.0376656"><ele>915.0</ele><time>2026-05-03T11:15:26.767Z</time></trkpt><trkpt lat="38.0198642" lon="15.0378032"><ele>909.5</ele><time>2026-05-03T11:15:29.766Z</time></trkpt><trkpt lat="38.0198424" lon="15.0379105"><ele>904.0</ele><time>2026-05-03T11:15:31.767Z</time></trkpt><trkpt lat="38.0198299" lon="15.0379892"><ele>898.5000000000001</ele><time>2026-05-03T11:15:55.768Z</time></trkpt><trkpt lat="38.0198146" lon="15.0381053"><ele>893.0</ele><time>2026-05-03T11:15:59.768Z</time></trkpt><trkpt lat="38.0198231" lon="15.0382374"><ele>891.4</ele><time>2026-05-03T11:16:01.768Z</time></trkpt><trkpt lat="38.01983" lon="15.0383533"><ele>889.8</ele><time>2026-05-03T11:16:03.768Z</time></trkpt><trkpt lat="38.0198816" lon="15.0384988"><ele>888.2</ele><time>2026-05-03T11:16:05.768Z</time></trkpt><trkpt lat="38.0199213" lon="15.0385662"><ele>886.6</ele><time>2026-05-03T11:16:06.768Z</time></trkpt><trkpt lat="38.0199696" lon="15.0386281"><ele>885.0</ele><time>2026-05-03T11:16:07.769Z</time></trkpt><trkpt lat="38.0200522" lon="15.0387399"><ele>886.6</ele><time>2026-05-03T11:16:09.768Z</time></trkpt><trkpt lat="38.0200717" lon="15.0388684"><ele>888.2</ele><time>2026-05-03T11:16:11.769Z</time></trkpt><trkpt lat="38.0200439" lon="15.0390113"><ele>889.8</ele><time>2026-05-03T11:16:13.768Z</time></trkpt><trkpt lat="38.0200137" lon="15.0391578"><ele>891.4</ele><time>2026-05-03T11:16:15.767Z</time></trkpt><trkpt lat="38.0200117" lon="15.0392981"><ele>893.0</ele><time>2026-05-03T11:16:17.768Z</time></trkpt><trkpt lat="38.0200349" lon="15.0394464"><ele>893.0</ele><time>2026-05-03T11:16:19.768Z</time></trkpt><trkpt lat="38.0200483" lon="15.0396011"><ele>893.0</ele><time>2026-05-03T11:16:21.768Z</time></trkpt><trkpt lat="38.0200706" lon="15.0397355"><ele>893.0</ele><time>2026-05-03T11:16:23.769Z</time></trkpt><trkpt lat="38.0201242" lon="15.0398379"><ele>893.0</ele><time>2026-05-03T11:16:25.769Z</time></trkpt><trkpt lat="38.0202074" lon="15.0399071"><ele>893.0</ele><time>2026-05-03T11:16:27.768Z</time></trkpt><trkpt lat="38.0202909" lon="15.0399787"><ele>890.4</ele><time>2026-05-03T11:16:29.768Z</time></trkpt><trkpt lat="38.0203869" lon="15.040076"><ele>887.8</ele><time>2026-05-03T11:16:31.768Z</time></trkpt><trkpt lat="38.0204754" lon="15.0401831"><ele>885.2</ele><time>2026-05-03T11:16:33.768Z</time></trkpt><trkpt lat="38.0205195" lon="15.0402459"><ele>882.6</ele><time>2026-05-03T11:16:34.768Z</time></trkpt><trkpt lat="38.0205412" lon="15.0403591"><ele>880.0</ele><time>2026-05-03T11:16:36.768Z</time></trkpt><trkpt lat="38.0205268" lon="15.0404541"><ele>879.9999999999999</ele><time>2026-05-03T11:16:38.768Z</time></trkpt><trkpt lat="38.0204632" lon="15.0404504"><ele>880.0</ele><time>2026-05-03T11:16:40.768Z</time></trkpt><trkpt lat="38.0203642" lon="15.0404433"><ele>880.0</ele><time>2026-05-03T11:16:42.767Z</time></trkpt><trkpt lat="38.020289" lon="15.0404374"><ele>880.0</ele><time>2026-05-03T11:16:43.768Z</time></trkpt><trkpt lat="38.0201777" lon="15.0404264"><ele>879.9999999999999</ele><time>2026-05-03T11:16:45.768Z</time></trkpt><trkpt lat="38.0200955" lon="15.0404497"><ele>880.0</ele><time>2026-05-03T11:16:47.768Z</time></trkpt><trkpt lat="38.0201073" lon="15.0405306"><ele>879.9999999999999</ele><time>2026-05-03T11:16:50.768Z</time></trkpt><trkpt lat="38.0201916" lon="15.0405669"><ele>880.0</ele><time>2026-05-03T11:16:53.769Z</time></trkpt><trkpt lat="38.0202709" lon="15.0406541"><ele>880.0</ele><time>2026-05-03T11:16:55.768Z</time></trkpt><trkpt lat="38.0203213" lon="15.0407094"><ele>880.0</ele><time>2026-05-03T11:16:56.768Z</time></trkpt><trkpt lat="38.0203716" lon="15.0407603"><ele>879.9999999999999</ele><time>2026-05-03T11:16:57.768Z</time></trkpt><trkpt lat="38.0204761" lon="15.04081"><ele>880.0</ele><time>2026-05-03T11:16:59.768Z</time></trkpt><trkpt lat="38.0205887" lon="15.0408576"><ele>875.0</ele><time>2026-05-03T11:17:01.769Z</time></trkpt><trkpt lat="38.0207086" lon="15.0408781"><ele>870.0</ele><time>2026-05-03T11:17:03.768Z</time></trkpt><trkpt lat="38.0208048" lon="15.0408356"><ele>865.0</ele><time>2026-05-03T11:17:05.768Z</time></trkpt><trkpt lat="38.0208751" lon="15.0408818"><ele>860.0</ele><time>2026-05-03T11:17:07.767Z</time></trkpt><trkpt lat="38.020921" lon="15.0409821"><ele>855.0</ele><time>2026-05-03T11:17:09.768Z</time></trkpt><trkpt lat="38.0209904" lon="15.0410811"><ele>854.2</ele><time>2026-05-03T11:17:11.769Z</time></trkpt><trkpt lat="38.0210808" lon="15.0411616"><ele>853.4</ele><time>2026-05-03T11:17:13.768Z</time></trkpt><trkpt lat="38.021165" lon="15.0412366"><ele>852.5999999999999</ele><time>2026-05-03T11:17:15.768Z</time></trkpt><trkpt lat="38.0212385" lon="15.0413064"><ele>851.8</ele><time>2026-05-03T11:17:18.768Z</time></trkpt><trkpt lat="38.0213129" lon="15.0413775"><ele>851.0</ele><time>2026-05-03T11:17:20.768Z</time></trkpt><trkpt lat="38.0213713" lon="15.0414572"><ele>851.0000000000001</ele><time>2026-05-03T11:17:22.768Z</time></trkpt><trkpt lat="38.0214414" lon="15.0415262"><ele>851.0</ele><time>2026-05-03T11:17:25.768Z</time></trkpt><trkpt lat="38.0214951" lon="15.0416025"><ele>851.0</ele><time>2026-05-03T11:17:27.768Z</time></trkpt><trkpt lat="38.021547" lon="15.0416915"><ele>851.0</ele><time>2026-05-03T11:17:30.768Z</time></trkpt><trkpt lat="38.0216112" lon="15.0416575"><ele>851.0000000000001</ele><time>2026-05-03T11:17:33.768Z</time></trkpt><trkpt lat="38.0216541" lon="15.0415936"><ele>851.0</ele><time>2026-05-03T11:17:35.769Z</time></trkpt><trkpt lat="38.0217262" lon="15.0416059"><ele>844.8</ele><time>2026-05-03T11:17:37.768Z</time></trkpt><trkpt lat="38.021785" lon="15.0416892"><ele>838.5999999999999</ele><time>2026-05-03T11:17:39.767Z</time></trkpt><trkpt lat="38.0218217" lon="15.0418025"><ele>832.4</ele><time>2026-05-03T11:17:41.769Z</time></trkpt><trkpt lat="38.0218656" lon="15.0419333"><ele>826.2</ele><time>2026-05-03T11:17:43.768Z</time></trkpt><trkpt lat="38.0218602" lon="15.0420748"><ele>820.0</ele><time>2026-05-03T11:17:45.768Z</time></trkpt><trkpt lat="38.0217935" lon="15.0421705"><ele>819.9999999999999</ele><time>2026-05-03T11:17:47.768Z</time></trkpt><trkpt lat="38.0217463" lon="15.0422453"><ele>820.0</ele><time>2026-05-03T11:17:49.768Z</time></trkpt><trkpt lat="38.0218202" lon="15.0422453"><ele>820.0</ele><time>2026-05-03T11:18:25.768Z</time></trkpt><trkpt lat="38.0218866" lon="15.0421974"><ele>820.0</ele><time>2026-05-03T11:18:52.768Z</time></trkpt><trkpt lat="38.0219383" lon="15.0421319"><ele>819.9999999999999</ele><time>2026-05-03T11:18:54.768Z</time></trkpt><trkpt lat="38.0219791" lon="15.0420341"><ele>820.0</ele><time>2026-05-03T11:18:56.768Z</time></trkpt><trkpt lat="38.0219671" lon="15.0418913"><ele>820.0</ele><time>2026-05-03T11:18:58.769Z</time></trkpt><trkpt lat="38.0219476" lon="15.0417341"><ele>820.0</ele><time>2026-05-03T11:19:00.768Z</time></trkpt><trkpt lat="38.0219152" lon="15.0415926"><ele>820.0</ele><time>2026-05-03T11:19:02.768Z</time></trkpt><trkpt lat="38.0218434" lon="15.041521"><ele>820.0</ele><time>2026-05-03T11:19:04.768Z</time></trkpt><trkpt lat="38.0217223" lon="15.0414611"><ele>820.0</ele><time>2026-05-03T11:19:06.768Z</time></trkpt><trkpt lat="38.0216593" lon="15.041419"><ele>820.0</ele><time>2026-05-03T11:19:07.768Z</time></trkpt><trkpt lat="38.0218866" lon="15.0421974"><ele>820.0</ele><time>2026-05-03T11:18:52.768Z</time></trkpt><trkpt lat="38.0219383" lon="15.0421319"><ele>820.0</ele><time>2026-05-03T11:18:54.768Z</time></trkpt><trkpt lat="38.0219791" lon="15.0420341"><ele>820.0</ele><time>2026-05-03T11:18:56.768Z</time></trkpt><trkpt lat="38.0219671" lon="15.0418913"><ele>820.0</ele><time>2026-05-03T11:18:58.769Z</time></trkpt><trkpt lat="38.0219476" lon="15.0417341"><ele>820.0</ele><time>2026-05-03T11:19:00.768Z</time></trkpt><trkpt lat="38.0219152" lon="15.0415926"><ele>818.4999999999999</ele><time>2026-05-03T11:19:02.768Z</time></trkpt><trkpt lat="38.0218434" lon="15.041521"><ele>817.0</ele><time>2026-05-03T11:19:04.768Z</time></trkpt><trkpt lat="38.0217223" lon="15.0414611"><ele>815.5</ele><time>2026-05-03T11:19:06.768Z</time></trkpt><trkpt lat="38.0216593" lon="15.041419"><ele>814.0</ele><time>2026-05-03T11:19:07.768Z</time></trkpt><trkpt lat="38.0216069" lon="15.041361"><ele>812.4999999999999</ele><time>2026-05-03T11:19:08.768Z</time></trkpt><trkpt lat="38.0215638" lon="15.0412838"><ele>811.0</ele><time>2026-05-03T11:19:09.768Z</time></trkpt><trkpt lat="38.0215196" lon="15.0411942"><ele>819.0</ele><time>2026-05-03T11:19:10.768Z</time></trkpt><trkpt lat="38.0214647" lon="15.0411062"><ele>827.0</ele><time>2026-05-03T11:19:11.768Z</time></trkpt><trkpt lat="38.0214051" lon="15.041024"><ele>835.0</ele><time>2026-05-03T11:19:12.768Z</time></trkpt><trkpt lat="38.0213376" lon="15.0409294"><ele>843.0</ele><time>2026-05-03T11:19:13.768Z</time></trkpt><trkpt lat="38.0212729" lon="15.0408369"><ele>851.0</ele><time>2026-05-03T11:19:14.769Z</time></trkpt><trkpt lat="38.0212146" lon="15.0407516"><ele>851.8333333333334</ele><time>2026-05-03T11:19:15.768Z</time></trkpt><trkpt lat="38.0211708" lon="15.0406761"><ele>852.6666666666667</ele><time>2026-05-03T11:19:16.768Z</time></trkpt><trkpt lat="38.0211428" lon="15.0405924"><ele>853.5</ele><time>2026-05-03T11:19:17.768Z</time></trkpt><trkpt lat="38.0211327" lon="15.0405044"><ele>854.3333333333333</ele><time>2026-05-03T11:19:18.768Z</time></trkpt><trkpt lat="38.0211465" lon="15.0404051"><ele>855.1666666666666</ele><time>2026-05-03T11:19:19.768Z</time></trkpt><trkpt lat="38.0211835" lon="15.0403121"><ele>856.0</ele><time>2026-05-03T11:19:20.768Z</time></trkpt><trkpt lat="38.0212347" lon="15.0402194"><ele>855.9999999999999</ele><time>2026-05-03T11:19:21.768Z</time></trkpt><trkpt lat="38.0212695" lon="15.0401248"><ele>856.0</ele><time>2026-05-03T11:19:22.768Z</time></trkpt><trkpt lat="38.0212787" lon="15.0400414"><ele>856.0</ele><time>2026-05-03T11:19:23.769Z</time></trkpt><trkpt lat="38.0212482" lon="15.0399712"><ele>856.0</ele><time>2026-05-03T11:19:24.768Z</time></trkpt><trkpt lat="38.0212024" lon="15.0398944"><ele>855.9999999999999</ele><time>2026-05-03T11:19:25.768Z</time></trkpt><trkpt lat="38.0211405" lon="15.0398167"><ele>856.0</ele><time>2026-05-03T11:19:26.768Z</time></trkpt><trkpt lat="38.021086" lon="15.0397383"><ele>856.3333333333333</ele><time>2026-05-03T11:19:27.768Z</time></trkpt><trkpt lat="38.0210527" lon="15.039667"><ele>856.6666666666666</ele><time>2026-05-03T11:19:28.768Z</time></trkpt><trkpt lat="38.0210645" lon="15.0395164"><ele>857.0</ele><time>2026-05-03T11:19:30.769Z</time></trkpt><trkpt lat="38.0210944" lon="15.0394362"><ele>857.3333333333333</ele><time>2026-05-03T11:19:31.768Z</time></trkpt><trkpt lat="38.0211265" lon="15.0393379"><ele>857.6666666666666</ele><time>2026-05-03T11:19:32.768Z</time></trkpt><trkpt lat="38.0211638" lon="15.039237"><ele>858.0</ele><time>2026-05-03T11:19:33.768Z</time></trkpt><trkpt lat="38.0211986" lon="15.0391359"><ele>860.1666666666666</ele><time>2026-05-03T11:19:34.768Z</time></trkpt><trkpt lat="38.021225" lon="15.0390379"><ele>862.3333333333333</ele><time>2026-05-03T11:19:35.768Z</time></trkpt><trkpt lat="38.0212428" lon="15.0389451"><ele>864.5</ele><time>2026-05-03T11:19:36.768Z</time></trkpt><trkpt lat="38.021255" lon="15.0388507"><ele>866.6666666666666</ele><time>2026-05-03T11:19:37.768Z</time></trkpt><trkpt lat="38.0212638" lon="15.0387633"><ele>868.8333333333333</ele><time>2026-05-03T11:19:38.768Z</time></trkpt><trkpt lat="38.0213067" lon="15.0386273"><ele>871.0</ele><time>2026-05-03T11:19:40.768Z</time></trkpt><trkpt lat="38.0213585" lon="15.03858"><ele>870.9999999999999</ele><time>2026-05-03T11:19:41.769Z</time></trkpt><trkpt lat="38.0214083" lon="15.0385166"><ele>871.0</ele><time>2026-05-03T11:19:42.768Z</time></trkpt><trkpt lat="38.0214614" lon="15.0384406"><ele>871.0</ele><time>2026-05-03T11:19:43.768Z</time></trkpt><trkpt lat="38.0215217" lon="15.0383604"><ele>871.0</ele><time>2026-05-03T11:19:44.768Z</time></trkpt><trkpt lat="38.0215825" lon="15.0382854"><ele>870.9999999999999</ele><time>2026-05-03T11:19:45.768Z</time></trkpt><trkpt lat="38.0216359" lon="15.0382092"><ele>871.0</ele><time>2026-05-03T11:19:46.768Z</time></trkpt><trkpt lat="38.0216907" lon="15.0381417"><ele>870.6666666666666</ele><time>2026-05-03T11:19:47.768Z</time></trkpt><trkpt lat="38.0217531" lon="15.0380805"><ele>870.3333333333333</ele><time>2026-05-03T11:19:48.768Z</time></trkpt><trkpt lat="38.0218178" lon="15.0380108"><ele>870.0</ele><time>2026-05-03T11:19:49.767Z</time></trkpt><trkpt lat="38.0218784" lon="15.0379455"><ele>869.6666666666667</ele><time>2026-05-03T11:19:50.767Z</time></trkpt><trkpt lat="38.0219313" lon="15.0378797"><ele>869.3333333333334</ele><time>2026-05-03T11:19:51.769Z</time></trkpt><trkpt lat="38.022034" lon="15.0378602"><ele>869.0</ele><time>2026-05-03T11:19:53.768Z</time></trkpt><trkpt lat="38.0221033" lon="15.0379756"><ele>869.0</ele><time>2026-05-03T11:19:55.768Z</time></trkpt><trkpt lat="38.0221273" lon="15.0380658"><ele>869.0000000000001</ele><time>2026-05-03T11:19:56.767Z</time></trkpt><trkpt lat="38.0221617" lon="15.0381789"><ele>869.0000000000001</ele><time>2026-05-03T11:19:57.768Z</time></trkpt><trkpt lat="38.0221997" lon="15.0382979"><ele>869.0</ele><time>2026-05-03T11:19:58.768Z</time></trkpt><trkpt lat="38.0222506" lon="15.038426"><ele>869.0</ele><time>2026-05-03T11:19:59.768Z</time></trkpt><trkpt lat="38.0222945" lon="15.0385331"><ele>864.5000000000001</ele><time>2026-05-03T11:20:00.768Z</time></trkpt><trkpt lat="38.0223276" lon="15.0386244"><ele>860.0</ele><time>2026-05-03T11:20:01.768Z</time></trkpt><trkpt lat="38.0223568" lon="15.0386952"><ele>855.5</ele><time>2026-05-03T11:20:02.768Z</time></trkpt><trkpt lat="38.0224549" lon="15.0387957"><ele>851.0</ele><time>2026-05-03T11:20:04.768Z</time></trkpt><trkpt lat="38.0225271" lon="15.038821"><ele>846.5000000000001</ele><time>2026-05-03T11:20:05.768Z</time></trkpt><trkpt lat="38.0226155" lon="15.0388369"><ele>842.0</ele><time>2026-05-03T11:20:06.768Z</time></trkpt><trkpt lat="38.0227142" lon="15.0388449"><ele>842.0</ele><time>2026-05-03T11:20:07.769Z</time></trkpt><trkpt lat="38.022825" lon="15.0388491"><ele>842.0</ele><time>2026-05-03T11:20:08.768Z</time></trkpt><trkpt lat="38.02294" lon="15.0388574"><ele>842.0</ele><time>2026-05-03T11:20:09.768Z</time></trkpt><trkpt lat="38.0230558" lon="15.0388777"><ele>842.0</ele><time>2026-05-03T11:20:10.767Z</time></trkpt><trkpt lat="38.0231596" lon="15.0389058"><ele>842.0</ele><time>2026-05-03T11:20:11.769Z</time></trkpt><trkpt lat="38.0232533" lon="15.0389498"><ele>846.8333333333334</ele><time>2026-05-03T11:20:12.768Z</time></trkpt><trkpt lat="38.0233348" lon="15.0389987"><ele>851.6666666666667</ele><time>2026-05-03T11:20:13.768Z</time></trkpt><trkpt lat="38.023402" lon="15.0390361"><ele>856.5</ele><time>2026-05-03T11:20:14.768Z</time></trkpt><trkpt lat="38.0234674" lon="15.0390627"><ele>861.3333333333333</ele><time>2026-05-03T11:20:15.768Z</time></trkpt><trkpt lat="38.0235366" lon="15.0390859"><ele>866.1666666666666</ele><time>2026-05-03T11:20:16.768Z</time></trkpt><trkpt lat="38.0236104" lon="15.0391019"><ele>871.0</ele><time>2026-05-03T11:20:17.769Z</time></trkpt><trkpt lat="38.0236863" lon="15.0391115"><ele>870.9999999999999</ele><time>2026-05-03T11:20:18.768Z</time></trkpt><trkpt lat="38.0237638" lon="15.0391149"><ele>871.0</ele><time>2026-05-03T11:20:19.768Z</time></trkpt><trkpt lat="38.0238436" lon="15.039113"><ele>871.0</ele><time>2026-05-03T11:20:20.768Z</time></trkpt><trkpt lat="38.0239265" lon="15.0391135"><ele>871.0</ele><time>2026-05-03T11:20:21.768Z</time></trkpt><trkpt lat="38.0239949" lon="15.0391046"><ele>870.9999999999999</ele><time>2026-05-03T11:20:22.768Z</time></trkpt><trkpt lat="38.0240447" lon="15.0390359"><ele>871.0</ele><time>2026-05-03T11:20:24.768Z</time></trkpt><trkpt lat="38.0239736" lon="15.0389815"><ele>871.0</ele><time>2026-05-03T11:20:26.769Z</time></trkpt><trkpt lat="38.0239098" lon="15.0389897"><ele>871.0</ele><time>2026-05-03T11:20:27.768Z</time></trkpt><trkpt lat="38.0238421" lon="15.038997"><ele>871.0</ele><time>2026-05-03T11:20:28.768Z</time></trkpt><trkpt lat="38.023773" lon="15.0389935"><ele>871.0</ele><time>2026-05-03T11:20:29.768Z</time></trkpt><trkpt lat="38.0236959" lon="15.0389762"><ele>871.0</ele><time>2026-05-03T11:20:30.768Z</time></trkpt><trkpt lat="38.0236216" lon="15.0389395"><ele>871.0</ele><time>2026-05-03T11:20:31.768Z</time></trkpt><trkpt lat="38.0235503" lon="15.0388858"><ele>871.0</ele><time>2026-05-03T11:20:32.768Z</time></trkpt><trkpt lat="38.0234879" lon="15.0388084"><ele>871.0</ele><time>2026-05-03T11:20:33.768Z</time></trkpt><trkpt lat="38.0234305" lon="15.0387161"><ele>870.9999999999999</ele><time>2026-05-03T11:20:34.768Z</time></trkpt><trkpt lat="38.0233655" lon="15.0386308"><ele>870.9999999999999</ele><time>2026-05-03T11:20:35.768Z</time></trkpt><trkpt lat="38.023303" lon="15.0385705"><ele>871.0</ele><time>2026-05-03T11:20:36.767Z</time></trkpt><trkpt lat="38.0232184" lon="15.0384842"><ele>871.0</ele><time>2026-05-03T11:20:38.767Z</time></trkpt><trkpt lat="38.0232622" lon="15.0383965"><ele>871.0</ele><time>2026-05-03T11:20:41.769Z</time></trkpt><trkpt lat="38.0233772" lon="15.0384821"><ele>870.9999999999999</ele><time>2026-05-03T11:20:43.768Z</time></trkpt><trkpt lat="38.0234404" lon="15.0385666"><ele>870.9999999999999</ele><time>2026-05-03T11:20:44.768Z</time></trkpt><trkpt lat="38.023513" lon="15.0386532"><ele>871.0</ele><time>2026-05-03T11:20:45.768Z</time></trkpt><trkpt lat="38.023587" lon="15.0387198"><ele>871.0</ele><time>2026-05-03T11:20:46.768Z</time></trkpt><trkpt lat="38.0236715" lon="15.0387515"><ele>871.0</ele><time>2026-05-03T11:20:47.768Z</time></trkpt><trkpt lat="38.0237574" lon="15.0387564"><ele>870.9999999999999</ele><time>2026-05-03T11:20:48.768Z</time></trkpt><trkpt lat="38.0238418" lon="15.0387234"><ele>870.9999999999999</ele><time>2026-05-03T11:20:49.769Z</time></trkpt><trkpt lat="38.0239327" lon="15.0386802"><ele>871.0</ele><time>2026-05-03T11:20:50.769Z</time></trkpt><trkpt lat="38.0240269" lon="15.0386405"><ele>871.0</ele><time>2026-05-03T11:20:51.767Z</time></trkpt><trkpt lat="38.0241088" lon="15.0385837"><ele>872.0</ele><time>2026-05-03T11:20:52.768Z</time></trkpt><trkpt lat="38.0241823" lon="15.0384942"><ele>873.0</ele><time>2026-05-03T11:20:53.768Z</time></trkpt><trkpt lat="38.0242612" lon="15.0383938"><ele>874.0</ele><time>2026-05-03T11:20:54.769Z</time></trkpt><trkpt lat="38.0243569" lon="15.0383038"><ele>875.0</ele><time>2026-05-03T11:20:55.768Z</time></trkpt><trkpt lat="38.0244547" lon="15.0382151"><ele>881.25</ele><time>2026-05-03T11:20:56.768Z</time></trkpt><trkpt lat="38.0245508" lon="15.038123"><ele>887.5</ele><time>2026-05-03T11:20:57.769Z</time></trkpt><trkpt lat="38.0246428" lon="15.038018"><ele>893.75</ele><time>2026-05-03T11:20:58.768Z</time></trkpt><trkpt lat="38.0247224" lon="15.0379084"><ele>900.0</ele><time>2026-05-03T11:20:59.768Z</time></trkpt><trkpt lat="38.0248054" lon="15.0377975"><ele>900.0</ele><time>2026-05-03T11:21:00.768Z</time></trkpt><trkpt lat="38.0248864" lon="15.0377159"><ele>900.0</ele><time>2026-05-03T11:21:01.769Z</time></trkpt><trkpt lat="38.0249706" lon="15.0376574"><ele>900.0</ele><time>2026-05-03T11:21:02.768Z</time></trkpt><trkpt lat="38.0250759" lon="15.0376616"><ele>900.0</ele><time>2026-05-03T11:21:03.767Z</time></trkpt><trkpt lat="38.0251766" lon="15.0376319"><ele>900.0</ele><time>2026-05-03T11:21:04.768Z</time></trkpt><trkpt lat="38.0252825" lon="15.037597"><ele>900.0</ele><time>2026-05-03T11:21:05.768Z</time></trkpt><trkpt lat="38.0253787" lon="15.0375526"><ele>900.0</ele><time>2026-05-03T11:21:06.768Z</time></trkpt><trkpt lat="38.0254632" lon="15.0375134"><ele>900.0</ele><time>2026-05-03T11:21:07.769Z</time></trkpt><trkpt lat="38.0255253" lon="15.0374663"><ele>900.0</ele><time>2026-05-03T11:21:08.768Z</time></trkpt><trkpt lat="38.0255697" lon="15.0374089"><ele>900.0</ele><time>2026-05-03T11:21:09.768Z</time></trkpt><trkpt lat="38.0256227" lon="15.0372979"><ele>900.0</ele><time>2026-05-03T11:21:11.768Z</time></trkpt><trkpt lat="38.0256822" lon="15.037179"><ele>900.0</ele><time>2026-05-03T11:21:13.768Z</time></trkpt><trkpt lat="38.0257582" lon="15.0370425"><ele>900.0</ele><time>2026-05-03T11:21:15.768Z</time></trkpt><trkpt lat="38.0257846" lon="15.0369535"><ele>900.0</ele><time>2026-05-03T11:21:16.768Z</time></trkpt><trkpt lat="38.0258005" lon="15.0368551"><ele>900.0</ele><time>2026-05-03T11:21:17.769Z</time></trkpt><trkpt lat="38.0258137" lon="15.0367389"><ele>900.0</ele><time>2026-05-03T11:21:18.769Z</time></trkpt><trkpt lat="38.025825" lon="15.0366165"><ele>896.6666666666666</ele><time>2026-05-03T11:21:19.768Z</time></trkpt><trkpt lat="38.0258415" lon="15.0364943"><ele>893.3333333333333</ele><time>2026-05-03T11:21:20.768Z</time></trkpt><trkpt lat="38.0258666" lon="15.0363846"><ele>890.0</ele><time>2026-05-03T11:21:21.768Z</time></trkpt><trkpt lat="38.0259047" lon="15.0362911"><ele>886.6666666666666</ele><time>2026-05-03T11:21:22.768Z</time></trkpt><trkpt lat="38.025946" lon="15.0362232"><ele>883.3333333333333</ele><time>2026-05-03T11:21:23.769Z</time></trkpt><trkpt lat="38.0260012" lon="15.0361472"><ele>880.0</ele><time>2026-05-03T11:21:25.768Z</time></trkpt><trkpt lat="38.0260197" lon="15.036026"><ele>879.9999999999999</ele><time>2026-05-03T11:21:35.768Z</time></trkpt><trkpt lat="38.0260385" lon="15.0359341"><ele>880.0</ele><time>2026-05-03T11:21:37.769Z</time></trkpt><trkpt lat="38.0260352" lon="15.0358412"><ele>880.0</ele><time>2026-05-03T11:21:39.768Z</time></trkpt><trkpt lat="38.0260229" lon="15.035753"><ele>880.0</ele><time>2026-05-03T11:21:41.768Z</time></trkpt><trkpt lat="38.0260605" lon="15.0356486"><ele>879.9999999999999</ele><time>2026-05-03T11:21:44.768Z</time></trkpt><trkpt lat="38.0260658" lon="15.0355414"><ele>880.0</ele><time>2026-05-03T11:21:48.768Z</time></trkpt><trkpt lat="38.0260877" lon="15.0354347"><ele>881.8333333333333</ele><time>2026-05-03T11:21:50.768Z</time></trkpt><trkpt lat="38.0260965" lon="15.0353504"><ele>883.6666666666666</ele><time>2026-05-03T11:21:52.768Z</time></trkpt><trkpt lat="38.0261222" lon="15.0352403"><ele>885.5</ele><time>2026-05-03T11:21:55.768Z</time></trkpt><trkpt lat="38.0261082" lon="15.0351513"><ele>887.3333333333333</ele><time>2026-05-03T11:21:57.768Z</time></trkpt><trkpt lat="38.0260657" lon="15.0350727"><ele>889.1666666666666</ele><time>2026-05-03T11:21:59.768Z</time></trkpt><trkpt lat="38.0260388" lon="15.0349816"><ele>891.0</ele><time>2026-05-03T11:22:01.768Z</time></trkpt><trkpt lat="38.0259906" lon="15.0349002"><ele>892.6666666666666</ele><time>2026-05-03T11:22:03.768Z</time></trkpt><trkpt lat="38.025934" lon="15.0348237"><ele>894.3333333333333</ele><time>2026-05-03T11:22:05.768Z</time></trkpt><trkpt lat="38.0259245" lon="15.0347213"><ele>896.0</ele><time>2026-05-03T11:22:07.769Z</time></trkpt><trkpt lat="38.0259157" lon="15.0346228"><ele>897.6666666666666</ele><time>2026-05-03T11:22:09.768Z</time></trkpt><trkpt lat="38.0259132" lon="15.0345168"><ele>899.3333333333333</ele><time>2026-05-03T11:22:11.768Z</time></trkpt><trkpt lat="38.0259221" lon="15.0344026"><ele>901.0</ele><time>2026-05-03T11:22:13.768Z</time></trkpt><trkpt lat="38.0259262" lon="15.0343033"><ele>900.9999999999999</ele><time>2026-05-03T11:22:15.768Z</time></trkpt><trkpt lat="38.0259249" lon="15.0341973"><ele>901.0</ele><time>2026-05-03T11:22:17.768Z</time></trkpt><trkpt lat="38.0259581" lon="15.0341021"><ele>901.0</ele><time>2026-05-03T11:22:20.768Z</time></trkpt><trkpt lat="38.0259906" lon="15.0340299"><ele>901.0</ele><time>2026-05-03T11:22:22.768Z</time></trkpt><trkpt lat="38.0259916" lon="15.0339328"><ele>900.9999999999999</ele><time>2026-05-03T11:22:24.768Z</time></trkpt><trkpt lat="38.025973" lon="15.0338366"><ele>901.0</ele><time>2026-05-03T11:22:26.768Z</time></trkpt><trkpt lat="38.0259584" lon="15.0337479"><ele>901.6666666666666</ele><time>2026-05-03T11:22:28.768Z</time></trkpt><trkpt lat="38.0259204" lon="15.033656"><ele>902.3333333333333</ele><time>2026-05-03T11:22:31.768Z</time></trkpt><trkpt lat="38.0258811" lon="15.0335878"><ele>903.0</ele><time>2026-05-03T11:22:40.768Z</time></trkpt><trkpt lat="38.0258481" lon="15.0335174"><ele>903.6666666666667</ele><time>2026-05-03T11:22:42.769Z</time></trkpt><trkpt lat="38.0258028" lon="15.0334148"><ele>904.3333333333334</ele><time>2026-05-03T11:22:44.768Z</time></trkpt><trkpt lat="38.0257661" lon="15.0333024"><ele>905.0</ele><time>2026-05-03T11:22:46.769Z</time></trkpt><trkpt lat="38.0257263" lon="15.0331829"><ele>915.0</ele><time>2026-05-03T11:22:48.768Z</time></trkpt><trkpt lat="38.0257122" lon="15.0330424"><ele>925.0</ele><time>2026-05-03T11:22:50.769Z</time></trkpt><trkpt lat="38.0256818" lon="15.0329114"><ele>935.0</ele><time>2026-05-03T11:22:52.769Z</time></trkpt><trkpt lat="38.025689" lon="15.0327904"><ele>945.0</ele><time>2026-05-03T11:22:54.767Z</time></trkpt><trkpt lat="38.0257271" lon="15.0326557"><ele>955.0</ele><time>2026-05-03T11:22:56.768Z</time></trkpt><trkpt lat="38.0257686" lon="15.0325947"><ele>954.9999999999999</ele><time>2026-05-03T11:22:57.768Z</time></trkpt><trkpt lat="38.0258059" lon="15.032528"><ele>955.0</ele><time>2026-05-03T11:22:58.768Z</time></trkpt><trkpt lat="38.0258459" lon="15.032462"><ele>955.0</ele><time>2026-05-03T11:22:59.769Z</time></trkpt><trkpt lat="38.0258867" lon="15.0324001"><ele>955.0</ele><time>2026-05-03T11:23:00.768Z</time></trkpt><trkpt lat="38.0259768" lon="15.0322893"><ele>954.9999999999999</ele><time>2026-05-03T11:23:02.769Z</time></trkpt><trkpt lat="38.0260361" lon="15.0322494"><ele>955.0</ele><time>2026-05-03T11:23:03.768Z</time></trkpt><trkpt lat="38.026133" lon="15.0321703"><ele>950.8</ele><time>2026-05-03T11:23:05.768Z</time></trkpt><trkpt lat="38.0261942" lon="15.0320747"><ele>946.6</ele><time>2026-05-03T11:23:07.768Z</time></trkpt><trkpt lat="38.0262525" lon="15.0319476"><ele>942.4000000000001</ele><time>2026-05-03T11:23:09.768Z</time></trkpt><trkpt lat="38.0262973" lon="15.0318875"><ele>938.2</ele><time>2026-05-03T11:23:10.768Z</time></trkpt><trkpt lat="38.0263327" lon="15.0318166"><ele>934.0</ele><time>2026-05-03T11:23:11.768Z</time></trkpt><trkpt lat="38.0263478" lon="15.0316621"><ele>934.9999999999999</ele><time>2026-05-03T11:23:13.768Z</time></trkpt><trkpt lat="38.0263121" lon="15.0315869"><ele>936.0</ele><time>2026-05-03T11:23:14.768Z</time></trkpt><trkpt lat="38.0262852" lon="15.0315135"><ele>936.9999999999999</ele><time>2026-05-03T11:23:15.768Z</time></trkpt><trkpt lat="38.0262481" lon="15.0314307"><ele>937.9999999999999</ele><time>2026-05-03T11:23:16.768Z</time></trkpt><trkpt lat="38.0262156" lon="15.0313572"><ele>939.0</ele><time>2026-05-03T11:23:17.768Z</time></trkpt><trkpt lat="38.0261641" lon="15.0312874"><ele>939.9999999999999</ele><time>2026-05-03T11:23:18.769Z</time></trkpt><trkpt lat="38.0261154" lon="15.0312262"><ele>940.9999999999999</ele><time>2026-05-03T11:23:19.768Z</time></trkpt><trkpt lat="38.0260607" lon="15.0311632"><ele>940.9999999999999</ele><time>2026-05-03T11:23:20.768Z</time></trkpt><trkpt lat="38.0260131" lon="15.0311012"><ele>941.0</ele><time>2026-05-03T11:23:21.768Z</time></trkpt><trkpt lat="38.025992" lon="15.0310182"><ele>940.9999999999999</ele><time>2026-05-03T11:23:22.768Z</time></trkpt><trkpt lat="38.0259773" lon="15.0309306"><ele>940.9999999999999</ele><time>2026-05-03T11:23:23.768Z</time></trkpt><trkpt lat="38.0259781" lon="15.0308368"><ele>941.0</ele><time>2026-05-03T11:23:24.768Z</time></trkpt><trkpt lat="38.0259838" lon="15.0307455"><ele>940.9999999999999</ele><time>2026-05-03T11:23:25.768Z</time></trkpt><trkpt lat="38.0259976" lon="15.0306513"><ele>940.9999999999999</ele><time>2026-05-03T11:23:26.768Z</time></trkpt><trkpt lat="38.0260078" lon="15.0305552"><ele>941.5999999999999</ele><time>2026-05-03T11:23:27.768Z</time></trkpt><trkpt lat="38.0260196" lon="15.0304714"><ele>942.1999999999999</ele><time>2026-05-03T11:23:28.768Z</time></trkpt><trkpt lat="38.0260055" lon="15.0303363"><ele>942.8000000000001</ele><time>2026-05-03T11:23:30.769Z</time></trkpt><trkpt lat="38.0259867" lon="15.030204"><ele>943.4000000000001</ele><time>2026-05-03T11:23:32.768Z</time></trkpt><trkpt lat="38.025979" lon="15.0300647"><ele>944.0</ele><time>2026-05-03T11:23:34.769Z</time></trkpt><trkpt lat="38.026002" lon="15.0299839"><ele>941.8000000000001</ele><time>2026-05-03T11:23:35.768Z</time></trkpt><trkpt lat="38.0260403" lon="15.0298532"><ele>939.6000000000001</ele><time>2026-05-03T11:23:37.768Z</time></trkpt><trkpt lat="38.0260477" lon="15.0297431"><ele>937.4</ele><time>2026-05-03T11:23:39.768Z</time></trkpt><trkpt lat="38.0259735" lon="15.0296544"><ele>935.2</ele><time>2026-05-03T11:23:42.769Z</time></trkpt><trkpt lat="38.0259053" lon="15.0295777"><ele>933.0</ele><time>2026-05-03T11:23:44.768Z</time></trkpt><trkpt lat="38.0258482" lon="15.0294866"><ele>936.0</ele><time>2026-05-03T11:23:46.768Z</time></trkpt><trkpt lat="38.0257856" lon="15.0294089"><ele>939.0</ele><time>2026-05-03T11:23:48.768Z</time></trkpt><trkpt lat="38.0257115" lon="15.0293227"><ele>942.0</ele><time>2026-05-03T11:23:50.768Z</time></trkpt><trkpt lat="38.0256463" lon="15.0292544"><ele>945.0</ele><time>2026-05-03T11:23:52.768Z</time></trkpt><trkpt lat="38.0255842" lon="15.029193"><ele>948.0</ele><time>2026-05-03T11:23:54.768Z</time></trkpt><trkpt lat="38.0255167" lon="15.0291435"><ele>951.0</ele><time>2026-05-03T11:23:56.769Z</time></trkpt><trkpt lat="38.0254523" lon="15.0291011"><ele>951.0</ele><time>2026-05-03T11:23:58.768Z</time></trkpt><trkpt lat="38.0254024" lon="15.0290486"><ele>951.0</ele><time>2026-05-03T11:24:00.768Z</time></trkpt><trkpt lat="38.025372" lon="15.0289521"><ele>951.0</ele><time>2026-05-03T11:24:02.768Z</time></trkpt><trkpt lat="38.02536" lon="15.028851"><ele>951.0</ele><time>2026-05-03T11:24:04.768Z</time></trkpt><trkpt lat="38.0253347" lon="15.0287505"><ele>951.0</ele><time>2026-05-03T11:24:06.768Z</time></trkpt><trkpt lat="38.0252928" lon="15.0286479"><ele>951.0</ele><time>2026-05-03T11:24:08.768Z</time></trkpt><trkpt lat="38.0252469" lon="15.0285395"><ele>951.0</ele><time>2026-05-03T11:24:10.768Z</time></trkpt><trkpt lat="38.0252171" lon="15.0284217"><ele>950.9999999999999</ele><time>2026-05-03T11:24:12.768Z</time></trkpt><trkpt lat="38.0251723" lon="15.0283024"><ele>950.9999999999999</ele><time>2026-05-03T11:24:14.768Z</time></trkpt><trkpt lat="38.025117" lon="15.0281867"><ele>951.0</ele><time>2026-05-03T11:24:16.769Z</time></trkpt><trkpt lat="38.0250454" lon="15.0280706"><ele>951.0</ele><time>2026-05-03T11:24:18.768Z</time></trkpt><trkpt lat="38.0249808" lon="15.0279694"><ele>950.5999999999999</ele><time>2026-05-03T11:24:20.769Z</time></trkpt><trkpt lat="38.0248997" lon="15.0278644"><ele>950.1999999999999</ele><time>2026-05-03T11:24:22.768Z</time></trkpt><trkpt lat="38.0248499" lon="15.0277963"><ele>949.8000000000001</ele><time>2026-05-03T11:24:24.768Z</time></trkpt><trkpt lat="38.0248098" lon="15.0277173"><ele>949.4000000000001</ele><time>2026-05-03T11:24:49.768Z</time></trkpt><trkpt lat="38.0247684" lon="15.0276239"><ele>949.0</ele><time>2026-05-03T11:24:51.768Z</time></trkpt><trkpt lat="38.0247052" lon="15.0275089"><ele>947.6</ele><time>2026-05-03T11:24:53.768Z</time></trkpt><trkpt lat="38.0246284" lon="15.0274031"><ele>946.2</ele><time>2026-05-03T11:24:55.769Z</time></trkpt><trkpt lat="38.0245511" lon="15.0272889"><ele>944.8000000000001</ele><time>2026-05-03T11:24:57.768Z</time></trkpt><trkpt lat="38.0244786" lon="15.0271719"><ele>943.4000000000001</ele><time>2026-05-03T11:24:59.768Z</time></trkpt><trkpt lat="38.0244059" lon="15.0270999"><ele>942.0</ele><time>2026-05-03T11:25:01.769Z</time></trkpt><trkpt lat="38.0243473" lon="15.0270546"><ele>942.0</ele><time>2026-05-03T11:25:03.768Z</time></trkpt><trkpt lat="38.024284" lon="15.0270133"><ele>942.0</ele><time>2026-05-03T11:25:07.767Z</time></trkpt><trkpt lat="38.0241916" lon="15.0269615"><ele>942.0</ele><time>2026-05-03T11:25:11.768Z</time></trkpt><trkpt lat="38.0240927" lon="15.026911"><ele>942.0</ele><time>2026-05-03T11:25:13.768Z</time></trkpt><trkpt lat="38.024005" lon="15.0268527"><ele>942.0</ele><time>2026-05-03T11:25:15.769Z</time></trkpt><trkpt lat="38.0239046" lon="15.0267955"><ele>942.0</ele><time>2026-05-03T11:25:17.768Z</time></trkpt><trkpt lat="38.0237984" lon="15.0267238"><ele>942.0</ele><time>2026-05-03T11:25:19.768Z</time></trkpt><trkpt lat="38.0237361" lon="15.0266878"><ele>942.0</ele><time>2026-05-03T11:25:20.768Z</time></trkpt><trkpt lat="38.0236672" lon="15.026651"><ele>942.0</ele><time>2026-05-03T11:25:21.768Z</time></trkpt><trkpt lat="38.0235911" lon="15.0266238"><ele>942.0</ele><time>2026-05-03T11:25:22.768Z</time></trkpt><trkpt lat="38.0235092" lon="15.0266149"><ele>942.0</ele><time>2026-05-03T11:25:23.769Z</time></trkpt><trkpt lat="38.0234235" lon="15.026609"><ele>940.8333333333334</ele><time>2026-05-03T11:25:24.768Z</time></trkpt><trkpt lat="38.0233328" lon="15.026606"><ele>939.6666666666667</ele><time>2026-05-03T11:25:25.768Z</time></trkpt><trkpt lat="38.0232452" lon="15.0266002"><ele>938.5</ele><time>2026-05-03T11:25:26.768Z</time></trkpt><trkpt lat="38.0231708" lon="15.0265736"><ele>937.3333333333334</ele><time>2026-05-03T11:25:27.769Z</time></trkpt><trkpt lat="38.0231168" lon="15.0265241"><ele>936.1666666666667</ele><time>2026-05-03T11:25:28.768Z</time></trkpt><trkpt lat="38.023081" lon="15.0263806"><ele>935.0</ele><time>2026-05-03T11:25:30.769Z</time></trkpt><trkpt lat="38.0230862" lon="15.0262981"><ele>936.6666666666667</ele><time>2026-05-03T11:25:31.767Z</time></trkpt><trkpt lat="38.0230977" lon="15.0262027"><ele>938.3333333333334</ele><time>2026-05-03T11:25:32.768Z</time></trkpt><trkpt lat="38.023107" lon="15.026096"><ele>940.0</ele><time>2026-05-03T11:25:33.768Z</time></trkpt><trkpt lat="38.0231094" lon="15.02598"><ele>941.6666666666667</ele><time>2026-05-03T11:25:34.768Z</time></trkpt><trkpt lat="38.0231011" lon="15.0258663"><ele>943.3333333333334</ele><time>2026-05-03T11:25:35.768Z</time></trkpt><trkpt lat="38.0230877" lon="15.0257509"><ele>945.0</ele><time>2026-05-03T11:25:36.768Z</time></trkpt><trkpt lat="38.0230783" lon="15.0256327"><ele>945.0</ele><time>2026-05-03T11:25:37.768Z</time></trkpt><trkpt lat="38.023073" lon="15.025516"><ele>945.0</ele><time>2026-05-03T11:25:38.768Z</time></trkpt><trkpt lat="38.0230831" lon="15.0254036"><ele>945.0</ele><time>2026-05-03T11:25:39.768Z</time></trkpt><trkpt lat="38.0231137" lon="15.0253094"><ele>945.0</ele><time>2026-05-03T11:25:40.768Z</time></trkpt><trkpt lat="38.023146" lon="15.0252327"><ele>945.0</ele><time>2026-05-03T11:25:41.768Z</time></trkpt><trkpt lat="38.0231732" lon="15.0251574"><ele>945.0</ele><time>2026-05-03T11:25:42.768Z</time></trkpt><trkpt lat="38.0231892" lon="15.0250692"><ele>944.0</ele><time>2026-05-03T11:25:43.768Z</time></trkpt><trkpt lat="38.0231887" lon="15.0249729"><ele>943.0</ele><time>2026-05-03T11:25:44.769Z</time></trkpt><trkpt lat="38.0231679" lon="15.0248661"><ele>942.0</ele><time>2026-05-03T11:25:45.768Z</time></trkpt><trkpt lat="38.023154" lon="15.0247538"><ele>941.0</ele><time>2026-05-03T11:25:46.767Z</time></trkpt><trkpt lat="38.02316" lon="15.0246386"><ele>940.0</ele><time>2026-05-03T11:25:47.768Z</time></trkpt><trkpt lat="38.0231764" lon="15.0245238"><ele>939.0</ele><time>2026-05-03T11:25:48.768Z</time></trkpt><trkpt lat="38.0231892" lon="15.0244053"><ele>939.0</ele><time>2026-05-03T11:25:49.768Z</time></trkpt><trkpt lat="38.0231915" lon="15.0242867"><ele>939.0000000000001</ele><time>2026-05-03T11:25:50.769Z</time></trkpt><trkpt lat="38.0231868" lon="15.0241663"><ele>939.0000000000001</ele><time>2026-05-03T11:25:51.768Z</time></trkpt><trkpt lat="38.0231762" lon="15.0240479"><ele>939.0</ele><time>2026-05-03T11:25:52.768Z</time></trkpt><trkpt lat="38.0231529" lon="15.0239364"><ele>939.0</ele><time>2026-05-03T11:25:53.769Z</time></trkpt><trkpt lat="38.0231216" lon="15.0238315"><ele>938.0</ele><time>2026-05-03T11:25:54.768Z</time></trkpt><trkpt lat="38.0231072" lon="15.023722"><ele>937.0000000000001</ele><time>2026-05-03T11:25:55.768Z</time></trkpt><trkpt lat="38.0231099" lon="15.0236084"><ele>936.0000000000001</ele><time>2026-05-03T11:25:56.768Z</time></trkpt><trkpt lat="38.0231206" lon="15.023491"><ele>935.0</ele><time>2026-05-03T11:25:57.768Z</time></trkpt><trkpt lat="38.0231333" lon="15.023374"><ele>934.0</ele><time>2026-05-03T11:25:58.769Z</time></trkpt><trkpt lat="38.0231351" lon="15.0232599"><ele>933.6</ele><time>2026-05-03T11:25:59.768Z</time></trkpt><trkpt lat="38.0231388" lon="15.023149"><ele>933.2</ele><time>2026-05-03T11:26:00.768Z</time></trkpt><trkpt lat="38.023153" lon="15.0230363"><ele>932.8000000000001</ele><time>2026-05-03T11:26:01.767Z</time></trkpt><trkpt lat="38.0231651" lon="15.0229194"><ele>932.4000000000001</ele><time>2026-05-03T11:26:02.767Z</time></trkpt><trkpt lat="38.0231652" lon="15.0228022"><ele>932.0</ele><time>2026-05-03T11:26:03.768Z</time></trkpt><trkpt lat="38.0231678" lon="15.0226825"><ele>932.0</ele><time>2026-05-03T11:26:04.768Z</time></trkpt><trkpt lat="38.0231712" lon="15.0225671"><ele>932.0</ele><time>2026-05-03T11:26:05.768Z</time></trkpt><trkpt lat="38.0231767" lon="15.0224516"><ele>932.0</ele><time>2026-05-03T11:26:06.769Z</time></trkpt><trkpt lat="38.0231799" lon="15.0223345"><ele>932.0</ele><time>2026-05-03T11:26:07.768Z</time></trkpt><trkpt lat="38.0231692" lon="15.0222168"><ele>932.0</ele><time>2026-05-03T11:26:08.768Z</time></trkpt><trkpt lat="38.0231472" lon="15.0220959"><ele>931.2</ele><time>2026-05-03T11:26:09.768Z</time></trkpt><trkpt lat="38.023119" lon="15.0219716"><ele>930.4000000000001</ele><time>2026-05-03T11:26:10.768Z</time></trkpt><trkpt lat="38.0230809" lon="15.0218544"><ele>929.5999999999999</ele><time>2026-05-03T11:26:11.769Z</time></trkpt><trkpt lat="38.0230346" lon="15.0217476"><ele>928.8</ele><time>2026-05-03T11:26:12.768Z</time></trkpt><trkpt lat="38.0229843" lon="15.0216474"><ele>928.0</ele><time>2026-05-03T11:26:13.768Z</time></trkpt><trkpt lat="38.0229267" lon="15.0215477"><ele>927.8333333333333</ele><time>2026-05-03T11:26:14.768Z</time></trkpt><trkpt lat="38.0228642" lon="15.0214484"><ele>927.6666666666666</ele><time>2026-05-03T11:26:15.768Z</time></trkpt><trkpt lat="38.0227945" lon="15.0213602"><ele>927.5</ele><time>2026-05-03T11:26:16.768Z</time></trkpt><trkpt lat="38.0227285" lon="15.0212826"><ele>927.3333333333333</ele><time>2026-05-03T11:26:17.768Z</time></trkpt><trkpt lat="38.0226678" lon="15.0212159"><ele>927.1666666666666</ele><time>2026-05-03T11:26:18.768Z</time></trkpt><trkpt lat="38.0226145" lon="15.0211496"><ele>927.0</ele><time>2026-05-03T11:26:19.767Z</time></trkpt><trkpt lat="38.0225814" lon="15.0210719"><ele>927.0</ele><time>2026-05-03T11:26:20.768Z</time></trkpt><trkpt lat="38.0225855" lon="15.0209343"><ele>927.0</ele><time>2026-05-03T11:26:22.768Z</time></trkpt><trkpt lat="38.0225977" lon="15.0210192"><ele>927.0</ele><time>2026-05-03T11:29:48.768Z</time></trkpt><trkpt lat="38.0225925" lon="15.0211012"><ele>927.0</ele><time>2026-05-03T11:29:50.768Z</time></trkpt><trkpt lat="38.0226485" lon="15.0211879"><ele>927.0</ele><time>2026-05-03T11:29:52.769Z</time></trkpt><trkpt lat="38.0227015" lon="15.0212534"><ele>927.0</ele><time>2026-05-03T11:29:53.769Z</time></trkpt><trkpt lat="38.0227571" lon="15.0213218"><ele>927.0</ele><time>2026-05-03T11:29:54.768Z</time></trkpt><trkpt lat="38.0228136" lon="15.0213899"><ele>927.0</ele><time>2026-05-03T11:29:55.768Z</time></trkpt><trkpt lat="38.0228683" lon="15.0214629"><ele>927.0</ele><time>2026-05-03T11:29:56.768Z</time></trkpt><trkpt lat="38.022914" lon="15.0215519"><ele>927.0</ele><time>2026-05-03T11:29:57.768Z</time></trkpt><trkpt lat="38.0229639" lon="15.0216525"><ele>927.0</ele><time>2026-05-03T11:29:58.768Z</time></trkpt><trkpt lat="38.0230228" lon="15.0217625"><ele>927.0</ele><time>2026-05-03T11:29:59.768Z</time></trkpt><trkpt lat="38.0230782" lon="15.0218819"><ele>927.25</ele><time>2026-05-03T11:30:00.769Z</time></trkpt><trkpt lat="38.0231243" lon="15.0220167"><ele>927.5</ele><time>2026-05-03T11:30:01.768Z</time></trkpt><trkpt lat="38.0231631" lon="15.0221609"><ele>927.75</ele><time>2026-05-03T11:30:02.768Z</time></trkpt><trkpt lat="38.0231875" lon="15.0222998"><ele>928.0</ele><time>2026-05-03T11:30:03.768Z</time></trkpt><trkpt lat="38.0231851" lon="15.0224375"><ele>929.0</ele><time>2026-05-03T11:30:04.768Z</time></trkpt><trkpt lat="38.0231736" lon="15.0225862"><ele>930.0</ele><time>2026-05-03T11:30:05.768Z</time></trkpt><trkpt lat="38.023173" lon="15.0227373"><ele>931.0</ele><time>2026-05-03T11:30:06.768Z</time></trkpt><trkpt lat="38.0231731" lon="15.0228813"><ele>932.0</ele><time>2026-05-03T11:30:07.768Z</time></trkpt><trkpt lat="38.0231713" lon="15.0230222"><ele>932.0</ele><time>2026-05-03T11:30:08.768Z</time></trkpt><trkpt lat="38.0231477" lon="15.0231619"><ele>932.0</ele><time>2026-05-03T11:30:09.769Z</time></trkpt><trkpt lat="38.0231379" lon="15.0233101"><ele>932.0</ele><time>2026-05-03T11:30:10.768Z</time></trkpt><trkpt lat="38.0231334" lon="15.0234648"><ele>932.0</ele><time>2026-05-03T11:30:11.768Z</time></trkpt><trkpt lat="38.0231175" lon="15.0236146"><ele>932.5</ele><time>2026-05-03T11:30:12.769Z</time></trkpt><trkpt lat="38.0231182" lon="15.0237692"><ele>933.0</ele><time>2026-05-03T11:30:13.768Z</time></trkpt><trkpt lat="38.0231543" lon="15.0239225"><ele>933.5</ele><time>2026-05-03T11:30:14.768Z</time></trkpt><trkpt lat="38.0231892" lon="15.0240799"><ele>934.0</ele><time>2026-05-03T11:30:15.769Z</time></trkpt><trkpt lat="38.0231986" lon="15.0242525"><ele>935.0</ele><time>2026-05-03T11:30:16.768Z</time></trkpt><trkpt lat="38.0231875" lon="15.0244266"><ele>936.0000000000001</ele><time>2026-05-03T11:30:17.768Z</time></trkpt><trkpt lat="38.0231713" lon="15.0245823"><ele>937.0000000000001</ele><time>2026-05-03T11:30:18.768Z</time></trkpt><trkpt lat="38.023159" lon="15.0247095"><ele>938.0</ele><time>2026-05-03T11:30:19.769Z</time></trkpt><trkpt lat="38.0231641" lon="15.0248125"><ele>939.0</ele><time>2026-05-03T11:30:20.768Z</time></trkpt><trkpt lat="38.0231814" lon="15.0249235"><ele>940.2</ele><time>2026-05-03T11:30:22.768Z</time></trkpt><trkpt lat="38.0231889" lon="15.0250868"><ele>941.4000000000001</ele><time>2026-05-03T11:30:28.768Z</time></trkpt><trkpt lat="38.0231566" lon="15.0251874"><ele>942.6</ele><time>2026-05-03T11:30:29.768Z</time></trkpt><trkpt lat="38.0231168" lon="15.0253041"><ele>943.8</ele><time>2026-05-03T11:30:30.768Z</time></trkpt><trkpt lat="38.0230826" lon="15.0254396"><ele>945.0</ele><time>2026-05-03T11:30:31.769Z</time></trkpt><trkpt lat="38.0230818" lon="15.0255975"><ele>945.0</ele><time>2026-05-03T11:30:32.768Z</time></trkpt><trkpt lat="38.023094" lon="15.0257638"><ele>945.0</ele><time>2026-05-03T11:30:33.768Z</time></trkpt><trkpt lat="38.0231135" lon="15.0259343"><ele>945.0</ele><time>2026-05-03T11:30:34.769Z</time></trkpt><trkpt lat="38.0231137" lon="15.0261044"><ele>945.0</ele><time>2026-05-03T11:30:35.768Z</time></trkpt><trkpt lat="38.0230967" lon="15.0262554"><ele>946.1666666666666</ele><time>2026-05-03T11:30:36.768Z</time></trkpt><trkpt lat="38.023084" lon="15.0263747"><ele>947.3333333333333</ele><time>2026-05-03T11:30:37.768Z</time></trkpt><trkpt lat="38.0230967" lon="15.026468"><ele>948.5</ele><time>2026-05-03T11:30:38.768Z</time></trkpt><trkpt lat="38.0231443" lon="15.0265412"><ele>949.6666666666666</ele><time>2026-05-03T11:30:39.768Z</time></trkpt><trkpt lat="38.0232115" lon="15.0265814"><ele>950.8333333333333</ele><time>2026-05-03T11:30:40.768Z</time></trkpt><trkpt lat="38.0233066" lon="15.0265953"><ele>952.0</ele><time>2026-05-03T11:30:41.768Z</time></trkpt><trkpt lat="38.0234167" lon="15.0266"><ele>949.5</ele><time>2026-05-03T11:30:42.769Z</time></trkpt><trkpt lat="38.0235298" lon="15.0266097"><ele>947.0</ele><time>2026-05-03T11:30:43.768Z</time></trkpt><trkpt lat="38.0236325" lon="15.0266345"><ele>944.5</ele><time>2026-05-03T11:30:44.768Z</time></trkpt><trkpt lat="38.0237432" lon="15.0266845"><ele>942.0</ele><time>2026-05-03T11:30:45.769Z</time></trkpt><trkpt lat="38.0238538" lon="15.0267523"><ele>942.0</ele><time>2026-05-03T11:30:46.768Z</time></trkpt><trkpt lat="38.0239397" lon="15.0268055"><ele>942.0</ele><time>2026-05-03T11:30:47.769Z</time></trkpt><trkpt lat="38.0240117" lon="15.0268431"><ele>942.0</ele><time>2026-05-03T11:30:48.768Z</time></trkpt><trkpt lat="38.0240881" lon="15.0269107"><ele>942.0</ele><time>2026-05-03T11:30:50.768Z</time></trkpt><trkpt lat="38.0241506" lon="15.0269312"><ele>942.0</ele><time>2026-05-03T11:30:59.768Z</time></trkpt><trkpt lat="38.0240828" lon="15.0269063"><ele>942.0</ele><time>2026-05-03T11:37:33.768Z</time></trkpt><trkpt lat="38.024013" lon="15.0268405"><ele>942.0</ele><time>2026-05-03T11:37:36.767Z</time></trkpt><trkpt lat="38.0239456" lon="15.0268017"><ele>942.0</ele><time>2026-05-03T11:37:38.767Z</time></trkpt><trkpt lat="38.0238627" lon="15.0267576"><ele>942.0</ele><time>2026-05-03T11:37:40.767Z</time></trkpt><trkpt lat="38.023771" lon="15.0267027"><ele>942.0</ele><time>2026-05-03T11:37:42.767Z</time></trkpt><trkpt lat="38.023657" lon="15.0266419"><ele>942.0</ele><time>2026-05-03T11:37:44.768Z</time></trkpt><trkpt lat="38.0235917" lon="15.0266199"><ele>941.0000000000001</ele><time>2026-05-03T11:37:45.768Z</time></trkpt><trkpt lat="38.0235219" lon="15.0266089"><ele>940.0</ele><time>2026-05-03T11:37:46.767Z</time></trkpt><trkpt lat="38.0234482" lon="15.0266046"><ele>939.0000000000001</ele><time>2026-05-03T11:37:47.768Z</time></trkpt><trkpt lat="38.0233712" lon="15.0266009"><ele>938.0000000000001</ele><time>2026-05-03T11:37:48.767Z</time></trkpt><trkpt lat="38.0232858" lon="15.0265978"><ele>937.0</ele><time>2026-05-03T11:37:49.767Z</time></trkpt><trkpt lat="38.0232146" lon="15.026582"><ele>936.0000000000001</ele><time>2026-05-03T11:37:50.768Z</time></trkpt><trkpt lat="38.023157" lon="15.0265495"><ele>935.0000000000001</ele><time>2026-05-03T11:37:51.767Z</time></trkpt><trkpt lat="38.0230899" lon="15.026431"><ele>938.4</ele><time>2026-05-03T11:37:53.767Z</time></trkpt><trkpt lat="38.0230896" lon="15.0262671"><ele>941.8</ele><time>2026-05-03T11:37:55.767Z</time></trkpt><trkpt lat="38.0230985" lon="15.0261672"><ele>945.2</ele><time>2026-05-03T11:37:56.768Z</time></trkpt><trkpt lat="38.0231064" lon="15.0260779"><ele>948.6</ele><time>2026-05-03T11:37:57.767Z</time></trkpt><trkpt lat="38.0231048" lon="15.0259513"><ele>952.0</ele><time>2026-05-03T11:37:59.767Z</time></trkpt><trkpt lat="38.0230915" lon="15.0258297"><ele>950.6</ele><time>2026-05-03T11:38:02.767Z</time></trkpt><trkpt lat="38.0230859" lon="15.0257369"><ele>949.2</ele><time>2026-05-03T11:38:04.768Z</time></trkpt><trkpt lat="38.0230726" lon="15.0256174"><ele>947.8</ele><time>2026-05-03T11:38:06.767Z</time></trkpt><trkpt lat="38.023071" lon="15.0254732"><ele>946.4</ele><time>2026-05-03T11:38:08.767Z</time></trkpt><trkpt lat="38.0231023" lon="15.025325"><ele>945.0</ele><time>2026-05-03T11:38:10.767Z</time></trkpt><trkpt lat="38.0231447" lon="15.0252043"><ele>945.0</ele><time>2026-05-03T11:38:12.768Z</time></trkpt><trkpt lat="38.0231736" lon="15.0250953"><ele>945.0</ele><time>2026-05-03T11:38:14.767Z</time></trkpt><trkpt lat="38.0231797" lon="15.0250113"><ele>945.0</ele><time>2026-05-03T11:38:16.767Z</time></trkpt><trkpt lat="38.0231814" lon="15.0249286"><ele>945.0</ele><time>2026-05-03T11:38:18.767Z</time></trkpt><trkpt lat="38.0231737" lon="15.024843"><ele>945.0</ele><time>2026-05-03T11:38:20.768Z</time></trkpt><trkpt lat="38.0231666" lon="15.0247449"><ele>945.0</ele><time>2026-05-03T11:38:22.767Z</time></trkpt><trkpt lat="38.0231642" lon="15.0246292"><ele>943.8</ele><time>2026-05-03T11:38:24.767Z</time></trkpt><trkpt lat="38.0231764" lon="15.0245045"><ele>942.6</ele><time>2026-05-03T11:38:26.767Z</time></trkpt><trkpt lat="38.0231889" lon="15.0243873"><ele>941.4000000000001</ele><time>2026-05-03T11:38:28.767Z</time></trkpt><trkpt lat="38.0231885" lon="15.0242587"><ele>940.2</ele><time>2026-05-03T11:38:30.767Z</time></trkpt><trkpt lat="38.0231813" lon="15.0241146"><ele>939.0</ele><time>2026-05-03T11:38:32.766Z</time></trkpt><trkpt lat="38.0231599" lon="15.0239618"><ele>937.75</ele><time>2026-05-03T11:38:34.767Z</time></trkpt><trkpt lat="38.0231192" lon="15.0238131"><ele>936.5</ele><time>2026-05-03T11:38:36.767Z</time></trkpt><trkpt lat="38.0231104" lon="15.0236669"><ele>935.25</ele><time>2026-05-03T11:38:38.768Z</time></trkpt><trkpt lat="38.0231169" lon="15.0235224"><ele>934.0</ele><time>2026-05-03T11:38:40.767Z</time></trkpt><trkpt lat="38.0231314" lon="15.0233733"><ele>933.7142857142856</ele><time>2026-05-03T11:38:42.768Z</time></trkpt><trkpt lat="38.023136" lon="15.0232915"><ele>933.4285714285713</ele><time>2026-05-03T11:38:43.766Z</time></trkpt><trkpt lat="38.0231388" lon="15.0232091"><ele>933.1428571428571</ele><time>2026-05-03T11:38:44.767Z</time></trkpt><trkpt lat="38.0231447" lon="15.0231253"><ele>932.8571428571428</ele><time>2026-05-03T11:38:45.768Z</time></trkpt><trkpt lat="38.0231555" lon="15.023041"><ele>932.5714285714284</ele><time>2026-05-03T11:38:46.766Z</time></trkpt><trkpt lat="38.0231658" lon="15.0229538"><ele>932.2857142857143</ele><time>2026-05-03T11:38:47.767Z</time></trkpt><trkpt lat="38.0231669" lon="15.0228692"><ele>932.0</ele><time>2026-05-03T11:38:48.767Z</time></trkpt><trkpt lat="38.0231665" lon="15.0227842"><ele>932.0000000000001</ele><time>2026-05-03T11:38:49.767Z</time></trkpt><trkpt lat="38.0231677" lon="15.0226921"><ele>932.0</ele><time>2026-05-03T11:38:50.767Z</time></trkpt><trkpt lat="38.0231715" lon="15.0225955"><ele>932.0</ele><time>2026-05-03T11:38:51.767Z</time></trkpt><trkpt lat="38.0231723" lon="15.0224996"><ele>932.0</ele><time>2026-05-03T11:38:52.767Z</time></trkpt><trkpt lat="38.0231738" lon="15.0224083"><ele>932.0000000000001</ele><time>2026-05-03T11:38:53.767Z</time></trkpt><trkpt lat="38.0231691" lon="15.022253"><ele>932.0</ele><time>2026-05-03T11:38:55.767Z</time></trkpt><trkpt lat="38.0231459" lon="15.0220945"><ele>931.4285714285714</ele><time>2026-05-03T11:38:57.767Z</time></trkpt><trkpt lat="38.0231277" lon="15.0220126"><ele>930.8571428571429</ele><time>2026-05-03T11:38:58.767Z</time></trkpt><trkpt lat="38.0231032" lon="15.0219282"><ele>930.2857142857143</ele><time>2026-05-03T11:38:59.767Z</time></trkpt><trkpt lat="38.0230787" lon="15.0218501"><ele>929.7142857142858</ele><time>2026-05-03T11:39:00.768Z</time></trkpt><trkpt lat="38.0230439" lon="15.0217651"><ele>929.1428571428571</ele><time>2026-05-03T11:39:01.767Z</time></trkpt><trkpt lat="38.0230081" lon="15.0216826"><ele>928.5714285714287</ele><time>2026-05-03T11:39:02.768Z</time></trkpt><trkpt lat="38.0229727" lon="15.0216009"><ele>928.0000000000001</ele><time>2026-05-03T11:39:03.767Z</time></trkpt><trkpt lat="38.0229346" lon="15.0215271"><ele>927.8333333333333</ele><time>2026-05-03T11:39:04.768Z</time></trkpt><trkpt lat="38.0228899" lon="15.0214557"><ele>927.6666666666666</ele><time>2026-05-03T11:39:05.767Z</time></trkpt><trkpt lat="38.0228415" lon="15.0213928"><ele>927.5</ele><time>2026-05-03T11:39:06.767Z</time></trkpt><trkpt lat="38.0227938" lon="15.0213284"><ele>927.3333333333333</ele><time>2026-05-03T11:39:07.767Z</time></trkpt><trkpt lat="38.0227437" lon="15.0212709"><ele>927.1666666666666</ele><time>2026-05-03T11:39:08.767Z</time></trkpt><trkpt lat="38.0226408" lon="15.021174"><ele>927.0</ele><time>2026-05-03T11:39:10.767Z</time></trkpt><trkpt lat="38.0225883" lon="15.0210457"><ele>927.0</ele><time>2026-05-03T11:39:12.767Z</time></trkpt><trkpt lat="38.0225977" lon="15.0209277"><ele>927.0</ele><time>2026-05-03T11:39:14.767Z</time></trkpt><trkpt lat="38.0226279" lon="15.0208187"><ele>927.0</ele><time>2026-05-03T11:39:16.767Z</time></trkpt><trkpt lat="38.0226598" lon="15.0207394"><ele>927.0</ele><time>2026-05-03T11:39:17.767Z</time></trkpt><trkpt lat="38.0226895" lon="15.0206497"><ele>927.0</ele><time>2026-05-03T11:39:18.767Z</time></trkpt><trkpt lat="38.0227094" lon="15.0205518"><ele>927.0</ele><time>2026-05-03T11:39:19.768Z</time></trkpt><trkpt lat="38.0227121" lon="15.0204467"><ele>927.1666666666666</ele><time>2026-05-03T11:39:20.767Z</time></trkpt><trkpt lat="38.0227018" lon="15.0203409"><ele>927.3333333333333</ele><time>2026-05-03T11:39:21.768Z</time></trkpt><trkpt lat="38.0226774" lon="15.0202403"><ele>927.5</ele><time>2026-05-03T11:39:22.767Z</time></trkpt><trkpt lat="38.0226389" lon="15.0201415"><ele>927.6666666666666</ele><time>2026-05-03T11:39:23.767Z</time></trkpt><trkpt lat="38.022597" lon="15.0200427"><ele>927.8333333333333</ele><time>2026-05-03T11:39:24.767Z</time></trkpt><trkpt lat="38.022557" lon="15.0199472"><ele>928.0</ele><time>2026-05-03T11:39:25.767Z</time></trkpt><trkpt lat="38.0225215" lon="15.0198528"><ele>927.9999999999999</ele><time>2026-05-03T11:39:26.766Z</time></trkpt><trkpt lat="38.0224878" lon="15.0197682"><ele>928.0</ele><time>2026-05-03T11:39:27.767Z</time></trkpt><trkpt lat="38.0224541" lon="15.0196947"><ele>928.0</ele><time>2026-05-03T11:39:28.767Z</time></trkpt><trkpt lat="38.0224067" lon="15.0195681"><ele>928.0</ele><time>2026-05-03T11:39:30.767Z</time></trkpt><trkpt lat="38.0224164" lon="15.0194739"><ele>927.9999999999999</ele><time>2026-05-03T11:39:32.767Z</time></trkpt><trkpt lat="38.0224581" lon="15.0193469"><ele>928.0</ele><time>2026-05-03T11:39:35.767Z</time></trkpt><trkpt lat="38.0225464" lon="15.0192597"><ele>925.9999999999999</ele><time>2026-05-03T11:39:37.767Z</time></trkpt><trkpt lat="38.022665" lon="15.0192078"><ele>924.0</ele><time>2026-05-03T11:39:39.767Z</time></trkpt><trkpt lat="38.0227288" lon="15.0191765"><ele>922.0</ele><time>2026-05-03T11:39:40.767Z</time></trkpt><trkpt lat="38.0227907" lon="15.0191264"><ele>920.0</ele><time>2026-05-03T11:39:41.767Z</time></trkpt><trkpt lat="38.0228491" lon="15.0190753"><ele>917.9999999999999</ele><time>2026-05-03T11:39:42.767Z</time></trkpt><trkpt lat="38.0229075" lon="15.0190276"><ele>916.0</ele><time>2026-05-03T11:39:43.767Z</time></trkpt><trkpt lat="38.0230186" lon="15.0189615"><ele>914.1999999999999</ele><time>2026-05-03T11:39:45.768Z</time></trkpt><trkpt lat="38.0231267" lon="15.018882"><ele>912.3999999999999</ele><time>2026-05-03T11:39:47.767Z</time></trkpt><trkpt lat="38.0232259" lon="15.0188042"><ele>910.6</ele><time>2026-05-03T11:39:49.767Z</time></trkpt><trkpt lat="38.0233004" lon="15.0187335"><ele>908.8</ele><time>2026-05-03T11:39:51.768Z</time></trkpt><trkpt lat="38.0233606" lon="15.0186859"><ele>907.0</ele><time>2026-05-03T11:39:53.767Z</time></trkpt><trkpt lat="38.0234212" lon="15.0186297"><ele>906.4999999999999</ele><time>2026-05-03T11:39:55.767Z</time></trkpt><trkpt lat="38.0235014" lon="15.0185781"><ele>906.0</ele><time>2026-05-03T11:39:58.766Z</time></trkpt><trkpt lat="38.0235761" lon="15.0186164"><ele>905.5</ele><time>2026-05-03T11:40:00.767Z</time></trkpt><trkpt lat="38.0236672" lon="15.0186893"><ele>905.0</ele><time>2026-05-03T11:40:02.767Z</time></trkpt><trkpt lat="38.0237179" lon="15.0187388"><ele>904.4999999999999</ele><time>2026-05-03T11:40:03.767Z</time></trkpt><trkpt lat="38.0237736" lon="15.0187899"><ele>904.0</ele><time>2026-05-03T11:40:04.765Z</time></trkpt><trkpt lat="38.0238304" lon="15.0188495"><ele>903.9999999999999</ele><time>2026-05-03T11:40:05.766Z</time></trkpt><trkpt lat="38.0238873" lon="15.0189081"><ele>904.0</ele><time>2026-05-03T11:40:06.766Z</time></trkpt><trkpt lat="38.0239415" lon="15.0189669"><ele>904.0</ele><time>2026-05-03T11:40:07.766Z</time></trkpt><trkpt lat="38.0239922" lon="15.0190242"><ele>904.0</ele><time>2026-05-03T11:40:08.766Z</time></trkpt><trkpt lat="38.0240409" lon="15.0190799"><ele>903.9999999999999</ele><time>2026-05-03T11:40:09.766Z</time></trkpt><trkpt lat="38.0240882" lon="15.0191363"><ele>904.0</ele><time>2026-05-03T11:40:10.767Z</time></trkpt><trkpt lat="38.0241754" lon="15.0192431"><ele>903.25</ele><time>2026-05-03T11:40:12.766Z</time></trkpt><trkpt lat="38.0242553" lon="15.0193559"><ele>902.5</ele><time>2026-05-03T11:40:14.766Z</time></trkpt><trkpt lat="38.0243123" lon="15.019472"><ele>901.75</ele><time>2026-05-03T11:40:16.766Z</time></trkpt><trkpt lat="38.0243932" lon="15.0195782"><ele>901.0</ele><time>2026-05-03T11:40:18.766Z</time></trkpt><trkpt lat="38.0245013" lon="15.0195788"><ele>901.0</ele><time>2026-05-03T11:40:20.767Z</time></trkpt><trkpt lat="38.0246277" lon="15.0195578"><ele>900.9999999999999</ele><time>2026-05-03T11:40:22.766Z</time></trkpt><trkpt lat="38.024701" lon="15.0195431"><ele>900.9999999999999</ele><time>2026-05-03T11:40:23.767Z</time></trkpt><trkpt lat="38.0247742" lon="15.0195257"><ele>901.0</ele><time>2026-05-03T11:40:24.766Z</time></trkpt><trkpt lat="38.0248389" lon="15.019519"><ele>901.0</ele><time>2026-05-03T11:40:25.767Z</time></trkpt><trkpt lat="38.0249559" lon="15.0195502"><ele>899.9999999999999</ele><time>2026-05-03T11:40:27.765Z</time></trkpt><trkpt lat="38.0250588" lon="15.0194991"><ele>899.0</ele><time>2026-05-03T11:40:29.766Z</time></trkpt><trkpt lat="38.0251476" lon="15.0194002"><ele>898.0</ele><time>2026-05-03T11:40:31.766Z</time></trkpt><trkpt lat="38.0251995" lon="15.0193444"><ele>897.0</ele><time>2026-05-03T11:40:34.766Z</time></trkpt><trkpt lat="38.0252498" lon="15.0192851"><ele>895.9999999999999</ele><time>2026-05-03T11:40:37.766Z</time></trkpt><trkpt lat="38.025307" lon="15.0192177"><ele>895.0</ele><time>2026-05-03T11:40:41.765Z</time></trkpt><trkpt lat="38.025379" lon="15.0193004"><ele>895.0</ele><time>2026-05-03T11:40:44.767Z</time></trkpt><trkpt lat="38.0254772" lon="15.0194037"><ele>895.0</ele><time>2026-05-03T11:40:46.766Z</time></trkpt><trkpt lat="38.0255354" lon="15.0194582"><ele>895.0</ele><time>2026-05-03T11:40:47.766Z</time></trkpt><trkpt lat="38.0255953" lon="15.0194981"><ele>895.0</ele><time>2026-05-03T11:40:48.766Z</time></trkpt><trkpt lat="38.0257052" lon="15.0195228"><ele>895.0</ele><time>2026-05-03T11:40:50.766Z</time></trkpt><trkpt lat="38.0257939" lon="15.0194768"><ele>895.25</ele><time>2026-05-03T11:40:52.766Z</time></trkpt><trkpt lat="38.0258761" lon="15.0193876"><ele>895.5</ele><time>2026-05-03T11:40:54.766Z</time></trkpt><trkpt lat="38.0259598" lon="15.019296"><ele>895.75</ele><time>2026-05-03T11:40:56.766Z</time></trkpt><trkpt lat="38.0260451" lon="15.0191927"><ele>896.0</ele><time>2026-05-03T11:40:58.766Z</time></trkpt><trkpt lat="38.0261344" lon="15.0190862"><ele>893.8571428571429</ele><time>2026-05-03T11:41:00.766Z</time></trkpt><trkpt lat="38.0262081" lon="15.0189975"><ele>891.7142857142858</ele><time>2026-05-03T11:41:02.766Z</time></trkpt><trkpt lat="38.0262575" lon="15.0189327"><ele>889.5714285714286</ele><time>2026-05-03T11:41:05.765Z</time></trkpt><trkpt lat="38.0263049" lon="15.0188752"><ele>887.4285714285714</ele><time>2026-05-03T11:41:10.767Z</time></trkpt><trkpt lat="38.0263593" lon="15.0188263"><ele>885.2857142857143</ele><time>2026-05-03T11:41:16.765Z</time></trkpt><trkpt lat="38.0263991" lon="15.018763"><ele>883.1428571428571</ele><time>2026-05-03T11:41:26.767Z</time></trkpt><trkpt lat="38.0264631" lon="15.0187282"><ele>881.0</ele><time>2026-05-03T11:41:33.766Z</time></trkpt><trkpt lat="38.0265176" lon="15.0186181"><ele>881.0</ele><time>2026-05-03T11:44:45.767Z</time></trkpt><trkpt lat="38.0265619" lon="15.0184942"><ele>880.9999999999999</ele><time>2026-05-03T11:44:47.766Z</time></trkpt><trkpt lat="38.0265127" lon="15.0183457"><ele>880.9999999999999</ele><time>2026-05-03T11:44:49.766Z</time></trkpt><trkpt lat="38.0264587" lon="15.0182821"><ele>881.0</ele><time>2026-05-03T11:44:50.766Z</time></trkpt><trkpt lat="38.0263886" lon="15.0182341"><ele>881.0</ele><time>2026-05-03T11:44:51.766Z</time></trkpt><trkpt lat="38.026306" lon="15.0182138"><ele>877.8333333333334</ele><time>2026-05-03T11:44:52.766Z</time></trkpt><trkpt lat="38.0262191" lon="15.0182047"><ele>874.6666666666667</ele><time>2026-05-03T11:44:53.766Z</time></trkpt><trkpt lat="38.0261269" lon="15.0182066"><ele>871.5</ele><time>2026-05-03T11:44:54.765Z</time></trkpt><trkpt lat="38.0260361" lon="15.0181983"><ele>868.3333333333333</ele><time>2026-05-03T11:44:55.766Z</time></trkpt><trkpt lat="38.025949" lon="15.018182"><ele>865.1666666666666</ele><time>2026-05-03T11:44:56.765Z</time></trkpt><trkpt lat="38.0258853" lon="15.0181561"><ele>862.0</ele><time>2026-05-03T11:44:57.767Z</time></trkpt><trkpt lat="38.0258189" lon="15.0180811"><ele>862.0</ele><time>2026-05-03T11:44:59.766Z</time></trkpt><trkpt lat="38.025853" lon="15.0180004"><ele>862.0</ele><time>2026-05-03T11:45:01.766Z</time></trkpt><trkpt lat="38.0259636" lon="15.0179516"><ele>862.0</ele><time>2026-05-03T11:45:03.766Z</time></trkpt><trkpt lat="38.0260393" lon="15.0179185"><ele>862.0</ele><time>2026-05-03T11:45:04.766Z</time></trkpt><trkpt lat="38.0261302" lon="15.0178786"><ele>862.0</ele><time>2026-05-03T11:45:05.767Z</time></trkpt><trkpt lat="38.0262321" lon="15.0178344"><ele>862.0</ele><time>2026-05-03T11:45:06.766Z</time></trkpt><trkpt lat="38.0263379" lon="15.0177873"><ele>862.0</ele><time>2026-05-03T11:45:07.766Z</time></trkpt><trkpt lat="38.0264415" lon="15.0177424"><ele>862.0</ele><time>2026-05-03T11:45:08.765Z</time></trkpt><trkpt lat="38.026534" lon="15.0177038"><ele>862.0</ele><time>2026-05-03T11:45:09.766Z</time></trkpt><trkpt lat="38.0266066" lon="15.0176659"><ele>862.0</ele><time>2026-05-03T11:45:10.766Z</time></trkpt><trkpt lat="38.0266545" lon="15.0176112"><ele>859.1666666666666</ele><time>2026-05-03T11:45:11.766Z</time></trkpt><trkpt lat="38.0266493" lon="15.0174581"><ele>856.3333333333333</ele><time>2026-05-03T11:45:13.766Z</time></trkpt><trkpt lat="38.0266298" lon="15.0173711"><ele>853.5</ele><time>2026-05-03T11:45:14.766Z</time></trkpt><trkpt lat="38.0265965" lon="15.017293"><ele>850.6666666666667</ele><time>2026-05-03T11:45:15.766Z</time></trkpt><trkpt lat="38.0265474" lon="15.0172309"><ele>847.8333333333334</ele><time>2026-05-03T11:45:16.766Z</time></trkpt><trkpt lat="38.0264883" lon="15.0171941"><ele>845.0</ele><time>2026-05-03T11:45:17.766Z</time></trkpt><trkpt lat="38.0264226" lon="15.0171885"><ele>844.6666666666667</ele><time>2026-05-03T11:45:18.766Z</time></trkpt><trkpt lat="38.0263316" lon="15.0172318"><ele>844.3333333333334</ele><time>2026-05-03T11:45:20.766Z</time></trkpt><trkpt lat="38.0262706" lon="15.0171925"><ele>844.0</ele><time>2026-05-03T11:45:22.766Z</time></trkpt><trkpt lat="38.0263055" lon="15.0171025"><ele>843.6666666666667</ele><time>2026-05-03T11:45:25.766Z</time></trkpt><trkpt lat="38.0263268" lon="15.017021"><ele>843.3333333333334</ele><time>2026-05-03T11:45:33.766Z</time></trkpt><trkpt lat="38.0262442" lon="15.0170239"><ele>843.0</ele><time>2026-05-03T11:45:36.766Z</time></trkpt><trkpt lat="38.0261303" lon="15.0170547"><ele>843.0</ele><time>2026-05-03T11:45:38.766Z</time></trkpt><trkpt lat="38.026067" lon="15.0170761"><ele>843.0</ele><time>2026-05-03T11:45:39.767Z</time></trkpt><trkpt lat="38.0259903" lon="15.0171026"><ele>843.0</ele><time>2026-05-03T11:45:40.766Z</time></trkpt><trkpt lat="38.0259081" lon="15.0171308"><ele>843.0</ele><time>2026-05-03T11:45:41.766Z</time></trkpt><trkpt lat="38.0258155" lon="15.0171661"><ele>843.0</ele><time>2026-05-03T11:45:42.765Z</time></trkpt><trkpt lat="38.0257204" lon="15.0172087"><ele>843.0</ele><time>2026-05-03T11:45:43.766Z</time></trkpt><trkpt lat="38.0256247" lon="15.0172512"><ele>846.0</ele><time>2026-05-03T11:45:44.767Z</time></trkpt><trkpt lat="38.0255287" lon="15.0172935"><ele>849.0</ele><time>2026-05-03T11:45:45.766Z</time></trkpt><trkpt lat="38.0254397" lon="15.017326"><ele>852.0</ele><time>2026-05-03T11:45:46.766Z</time></trkpt><trkpt lat="38.0253618" lon="15.0173507"><ele>855.0</ele><time>2026-05-03T11:45:47.766Z</time></trkpt><trkpt lat="38.0252884" lon="15.0173496"><ele>858.0</ele><time>2026-05-03T11:45:48.766Z</time></trkpt><trkpt lat="38.025222" lon="15.0173238"><ele>861.0</ele><time>2026-05-03T11:45:49.766Z</time></trkpt><trkpt lat="38.025167" lon="15.0172708"><ele>861.0</ele><time>2026-05-03T11:45:50.766Z</time></trkpt><trkpt lat="38.0251301" lon="15.0171944"><ele>861.0</ele><time>2026-05-03T11:45:51.767Z</time></trkpt><trkpt lat="38.0251084" lon="15.0171027"><ele>861.0</ele><time>2026-05-03T11:45:52.766Z</time></trkpt><trkpt lat="38.0250999" lon="15.0170138"><ele>861.0</ele><time>2026-05-03T11:45:53.767Z</time></trkpt><trkpt lat="38.0250935" lon="15.0169245"><ele>861.0</ele><time>2026-05-03T11:45:54.766Z</time></trkpt><trkpt lat="38.0250818" lon="15.0168296"><ele>861.0</ele><time>2026-05-03T11:45:55.766Z</time></trkpt><trkpt lat="38.0250568" lon="15.0167183"><ele>861.8</ele><time>2026-05-03T11:45:56.766Z</time></trkpt><trkpt lat="38.0250315" lon="15.0165886"><ele>862.5999999999999</ele><time>2026-05-03T11:45:57.766Z</time></trkpt><trkpt lat="38.0250061" lon="15.0164497"><ele>863.4</ele><time>2026-05-03T11:45:58.767Z</time></trkpt><trkpt lat="38.0249704" lon="15.0163161"><ele>864.2</ele><time>2026-05-03T11:45:59.766Z</time></trkpt><trkpt lat="38.02492" lon="15.016205"><ele>865.0</ele><time>2026-05-03T11:46:00.767Z</time></trkpt><trkpt lat="38.0248453" lon="15.0161145"><ele>865.0</ele><time>2026-05-03T11:46:01.767Z</time></trkpt><trkpt lat="38.0247595" lon="15.0160331"><ele>865.0</ele><time>2026-05-03T11:46:02.767Z</time></trkpt><trkpt lat="38.0246662" lon="15.0159456"><ele>865.0</ele><time>2026-05-03T11:46:03.766Z</time></trkpt><trkpt lat="38.0245586" lon="15.0158522"><ele>865.0</ele><time>2026-05-03T11:46:04.766Z</time></trkpt><trkpt lat="38.0244544" lon="15.0157608"><ele>864.2</ele><time>2026-05-03T11:46:05.766Z</time></trkpt><trkpt lat="38.0243655" lon="15.015681"><ele>863.4</ele><time>2026-05-03T11:46:06.766Z</time></trkpt><trkpt lat="38.0243003" lon="15.0155876"><ele>862.5999999999999</ele><time>2026-05-03T11:46:07.766Z</time></trkpt><trkpt lat="38.0242653" lon="15.0154809"><ele>861.8</ele><time>2026-05-03T11:46:08.766Z</time></trkpt><trkpt lat="38.0242328" lon="15.0153707"><ele>861.0</ele><time>2026-05-03T11:46:09.765Z</time></trkpt><trkpt lat="38.0241872" lon="15.0152453"><ele>863.5</ele><time>2026-05-03T11:46:10.766Z</time></trkpt><trkpt lat="38.0241332" lon="15.0151045"><ele>866.0</ele><time>2026-05-03T11:46:11.767Z</time></trkpt><trkpt lat="38.0240746" lon="15.0149463"><ele>868.5</ele><time>2026-05-03T11:46:12.766Z</time></trkpt><trkpt lat="38.0240147" lon="15.014776"><ele>871.0</ele><time>2026-05-03T11:46:13.766Z</time></trkpt><trkpt lat="38.0239539" lon="15.0145972"><ele>871.0</ele><time>2026-05-03T11:46:14.767Z</time></trkpt><trkpt lat="38.0238994" lon="15.0144398"><ele>870.9999999999999</ele><time>2026-05-03T11:46:15.765Z</time></trkpt><trkpt lat="38.0238535" lon="15.0143148"><ele>870.9999999999999</ele><time>2026-05-03T11:46:16.767Z</time></trkpt><trkpt lat="38.0238165" lon="15.0142197"><ele>871.0</ele><time>2026-05-03T11:46:17.766Z</time></trkpt><trkpt lat="38.0238049" lon="15.014075"><ele>871.0</ele><time>2026-05-03T11:46:19.766Z</time></trkpt><trkpt lat="38.0238834" lon="15.0139994"><ele>870.8</ele><time>2026-05-03T11:46:21.767Z</time></trkpt><trkpt lat="38.0239763" lon="15.0139316"><ele>870.5999999999999</ele><time>2026-05-03T11:46:23.767Z</time></trkpt><trkpt lat="38.0240201" lon="15.0138074"><ele>870.4</ele><time>2026-05-03T11:46:25.767Z</time></trkpt><trkpt lat="38.0240171" lon="15.013718"><ele>870.2</ele><time>2026-05-03T11:46:26.766Z</time></trkpt><trkpt lat="38.0240269" lon="15.0136175"><ele>870.0</ele><time>2026-05-03T11:46:27.767Z</time></trkpt><trkpt lat="38.0240691" lon="15.0135211"><ele>870.0</ele><time>2026-05-03T11:46:28.766Z</time></trkpt><trkpt lat="38.0241311" lon="15.0134297"><ele>870.0</ele><time>2026-05-03T11:46:29.766Z</time></trkpt><trkpt lat="38.0242019" lon="15.0133349"><ele>870.0</ele><time>2026-05-03T11:46:30.766Z</time></trkpt><trkpt lat="38.0242793" lon="15.0132359"><ele>870.0</ele><time>2026-05-03T11:46:31.766Z</time></trkpt><trkpt lat="38.0243641" lon="15.0131262"><ele>870.0</ele><time>2026-05-03T11:46:32.767Z</time></trkpt><trkpt lat="38.0244463" lon="15.0130235"><ele>869.0</ele><time>2026-05-03T11:46:33.766Z</time></trkpt><trkpt lat="38.0245233" lon="15.0129293"><ele>868.0</ele><time>2026-05-03T11:46:34.766Z</time></trkpt><trkpt lat="38.0245902" lon="15.0128485"><ele>867.0</ele><time>2026-05-03T11:46:35.766Z</time></trkpt><trkpt lat="38.0246476" lon="15.0127762"><ele>866.0</ele><time>2026-05-03T11:46:36.766Z</time></trkpt><trkpt lat="38.0247055" lon="15.0127032"><ele>865.0</ele><time>2026-05-03T11:46:37.766Z</time></trkpt><trkpt lat="38.0247676" lon="15.0126204"><ele>865.0</ele><time>2026-05-03T11:46:38.766Z</time></trkpt><trkpt lat="38.0248372" lon="15.0125316"><ele>865.0</ele><time>2026-05-03T11:46:39.766Z</time></trkpt><trkpt lat="38.0249125" lon="15.0124328"><ele>865.0</ele><time>2026-05-03T11:46:40.766Z</time></trkpt><trkpt lat="38.0249922" lon="15.0123303"><ele>865.0</ele><time>2026-05-03T11:46:41.767Z</time></trkpt><trkpt lat="38.0250639" lon="15.0122456"><ele>865.0</ele><time>2026-05-03T11:46:42.766Z</time></trkpt><trkpt lat="38.0251261" lon="15.0121738"><ele>863.8</ele><time>2026-05-03T11:46:43.766Z</time></trkpt><trkpt lat="38.0251788" lon="15.0121129"><ele>862.6</ele><time>2026-05-03T11:46:44.766Z</time></trkpt><trkpt lat="38.0252523" lon="15.0120113"><ele>861.4000000000001</ele><time>2026-05-03T11:46:46.766Z</time></trkpt><trkpt lat="38.0253192" lon="15.0119302"><ele>860.2</ele><time>2026-05-03T11:46:48.766Z</time></trkpt><trkpt lat="38.0253975" lon="15.0118218"><ele>859.0</ele><time>2026-05-03T11:46:50.766Z</time></trkpt><trkpt lat="38.025458" lon="15.0117487"><ele>859.0</ele><time>2026-05-03T11:46:51.766Z</time></trkpt><trkpt lat="38.0255278" lon="15.0116746"><ele>859.0000000000001</ele><time>2026-05-03T11:46:52.766Z</time></trkpt><trkpt lat="38.0255853" lon="15.0116104"><ele>859.0000000000001</ele><time>2026-05-03T11:46:53.767Z</time></trkpt><trkpt lat="38.025625" lon="15.011478"><ele>859.0</ele><time>2026-05-03T11:46:55.766Z</time></trkpt><trkpt lat="38.0255672" lon="15.0113509"><ele>859.0</ele><time>2026-05-03T11:46:57.767Z</time></trkpt><trkpt lat="38.0254669" lon="15.0112554"><ele>883.0</ele><time>2026-05-03T11:46:59.766Z</time></trkpt><trkpt lat="38.0253882" lon="15.0112245"><ele>883.0</ele><time>2026-05-03T11:47:00.766Z</time></trkpt><trkpt lat="38.0253233" lon="15.0112251"><ele>883.0</ele><time>2026-05-03T11:47:01.766Z</time></trkpt><trkpt lat="38.0252523" lon="15.011263"><ele>883.0</ele><time>2026-05-03T11:47:03.766Z</time></trkpt><trkpt lat="38.0252366" lon="15.0111749"><ele>883.0</ele><time>2026-05-03T11:48:02.766Z</time></trkpt></trkseg></trk></gpx>